<?xml version='1.0' encoding='UTF-8'?><gpx version="1.1" creator="JPX - https://github.com/jenetics/jpx" xmlns="http://www.topografix.com/GPX/1/1"><trk><trkseg><trkpt lat="39.2034394" lon="8.5979303"><ele>315.0</ele><time>2026-04-25T14:19:24.55Z</time></trkpt><trkpt lat="39.2034455" lon="8.5980618"><ele>315.0</ele><time>2026-04-25T14:19:26.527Z</time></trkpt><trkpt lat="39.2034752" lon="8.5981562"><ele>315.0</ele><time>2026-04-25T14:19:27.545Z</time></trkpt><trkpt lat="39.2035094" lon="8.5982716"><ele>315.0</ele><time>2026-04-25T14:19:28.544Z</time></trkpt><trkpt lat="39.2035353" lon="8.59838"><ele>315.0</ele><time>2026-04-25T14:19:29.573Z</time></trkpt><trkpt lat="39.203567" lon="8.5984645"><ele>315.0</ele><time>2026-04-25T14:19:30.543Z</time></trkpt><trkpt lat="39.20361" lon="8.5985331"><ele>315.0</ele><time>2026-04-25T14:19:31.543Z</time></trkpt><trkpt lat="39.2036729" lon="8.5985861"><ele>315.0</ele><time>2026-04-25T14:19:32.53Z</time></trkpt><trkpt lat="39.2037603" lon="8.598641"><ele>315.0</ele><time>2026-04-25T14:19:33.535Z</time></trkpt><trkpt lat="39.2038471" lon="8.598706"><ele>315.0</ele><time>2026-04-25T14:19:34.542Z</time></trkpt><trkpt lat="39.2039351" lon="8.5987794"><ele>315.0</ele><time>2026-04-25T14:19:35.536Z</time></trkpt><trkpt lat="39.2040146" lon="8.5988734"><ele>315.6666666666667</ele><time>2026-04-25T14:19:36.513Z</time></trkpt><trkpt lat="39.204088" lon="8.5989779"><ele>316.3333333333333</ele><time>2026-04-25T14:19:37.542Z</time></trkpt><trkpt lat="39.2041479" lon="8.5990632"><ele>317.0</ele><time>2026-04-25T14:19:38.538Z</time></trkpt><trkpt lat="39.20421" lon="8.5991251"><ele>317.66666666666663</ele><time>2026-04-25T14:19:39.521Z</time></trkpt><trkpt lat="39.2042735" lon="8.599173"><ele>318.3333333333333</ele><time>2026-04-25T14:19:40.53Z</time></trkpt><trkpt lat="39.2043354" lon="8.5992429"><ele>319.0</ele><time>2026-04-25T14:19:41.543Z</time></trkpt><trkpt lat="39.2043755" lon="8.5993126"><ele>319.0</ele><time>2026-04-25T14:19:42.561Z</time></trkpt><trkpt lat="39.204362" lon="8.5994454"><ele>319.0</ele><time>2026-04-25T14:19:44.53Z</time></trkpt><trkpt lat="39.2042259" lon="8.5995062"><ele>319.0</ele><time>2026-04-25T14:19:46.546Z</time></trkpt><trkpt lat="39.2041187" lon="8.5995206"><ele>319.0</ele><time>2026-04-25T14:19:47.534Z</time></trkpt><trkpt lat="39.2040171" lon="8.5995397"><ele>321.79999999999995</ele><time>2026-04-25T14:19:48.544Z</time></trkpt><trkpt lat="39.2039321" lon="8.5995497"><ele>324.59999999999997</ele><time>2026-04-25T14:19:49.543Z</time></trkpt><trkpt lat="39.2038265" lon="8.5995923"><ele>327.4</ele><time>2026-04-25T14:19:51.537Z</time></trkpt><trkpt lat="39.2037547" lon="8.5996988"><ele>330.2</ele><time>2026-04-25T14:19:53.54Z</time></trkpt><trkpt lat="39.2037256" lon="8.5997984"><ele>333.0</ele><time>2026-04-25T14:19:54.539Z</time></trkpt><trkpt lat="39.2036988" lon="8.5999105"><ele>333.0</ele><time>2026-04-25T14:19:55.578Z</time></trkpt><trkpt lat="39.2036667" lon="8.5999891"><ele>333.0</ele><time>2026-04-25T14:19:56.566Z</time></trkpt><trkpt lat="39.2035738" lon="8.6000504"><ele>333.0</ele><time>2026-04-25T14:19:58.52Z</time></trkpt><trkpt lat="39.2035108" lon="8.6000255"><ele>333.0</ele><time>2026-04-25T14:19:59.532Z</time></trkpt><trkpt lat="39.2034326" lon="8.5999863"><ele>333.0</ele><time>2026-04-25T14:20:00.549Z</time></trkpt><trkpt lat="39.2033554" lon="8.5999505"><ele>333.0</ele><time>2026-04-25T14:20:01.538Z</time></trkpt><trkpt lat="39.2032881" lon="8.5999207"><ele>334.0</ele><time>2026-04-25T14:20:02.52Z</time></trkpt><trkpt lat="39.2031568" lon="8.5999189"><ele>335.0</ele><time>2026-04-25T14:20:04.523Z</time></trkpt><trkpt lat="39.2030787" lon="8.599929"><ele>336.0</ele><time>2026-04-25T14:20:05.533Z</time></trkpt><trkpt lat="39.2029898" lon="8.5999415"><ele>337.0</ele><time>2026-04-25T14:20:06.525Z</time></trkpt><trkpt lat="39.2028818" lon="8.5999501"><ele>338.0</ele><time>2026-04-25T14:20:07.575Z</time></trkpt><trkpt lat="39.20277" lon="8.5999533"><ele>338.0</ele><time>2026-04-25T14:20:08.504Z</time></trkpt><trkpt lat="39.2026906" lon="8.5999691"><ele>338.0</ele><time>2026-04-25T14:20:09.536Z</time></trkpt><trkpt lat="39.2026161" lon="8.6000285"><ele>338.0</ele><time>2026-04-25T14:20:11.543Z</time></trkpt><trkpt lat="39.2025473" lon="8.6001037"><ele>338.0</ele><time>2026-04-25T14:20:13.545Z</time></trkpt><trkpt lat="39.2024666" lon="8.6001708"><ele>338.0</ele><time>2026-04-25T14:20:15.532Z</time></trkpt><trkpt lat="39.2024107" lon="8.6002568"><ele>338.0</ele><time>2026-04-25T14:20:17.547Z</time></trkpt><trkpt lat="39.202366" lon="8.6003574"><ele>336.2</ele><time>2026-04-25T14:20:19.508Z</time></trkpt><trkpt lat="39.2023133" lon="8.6004809"><ele>334.4</ele><time>2026-04-25T14:20:21.535Z</time></trkpt><trkpt lat="39.2022709" lon="8.6006295"><ele>332.59999999999997</ele><time>2026-04-25T14:20:23.547Z</time></trkpt><trkpt lat="39.2022644" lon="8.6007704"><ele>330.79999999999995</ele><time>2026-04-25T14:20:25.551Z</time></trkpt><trkpt lat="39.2022787" lon="8.6008977"><ele>329.0</ele><time>2026-04-25T14:20:27.545Z</time></trkpt><trkpt lat="39.2022879" lon="8.6010365"><ele>329.0</ele><time>2026-04-25T14:20:29.546Z</time></trkpt><trkpt lat="39.2022316" lon="8.6011253"><ele>329.0</ele><time>2026-04-25T14:20:31.543Z</time></trkpt><trkpt lat="39.2021327" lon="8.6011593"><ele>329.0</ele><time>2026-04-25T14:20:33.538Z</time></trkpt><trkpt lat="39.2020386" lon="8.6012374"><ele>329.0</ele><time>2026-04-25T14:20:35.539Z</time></trkpt><trkpt lat="39.2019401" lon="8.6013309"><ele>329.0</ele><time>2026-04-25T14:20:37.553Z</time></trkpt><trkpt lat="39.2018944" lon="8.6013888"><ele>325.6666666666667</ele><time>2026-04-25T14:20:38.541Z</time></trkpt><trkpt lat="39.2018456" lon="8.6014592"><ele>322.33333333333337</ele><time>2026-04-25T14:20:39.507Z</time></trkpt><trkpt lat="39.2017986" lon="8.6015256"><ele>319.0</ele><time>2026-04-25T14:20:40.531Z</time></trkpt><trkpt lat="39.201748" lon="8.6015776"><ele>315.6666666666667</ele><time>2026-04-25T14:20:41.535Z</time></trkpt><trkpt lat="39.2016808" lon="8.6016465"><ele>312.3333333333333</ele><time>2026-04-25T14:20:42.541Z</time></trkpt><trkpt lat="39.2016074" lon="8.6017273"><ele>309.0</ele><time>2026-04-25T14:20:43.533Z</time></trkpt><trkpt lat="39.2015311" lon="8.6018216"><ele>308.4</ele><time>2026-04-25T14:20:44.541Z</time></trkpt><trkpt lat="39.2014585" lon="8.6019103"><ele>307.79999999999995</ele><time>2026-04-25T14:20:45.557Z</time></trkpt><trkpt lat="39.2013897" lon="8.6020062"><ele>307.20000000000005</ele><time>2026-04-25T14:20:46.549Z</time></trkpt><trkpt lat="39.2013256" lon="8.602114"><ele>306.6</ele><time>2026-04-25T14:20:47.549Z</time></trkpt><trkpt lat="39.2012565" lon="8.6022147"><ele>306.0</ele><time>2026-04-25T14:20:48.524Z</time></trkpt><trkpt lat="39.2012014" lon="8.6023075"><ele>306.0</ele><time>2026-04-25T14:20:49.547Z</time></trkpt><trkpt lat="39.2011527" lon="8.6024051"><ele>306.0</ele><time>2026-04-25T14:20:50.546Z</time></trkpt><trkpt lat="39.2010986" lon="8.6024937"><ele>306.0</ele><time>2026-04-25T14:20:51.535Z</time></trkpt><trkpt lat="39.2010389" lon="8.6025765"><ele>306.0</ele><time>2026-04-25T14:20:52.512Z</time></trkpt><trkpt lat="39.2009847" lon="8.6026619"><ele>306.0</ele><time>2026-04-25T14:20:53.572Z</time></trkpt><trkpt lat="39.2009448" lon="8.6027387"><ele>306.0</ele><time>2026-04-25T14:20:54.563Z</time></trkpt><trkpt lat="39.2008948" lon="8.6028894"><ele>306.3333333333333</ele><time>2026-04-25T14:20:56.504Z</time></trkpt><trkpt lat="39.2008652" lon="8.6029749"><ele>306.6666666666667</ele><time>2026-04-25T14:20:57.498Z</time></trkpt><trkpt lat="39.2008351" lon="8.6030682"><ele>307.0</ele><time>2026-04-25T14:20:58.494Z</time></trkpt><trkpt lat="39.2007856" lon="8.6031439"><ele>307.33333333333337</ele><time>2026-04-25T14:20:59.49Z</time></trkpt><trkpt lat="39.2007241" lon="8.6032022"><ele>307.6666666666667</ele><time>2026-04-25T14:21:00.489Z</time></trkpt><trkpt lat="39.2006614" lon="8.6032582"><ele>308.0</ele><time>2026-04-25T14:21:01.496Z</time></trkpt><trkpt lat="39.2006042" lon="8.6033121"><ele>308.0</ele><time>2026-04-25T14:21:02.487Z</time></trkpt><trkpt lat="39.2005631" lon="8.6033769"><ele>308.0</ele><time>2026-04-25T14:21:03.485Z</time></trkpt><trkpt lat="39.2005143" lon="8.603453"><ele>308.0</ele><time>2026-04-25T14:21:04.5Z</time></trkpt><trkpt lat="39.2004662" lon="8.6035265"><ele>308.0</ele><time>2026-04-25T14:21:05.485Z</time></trkpt><trkpt lat="39.2004269" lon="8.6035919"><ele>308.0</ele><time>2026-04-25T14:21:06.485Z</time></trkpt><trkpt lat="39.2003969" lon="8.6036706"><ele>308.0</ele><time>2026-04-25T14:21:07.486Z</time></trkpt><trkpt lat="39.2003808" lon="8.6037525"><ele>308.0</ele><time>2026-04-25T14:21:08.492Z</time></trkpt><trkpt lat="39.2003747" lon="8.6038366"><ele>304.6</ele><time>2026-04-25T14:21:09.483Z</time></trkpt><trkpt lat="39.2003494" lon="8.6039114"><ele>301.20000000000005</ele><time>2026-04-25T14:21:10.484Z</time></trkpt><trkpt lat="39.2002956" lon="8.604003"><ele>297.8</ele><time>2026-04-25T14:21:11.493Z</time></trkpt><trkpt lat="39.2002296" lon="8.6041133"><ele>294.40000000000003</ele><time>2026-04-25T14:21:12.481Z</time></trkpt><trkpt lat="39.2001667" lon="8.6042388"><ele>291.0</ele><time>2026-04-25T14:21:13.483Z</time></trkpt><trkpt lat="39.2000994" lon="8.6043543"><ele>291.0</ele><time>2026-04-25T14:21:14.486Z</time></trkpt><trkpt lat="39.2000308" lon="8.6044626"><ele>291.0</ele><time>2026-04-25T14:21:15.548Z</time></trkpt><trkpt lat="39.1999549" lon="8.6045679"><ele>291.0</ele><time>2026-04-25T14:21:16.501Z</time></trkpt><trkpt lat="39.1998712" lon="8.604657"><ele>291.0</ele><time>2026-04-25T14:21:17.519Z</time></trkpt><trkpt lat="39.1997899" lon="8.6047376"><ele>291.0</ele><time>2026-04-25T14:21:18.554Z</time></trkpt><trkpt lat="39.1997044" lon="8.6048166"><ele>291.75</ele><time>2026-04-25T14:21:19.484Z</time></trkpt><trkpt lat="39.199627" lon="8.6048983"><ele>292.5</ele><time>2026-04-25T14:21:20.543Z</time></trkpt><trkpt lat="39.199555" lon="8.6049959"><ele>293.25</ele><time>2026-04-25T14:21:21.503Z</time></trkpt><trkpt lat="39.19949" lon="8.6051169"><ele>294.0</ele><time>2026-04-25T14:21:22.551Z</time></trkpt><trkpt lat="39.1994126" lon="8.6052536"><ele>292.75</ele><time>2026-04-25T14:21:23.548Z</time></trkpt><trkpt lat="39.1993483" lon="8.6054039"><ele>291.5</ele><time>2026-04-25T14:21:24.567Z</time></trkpt><trkpt lat="39.1992893" lon="8.6055546"><ele>290.25</ele><time>2026-04-25T14:21:25.537Z</time></trkpt><trkpt lat="39.1992515" lon="8.6056998"><ele>289.0</ele><time>2026-04-25T14:21:26.527Z</time></trkpt><trkpt lat="39.1992132" lon="8.6058429"><ele>289.0</ele><time>2026-04-25T14:21:27.571Z</time></trkpt><trkpt lat="39.1991811" lon="8.6059789"><ele>289.0</ele><time>2026-04-25T14:21:28.562Z</time></trkpt><trkpt lat="39.1991478" lon="8.6061152"><ele>289.0</ele><time>2026-04-25T14:21:29.506Z</time></trkpt><trkpt lat="39.1991094" lon="8.606235"><ele>289.0</ele><time>2026-04-25T14:21:30.566Z</time></trkpt><trkpt lat="39.1990619" lon="8.6063342"><ele>289.0</ele><time>2026-04-25T14:21:31.571Z</time></trkpt><trkpt lat="39.1990191" lon="8.6064298"><ele>289.0</ele><time>2026-04-25T14:21:32.555Z</time></trkpt><trkpt lat="39.1989531" lon="8.6065129"><ele>289.0</ele><time>2026-04-25T14:21:33.562Z</time></trkpt><trkpt lat="39.1988754" lon="8.6065841"><ele>289.0</ele><time>2026-04-25T14:21:34.548Z</time></trkpt><trkpt lat="39.1987794" lon="8.60666"><ele>289.0</ele><time>2026-04-25T14:21:35.556Z</time></trkpt><trkpt lat="39.1986879" lon="8.6067429"><ele>289.0</ele><time>2026-04-25T14:21:36.564Z</time></trkpt><trkpt lat="39.1985952" lon="8.6068387"><ele>289.0</ele><time>2026-04-25T14:21:37.562Z</time></trkpt><trkpt lat="39.1985029" lon="8.6069246"><ele>289.0</ele><time>2026-04-25T14:21:38.553Z</time></trkpt><trkpt lat="39.1984058" lon="8.6069977"><ele>289.0</ele><time>2026-04-25T14:21:39.549Z</time></trkpt><trkpt lat="39.1983095" lon="8.6070611"><ele>289.0</ele><time>2026-04-25T14:21:40.552Z</time></trkpt><trkpt lat="39.1982067" lon="8.6071195"><ele>289.0</ele><time>2026-04-25T14:21:41.552Z</time></trkpt><trkpt lat="39.1981067" lon="8.6071806"><ele>288.4</ele><time>2026-04-25T14:21:42.563Z</time></trkpt><trkpt lat="39.1980096" lon="8.6072398"><ele>287.79999999999995</ele><time>2026-04-25T14:21:43.547Z</time></trkpt><trkpt lat="39.1979225" lon="8.607303"><ele>287.20000000000005</ele><time>2026-04-25T14:21:44.565Z</time></trkpt><trkpt lat="39.1978407" lon="8.6073596"><ele>286.6</ele><time>2026-04-25T14:21:45.563Z</time></trkpt><trkpt lat="39.1977592" lon="8.6074082"><ele>286.0</ele><time>2026-04-25T14:21:46.553Z</time></trkpt><trkpt lat="39.1976805" lon="8.6074613"><ele>286.0</ele><time>2026-04-25T14:21:47.558Z</time></trkpt><trkpt lat="39.1976101" lon="8.6075156"><ele>286.0</ele><time>2026-04-25T14:21:48.55Z</time></trkpt><trkpt lat="39.1975418" lon="8.6075765"><ele>286.0</ele><time>2026-04-25T14:21:49.574Z</time></trkpt><trkpt lat="39.1974871" lon="8.6076531"><ele>286.0</ele><time>2026-04-25T14:21:50.554Z</time></trkpt><trkpt lat="39.1974429" lon="8.6077755"><ele>286.0</ele><time>2026-04-25T14:21:51.56Z</time></trkpt><trkpt lat="39.1973992" lon="8.6079022"><ele>285.66666666666663</ele><time>2026-04-25T14:21:52.539Z</time></trkpt><trkpt lat="39.1973491" lon="8.6080188"><ele>285.3333333333333</ele><time>2026-04-25T14:21:53.546Z</time></trkpt><trkpt lat="39.1972964" lon="8.6081135"><ele>285.0</ele><time>2026-04-25T14:21:54.51Z</time></trkpt><trkpt lat="39.1972479" lon="8.6082179"><ele>284.6666666666667</ele><time>2026-04-25T14:21:55.555Z</time></trkpt><trkpt lat="39.1971945" lon="8.6082955"><ele>284.33333333333337</ele><time>2026-04-25T14:21:56.562Z</time></trkpt><trkpt lat="39.1971278" lon="8.6083442"><ele>284.0</ele><time>2026-04-25T14:21:57.557Z</time></trkpt><trkpt lat="39.1970477" lon="8.6083782"><ele>284.0</ele><time>2026-04-25T14:21:58.554Z</time></trkpt><trkpt lat="39.1969668" lon="8.6084238"><ele>284.0</ele><time>2026-04-25T14:21:59.55Z</time></trkpt><trkpt lat="39.1968929" lon="8.6084974"><ele>284.0</ele><time>2026-04-25T14:22:00.546Z</time></trkpt><trkpt lat="39.1968112" lon="8.6085983"><ele>284.0</ele><time>2026-04-25T14:22:01.541Z</time></trkpt><trkpt lat="39.1967343" lon="8.6086962"><ele>284.0</ele><time>2026-04-25T14:22:02.521Z</time></trkpt><trkpt lat="39.1966546" lon="8.6087889"><ele>284.0</ele><time>2026-04-25T14:22:03.544Z</time></trkpt><trkpt lat="39.1965865" lon="8.608863"><ele>284.0</ele><time>2026-04-25T14:22:04.549Z</time></trkpt><trkpt lat="39.1965294" lon="8.6089407"><ele>284.0</ele><time>2026-04-25T14:22:05.564Z</time></trkpt><trkpt lat="39.1964775" lon="8.609031"><ele>284.0</ele><time>2026-04-25T14:22:06.55Z</time></trkpt><trkpt lat="39.1964323" lon="8.6091246"><ele>284.0</ele><time>2026-04-25T14:22:07.548Z</time></trkpt><trkpt lat="39.1963947" lon="8.6092116"><ele>284.0</ele><time>2026-04-25T14:22:08.561Z</time></trkpt><trkpt lat="39.196321" lon="8.6093491"><ele>286.4</ele><time>2026-04-25T14:22:10.567Z</time></trkpt><trkpt lat="39.1962735" lon="8.6094282"><ele>288.79999999999995</ele><time>2026-04-25T14:22:11.565Z</time></trkpt><trkpt lat="39.1962079" lon="8.6095153"><ele>291.20000000000005</ele><time>2026-04-25T14:22:12.538Z</time></trkpt><trkpt lat="39.1961283" lon="8.6096129"><ele>293.6</ele><time>2026-04-25T14:22:13.555Z</time></trkpt><trkpt lat="39.1960419" lon="8.6097076"><ele>296.0</ele><time>2026-04-25T14:22:14.547Z</time></trkpt><trkpt lat="39.195952" lon="8.609796"><ele>296.0</ele><time>2026-04-25T14:22:15.556Z</time></trkpt><trkpt lat="39.1958751" lon="8.6098695"><ele>296.0</ele><time>2026-04-25T14:22:16.539Z</time></trkpt><trkpt lat="39.1958163" lon="8.6099098"><ele>296.0</ele><time>2026-04-25T14:22:17.544Z</time></trkpt><trkpt lat="39.1957477" lon="8.6099742"><ele>296.0</ele><time>2026-04-25T14:22:19.561Z</time></trkpt><trkpt lat="39.1957424" lon="8.6098762"><ele>296.0</ele><time>2026-04-25T14:24:12.517Z</time></trkpt><trkpt lat="39.1957345" lon="8.6097871"><ele>296.0</ele><time>2026-04-25T14:24:13.536Z</time></trkpt><trkpt lat="39.1957285" lon="8.6097045"><ele>296.0</ele><time>2026-04-25T14:24:14.528Z</time></trkpt><trkpt lat="39.1957184" lon="8.6096234"><ele>296.0</ele><time>2026-04-25T14:24:15.529Z</time></trkpt><trkpt lat="39.1957021" lon="8.6095444"><ele>296.0</ele><time>2026-04-25T14:24:16.514Z</time></trkpt><trkpt lat="39.195661" lon="8.6094067"><ele>296.0</ele><time>2026-04-25T14:24:18.519Z</time></trkpt><trkpt lat="39.1956346" lon="8.6092923"><ele>296.0</ele><time>2026-04-25T14:24:20.518Z</time></trkpt><trkpt lat="39.195609" lon="8.6092033"><ele>296.0</ele><time>2026-04-25T14:24:22.538Z</time></trkpt><trkpt lat="39.1955625" lon="8.6091064"><ele>296.0</ele><time>2026-04-25T14:24:24.514Z</time></trkpt><trkpt lat="39.1954989" lon="8.6089712"><ele>296.0</ele><time>2026-04-25T14:24:26.523Z</time></trkpt><trkpt lat="39.1954941" lon="8.6088524"><ele>296.0</ele><time>2026-04-25T14:24:28.516Z</time></trkpt><trkpt lat="39.195555" lon="8.6087434"><ele>296.0</ele><time>2026-04-25T14:24:30.52Z</time></trkpt><trkpt lat="39.1956446" lon="8.6086634"><ele>296.0</ele><time>2026-04-25T14:24:32.51Z</time></trkpt><trkpt lat="39.195669" lon="8.6085645"><ele>299.0</ele><time>2026-04-25T14:24:34.511Z</time></trkpt><trkpt lat="39.1956472" lon="8.6084343"><ele>302.0</ele><time>2026-04-25T14:24:36.506Z</time></trkpt><trkpt lat="39.1956295" lon="8.6082727"><ele>305.0</ele><time>2026-04-25T14:24:38.522Z</time></trkpt><trkpt lat="39.1955971" lon="8.6081788"><ele>308.0</ele><time>2026-04-25T14:24:39.514Z</time></trkpt><trkpt lat="39.195566" lon="8.6080891"><ele>311.0</ele><time>2026-04-25T14:24:40.52Z</time></trkpt><trkpt lat="39.1955438" lon="8.6080001"><ele>311.0</ele><time>2026-04-25T14:24:41.541Z</time></trkpt><trkpt lat="39.1955257" lon="8.6078943"><ele>311.0</ele><time>2026-04-25T14:24:42.529Z</time></trkpt><trkpt lat="39.1955108" lon="8.6077928"><ele>311.0</ele><time>2026-04-25T14:24:43.523Z</time></trkpt><trkpt lat="39.1954937" lon="8.6077119"><ele>311.0</ele><time>2026-04-25T14:24:44.525Z</time></trkpt><trkpt lat="39.1954627" lon="8.6075828"><ele>311.0</ele><time>2026-04-25T14:24:46.518Z</time></trkpt><trkpt lat="39.1954015" lon="8.6074734"><ele>311.0</ele><time>2026-04-25T14:24:48.568Z</time></trkpt><trkpt lat="39.1953567" lon="8.6074021"><ele>313.1666666666667</ele><time>2026-04-25T14:24:49.529Z</time></trkpt><trkpt lat="39.1953154" lon="8.6073041"><ele>315.33333333333337</ele><time>2026-04-25T14:24:50.525Z</time></trkpt><trkpt lat="39.1952802" lon="8.6072091"><ele>317.5</ele><time>2026-04-25T14:24:51.511Z</time></trkpt><trkpt lat="39.1952398" lon="8.6071215"><ele>319.6666666666667</ele><time>2026-04-25T14:24:52.514Z</time></trkpt><trkpt lat="39.1951951" lon="8.6070494"><ele>321.8333333333333</ele><time>2026-04-25T14:24:53.508Z</time></trkpt><trkpt lat="39.19515" lon="8.606976"><ele>324.0</ele><time>2026-04-25T14:24:54.51Z</time></trkpt><trkpt lat="39.1950979" lon="8.6068344"><ele>324.4</ele><time>2026-04-25T14:24:56.509Z</time></trkpt><trkpt lat="39.1950498" lon="8.6067109"><ele>324.79999999999995</ele><time>2026-04-25T14:24:58.504Z</time></trkpt><trkpt lat="39.1950098" lon="8.6065738"><ele>325.20000000000005</ele><time>2026-04-25T14:25:00.497Z</time></trkpt><trkpt lat="39.1949755" lon="8.6064564"><ele>325.6</ele><time>2026-04-25T14:25:02.495Z</time></trkpt><trkpt lat="39.1949446" lon="8.6063561"><ele>326.0</ele><time>2026-04-25T14:25:04.511Z</time></trkpt><trkpt lat="39.1948952" lon="8.6062706"><ele>326.0</ele><time>2026-04-25T14:25:06.529Z</time></trkpt><trkpt lat="39.1948424" lon="8.6061864"><ele>326.0</ele><time>2026-04-25T14:25:08.505Z</time></trkpt><trkpt lat="39.1947838" lon="8.6061319"><ele>326.0</ele><time>2026-04-25T14:25:10.502Z</time></trkpt><trkpt lat="39.1947594" lon="8.606053"><ele>326.0</ele><time>2026-04-25T14:25:12.511Z</time></trkpt><trkpt lat="39.1947446" lon="8.6059735"><ele>326.0</ele><time>2026-04-25T14:25:16.503Z</time></trkpt><trkpt lat="39.1946841" lon="8.6059274"><ele>326.0</ele><time>2026-04-25T14:25:19.498Z</time></trkpt><trkpt lat="39.1946124" lon="8.6058406"><ele>324.33333333333337</ele><time>2026-04-25T14:25:21.499Z</time></trkpt><trkpt lat="39.1945483" lon="8.6057684"><ele>322.6666666666667</ele><time>2026-04-25T14:25:23.54Z</time></trkpt><trkpt lat="39.1944707" lon="8.605658"><ele>321.0</ele><time>2026-04-25T14:25:25.501Z</time></trkpt><trkpt lat="39.1944213" lon="8.6055967"><ele>319.3333333333333</ele><time>2026-04-25T14:25:26.552Z</time></trkpt><trkpt lat="39.1943753" lon="8.6055373"><ele>317.66666666666663</ele><time>2026-04-25T14:25:27.504Z</time></trkpt><trkpt lat="39.1943329" lon="8.6054772"><ele>316.0</ele><time>2026-04-25T14:25:28.507Z</time></trkpt><trkpt lat="39.1942816" lon="8.6053547"><ele>315.40000000000003</ele><time>2026-04-25T14:25:30.511Z</time></trkpt><trkpt lat="39.1942952" lon="8.6052275"><ele>314.8</ele><time>2026-04-25T14:25:32.512Z</time></trkpt><trkpt lat="39.1943298" lon="8.6050952"><ele>314.20000000000005</ele><time>2026-04-25T14:25:34.507Z</time></trkpt><trkpt lat="39.1943236" lon="8.6050013"><ele>313.6</ele><time>2026-04-25T14:25:42.505Z</time></trkpt><trkpt lat="39.1943871" lon="8.6049412"><ele>313.0</ele><time>2026-04-25T14:25:44.514Z</time></trkpt><trkpt lat="39.1944837" lon="8.6048744"><ele>313.0</ele><time>2026-04-25T14:25:46.511Z</time></trkpt><trkpt lat="39.1945566" lon="8.6047863"><ele>313.0</ele><time>2026-04-25T14:25:48.512Z</time></trkpt><trkpt lat="39.1946108" lon="8.6047163"><ele>313.0</ele><time>2026-04-25T14:25:50.504Z</time></trkpt><trkpt lat="39.1946513" lon="8.6046341"><ele>313.0</ele><time>2026-04-25T14:25:52.513Z</time></trkpt><trkpt lat="39.194656" lon="8.6045171"><ele>313.0</ele><time>2026-04-25T14:25:54.506Z</time></trkpt><trkpt lat="39.1946622" lon="8.6043756"><ele>313.66666666666663</ele><time>2026-04-25T14:25:56.512Z</time></trkpt><trkpt lat="39.1947005" lon="8.6042829"><ele>314.3333333333333</ele><time>2026-04-25T14:25:58.506Z</time></trkpt><trkpt lat="39.1947742" lon="8.6042499"><ele>315.0</ele><time>2026-04-25T14:26:05.504Z</time></trkpt><trkpt lat="39.194848" lon="8.6042395"><ele>315.6666666666667</ele><time>2026-04-25T14:26:10.503Z</time></trkpt><trkpt lat="39.1949259" lon="8.6042523"><ele>316.33333333333337</ele><time>2026-04-25T14:26:14.508Z</time></trkpt><trkpt lat="39.1949849" lon="8.6042156"><ele>317.0</ele><time>2026-04-25T14:26:16.505Z</time></trkpt><trkpt lat="39.1950532" lon="8.6041764"><ele>314.0</ele><time>2026-04-25T14:26:18.507Z</time></trkpt><trkpt lat="39.1951234" lon="8.6041314"><ele>311.0</ele><time>2026-04-25T14:26:20.505Z</time></trkpt><trkpt lat="39.1951858" lon="8.6040995"><ele>308.0</ele><time>2026-04-25T14:26:21.5Z</time></trkpt><trkpt lat="39.1952821" lon="8.6040021"><ele>305.0</ele><time>2026-04-25T14:26:23.512Z</time></trkpt><trkpt lat="39.1953585" lon="8.603909"><ele>302.0</ele><time>2026-04-25T14:26:25.501Z</time></trkpt><trkpt lat="39.1954217" lon="8.6038193"><ele>302.0</ele><time>2026-04-25T14:26:27.505Z</time></trkpt><trkpt lat="39.1954782" lon="8.6037167"><ele>302.0</ele><time>2026-04-25T14:26:29.5Z</time></trkpt><trkpt lat="39.1955548" lon="8.6036005"><ele>302.0</ele><time>2026-04-25T14:26:31.498Z</time></trkpt><trkpt lat="39.1955927" lon="8.6034852"><ele>302.0</ele><time>2026-04-25T14:26:33.496Z</time></trkpt><trkpt lat="39.1955989" lon="8.6033429"><ele>302.0</ele><time>2026-04-25T14:26:35.501Z</time></trkpt><trkpt lat="39.1956232" lon="8.6032205"><ele>301.4</ele><time>2026-04-25T14:26:37.505Z</time></trkpt><trkpt lat="39.19565" lon="8.603092"><ele>300.79999999999995</ele><time>2026-04-25T14:26:39.499Z</time></trkpt><trkpt lat="39.1956745" lon="8.6029762"><ele>300.2</ele><time>2026-04-25T14:26:41.503Z</time></trkpt><trkpt lat="39.1956675" lon="8.6028538"><ele>299.59999999999997</ele><time>2026-04-25T14:26:43.493Z</time></trkpt><trkpt lat="39.1956579" lon="8.6027403"><ele>299.0</ele><time>2026-04-25T14:26:45.507Z</time></trkpt><trkpt lat="39.195703" lon="8.6026551"><ele>295.83333333333337</ele><time>2026-04-25T14:26:48.533Z</time></trkpt><trkpt lat="39.1957049" lon="8.6025331"><ele>292.6666666666667</ele><time>2026-04-25T14:26:51.505Z</time></trkpt><trkpt lat="39.1957108" lon="8.6024375"><ele>289.5</ele><time>2026-04-25T14:26:53.497Z</time></trkpt><trkpt lat="39.1957344" lon="8.6023427"><ele>286.3333333333333</ele><time>2026-04-25T14:26:56.48Z</time></trkpt><trkpt lat="39.19576" lon="8.6022564"><ele>283.16666666666663</ele><time>2026-04-25T14:26:59.495Z</time></trkpt><trkpt lat="39.195759" lon="8.6021678"><ele>280.0</ele><time>2026-04-25T14:27:02.492Z</time></trkpt><trkpt lat="39.195759" lon="8.602049"><ele>277.5</ele><time>2026-04-25T14:27:05.489Z</time></trkpt><trkpt lat="39.195761" lon="8.6019645"><ele>275.0</ele><time>2026-04-25T14:27:07.497Z</time></trkpt><trkpt lat="39.1957647" lon="8.6018708"><ele>272.5</ele><time>2026-04-25T14:27:09.495Z</time></trkpt><trkpt lat="39.1957774" lon="8.6017847"><ele>270.0</ele><time>2026-04-25T14:27:11.496Z</time></trkpt><trkpt lat="39.1958029" lon="8.6016934"><ele>267.5</ele><time>2026-04-25T14:27:13.487Z</time></trkpt><trkpt lat="39.1958323" lon="8.6015716"><ele>265.0</ele><time>2026-04-25T14:27:15.486Z</time></trkpt><trkpt lat="39.1958224" lon="8.601458"><ele>265.0</ele><time>2026-04-25T14:27:17.489Z</time></trkpt><trkpt lat="39.1957375" lon="8.6014097"><ele>265.0</ele><time>2026-04-25T14:27:19.491Z</time></trkpt><trkpt lat="39.1956346" lon="8.6013429"><ele>265.0</ele><time>2026-04-25T14:27:21.481Z</time></trkpt><trkpt lat="39.1955536" lon="8.6012608"><ele>265.0</ele><time>2026-04-25T14:27:23.487Z</time></trkpt><trkpt lat="39.1954619" lon="8.6011605"><ele>265.0</ele><time>2026-04-25T14:27:25.487Z</time></trkpt><trkpt lat="39.1953746" lon="8.6010876"><ele>262.66666666666663</ele><time>2026-04-25T14:27:27.49Z</time></trkpt><trkpt lat="39.1953549" lon="8.6009802"><ele>260.3333333333333</ele><time>2026-04-25T14:27:29.488Z</time></trkpt><trkpt lat="39.1953688" lon="8.6008977"><ele>258.0</ele><time>2026-04-25T14:27:30.487Z</time></trkpt><trkpt lat="39.1954064" lon="8.6007916"><ele>255.66666666666669</ele><time>2026-04-25T14:27:32.496Z</time></trkpt><trkpt lat="39.1955022" lon="8.6007005"><ele>253.33333333333334</ele><time>2026-04-25T14:27:34.503Z</time></trkpt><trkpt lat="39.1955379" lon="8.6006019"><ele>251.0</ele><time>2026-04-25T14:27:36.486Z</time></trkpt><trkpt lat="39.1954845" lon="8.600558"><ele>251.00000000000003</ele><time>2026-04-25T14:27:39.493Z</time></trkpt><trkpt lat="39.1954008" lon="8.6006206"><ele>251.0</ele><time>2026-04-25T14:27:42.496Z</time></trkpt><trkpt lat="39.1953429" lon="8.6006814"><ele>251.0</ele><time>2026-04-25T14:27:44.494Z</time></trkpt><trkpt lat="39.1952727" lon="8.6007288"><ele>251.0</ele><time>2026-04-25T14:27:46.49Z</time></trkpt><trkpt lat="39.1951973" lon="8.6007411"><ele>251.00000000000003</ele><time>2026-04-25T14:27:48.491Z</time></trkpt><trkpt lat="39.1951477" lon="8.6008079"><ele>251.0</ele><time>2026-04-25T14:29:49.501Z</time></trkpt><trkpt lat="39.1951053" lon="8.6008713"><ele>251.00000000000003</ele><time>2026-04-25T14:29:58.508Z</time></trkpt><trkpt lat="39.1950284" lon="8.6009332"><ele>251.0</ele><time>2026-04-25T14:30:01.505Z</time></trkpt><trkpt lat="39.194971" lon="8.6009749"><ele>251.0</ele><time>2026-04-25T14:30:03.489Z</time></trkpt><trkpt lat="39.1949112" lon="8.60102"><ele>251.0</ele><time>2026-04-25T14:30:05.503Z</time></trkpt><trkpt lat="39.1948211" lon="8.6010422"><ele>251.00000000000003</ele><time>2026-04-25T14:30:07.501Z</time></trkpt><trkpt lat="39.1947076" lon="8.6010342"><ele>251.0</ele><time>2026-04-25T14:30:09.5Z</time></trkpt><trkpt lat="39.1945954" lon="8.6010484"><ele>251.57142857142856</ele><time>2026-04-25T14:30:11.495Z</time></trkpt><trkpt lat="39.1945287" lon="8.6010469"><ele>252.14285714285714</ele><time>2026-04-25T14:30:12.503Z</time></trkpt><trkpt lat="39.1944523" lon="8.601041"><ele>252.71428571428572</ele><time>2026-04-25T14:30:13.492Z</time></trkpt><trkpt lat="39.1943828" lon="8.6010389"><ele>253.28571428571428</ele><time>2026-04-25T14:30:14.493Z</time></trkpt><trkpt lat="39.1943074" lon="8.6010585"><ele>253.8571428571429</ele><time>2026-04-25T14:30:15.49Z</time></trkpt><trkpt lat="39.1942353" lon="8.6010805"><ele>254.42857142857144</ele><time>2026-04-25T14:30:16.495Z</time></trkpt><trkpt lat="39.194159" lon="8.6011097"><ele>255.0</ele><time>2026-04-25T14:30:17.501Z</time></trkpt><trkpt lat="39.1940829" lon="8.6011507"><ele>255.33333333333334</ele><time>2026-04-25T14:30:18.489Z</time></trkpt><trkpt lat="39.194016" lon="8.6012068"><ele>255.66666666666669</ele><time>2026-04-25T14:30:19.499Z</time></trkpt><trkpt lat="39.1939628" lon="8.6012507"><ele>256.0</ele><time>2026-04-25T14:30:20.491Z</time></trkpt><trkpt lat="39.1938636" lon="8.6013173"><ele>256.33333333333337</ele><time>2026-04-25T14:30:22.486Z</time></trkpt><trkpt lat="39.1938174" lon="8.6013773"><ele>256.6666666666667</ele><time>2026-04-25T14:30:23.492Z</time></trkpt><trkpt lat="39.1937146" lon="8.601476"><ele>257.0</ele><time>2026-04-25T14:30:25.499Z</time></trkpt><trkpt lat="39.1936212" lon="8.6015408"><ele>255.0</ele><time>2026-04-25T14:30:27.491Z</time></trkpt><trkpt lat="39.1935305" lon="8.6015993"><ele>253.0</ele><time>2026-04-25T14:30:29.486Z</time></trkpt><trkpt lat="39.1934219" lon="8.6016372"><ele>251.0</ele><time>2026-04-25T14:30:31.486Z</time></trkpt><trkpt lat="39.1933565" lon="8.6016684"><ele>249.0</ele><time>2026-04-25T14:30:32.493Z</time></trkpt><trkpt lat="39.1933013" lon="8.6017147"><ele>247.0</ele><time>2026-04-25T14:30:33.484Z</time></trkpt><trkpt lat="39.1931933" lon="8.6017695"><ele>246.8</ele><time>2026-04-25T14:30:35.493Z</time></trkpt><trkpt lat="39.1931052" lon="8.6018146"><ele>246.6</ele><time>2026-04-25T14:30:37.49Z</time></trkpt><trkpt lat="39.1930225" lon="8.6018907"><ele>246.40000000000003</ele><time>2026-04-25T14:30:39.486Z</time></trkpt><trkpt lat="39.1929265" lon="8.6019694"><ele>246.20000000000002</ele><time>2026-04-25T14:30:41.48Z</time></trkpt><trkpt lat="39.1928138" lon="8.6020218"><ele>246.0</ele><time>2026-04-25T14:30:43.49Z</time></trkpt><trkpt lat="39.1926797" lon="8.6019738"><ele>244.8</ele><time>2026-04-25T14:30:45.48Z</time></trkpt><trkpt lat="39.1926076" lon="8.6019487"><ele>243.60000000000002</ele><time>2026-04-25T14:30:46.483Z</time></trkpt><trkpt lat="39.1925445" lon="8.6019322"><ele>242.4</ele><time>2026-04-25T14:30:47.53Z</time></trkpt><trkpt lat="39.1924495" lon="8.6019594"><ele>241.2</ele><time>2026-04-25T14:30:49.492Z</time></trkpt><trkpt lat="39.192351" lon="8.6019975"><ele>240.0</ele><time>2026-04-25T14:30:51.489Z</time></trkpt><trkpt lat="39.1922365" lon="8.6020282"><ele>239.16666666666666</ele><time>2026-04-25T14:30:53.486Z</time></trkpt><trkpt lat="39.1921632" lon="8.6020532"><ele>238.33333333333331</ele><time>2026-04-25T14:30:54.487Z</time></trkpt><trkpt lat="39.1920908" lon="8.6020607"><ele>237.5</ele><time>2026-04-25T14:30:55.485Z</time></trkpt><trkpt lat="39.1919646" lon="8.6020948"><ele>236.66666666666666</ele><time>2026-04-25T14:30:57.479Z</time></trkpt><trkpt lat="39.1919007" lon="8.6021206"><ele>235.83333333333331</ele><time>2026-04-25T14:30:58.487Z</time></trkpt><trkpt lat="39.1918376" lon="8.6021475"><ele>235.0</ele><time>2026-04-25T14:30:59.499Z</time></trkpt><trkpt lat="39.1917459" lon="8.602229"><ele>235.0</ele><time>2026-04-25T14:31:01.482Z</time></trkpt><trkpt lat="39.1916519" lon="8.6022886"><ele>235.0</ele><time>2026-04-25T14:31:03.486Z</time></trkpt><trkpt lat="39.1915486" lon="8.602297"><ele>235.0</ele><time>2026-04-25T14:31:05.52Z</time></trkpt><trkpt lat="39.191459" lon="8.6023074"><ele>235.0</ele><time>2026-04-25T14:31:07.489Z</time></trkpt><trkpt lat="39.1913806" lon="8.6022608"><ele>235.0</ele><time>2026-04-25T14:31:09.534Z</time></trkpt><trkpt lat="39.1913362" lon="8.6021808"><ele>235.49999999999997</ele><time>2026-04-25T14:31:11.484Z</time></trkpt><trkpt lat="39.1912745" lon="8.6021068"><ele>236.0</ele><time>2026-04-25T14:31:13.487Z</time></trkpt><trkpt lat="39.1912161" lon="8.6020477"><ele>236.5</ele><time>2026-04-25T14:31:15.488Z</time></trkpt><trkpt lat="39.1911562" lon="8.6019931"><ele>237.0</ele><time>2026-04-25T14:31:17.516Z</time></trkpt><trkpt lat="39.1910916" lon="8.601928"><ele>237.49999999999997</ele><time>2026-04-25T14:31:19.487Z</time></trkpt><trkpt lat="39.1910189" lon="8.6018398"><ele>238.0</ele><time>2026-04-25T14:31:21.482Z</time></trkpt><trkpt lat="39.1909315" lon="8.6017472"><ele>235.25</ele><time>2026-04-25T14:31:23.489Z</time></trkpt><trkpt lat="39.1908204" lon="8.601696"><ele>232.5</ele><time>2026-04-25T14:31:25.485Z</time></trkpt><trkpt lat="39.1907053" lon="8.6016779"><ele>229.75</ele><time>2026-04-25T14:31:27.491Z</time></trkpt><trkpt lat="39.1905977" lon="8.601702"><ele>227.0</ele><time>2026-04-25T14:31:29.496Z</time></trkpt><trkpt lat="39.1905026" lon="8.6017912"><ele>225.8</ele><time>2026-04-25T14:31:31.48Z</time></trkpt><trkpt lat="39.1904077" lon="8.6018832"><ele>224.6</ele><time>2026-04-25T14:31:33.478Z</time></trkpt><trkpt lat="39.1903222" lon="8.6019674"><ele>223.40000000000003</ele><time>2026-04-25T14:31:35.488Z</time></trkpt><trkpt lat="39.1902431" lon="8.6020176"><ele>222.20000000000002</ele><time>2026-04-25T14:31:37.482Z</time></trkpt><trkpt lat="39.1901379" lon="8.601976"><ele>221.0</ele><time>2026-04-25T14:31:39.484Z</time></trkpt><trkpt lat="39.1900788" lon="8.6019438"><ele>221.0</ele><time>2026-04-25T14:31:40.492Z</time></trkpt><trkpt lat="39.18998" lon="8.6018648"><ele>221.00000000000003</ele><time>2026-04-25T14:31:42.473Z</time></trkpt><trkpt lat="39.189885" lon="8.6017981"><ele>221.00000000000003</ele><time>2026-04-25T14:31:44.479Z</time></trkpt><trkpt lat="39.1897484" lon="8.6017765"><ele>221.0</ele><time>2026-04-25T14:31:46.485Z</time></trkpt><trkpt lat="39.1896761" lon="8.6017639"><ele>221.0</ele><time>2026-04-25T14:31:47.504Z</time></trkpt><trkpt lat="39.1896085" lon="8.6017631"><ele>220.50000000000003</ele><time>2026-04-25T14:31:48.483Z</time></trkpt><trkpt lat="39.1894874" lon="8.6017745"><ele>220.0</ele><time>2026-04-25T14:31:50.482Z</time></trkpt><trkpt lat="39.1893779" lon="8.6017659"><ele>219.5</ele><time>2026-04-25T14:31:52.488Z</time></trkpt><trkpt lat="39.1893135" lon="8.6017652"><ele>219.0</ele><time>2026-04-25T14:31:53.483Z</time></trkpt><trkpt lat="39.1892435" lon="8.601756"><ele>218.50000000000003</ele><time>2026-04-25T14:31:54.483Z</time></trkpt><trkpt lat="39.1891634" lon="8.601752"><ele>218.0</ele><time>2026-04-25T14:31:55.487Z</time></trkpt><trkpt lat="39.1890745" lon="8.601736"><ele>219.00000000000003</ele><time>2026-04-25T14:31:56.483Z</time></trkpt><trkpt lat="39.1889848" lon="8.6017474"><ele>220.0</ele><time>2026-04-25T14:31:57.5Z</time></trkpt><trkpt lat="39.1889026" lon="8.6017693"><ele>221.0</ele><time>2026-04-25T14:31:58.481Z</time></trkpt><trkpt lat="39.188819" lon="8.6017852"><ele>222.0</ele><time>2026-04-25T14:31:59.482Z</time></trkpt><trkpt lat="39.1887324" lon="8.6018176"><ele>223.00000000000003</ele><time>2026-04-25T14:32:00.49Z</time></trkpt><trkpt lat="39.1886443" lon="8.6018674"><ele>224.0</ele><time>2026-04-25T14:32:01.479Z</time></trkpt><trkpt lat="39.1885716" lon="8.6019289"><ele>221.00000000000003</ele><time>2026-04-25T14:32:02.496Z</time></trkpt><trkpt lat="39.1885039" lon="8.6020089"><ele>218.0</ele><time>2026-04-25T14:32:04.495Z</time></trkpt><trkpt lat="39.1885094" lon="8.602112"><ele>215.0</ele><time>2026-04-25T14:32:08.48Z</time></trkpt><trkpt lat="39.1885423" lon="8.6022114"><ele>212.0</ele><time>2026-04-25T14:32:12.483Z</time></trkpt><trkpt lat="39.1885692" lon="8.6023281"><ele>209.00000000000003</ele><time>2026-04-25T14:32:15.481Z</time></trkpt><trkpt lat="39.1885382" lon="8.6024472"><ele>206.0</ele><time>2026-04-25T14:32:17.489Z</time></trkpt><trkpt lat="39.1884913" lon="8.6025684"><ele>206.00000000000003</ele><time>2026-04-25T14:32:19.487Z</time></trkpt><trkpt lat="39.1884237" lon="8.6026484"><ele>206.0</ele><time>2026-04-25T14:32:21.473Z</time></trkpt><trkpt lat="39.1883548" lon="8.6027063"><ele>206.0</ele><time>2026-04-25T14:32:23.488Z</time></trkpt><trkpt lat="39.1882893" lon="8.6027641"><ele>206.0</ele><time>2026-04-25T14:32:25.497Z</time></trkpt><trkpt lat="39.1881913" lon="8.6028537"><ele>206.00000000000003</ele><time>2026-04-25T14:32:27.485Z</time></trkpt><trkpt lat="39.18813" lon="8.6029014"><ele>206.0</ele><time>2026-04-25T14:32:28.486Z</time></trkpt><trkpt lat="39.1880693" lon="8.6029403"><ele>204.99999999999997</ele><time>2026-04-25T14:32:29.489Z</time></trkpt><trkpt lat="39.1880061" lon="8.6029723"><ele>204.0</ele><time>2026-04-25T14:32:30.491Z</time></trkpt><trkpt lat="39.1879449" lon="8.6030055"><ele>203.0</ele><time>2026-04-25T14:32:31.483Z</time></trkpt><trkpt lat="39.1878325" lon="8.6030469"><ele>202.0</ele><time>2026-04-25T14:32:33.486Z</time></trkpt><trkpt lat="39.1877699" lon="8.6030684"><ele>201.0</ele><time>2026-04-25T14:32:34.487Z</time></trkpt><trkpt lat="39.1877073" lon="8.6030816"><ele>199.99999999999997</ele><time>2026-04-25T14:32:35.509Z</time></trkpt><trkpt lat="39.1876443" lon="8.6031044"><ele>199.0</ele><time>2026-04-25T14:32:36.482Z</time></trkpt><trkpt lat="39.187581" lon="8.6031379"><ele>198.99999999999997</ele><time>2026-04-25T14:32:37.489Z</time></trkpt><trkpt lat="39.1875183" lon="8.6031715"><ele>199.0</ele><time>2026-04-25T14:32:38.492Z</time></trkpt><trkpt lat="39.1874485" lon="8.6032066"><ele>199.0</ele><time>2026-04-25T14:32:39.494Z</time></trkpt><trkpt lat="39.1873664" lon="8.6032416"><ele>199.0</ele><time>2026-04-25T14:32:40.492Z</time></trkpt><trkpt lat="39.1872721" lon="8.6032661"><ele>198.99999999999997</ele><time>2026-04-25T14:32:41.501Z</time></trkpt><trkpt lat="39.1871854" lon="8.6032905"><ele>199.0</ele><time>2026-04-25T14:32:42.488Z</time></trkpt><trkpt lat="39.1871009" lon="8.6032966"><ele>197.33333333333331</ele><time>2026-04-25T14:32:43.489Z</time></trkpt><trkpt lat="39.1870156" lon="8.6032901"><ele>195.66666666666666</ele><time>2026-04-25T14:32:44.492Z</time></trkpt><trkpt lat="39.1869332" lon="8.6032761"><ele>194.0</ele><time>2026-04-25T14:32:45.483Z</time></trkpt><trkpt lat="39.1868636" lon="8.6032657"><ele>192.33333333333331</ele><time>2026-04-25T14:32:46.499Z</time></trkpt><trkpt lat="39.1868006" lon="8.6032627"><ele>190.66666666666666</ele><time>2026-04-25T14:32:47.487Z</time></trkpt><trkpt lat="39.1866967" lon="8.6032862"><ele>189.0</ele><time>2026-04-25T14:32:49.491Z</time></trkpt><trkpt lat="39.1866081" lon="8.6032689"><ele>189.0</ele><time>2026-04-25T14:32:51.484Z</time></trkpt><trkpt lat="39.1865228" lon="8.6032725"><ele>189.0</ele><time>2026-04-25T14:32:53.485Z</time></trkpt><trkpt lat="39.1864296" lon="8.6032645"><ele>189.0</ele><time>2026-04-25T14:32:55.492Z</time></trkpt><trkpt lat="39.1863667" lon="8.6032723"><ele>189.0</ele><time>2026-04-25T14:32:56.487Z</time></trkpt><trkpt lat="39.1862601" lon="8.6033373"><ele>189.0</ele><time>2026-04-25T14:32:58.491Z</time></trkpt><trkpt lat="39.1861439" lon="8.6033789"><ele>187.79999999999998</ele><time>2026-04-25T14:33:00.492Z</time></trkpt><trkpt lat="39.1860331" lon="8.6033743"><ele>186.6</ele><time>2026-04-25T14:33:02.486Z</time></trkpt><trkpt lat="39.1859268" lon="8.6033228"><ele>185.4</ele><time>2026-04-25T14:33:04.49Z</time></trkpt><trkpt lat="39.1858535" lon="8.6032353"><ele>184.2</ele><time>2026-04-25T14:33:06.488Z</time></trkpt><trkpt lat="39.1858118" lon="8.6030967"><ele>183.0</ele><time>2026-04-25T14:33:08.479Z</time></trkpt><trkpt lat="39.1857964" lon="8.6029936"><ele>183.0</ele><time>2026-04-25T14:33:09.487Z</time></trkpt><trkpt lat="39.1857821" lon="8.6028706"><ele>183.0</ele><time>2026-04-25T14:33:10.495Z</time></trkpt><trkpt lat="39.1857764" lon="8.6027522"><ele>183.0</ele><time>2026-04-25T14:33:11.489Z</time></trkpt><trkpt lat="39.1857673" lon="8.6026525"><ele>183.0</ele><time>2026-04-25T14:33:12.478Z</time></trkpt><trkpt lat="39.1857647" lon="8.6025659"><ele>183.0</ele><time>2026-04-25T14:33:13.479Z</time></trkpt><trkpt lat="39.1857678" lon="8.602478"><ele>183.0</ele><time>2026-04-25T14:33:14.484Z</time></trkpt><trkpt lat="39.1857882" lon="8.6023456"><ele>183.16666666666666</ele><time>2026-04-25T14:33:16.481Z</time></trkpt><trkpt lat="39.1858072" lon="8.6022559"><ele>183.33333333333334</ele><time>2026-04-25T14:33:18.482Z</time></trkpt><trkpt lat="39.1858499" lon="8.60213"><ele>183.5</ele><time>2026-04-25T14:33:20.48Z</time></trkpt><trkpt lat="39.1858753" lon="8.6020359"><ele>183.66666666666669</ele><time>2026-04-25T14:33:21.481Z</time></trkpt><trkpt lat="39.1858755" lon="8.6019356"><ele>183.83333333333334</ele><time>2026-04-25T14:33:22.479Z</time></trkpt><trkpt lat="39.1858573" lon="8.6018496"><ele>184.0</ele><time>2026-04-25T14:33:23.489Z</time></trkpt><trkpt lat="39.185798" lon="8.6017374"><ele>184.16666666666669</ele><time>2026-04-25T14:33:25.489Z</time></trkpt><trkpt lat="39.185711" lon="8.6017586"><ele>184.33333333333334</ele><time>2026-04-25T14:33:27.484Z</time></trkpt><trkpt lat="39.1856389" lon="8.6018364"><ele>184.5</ele><time>2026-04-25T14:33:29.488Z</time></trkpt><trkpt lat="39.1855526" lon="8.6018782"><ele>184.66666666666666</ele><time>2026-04-25T14:33:31.485Z</time></trkpt><trkpt lat="39.1854889" lon="8.6018876"><ele>184.83333333333331</ele><time>2026-04-25T14:33:32.479Z</time></trkpt><trkpt lat="39.1854177" lon="8.6019019"><ele>185.0</ele><time>2026-04-25T14:33:33.481Z</time></trkpt><trkpt lat="39.185351" lon="8.6019187"><ele>182.66666666666666</ele><time>2026-04-25T14:33:34.492Z</time></trkpt><trkpt lat="39.185288" lon="8.6019146"><ele>180.33333333333331</ele><time>2026-04-25T14:33:35.486Z</time></trkpt><trkpt lat="39.1852173" lon="8.6018674"><ele>178.0</ele><time>2026-04-25T14:33:36.49Z</time></trkpt><trkpt lat="39.1851271" lon="8.6018107"><ele>175.66666666666666</ele><time>2026-04-25T14:33:37.481Z</time></trkpt><trkpt lat="39.1850509" lon="8.6017658"><ele>173.33333333333334</ele><time>2026-04-25T14:33:38.481Z</time></trkpt><trkpt lat="39.1849666" lon="8.6017571"><ele>171.0</ele><time>2026-04-25T14:33:39.479Z</time></trkpt><trkpt lat="39.1848842" lon="8.6017316"><ele>172.0</ele><time>2026-04-25T14:33:40.488Z</time></trkpt><trkpt lat="39.1848108" lon="8.6016995"><ele>173.0</ele><time>2026-04-25T14:33:41.491Z</time></trkpt><trkpt lat="39.1847418" lon="8.6016242"><ele>174.0</ele><time>2026-04-25T14:33:42.481Z</time></trkpt><trkpt lat="39.18467" lon="8.6015413"><ele>175.0</ele><time>2026-04-25T14:33:43.479Z</time></trkpt><trkpt lat="39.1846018" lon="8.6014592"><ele>176.0</ele><time>2026-04-25T14:33:44.482Z</time></trkpt><trkpt lat="39.1845282" lon="8.6013694"><ele>176.0</ele><time>2026-04-25T14:33:45.509Z</time></trkpt><trkpt lat="39.1844516" lon="8.6012723"><ele>176.0</ele><time>2026-04-25T14:33:46.479Z</time></trkpt><trkpt lat="39.1843828" lon="8.601173"><ele>176.0</ele><time>2026-04-25T14:33:47.49Z</time></trkpt><trkpt lat="39.1843192" lon="8.6010861"><ele>176.0</ele><time>2026-04-25T14:33:48.493Z</time></trkpt><trkpt lat="39.184256" lon="8.6010023"><ele>176.0</ele><time>2026-04-25T14:33:49.527Z</time></trkpt><trkpt lat="39.1842005" lon="8.6009356"><ele>174.83333333333331</ele><time>2026-04-25T14:33:50.488Z</time></trkpt><trkpt lat="39.184082" lon="8.6009009"><ele>173.66666666666666</ele><time>2026-04-25T14:33:52.507Z</time></trkpt><trkpt lat="39.1840118" lon="8.6008936"><ele>172.5</ele><time>2026-04-25T14:33:53.487Z</time></trkpt><trkpt lat="39.1839395" lon="8.6008549"><ele>171.33333333333334</ele><time>2026-04-25T14:33:54.487Z</time></trkpt><trkpt lat="39.1838656" lon="8.6007982"><ele>170.16666666666669</ele><time>2026-04-25T14:33:55.505Z</time></trkpt><trkpt lat="39.1837921" lon="8.6007743"><ele>169.0</ele><time>2026-04-25T14:33:56.495Z</time></trkpt><trkpt lat="39.1837154" lon="8.6007651"><ele>166.83333333333334</ele><time>2026-04-25T14:33:57.488Z</time></trkpt><trkpt lat="39.1836421" lon="8.6007775"><ele>164.66666666666669</ele><time>2026-04-25T14:33:58.52Z</time></trkpt><trkpt lat="39.1835692" lon="8.6008145"><ele>162.5</ele><time>2026-04-25T14:33:59.488Z</time></trkpt><trkpt lat="39.1834817" lon="8.6008991"><ele>160.33333333333334</ele><time>2026-04-25T14:34:01.483Z</time></trkpt><trkpt lat="39.1834046" lon="8.6010111"><ele>158.16666666666666</ele><time>2026-04-25T14:34:03.493Z</time></trkpt><trkpt lat="39.1833437" lon="8.6010426"><ele>156.0</ele><time>2026-04-25T14:34:04.507Z</time></trkpt><trkpt lat="39.1832457" lon="8.6010293"><ele>156.66666666666666</ele><time>2026-04-25T14:34:06.492Z</time></trkpt><trkpt lat="39.1831686" lon="8.600957"><ele>157.33333333333334</ele><time>2026-04-25T14:34:08.488Z</time></trkpt><trkpt lat="39.1831122" lon="8.6008854"><ele>158.0</ele><time>2026-04-25T14:34:10.489Z</time></trkpt><trkpt lat="39.18304" lon="8.6007967"><ele>158.66666666666669</ele><time>2026-04-25T14:37:36.504Z</time></trkpt><trkpt lat="39.1829865" lon="8.6007448"><ele>159.33333333333334</ele><time>2026-04-25T14:37:37.494Z</time></trkpt><trkpt lat="39.1829228" lon="8.6006637"><ele>160.0</ele><time>2026-04-25T14:37:38.498Z</time></trkpt><trkpt lat="39.1828661" lon="8.6005648"><ele>160.0</ele><time>2026-04-25T14:37:39.498Z</time></trkpt><trkpt lat="39.1828204" lon="8.60046"><ele>160.0</ele><time>2026-04-25T14:37:40.501Z</time></trkpt><trkpt lat="39.1827656" lon="8.6003662"><ele>160.0</ele><time>2026-04-25T14:37:41.493Z</time></trkpt><trkpt lat="39.1827031" lon="8.6002803"><ele>160.0</ele><time>2026-04-25T14:37:42.504Z</time></trkpt><trkpt lat="39.1826416" lon="8.6002019"><ele>160.0</ele><time>2026-04-25T14:37:43.494Z</time></trkpt><trkpt lat="39.1825711" lon="8.6001269"><ele>158.16666666666669</ele><time>2026-04-25T14:37:44.504Z</time></trkpt><trkpt lat="39.1824995" lon="8.6000576"><ele>156.33333333333334</ele><time>2026-04-25T14:37:45.501Z</time></trkpt><trkpt lat="39.1824224" lon="8.6000087"><ele>154.5</ele><time>2026-04-25T14:37:46.499Z</time></trkpt><trkpt lat="39.1823415" lon="8.599982"><ele>152.66666666666666</ele><time>2026-04-25T14:37:47.515Z</time></trkpt><trkpt lat="39.182253" lon="8.5999994"><ele>150.83333333333331</ele><time>2026-04-25T14:37:48.511Z</time></trkpt><trkpt lat="39.1821776" lon="8.6000221"><ele>149.0</ele><time>2026-04-25T14:37:49.501Z</time></trkpt><trkpt lat="39.1820934" lon="8.6000061"><ele>148.0</ele><time>2026-04-25T14:37:50.505Z</time></trkpt><trkpt lat="39.1819949" lon="8.5999576"><ele>147.0</ele><time>2026-04-25T14:37:51.502Z</time></trkpt><trkpt lat="39.1818903" lon="8.5999379"><ele>146.0</ele><time>2026-04-25T14:37:52.503Z</time></trkpt><trkpt lat="39.1817689" lon="8.5999259"><ele>145.0</ele><time>2026-04-25T14:37:53.502Z</time></trkpt><trkpt lat="39.1816439" lon="8.5999326"><ele>145.0</ele><time>2026-04-25T14:37:54.491Z</time></trkpt><trkpt lat="39.1815321" lon="8.5999373"><ele>145.0</ele><time>2026-04-25T14:37:55.51Z</time></trkpt><trkpt lat="39.1814343" lon="8.5999258"><ele>145.0</ele><time>2026-04-25T14:37:56.506Z</time></trkpt><trkpt lat="39.1813541" lon="8.5999167"><ele>145.0</ele><time>2026-04-25T14:37:57.495Z</time></trkpt><trkpt lat="39.1812703" lon="8.5999065"><ele>145.0</ele><time>2026-04-25T14:37:58.497Z</time></trkpt><trkpt lat="39.181189" lon="8.5998803"><ele>145.28571428571428</ele><time>2026-04-25T14:37:59.499Z</time></trkpt><trkpt lat="39.1811115" lon="8.5998555"><ele>145.57142857142858</ele><time>2026-04-25T14:38:00.499Z</time></trkpt><trkpt lat="39.1810419" lon="8.599845"><ele>145.85714285714286</ele><time>2026-04-25T14:38:01.497Z</time></trkpt><trkpt lat="39.1809794" lon="8.5998155"><ele>146.14285714285714</ele><time>2026-04-25T14:38:02.493Z</time></trkpt><trkpt lat="39.1809285" lon="8.5997533"><ele>146.42857142857144</ele><time>2026-04-25T14:38:03.492Z</time></trkpt><trkpt lat="39.1808882" lon="8.5996786"><ele>146.71428571428572</ele><time>2026-04-25T14:38:04.497Z</time></trkpt><trkpt lat="39.1808504" lon="8.5995833"><ele>147.0</ele><time>2026-04-25T14:38:05.483Z</time></trkpt><trkpt lat="39.1807993" lon="8.5994983"><ele>147.5</ele><time>2026-04-25T14:38:06.493Z</time></trkpt><trkpt lat="39.1807417" lon="8.5994249"><ele>148.0</ele><time>2026-04-25T14:38:07.488Z</time></trkpt><trkpt lat="39.1806838" lon="8.5993617"><ele>148.5</ele><time>2026-04-25T14:38:08.507Z</time></trkpt><trkpt lat="39.1806218" lon="8.599299"><ele>149.0</ele><time>2026-04-25T14:38:09.502Z</time></trkpt><trkpt lat="39.1805554" lon="8.5992385"><ele>149.5</ele><time>2026-04-25T14:38:10.495Z</time></trkpt><trkpt lat="39.1804797" lon="8.599196"><ele>150.0</ele><time>2026-04-25T14:38:11.489Z</time></trkpt><trkpt lat="39.1804037" lon="8.5991654"><ele>150.0</ele><time>2026-04-25T14:38:12.494Z</time></trkpt><trkpt lat="39.1803247" lon="8.5991494"><ele>150.0</ele><time>2026-04-25T14:38:13.495Z</time></trkpt><trkpt lat="39.1802482" lon="8.5991417"><ele>150.0</ele><time>2026-04-25T14:38:14.501Z</time></trkpt><trkpt lat="39.1801757" lon="8.599155"><ele>150.0</ele><time>2026-04-25T14:38:15.488Z</time></trkpt><trkpt lat="39.1801163" lon="8.5991917"><ele>150.0</ele><time>2026-04-25T14:38:16.502Z</time></trkpt><trkpt lat="39.1800519" lon="8.5992481"><ele>150.0</ele><time>2026-04-25T14:38:17.489Z</time></trkpt><trkpt lat="39.1799992" lon="8.5993915"><ele>149.99999999999997</ele><time>2026-04-25T14:38:19.485Z</time></trkpt><trkpt lat="39.1799965" lon="8.5994874"><ele>150.0</ele><time>2026-04-25T14:38:20.5Z</time></trkpt><trkpt lat="39.17998" lon="8.5995673"><ele>150.0</ele><time>2026-04-25T14:38:21.494Z</time></trkpt><trkpt lat="39.1799609" lon="8.5996533"><ele>150.0</ele><time>2026-04-25T14:38:22.496Z</time></trkpt><trkpt lat="39.1799362" lon="8.5997441"><ele>150.0</ele><time>2026-04-25T14:38:23.5Z</time></trkpt><trkpt lat="39.1799065" lon="8.5998276"><ele>149.99999999999997</ele><time>2026-04-25T14:38:24.503Z</time></trkpt><trkpt lat="39.1798505" lon="8.5998891"><ele>150.0</ele><time>2026-04-25T14:38:25.488Z</time></trkpt><trkpt lat="39.1797733" lon="8.5999456"><ele>148.4</ele><time>2026-04-25T14:38:26.49Z</time></trkpt><trkpt lat="39.1796783" lon="8.6000101"><ele>146.8</ele><time>2026-04-25T14:38:27.505Z</time></trkpt><trkpt lat="39.1795838" lon="8.6000864"><ele>145.2</ele><time>2026-04-25T14:38:28.486Z</time></trkpt><trkpt lat="39.1794978" lon="8.6001422"><ele>143.6</ele><time>2026-04-25T14:38:29.534Z</time></trkpt><trkpt lat="39.1794204" lon="8.6001823"><ele>142.0</ele><time>2026-04-25T14:38:30.493Z</time></trkpt><trkpt lat="39.1793554" lon="8.6001994"><ele>142.0</ele><time>2026-04-25T14:38:31.507Z</time></trkpt><trkpt lat="39.179287" lon="8.6001743"><ele>142.0</ele><time>2026-04-25T14:38:32.503Z</time></trkpt><trkpt lat="39.1792148" lon="8.6001104"><ele>142.0</ele><time>2026-04-25T14:38:33.5Z</time></trkpt><trkpt lat="39.179167" lon="8.6000551"><ele>142.0</ele><time>2026-04-25T14:38:34.502Z</time></trkpt><trkpt lat="39.1791089" lon="8.6000078"><ele>142.0</ele><time>2026-04-25T14:38:35.493Z</time></trkpt><trkpt lat="39.179035" lon="8.5999765"><ele>142.0</ele><time>2026-04-25T14:38:36.491Z</time></trkpt><trkpt lat="39.1789485" lon="8.5999822"><ele>143.33333333333334</ele><time>2026-04-25T14:38:37.5Z</time></trkpt><trkpt lat="39.178868" lon="8.5999987"><ele>144.66666666666669</ele><time>2026-04-25T14:38:38.498Z</time></trkpt><trkpt lat="39.1787934" lon="8.6000414"><ele>146.0</ele><time>2026-04-25T14:38:39.5Z</time></trkpt><trkpt lat="39.1787181" lon="8.6000732"><ele>147.33333333333334</ele><time>2026-04-25T14:38:40.506Z</time></trkpt><trkpt lat="39.1786492" lon="8.6000932"><ele>148.66666666666666</ele><time>2026-04-25T14:38:41.5Z</time></trkpt><trkpt lat="39.1785397" lon="8.6001476"><ele>150.0</ele><time>2026-04-25T14:38:43.496Z</time></trkpt><trkpt lat="39.1784677" lon="8.6003004"><ele>147.66666666666666</ele><time>2026-04-25T14:38:45.489Z</time></trkpt><trkpt lat="39.1784387" lon="8.6004066"><ele>145.33333333333334</ele><time>2026-04-25T14:38:46.5Z</time></trkpt><trkpt lat="39.1784214" lon="8.6005161"><ele>143.0</ele><time>2026-04-25T14:38:47.491Z</time></trkpt><trkpt lat="39.1784066" lon="8.6006147"><ele>140.66666666666669</ele><time>2026-04-25T14:38:48.494Z</time></trkpt><trkpt lat="39.1783765" lon="8.600697"><ele>138.33333333333334</ele><time>2026-04-25T14:38:49.485Z</time></trkpt><trkpt lat="39.1783383" lon="8.6007643"><ele>136.0</ele><time>2026-04-25T14:38:50.504Z</time></trkpt><trkpt lat="39.1782803" lon="8.6008168"><ele>136.0</ele><time>2026-04-25T14:38:51.513Z</time></trkpt><trkpt lat="39.1782054" lon="8.6008494"><ele>136.0</ele><time>2026-04-25T14:38:52.488Z</time></trkpt><trkpt lat="39.1781212" lon="8.6008771"><ele>136.0</ele><time>2026-04-25T14:38:53.485Z</time></trkpt><trkpt lat="39.1780314" lon="8.6009119"><ele>136.0</ele><time>2026-04-25T14:38:54.492Z</time></trkpt><trkpt lat="39.1779427" lon="8.6009454"><ele>136.0</ele><time>2026-04-25T14:38:55.495Z</time></trkpt><trkpt lat="39.1778613" lon="8.6009841"><ele>136.0</ele><time>2026-04-25T14:38:56.489Z</time></trkpt><trkpt lat="39.1777944" lon="8.6010303"><ele>135.66666666666669</ele><time>2026-04-25T14:38:57.494Z</time></trkpt><trkpt lat="39.1777463" lon="8.6010881"><ele>135.33333333333334</ele><time>2026-04-25T14:38:58.503Z</time></trkpt><trkpt lat="39.1777108" lon="8.6011614"><ele>135.0</ele><time>2026-04-25T14:38:59.484Z</time></trkpt><trkpt lat="39.1776663" lon="8.6012637"><ele>134.66666666666666</ele><time>2026-04-25T14:39:01.501Z</time></trkpt><trkpt lat="39.1777261" lon="8.6013373"><ele>134.33333333333331</ele><time>2026-04-25T14:39:08.49Z</time></trkpt><trkpt lat="39.1778066" lon="8.6013551"><ele>134.0</ele><time>2026-04-25T14:39:10.496Z</time></trkpt><trkpt lat="39.1779254" lon="8.6013903"><ele>134.0</ele><time>2026-04-25T14:39:12.491Z</time></trkpt><trkpt lat="39.1779934" lon="8.6014052"><ele>134.0</ele><time>2026-04-25T14:39:13.488Z</time></trkpt><trkpt lat="39.1780989" lon="8.6014151"><ele>134.0</ele><time>2026-04-25T14:39:15.512Z</time></trkpt><trkpt lat="39.1781669" lon="8.6013961"><ele>134.0</ele><time>2026-04-25T14:39:17.489Z</time></trkpt><trkpt lat="39.17823" lon="8.601395"><ele>134.0</ele><time>2026-04-25T14:39:19.505Z</time></trkpt><trkpt lat="39.1782946" lon="8.60139"><ele>134.0</ele><time>2026-04-25T14:39:26.489Z</time></trkpt><trkpt lat="39.1783756" lon="8.6013891"><ele>135.83333333333331</ele><time>2026-04-25T14:39:41.487Z</time></trkpt><trkpt lat="39.1784404" lon="8.6014122"><ele>137.66666666666666</ele><time>2026-04-25T14:39:44.494Z</time></trkpt><trkpt lat="39.1785102" lon="8.6014523"><ele>139.5</ele><time>2026-04-25T14:39:46.504Z</time></trkpt><trkpt lat="39.1785795" lon="8.6015007"><ele>141.33333333333334</ele><time>2026-04-25T14:39:48.507Z</time></trkpt><trkpt lat="39.1786405" lon="8.6015727"><ele>143.16666666666669</ele><time>2026-04-25T14:39:50.501Z</time></trkpt><trkpt lat="39.1786969" lon="8.6016817"><ele>145.0</ele><time>2026-04-25T14:39:52.495Z</time></trkpt><trkpt lat="39.1787672" lon="8.6018006"><ele>145.0</ele><time>2026-04-25T14:39:54.502Z</time></trkpt><trkpt lat="39.1788418" lon="8.6019029"><ele>145.0</ele><time>2026-04-25T14:39:56.518Z</time></trkpt><trkpt lat="39.1788578" lon="8.6019877"><ele>145.0</ele><time>2026-04-25T14:39:58.509Z</time></trkpt><trkpt lat="39.1788327" lon="8.6020681"><ele>145.0</ele><time>2026-04-25T14:40:01.5Z</time></trkpt><trkpt lat="39.178806" lon="8.6021822"><ele>145.0</ele><time>2026-04-25T14:40:03.508Z</time></trkpt><trkpt lat="39.1787449" lon="8.6022916"><ele>145.0</ele><time>2026-04-25T14:40:05.502Z</time></trkpt><trkpt lat="39.1786312" lon="8.602299"><ele>149.33333333333334</ele><time>2026-04-25T14:40:08.508Z</time></trkpt><trkpt lat="39.1785707" lon="8.6022756"><ele>153.66666666666669</ele><time>2026-04-25T14:40:09.499Z</time></trkpt><trkpt lat="39.1785071" lon="8.6022646"><ele>158.0</ele><time>2026-04-25T14:40:10.497Z</time></trkpt><trkpt lat="39.1784181" lon="8.6022183"><ele>162.33333333333334</ele><time>2026-04-25T14:40:12.52Z</time></trkpt><trkpt lat="39.1783361" lon="8.6021544"><ele>166.66666666666666</ele><time>2026-04-25T14:40:14.495Z</time></trkpt><trkpt lat="39.1782539" lon="8.602159"><ele>171.0</ele><time>2026-04-25T14:40:16.502Z</time></trkpt><trkpt lat="39.17821" lon="8.6022231"><ele>171.0</ele><time>2026-04-25T14:40:19.512Z</time></trkpt><trkpt lat="39.1782732" lon="8.6023151"><ele>171.0</ele><time>2026-04-25T14:40:22.505Z</time></trkpt><trkpt lat="39.1783385" lon="8.6023743"><ele>171.0</ele><time>2026-04-25T14:40:24.5Z</time></trkpt><trkpt lat="39.1783947" lon="8.6024466"><ele>171.0</ele><time>2026-04-25T14:40:26.507Z</time></trkpt><trkpt lat="39.178437" lon="8.6025235"><ele>171.0</ele><time>2026-04-25T14:40:28.499Z</time></trkpt><trkpt lat="39.1784966" lon="8.6025731"><ele>171.0</ele><time>2026-04-25T14:40:30.518Z</time></trkpt><trkpt lat="39.1785688" lon="8.6026427"><ele>171.0</ele><time>2026-04-25T14:40:32.499Z</time></trkpt><trkpt lat="39.1786095" lon="8.6027328"><ele>171.0</ele><time>2026-04-25T14:40:34.493Z</time></trkpt><trkpt lat="39.1786746" lon="8.6027953"><ele>171.0</ele><time>2026-04-25T14:40:36.518Z</time></trkpt><trkpt lat="39.1787493" lon="8.602854"><ele>171.0</ele><time>2026-04-25T14:40:38.498Z</time></trkpt><trkpt lat="39.1788126" lon="8.6029049"><ele>171.0</ele><time>2026-04-25T14:40:40.515Z</time></trkpt><trkpt lat="39.1788759" lon="8.6029373"><ele>171.0</ele><time>2026-04-25T14:40:44.526Z</time></trkpt><trkpt lat="39.1789633" lon="8.602948"><ele>171.33333333333334</ele><time>2026-04-25T14:41:05.514Z</time></trkpt><trkpt lat="39.1790375" lon="8.6029473"><ele>171.66666666666666</ele><time>2026-04-25T14:41:08.509Z</time></trkpt><trkpt lat="39.1791073" lon="8.6029369"><ele>172.0</ele><time>2026-04-25T14:41:15.516Z</time></trkpt><trkpt lat="39.1791652" lon="8.6028957"><ele>172.33333333333331</ele><time>2026-04-25T14:41:22.513Z</time></trkpt><trkpt lat="39.1792286" lon="8.6028318"><ele>172.66666666666666</ele><time>2026-04-25T14:41:26.508Z</time></trkpt><trkpt lat="39.1792887" lon="8.6027855"><ele>173.0</ele><time>2026-04-25T14:41:28.501Z</time></trkpt><trkpt lat="39.1793883" lon="8.6027372"><ele>173.0</ele><time>2026-04-25T14:41:31.538Z</time></trkpt><trkpt lat="39.1794865" lon="8.6027287"><ele>173.0</ele><time>2026-04-25T14:41:33.501Z</time></trkpt><trkpt lat="39.179581" lon="8.6027656"><ele>173.0</ele><time>2026-04-25T14:41:35.51Z</time></trkpt><trkpt lat="39.1796403" lon="8.6028254"><ele>173.0</ele><time>2026-04-25T14:41:37.508Z</time></trkpt><trkpt lat="39.1797221" lon="8.6028778"><ele>173.0</ele><time>2026-04-25T14:41:39.499Z</time></trkpt><trkpt lat="39.1798011" lon="8.602938"><ele>180.16666666666666</ele><time>2026-04-25T14:41:41.501Z</time></trkpt><trkpt lat="39.1798752" lon="8.6029899"><ele>187.33333333333331</ele><time>2026-04-25T14:41:43.505Z</time></trkpt><trkpt lat="39.1799511" lon="8.6030113"><ele>194.5</ele><time>2026-04-25T14:41:46.507Z</time></trkpt><trkpt lat="39.1800264" lon="8.602996"><ele>201.66666666666666</ele><time>2026-04-25T14:41:49.496Z</time></trkpt><trkpt lat="39.1800247" lon="8.6031116"><ele>208.83333333333334</ele><time>2026-04-25T14:41:53.507Z</time></trkpt><trkpt lat="39.1799561" lon="8.6031834"><ele>216.0</ele><time>2026-04-25T14:41:56.487Z</time></trkpt><trkpt lat="39.1798742" lon="8.6032155"><ele>213.16666666666666</ele><time>2026-04-25T14:41:59.46Z</time></trkpt><trkpt lat="39.1797865" lon="8.6032576"><ele>210.33333333333331</ele><time>2026-04-25T14:42:00.497Z</time></trkpt><trkpt lat="39.1797065" lon="8.6033258"><ele>207.5</ele><time>2026-04-25T14:42:02.509Z</time></trkpt><trkpt lat="39.1796401" lon="8.6033695"><ele>204.66666666666666</ele><time>2026-04-25T14:42:05.501Z</time></trkpt><trkpt lat="39.1795822" lon="8.6034151"><ele>201.83333333333331</ele><time>2026-04-25T14:42:07.527Z</time></trkpt><trkpt lat="39.1794984" lon="8.6035188"><ele>199.0</ele><time>2026-04-25T14:42:10.507Z</time></trkpt><trkpt lat="39.1794384" lon="8.6036316"><ele>206.79999999999998</ele><time>2026-04-25T14:42:12.515Z</time></trkpt><trkpt lat="39.1793735" lon="8.6037074"><ele>214.6</ele><time>2026-04-25T14:42:14.518Z</time></trkpt><trkpt lat="39.1792976" lon="8.6037906"><ele>222.4</ele><time>2026-04-25T14:42:16.503Z</time></trkpt><trkpt lat="39.1792206" lon="8.6038323"><ele>230.2</ele><time>2026-04-25T14:42:18.515Z</time></trkpt><trkpt lat="39.1791319" lon="8.6038818"><ele>238.0</ele><time>2026-04-25T14:42:20.531Z</time></trkpt><trkpt lat="39.1790505" lon="8.6039215"><ele>236.49999999999997</ele><time>2026-04-25T14:42:22.508Z</time></trkpt><trkpt lat="39.1789812" lon="8.6039491"><ele>235.0</ele><time>2026-04-25T14:42:24.521Z</time></trkpt><trkpt lat="39.1788909" lon="8.6039715"><ele>233.5</ele><time>2026-04-25T14:42:26.51Z</time></trkpt><trkpt lat="39.1787938" lon="8.6039944"><ele>232.0</ele><time>2026-04-25T14:42:28.519Z</time></trkpt><trkpt lat="39.1787115" lon="8.604051"><ele>230.49999999999997</ele><time>2026-04-25T14:42:30.503Z</time></trkpt><trkpt lat="39.1786551" lon="8.6041126"><ele>229.0</ele><time>2026-04-25T14:42:32.517Z</time></trkpt><trkpt lat="39.1785781" lon="8.6041965"><ele>229.0</ele><time>2026-04-25T14:42:34.512Z</time></trkpt><trkpt lat="39.1784887" lon="8.6043075"><ele>228.99999999999997</ele><time>2026-04-25T14:42:36.503Z</time></trkpt><trkpt lat="39.1784175" lon="8.6044062"><ele>228.99999999999997</ele><time>2026-04-25T14:42:38.509Z</time></trkpt><trkpt lat="39.1783447" lon="8.6044803"><ele>229.0</ele><time>2026-04-25T14:42:40.512Z</time></trkpt><trkpt lat="39.1782728" lon="8.6045852"><ele>229.0</ele><time>2026-04-25T14:42:42.537Z</time></trkpt><trkpt lat="39.1782976" lon="8.6047093"><ele>230.6</ele><time>2026-04-25T14:42:44.501Z</time></trkpt><trkpt lat="39.1783671" lon="8.6047888"><ele>232.2</ele><time>2026-04-25T14:42:46.509Z</time></trkpt><trkpt lat="39.1784399" lon="8.6047462"><ele>233.79999999999998</ele><time>2026-04-25T14:42:48.506Z</time></trkpt><trkpt lat="39.1785279" lon="8.6047154"><ele>235.39999999999998</ele><time>2026-04-25T14:42:50.502Z</time></trkpt><trkpt lat="39.1786448" lon="8.6046664"><ele>237.0</ele><time>2026-04-25T14:42:52.503Z</time></trkpt><trkpt lat="39.1787593" lon="8.6046756"><ele>237.0</ele><time>2026-04-25T14:42:54.503Z</time></trkpt><trkpt lat="39.1788635" lon="8.6047115"><ele>237.0</ele><time>2026-04-25T14:42:56.512Z</time></trkpt><trkpt lat="39.1789267" lon="8.6046995"><ele>237.0</ele><time>2026-04-25T14:42:59.513Z</time></trkpt><trkpt lat="39.179045" lon="8.6046814"><ele>237.0</ele><time>2026-04-25T14:43:03.507Z</time></trkpt><trkpt lat="39.179129" lon="8.6046615"><ele>237.0</ele><time>2026-04-25T14:43:04.509Z</time></trkpt><trkpt lat="39.1792144" lon="8.6046311"><ele>240.83333333333334</ele><time>2026-04-25T14:43:05.528Z</time></trkpt><trkpt lat="39.1792926" lon="8.6046169"><ele>244.66666666666669</ele><time>2026-04-25T14:43:06.521Z</time></trkpt><trkpt lat="39.1793803" lon="8.6046057"><ele>248.5</ele><time>2026-04-25T14:43:07.505Z</time></trkpt><trkpt lat="39.1794757" lon="8.604601"><ele>252.33333333333334</ele><time>2026-04-25T14:43:08.494Z</time></trkpt><trkpt lat="39.1795645" lon="8.6045929"><ele>256.1666666666667</ele><time>2026-04-25T14:43:09.491Z</time></trkpt><trkpt lat="39.1796496" lon="8.6045622"><ele>260.0</ele><time>2026-04-25T14:43:10.529Z</time></trkpt><trkpt lat="39.1797363" lon="8.6045428"><ele>260.0</ele><time>2026-04-25T14:43:11.518Z</time></trkpt><trkpt lat="39.1798113" lon="8.6045425"><ele>260.0</ele><time>2026-04-25T14:43:12.512Z</time></trkpt><trkpt lat="39.1798923" lon="8.6045514"><ele>260.0</ele><time>2026-04-25T14:43:13.516Z</time></trkpt><trkpt lat="39.1799817" lon="8.604559"><ele>260.0</ele><time>2026-04-25T14:43:14.509Z</time></trkpt><trkpt lat="39.1800705" lon="8.6045595"><ele>260.0</ele><time>2026-04-25T14:43:15.507Z</time></trkpt><trkpt lat="39.1801492" lon="8.6045673"><ele>260.0</ele><time>2026-04-25T14:43:16.507Z</time></trkpt><trkpt lat="39.1802369" lon="8.6045664"><ele>261.6666666666667</ele><time>2026-04-25T14:43:17.505Z</time></trkpt><trkpt lat="39.1803249" lon="8.604565"><ele>263.33333333333337</ele><time>2026-04-25T14:43:18.524Z</time></trkpt><trkpt lat="39.1804096" lon="8.6045636"><ele>265.0</ele><time>2026-04-25T14:43:19.504Z</time></trkpt><trkpt lat="39.180478" lon="8.6045573"><ele>266.6666666666667</ele><time>2026-04-25T14:43:20.511Z</time></trkpt><trkpt lat="39.1805411" lon="8.6045395"><ele>268.3333333333333</ele><time>2026-04-25T14:43:21.49Z</time></trkpt><trkpt lat="39.1806571" lon="8.6045057"><ele>270.0</ele><time>2026-04-25T14:43:23.504Z</time></trkpt><trkpt lat="39.1807224" lon="8.6044756"><ele>270.0</ele><time>2026-04-25T14:43:24.511Z</time></trkpt><trkpt lat="39.1807828" lon="8.6044408"><ele>270.0</ele><time>2026-04-25T14:43:25.515Z</time></trkpt><trkpt lat="39.1808597" lon="8.604388"><ele>270.0</ele><time>2026-04-25T14:43:26.512Z</time></trkpt><trkpt lat="39.1809371" lon="8.6043343"><ele>270.0</ele><time>2026-04-25T14:43:27.511Z</time></trkpt><trkpt lat="39.1809969" lon="8.6042833"><ele>270.0</ele><time>2026-04-25T14:43:28.519Z</time></trkpt><trkpt lat="39.1811016" lon="8.6041952"><ele>270.0</ele><time>2026-04-25T14:43:30.513Z</time></trkpt><trkpt lat="39.1811704" lon="8.6042269"><ele>270.0</ele><time>2026-04-25T14:43:32.519Z</time></trkpt><trkpt lat="39.1812187" lon="8.6043186"><ele>270.0</ele><time>2026-04-25T14:43:34.5Z</time></trkpt><trkpt lat="39.1812497" lon="8.60439"><ele>270.0</ele><time>2026-04-25T14:43:35.511Z</time></trkpt><trkpt lat="39.1812741" lon="8.604469"><ele>270.0</ele><time>2026-04-25T14:43:36.529Z</time></trkpt><trkpt lat="39.181274" lon="8.6045609"><ele>270.0</ele><time>2026-04-25T14:43:37.524Z</time></trkpt><trkpt lat="39.1812766" lon="8.6046539"><ele>270.0</ele><time>2026-04-25T14:43:38.512Z</time></trkpt><trkpt lat="39.1812975" lon="8.6047408"><ele>270.0</ele><time>2026-04-25T14:43:39.512Z</time></trkpt><trkpt lat="39.1813208" lon="8.6048222"><ele>271.8</ele><time>2026-04-25T14:43:40.523Z</time></trkpt><trkpt lat="39.181343" lon="8.6049237"><ele>273.6</ele><time>2026-04-25T14:43:42.511Z</time></trkpt><trkpt lat="39.1814147" lon="8.6049967"><ele>275.4</ele><time>2026-04-25T14:44:56.517Z</time></trkpt><trkpt lat="39.1814776" lon="8.6050369"><ele>277.2</ele><time>2026-04-25T14:44:58.531Z</time></trkpt><trkpt lat="39.1815747" lon="8.6050858"><ele>279.0</ele><time>2026-04-25T14:45:00.523Z</time></trkpt><trkpt lat="39.1816821" lon="8.6051239"><ele>279.8</ele><time>2026-04-25T14:45:02.533Z</time></trkpt><trkpt lat="39.1817892" lon="8.6051746"><ele>280.59999999999997</ele><time>2026-04-25T14:45:04.542Z</time></trkpt><trkpt lat="39.1818914" lon="8.6052047"><ele>281.4</ele><time>2026-04-25T14:45:06.521Z</time></trkpt><trkpt lat="39.1819893" lon="8.6052411"><ele>282.2</ele><time>2026-04-25T14:45:08.531Z</time></trkpt><trkpt lat="39.1820762" lon="8.6052446"><ele>283.0</ele><time>2026-04-25T14:45:10.509Z</time></trkpt><trkpt lat="39.1821639" lon="8.605235"><ele>283.0</ele><time>2026-04-25T14:45:12.542Z</time></trkpt><trkpt lat="39.1822677" lon="8.6052179"><ele>283.0</ele><time>2026-04-25T14:45:14.509Z</time></trkpt><trkpt lat="39.1823505" lon="8.60525"><ele>283.0</ele><time>2026-04-25T14:45:16.52Z</time></trkpt><trkpt lat="39.1824225" lon="8.60523"><ele>283.0</ele><time>2026-04-25T14:45:18.518Z</time></trkpt><trkpt lat="39.1825223" lon="8.6052142"><ele>283.0</ele><time>2026-04-25T14:45:21.517Z</time></trkpt><trkpt lat="39.1825865" lon="8.6052433"><ele>283.0</ele><time>2026-04-25T14:45:23.511Z</time></trkpt><trkpt lat="39.1826444" lon="8.6052868"><ele>280.4</ele><time>2026-04-25T14:45:25.517Z</time></trkpt><trkpt lat="39.1826868" lon="8.6053833"><ele>277.8</ele><time>2026-04-25T14:45:27.528Z</time></trkpt><trkpt lat="39.1827191" lon="8.6055018"><ele>275.2</ele><time>2026-04-25T14:45:29.517Z</time></trkpt><trkpt lat="39.1827712" lon="8.6055815"><ele>272.6</ele><time>2026-04-25T14:45:31.511Z</time></trkpt><trkpt lat="39.1828871" lon="8.6056369"><ele>270.0</ele><time>2026-04-25T14:45:33.49Z</time></trkpt><trkpt lat="39.1829479" lon="8.6056738"><ele>270.0</ele><time>2026-04-25T14:45:34.516Z</time></trkpt><trkpt lat="39.1830191" lon="8.605715"><ele>270.0</ele><time>2026-04-25T14:45:35.506Z</time></trkpt><trkpt lat="39.1830843" lon="8.6057696"><ele>270.0</ele><time>2026-04-25T14:45:36.527Z</time></trkpt><trkpt lat="39.1831431" lon="8.6058302"><ele>270.0</ele><time>2026-04-25T14:45:37.528Z</time></trkpt><trkpt lat="39.1832296" lon="8.6058938"><ele>270.0</ele><time>2026-04-25T14:45:39.505Z</time></trkpt><trkpt lat="39.1833502" lon="8.6059189"><ele>269.6</ele><time>2026-04-25T14:45:41.509Z</time></trkpt><trkpt lat="39.1834705" lon="8.6059638"><ele>269.2</ele><time>2026-04-25T14:45:43.502Z</time></trkpt><trkpt lat="39.1835466" lon="8.6060395"><ele>268.8</ele><time>2026-04-25T14:45:45.497Z</time></trkpt><trkpt lat="39.1836142" lon="8.6060737"><ele>268.4</ele><time>2026-04-25T14:45:47.515Z</time></trkpt><trkpt lat="39.183682" lon="8.6060654"><ele>268.0</ele><time>2026-04-25T14:45:49.531Z</time></trkpt><trkpt lat="39.1837778" lon="8.6060421"><ele>268.0</ele><time>2026-04-25T14:45:51.51Z</time></trkpt><trkpt lat="39.1838542" lon="8.6060565"><ele>268.0</ele><time>2026-04-25T14:45:53.531Z</time></trkpt><trkpt lat="39.1839279" lon="8.6061302"><ele>268.0</ele><time>2026-04-25T14:45:56.512Z</time></trkpt><trkpt lat="39.1840145" lon="8.6061777"><ele>268.0</ele><time>2026-04-25T14:45:59.561Z</time></trkpt><trkpt lat="39.1840779" lon="8.6062005"><ele>268.0</ele><time>2026-04-25T14:46:01.512Z</time></trkpt><trkpt lat="39.1841625" lon="8.6062408"><ele>268.0</ele><time>2026-04-25T14:46:03.517Z</time></trkpt><trkpt lat="39.1842119" lon="8.6063471"><ele>266.8333333333333</ele><time>2026-04-25T14:46:06.464Z</time></trkpt><trkpt lat="39.1842216" lon="8.6064564"><ele>265.66666666666663</ele><time>2026-04-25T14:46:08.519Z</time></trkpt><trkpt lat="39.1842683" lon="8.6065913"><ele>264.5</ele><time>2026-04-25T14:46:10.518Z</time></trkpt><trkpt lat="39.1842885" lon="8.6066987"><ele>263.3333333333333</ele><time>2026-04-25T14:46:12.513Z</time></trkpt><trkpt lat="39.1843118" lon="8.6067746"><ele>262.1666666666667</ele><time>2026-04-25T14:49:06.504Z</time></trkpt><trkpt lat="39.1843188" lon="8.606865"><ele>261.0</ele><time>2026-04-25T14:49:11.527Z</time></trkpt><trkpt lat="39.1843379" lon="8.6067842"><ele>261.0</ele><time>2026-04-25T14:54:35.503Z</time></trkpt><trkpt lat="39.1843168" lon="8.6068714"><ele>261.0</ele><time>2026-04-25T14:58:24.496Z</time></trkpt><trkpt lat="39.1843412" lon="8.6069552"><ele>261.0</ele><time>2026-04-25T14:58:48.531Z</time></trkpt><trkpt lat="39.1843793" lon="8.6070848"><ele>261.0</ele><time>2026-04-25T14:58:51.512Z</time></trkpt><trkpt lat="39.1843918" lon="8.6071915"><ele>261.0</ele><time>2026-04-25T14:58:54.53Z</time></trkpt><trkpt lat="39.1843832" lon="8.6072765"><ele>261.0</ele><time>2026-04-25T14:58:56.503Z</time></trkpt><trkpt lat="39.1843618" lon="8.6073929"><ele>259.8333333333333</ele><time>2026-04-25T14:58:59.492Z</time></trkpt><trkpt lat="39.1843596" lon="8.6074745"><ele>258.6666666666667</ele><time>2026-04-25T14:59:01.499Z</time></trkpt><trkpt lat="39.1843606" lon="8.6075588"><ele>257.5</ele><time>2026-04-25T14:59:03.495Z</time></trkpt><trkpt lat="39.1844293" lon="8.6076039"><ele>256.33333333333337</ele><time>2026-04-25T14:59:06.492Z</time></trkpt><trkpt lat="39.184494" lon="8.6075813"><ele>255.16666666666669</ele><time>2026-04-25T14:59:09.489Z</time></trkpt><trkpt lat="39.1845732" lon="8.6075962"><ele>254.0</ele><time>2026-04-25T14:59:11.49Z</time></trkpt><trkpt lat="39.1846888" lon="8.6076154"><ele>254.0</ele><time>2026-04-25T14:59:13.49Z</time></trkpt><trkpt lat="39.1847896" lon="8.6076479"><ele>253.99999999999997</ele><time>2026-04-25T14:59:15.478Z</time></trkpt><trkpt lat="39.1848857" lon="8.6077028"><ele>253.99999999999997</ele><time>2026-04-25T14:59:17.476Z</time></trkpt><trkpt lat="39.184985" lon="8.6077329"><ele>254.0</ele><time>2026-04-25T14:59:19.489Z</time></trkpt><trkpt lat="39.185022" lon="8.6078054"><ele>254.0</ele><time>2026-04-25T14:59:21.489Z</time></trkpt><trkpt lat="39.1850019" lon="8.6079031"><ele>250.0</ele><time>2026-04-25T14:59:24.486Z</time></trkpt><trkpt lat="39.1850366" lon="8.6079906"><ele>245.99999999999997</ele><time>2026-04-25T14:59:27.486Z</time></trkpt><trkpt lat="39.185117" lon="8.6080674"><ele>241.99999999999997</ele><time>2026-04-25T14:59:29.492Z</time></trkpt><trkpt lat="39.1851945" lon="8.6081436"><ele>238.0</ele><time>2026-04-25T14:59:31.501Z</time></trkpt><trkpt lat="39.1852652" lon="8.6082472"><ele>234.0</ele><time>2026-04-25T14:59:33.478Z</time></trkpt><trkpt lat="39.1853313" lon="8.6083565"><ele>234.0</ele><time>2026-04-25T14:59:35.488Z</time></trkpt><trkpt lat="39.185402" lon="8.6084617"><ele>233.99999999999997</ele><time>2026-04-25T14:59:37.483Z</time></trkpt><trkpt lat="39.1854497" lon="8.6085743"><ele>233.99999999999997</ele><time>2026-04-25T14:59:39.486Z</time></trkpt><trkpt lat="39.1854746" lon="8.608699"><ele>234.0</ele><time>2026-04-25T14:59:41.479Z</time></trkpt><trkpt lat="39.1854897" lon="8.6088202"><ele>234.0</ele><time>2026-04-25T14:59:43.488Z</time></trkpt><trkpt lat="39.1854853" lon="8.6089467"><ele>232.0</ele><time>2026-04-25T14:59:45.475Z</time></trkpt><trkpt lat="39.1854576" lon="8.6090321"><ele>230.0</ele><time>2026-04-25T15:00:46.483Z</time></trkpt><trkpt lat="39.1853918" lon="8.6090455"><ele>228.0</ele><time>2026-04-25T15:00:50.472Z</time></trkpt><trkpt lat="39.1853655" lon="8.6091393"><ele>226.0</ele><time>2026-04-25T15:01:00.503Z</time></trkpt><trkpt lat="39.185349" lon="8.6092333"><ele>224.0</ele><time>2026-04-25T15:01:02.492Z</time></trkpt><trkpt lat="39.1853111" lon="8.6093444"><ele>222.0</ele><time>2026-04-25T15:01:05.483Z</time></trkpt><trkpt lat="39.1852711" lon="8.6094369"><ele>219.16666666666666</ele><time>2026-04-25T15:01:07.481Z</time></trkpt><trkpt lat="39.1852255" lon="8.6095578"><ele>216.33333333333331</ele><time>2026-04-25T15:01:09.481Z</time></trkpt><trkpt lat="39.1851835" lon="8.6096209"><ele>213.5</ele><time>2026-04-25T15:01:10.469Z</time></trkpt><trkpt lat="39.1851486" lon="8.6096912"><ele>210.66666666666666</ele><time>2026-04-25T15:01:11.481Z</time></trkpt><trkpt lat="39.1850731" lon="8.6097952"><ele>207.83333333333331</ele><time>2026-04-25T15:01:13.503Z</time></trkpt><trkpt lat="39.1850041" lon="8.609891"><ele>205.0</ele><time>2026-04-25T15:01:15.483Z</time></trkpt><trkpt lat="39.1849614" lon="8.6099592"><ele>204.99999999999997</ele><time>2026-04-25T15:01:16.471Z</time></trkpt><trkpt lat="39.1849163" lon="8.6100215"><ele>205.0</ele><time>2026-04-25T15:01:17.463Z</time></trkpt><trkpt lat="39.1848787" lon="8.6100874"><ele>205.0</ele><time>2026-04-25T15:01:18.469Z</time></trkpt><trkpt lat="39.1848054" lon="8.6102229"><ele>205.0</ele><time>2026-04-25T15:01:20.481Z</time></trkpt><trkpt lat="39.1847601" lon="8.6102918"><ele>204.99999999999997</ele><time>2026-04-25T15:01:21.477Z</time></trkpt><trkpt lat="39.184715" lon="8.6103545"><ele>205.0</ele><time>2026-04-25T15:01:22.481Z</time></trkpt><trkpt lat="39.1846774" lon="8.6104239"><ele>203.0</ele><time>2026-04-25T15:01:23.51Z</time></trkpt><trkpt lat="39.1845973" lon="8.6105322"><ele>201.0</ele><time>2026-04-25T15:01:25.473Z</time></trkpt><trkpt lat="39.1845228" lon="8.6106511"><ele>199.0</ele><time>2026-04-25T15:01:27.474Z</time></trkpt><trkpt lat="39.1844873" lon="8.6107908"><ele>197.0</ele><time>2026-04-25T15:01:29.475Z</time></trkpt><trkpt lat="39.1844184" lon="8.6109065"><ele>197.0</ele><time>2026-04-25T15:01:31.482Z</time></trkpt><trkpt lat="39.1843359" lon="8.6109926"><ele>197.0</ele><time>2026-04-25T15:01:33.475Z</time></trkpt><trkpt lat="39.1842641" lon="8.6110752"><ele>197.0</ele><time>2026-04-25T15:01:35.477Z</time></trkpt><trkpt lat="39.1841887" lon="8.6111226"><ele>197.0</ele><time>2026-04-25T15:01:37.48Z</time></trkpt><trkpt lat="39.1840998" lon="8.6112012"><ele>197.0</ele><time>2026-04-25T15:01:39.477Z</time></trkpt><trkpt lat="39.184042" lon="8.61124"><ele>196.66666666666669</ele><time>2026-04-25T15:01:40.47Z</time></trkpt><trkpt lat="39.1839394" lon="8.6113074"><ele>196.33333333333334</ele><time>2026-04-25T15:01:42.48Z</time></trkpt><trkpt lat="39.1838978" lon="8.6113715"><ele>196.0</ele><time>2026-04-25T15:01:43.48Z</time></trkpt><trkpt lat="39.1838517" lon="8.6114286"><ele>195.66666666666669</ele><time>2026-04-25T15:01:44.467Z</time></trkpt><trkpt lat="39.1838038" lon="8.6114863"><ele>195.33333333333334</ele><time>2026-04-25T15:01:45.464Z</time></trkpt><trkpt lat="39.1837572" lon="8.6115457"><ele>195.0</ele><time>2026-04-25T15:01:46.479Z</time></trkpt><trkpt lat="39.1836941" lon="8.6116671"><ele>195.0</ele><time>2026-04-25T15:01:48.48Z</time></trkpt><trkpt lat="39.1836248" lon="8.6117855"><ele>195.0</ele><time>2026-04-25T15:01:50.476Z</time></trkpt><trkpt lat="39.1835663" lon="8.6118997"><ele>195.0</ele><time>2026-04-25T15:01:52.48Z</time></trkpt><trkpt lat="39.183529" lon="8.61198"><ele>195.0</ele><time>2026-04-25T15:01:54.501Z</time></trkpt><trkpt lat="39.1835025" lon="8.612068"><ele>195.0</ele><time>2026-04-25T15:01:56.48Z</time></trkpt><trkpt lat="39.1834907" lon="8.6121623"><ele>195.0</ele><time>2026-04-25T15:01:58.471Z</time></trkpt><trkpt lat="39.1834798" lon="8.612256"><ele>195.0</ele><time>2026-04-25T15:02:01.481Z</time></trkpt><trkpt lat="39.1835426" lon="8.612209"><ele>195.0</ele><time>2026-04-25T15:02:07.478Z</time></trkpt><trkpt lat="39.1835742" lon="8.6121184"><ele>195.0</ele><time>2026-04-25T15:02:35.487Z</time></trkpt><trkpt lat="39.183625" lon="8.6120654"><ele>195.0</ele><time>2026-04-25T15:02:38.474Z</time></trkpt><trkpt lat="39.1837036" lon="8.6119971"><ele>195.0</ele><time>2026-04-25T15:02:41.468Z</time></trkpt><trkpt lat="39.1837513" lon="8.6119359"><ele>195.0</ele><time>2026-04-25T15:02:43.48Z</time></trkpt><trkpt lat="39.1838055" lon="8.6118734"><ele>195.0</ele><time>2026-04-25T15:02:45.488Z</time></trkpt><trkpt lat="39.1838759" lon="8.6118103"><ele>195.0</ele><time>2026-04-25T15:02:47.484Z</time></trkpt><trkpt lat="39.1839354" lon="8.6117766"><ele>195.0</ele><time>2026-04-25T15:02:48.481Z</time></trkpt><trkpt lat="39.1840079" lon="8.6117327"><ele>195.0</ele><time>2026-04-25T15:02:49.531Z</time></trkpt><trkpt lat="39.1840993" lon="8.6116829"><ele>195.0</ele><time>2026-04-25T15:02:50.474Z</time></trkpt><trkpt lat="39.1841955" lon="8.6116433"><ele>195.0</ele><time>2026-04-25T15:02:51.476Z</time></trkpt><trkpt lat="39.1842839" lon="8.6116107"><ele>191.16666666666666</ele><time>2026-04-25T15:02:52.47Z</time></trkpt><trkpt lat="39.1843589" lon="8.6115842"><ele>187.33333333333334</ele><time>2026-04-25T15:02:53.469Z</time></trkpt><trkpt lat="39.1844381" lon="8.6115506"><ele>183.5</ele><time>2026-04-25T15:02:54.504Z</time></trkpt><trkpt lat="39.1845114" lon="8.6115236"><ele>179.66666666666669</ele><time>2026-04-25T15:02:55.475Z</time></trkpt><trkpt lat="39.1846051" lon="8.6114956"><ele>175.83333333333334</ele><time>2026-04-25T15:02:57.475Z</time></trkpt><trkpt lat="39.1847027" lon="8.6115035"><ele>172.0</ele><time>2026-04-25T15:02:59.496Z</time></trkpt><trkpt lat="39.1847928" lon="8.6115166"><ele>172.2</ele><time>2026-04-25T15:03:01.473Z</time></trkpt><trkpt lat="39.184934" lon="8.6115172"><ele>172.39999999999998</ele><time>2026-04-25T15:03:03.471Z</time></trkpt><trkpt lat="39.185018" lon="8.6115092"><ele>172.60000000000002</ele><time>2026-04-25T15:03:04.483Z</time></trkpt><trkpt lat="39.1851082" lon="8.6115025"><ele>172.8</ele><time>2026-04-25T15:03:05.478Z</time></trkpt><trkpt lat="39.1851903" lon="8.6114901"><ele>173.0</ele><time>2026-04-25T15:03:06.526Z</time></trkpt><trkpt lat="39.185275" lon="8.6114754"><ele>173.0</ele><time>2026-04-25T15:03:07.471Z</time></trkpt><trkpt lat="39.1853649" lon="8.6114577"><ele>173.0</ele><time>2026-04-25T15:03:08.481Z</time></trkpt><trkpt lat="39.1854568" lon="8.6114388"><ele>173.0</ele><time>2026-04-25T15:03:09.473Z</time></trkpt><trkpt lat="39.1855515" lon="8.6114227"><ele>173.0</ele><time>2026-04-25T15:03:10.473Z</time></trkpt><trkpt lat="39.1856504" lon="8.6114063"><ele>173.0</ele><time>2026-04-25T15:03:11.477Z</time></trkpt><trkpt lat="39.185747" lon="8.6114025"><ele>173.8</ele><time>2026-04-25T15:03:12.479Z</time></trkpt><trkpt lat="39.1858437" lon="8.6114125"><ele>174.60000000000002</ele><time>2026-04-25T15:03:13.471Z</time></trkpt><trkpt lat="39.1859425" lon="8.6114096"><ele>175.39999999999998</ele><time>2026-04-25T15:03:14.505Z</time></trkpt><trkpt lat="39.1860389" lon="8.6113905"><ele>176.2</ele><time>2026-04-25T15:03:15.479Z</time></trkpt><trkpt lat="39.186137" lon="8.6113752"><ele>177.0</ele><time>2026-04-25T15:03:16.48Z</time></trkpt><trkpt lat="39.1862297" lon="8.6113722"><ele>177.0</ele><time>2026-04-25T15:03:17.473Z</time></trkpt><trkpt lat="39.1863205" lon="8.6113786"><ele>177.0</ele><time>2026-04-25T15:03:18.506Z</time></trkpt><trkpt lat="39.1864151" lon="8.6113918"><ele>177.0</ele><time>2026-04-25T15:03:19.485Z</time></trkpt><trkpt lat="39.1865006" lon="8.6114024"><ele>177.0</ele><time>2026-04-25T15:03:20.474Z</time></trkpt><trkpt lat="39.1865859" lon="8.6114203"><ele>177.0</ele><time>2026-04-25T15:03:21.495Z</time></trkpt><trkpt lat="39.1866709" lon="8.6114578"><ele>177.0</ele><time>2026-04-25T15:03:22.487Z</time></trkpt><trkpt lat="39.1867352" lon="8.6115174"><ele>177.83333333333334</ele><time>2026-04-25T15:03:23.481Z</time></trkpt><trkpt lat="39.1867893" lon="8.6116063"><ele>178.66666666666666</ele><time>2026-04-25T15:03:24.479Z</time></trkpt><trkpt lat="39.1868342" lon="8.6116987"><ele>179.5</ele><time>2026-04-25T15:03:25.49Z</time></trkpt><trkpt lat="39.1868776" lon="8.6117656"><ele>180.33333333333331</ele><time>2026-04-25T15:03:26.478Z</time></trkpt><trkpt lat="39.1869427" lon="8.6118137"><ele>181.16666666666666</ele><time>2026-04-25T15:03:28.492Z</time></trkpt><trkpt lat="39.1870318" lon="8.6117762"><ele>182.0</ele><time>2026-04-25T15:03:30.481Z</time></trkpt><trkpt lat="39.18712" lon="8.6117873"><ele>182.0</ele><time>2026-04-25T15:03:32.47Z</time></trkpt><trkpt lat="39.1872159" lon="8.6118967"><ele>182.0</ele><time>2026-04-25T15:03:34.481Z</time></trkpt><trkpt lat="39.1872707" lon="8.6119556"><ele>182.0</ele><time>2026-04-25T15:03:35.479Z</time></trkpt><trkpt lat="39.1873225" lon="8.6120144"><ele>182.0</ele><time>2026-04-25T15:03:36.507Z</time></trkpt><trkpt lat="39.1873833" lon="8.6120564"><ele>182.0</ele><time>2026-04-25T15:03:37.481Z</time></trkpt><trkpt lat="39.187445" lon="8.6120752"><ele>182.0</ele><time>2026-04-25T15:03:38.473Z</time></trkpt><trkpt lat="39.1875146" lon="8.6121054"><ele>182.33333333333331</ele><time>2026-04-25T15:03:39.495Z</time></trkpt><trkpt lat="39.1875739" lon="8.6121523"><ele>182.66666666666666</ele><time>2026-04-25T15:03:40.477Z</time></trkpt><trkpt lat="39.1876335" lon="8.6122188"><ele>183.0</ele><time>2026-04-25T15:03:41.465Z</time></trkpt><trkpt lat="39.1876979" lon="8.6122755"><ele>183.33333333333334</ele><time>2026-04-25T15:03:42.474Z</time></trkpt><trkpt lat="39.1877579" lon="8.6123403"><ele>183.66666666666669</ele><time>2026-04-25T15:03:43.475Z</time></trkpt><trkpt lat="39.1878174" lon="8.6124086"><ele>184.0</ele><time>2026-04-25T15:03:44.467Z</time></trkpt><trkpt lat="39.1878578" lon="8.612495"><ele>184.0</ele><time>2026-04-25T15:03:45.47Z</time></trkpt><trkpt lat="39.1878899" lon="8.6125768"><ele>184.0</ele><time>2026-04-25T15:03:46.477Z</time></trkpt><trkpt lat="39.1879029" lon="8.6126597"><ele>184.0</ele><time>2026-04-25T15:03:47.494Z</time></trkpt><trkpt lat="39.1878818" lon="8.6127498"><ele>184.0</ele><time>2026-04-25T15:03:48.477Z</time></trkpt><trkpt lat="39.1878604" lon="8.6128491"><ele>184.0</ele><time>2026-04-25T15:03:49.471Z</time></trkpt><trkpt lat="39.1878362" lon="8.6129406"><ele>184.0</ele><time>2026-04-25T15:03:50.501Z</time></trkpt><trkpt lat="39.1878369" lon="8.6130298"><ele>184.0</ele><time>2026-04-25T15:03:51.476Z</time></trkpt><trkpt lat="39.1878373" lon="8.6131709"><ele>185.33333333333334</ele><time>2026-04-25T15:03:53.48Z</time></trkpt><trkpt lat="39.1878088" lon="8.6132746"><ele>186.66666666666669</ele><time>2026-04-25T15:03:55.478Z</time></trkpt><trkpt lat="39.1878591" lon="8.6133999"><ele>188.0</ele><time>2026-04-25T15:03:57.472Z</time></trkpt><trkpt lat="39.1879111" lon="8.6134786"><ele>189.33333333333334</ele><time>2026-04-25T15:03:59.471Z</time></trkpt><trkpt lat="39.1879441" lon="8.6135504"><ele>190.66666666666666</ele><time>2026-04-25T15:04:06.515Z</time></trkpt><trkpt lat="39.1879661" lon="8.6136434"><ele>192.0</ele><time>2026-04-25T15:04:51.474Z</time></trkpt><trkpt lat="39.1880072" lon="8.6137361"><ele>192.0</ele><time>2026-04-25T15:04:53.478Z</time></trkpt><trkpt lat="39.1880764" lon="8.6138529"><ele>192.0</ele><time>2026-04-25T15:04:55.482Z</time></trkpt><trkpt lat="39.1881678" lon="8.6139038"><ele>192.0</ele><time>2026-04-25T15:04:57.479Z</time></trkpt><trkpt lat="39.1882755" lon="8.6139175"><ele>192.0</ele><time>2026-04-25T15:04:59.501Z</time></trkpt><trkpt lat="39.1883848" lon="8.6138894"><ele>192.0</ele><time>2026-04-25T15:05:01.482Z</time></trkpt><trkpt lat="39.1884887" lon="8.613858"><ele>192.0</ele><time>2026-04-25T15:05:03.471Z</time></trkpt><trkpt lat="39.1885976" lon="8.6138287"><ele>192.0</ele><time>2026-04-25T15:05:05.467Z</time></trkpt><trkpt lat="39.1886675" lon="8.6138146"><ele>192.0</ele><time>2026-04-25T15:05:06.474Z</time></trkpt><trkpt lat="39.1887717" lon="8.6138148"><ele>192.0</ele><time>2026-04-25T15:05:08.498Z</time></trkpt><trkpt lat="39.1888378" lon="8.6137992"><ele>192.0</ele><time>2026-04-25T15:05:09.47Z</time></trkpt><trkpt lat="39.1889542" lon="8.6137563"><ele>192.66666666666666</ele><time>2026-04-25T15:05:11.471Z</time></trkpt><trkpt lat="39.1890205" lon="8.6137342"><ele>193.33333333333331</ele><time>2026-04-25T15:05:12.472Z</time></trkpt><trkpt lat="39.1890914" lon="8.6136995"><ele>194.0</ele><time>2026-04-25T15:05:13.502Z</time></trkpt><trkpt lat="39.1891555" lon="8.6136385"><ele>194.66666666666666</ele><time>2026-04-25T15:05:14.48Z</time></trkpt><trkpt lat="39.1891971" lon="8.6135756"><ele>195.33333333333331</ele><time>2026-04-25T15:05:15.474Z</time></trkpt><trkpt lat="39.1892349" lon="8.613438"><ele>196.0</ele><time>2026-04-25T15:05:17.473Z</time></trkpt><trkpt lat="39.1892459" lon="8.6132815"><ele>196.66666666666666</ele><time>2026-04-25T15:05:19.473Z</time></trkpt><trkpt lat="39.1892764" lon="8.6131923"><ele>197.33333333333331</ele><time>2026-04-25T15:05:20.471Z</time></trkpt><trkpt lat="39.1893145" lon="8.6130785"><ele>198.0</ele><time>2026-04-25T15:05:21.464Z</time></trkpt><trkpt lat="39.189325" lon="8.6129873"><ele>198.66666666666669</ele><time>2026-04-25T15:05:22.507Z</time></trkpt><trkpt lat="39.1893421" lon="8.6128876"><ele>199.33333333333334</ele><time>2026-04-25T15:05:23.466Z</time></trkpt><trkpt lat="39.1893611" lon="8.612804"><ele>200.0</ele><time>2026-04-25T15:05:24.473Z</time></trkpt><trkpt lat="39.1893898" lon="8.6127141"><ele>202.83333333333334</ele><time>2026-04-25T15:05:25.469Z</time></trkpt><trkpt lat="39.1894241" lon="8.6126332"><ele>205.66666666666669</ele><time>2026-04-25T15:05:26.462Z</time></trkpt><trkpt lat="39.1894479" lon="8.6125408"><ele>208.5</ele><time>2026-04-25T15:05:27.465Z</time></trkpt><trkpt lat="39.1894823" lon="8.6124562"><ele>211.33333333333331</ele><time>2026-04-25T15:05:28.47Z</time></trkpt><trkpt lat="39.1895336" lon="8.6123787"><ele>214.16666666666666</ele><time>2026-04-25T15:05:29.472Z</time></trkpt><trkpt lat="39.1895809" lon="8.6123106"><ele>217.0</ele><time>2026-04-25T15:05:30.47Z</time></trkpt><trkpt lat="39.1896293" lon="8.6122302"><ele>216.99999999999997</ele><time>2026-04-25T15:05:31.469Z</time></trkpt><trkpt lat="39.1896686" lon="8.6121664"><ele>217.0</ele><time>2026-04-25T15:05:32.503Z</time></trkpt><trkpt lat="39.1897475" lon="8.6120844"><ele>217.0</ele><time>2026-04-25T15:05:34.473Z</time></trkpt><trkpt lat="39.1898306" lon="8.6119931"><ele>217.0</ele><time>2026-04-25T15:05:36.464Z</time></trkpt><trkpt lat="39.1898678" lon="8.6119215"><ele>216.99999999999997</ele><time>2026-04-25T15:05:37.472Z</time></trkpt><trkpt lat="39.1899216" lon="8.6118536"><ele>217.0</ele><time>2026-04-25T15:05:38.466Z</time></trkpt><trkpt lat="39.1899795" lon="8.6117876"><ele>216.16666666666666</ele><time>2026-04-25T15:05:39.484Z</time></trkpt><trkpt lat="39.1900405" lon="8.6117178"><ele>215.33333333333331</ele><time>2026-04-25T15:05:40.478Z</time></trkpt><trkpt lat="39.1901039" lon="8.6116558"><ele>214.5</ele><time>2026-04-25T15:05:41.472Z</time></trkpt><trkpt lat="39.1901603" lon="8.6116068"><ele>213.66666666666669</ele><time>2026-04-25T15:05:42.464Z</time></trkpt><trkpt lat="39.1902187" lon="8.6115588"><ele>212.83333333333334</ele><time>2026-04-25T15:05:43.505Z</time></trkpt><trkpt lat="39.1903036" lon="8.6115005"><ele>212.0</ele><time>2026-04-25T15:05:45.47Z</time></trkpt><trkpt lat="39.1903805" lon="8.6114969"><ele>212.0</ele><time>2026-04-25T15:05:47.469Z</time></trkpt><trkpt lat="39.1904655" lon="8.6114521"><ele>212.0</ele><time>2026-04-25T15:05:49.465Z</time></trkpt><trkpt lat="39.1905593" lon="8.6113859"><ele>212.0</ele><time>2026-04-25T15:05:51.463Z</time></trkpt><trkpt lat="39.1906456" lon="8.6113038"><ele>212.0</ele><time>2026-04-25T15:05:53.462Z</time></trkpt><trkpt lat="39.1907413" lon="8.6112322"><ele>212.0</ele><time>2026-04-25T15:05:55.475Z</time></trkpt><trkpt lat="39.190827" lon="8.6111816"><ele>211.66666666666669</ele><time>2026-04-25T15:05:57.475Z</time></trkpt><trkpt lat="39.1909146" lon="8.6111736"><ele>211.33333333333334</ele><time>2026-04-25T15:05:59.471Z</time></trkpt><trkpt lat="39.1909809" lon="8.6111357"><ele>211.0</ele><time>2026-04-25T15:06:01.475Z</time></trkpt><trkpt lat="39.1910451" lon="8.6111172"><ele>210.66666666666669</ele><time>2026-04-25T15:06:17.465Z</time></trkpt><trkpt lat="39.1910462" lon="8.6110303"><ele>210.33333333333334</ele><time>2026-04-25T15:06:20.478Z</time></trkpt><trkpt lat="39.1910576" lon="8.6109063"><ele>210.0</ele><time>2026-04-25T15:06:22.493Z</time></trkpt><trkpt lat="39.1910989" lon="8.6107881"><ele>212.33333333333334</ele><time>2026-04-25T15:06:24.469Z</time></trkpt><trkpt lat="39.1911399" lon="8.6106988"><ele>214.66666666666669</ele><time>2026-04-25T15:06:26.469Z</time></trkpt><trkpt lat="39.191205" lon="8.6106046"><ele>217.0</ele><time>2026-04-25T15:06:28.469Z</time></trkpt><trkpt lat="39.1913036" lon="8.6105047"><ele>219.33333333333334</ele><time>2026-04-25T15:06:30.47Z</time></trkpt><trkpt lat="39.1913632" lon="8.6104516"><ele>221.66666666666669</ele><time>2026-04-25T15:06:31.466Z</time></trkpt><trkpt lat="39.1914222" lon="8.6104015"><ele>224.0</ele><time>2026-04-25T15:06:32.471Z</time></trkpt><trkpt lat="39.1914823" lon="8.6103498"><ele>227.50000000000003</ele><time>2026-04-25T15:06:33.474Z</time></trkpt><trkpt lat="39.1915371" lon="8.6103073"><ele>231.0</ele><time>2026-04-25T15:06:34.479Z</time></trkpt><trkpt lat="39.1916008" lon="8.6102847"><ele>234.5</ele><time>2026-04-25T15:06:35.472Z</time></trkpt><trkpt lat="39.1916693" lon="8.6102815"><ele>238.0</ele><time>2026-04-25T15:06:36.465Z</time></trkpt><trkpt lat="39.1917725" lon="8.6102452"><ele>241.50000000000003</ele><time>2026-04-25T15:06:38.473Z</time></trkpt><trkpt lat="39.1918679" lon="8.6102053"><ele>245.0</ele><time>2026-04-25T15:06:40.475Z</time></trkpt><trkpt lat="39.1919594" lon="8.6101616"><ele>245.00000000000003</ele><time>2026-04-25T15:06:42.471Z</time></trkpt><trkpt lat="39.1920497" lon="8.6101627"><ele>245.0</ele><time>2026-04-25T15:06:44.475Z</time></trkpt><trkpt lat="39.1921123" lon="8.6101795"><ele>245.0</ele><time>2026-04-25T15:06:45.47Z</time></trkpt><trkpt lat="39.192218" lon="8.610215"><ele>245.0</ele><time>2026-04-25T15:06:47.492Z</time></trkpt><trkpt lat="39.1922756" lon="8.6102506"><ele>245.00000000000003</ele><time>2026-04-25T15:06:48.466Z</time></trkpt><trkpt lat="39.1923821" lon="8.6102998"><ele>245.0</ele><time>2026-04-25T15:06:50.48Z</time></trkpt><trkpt lat="39.1924639" lon="8.6103546"><ele>243.33333333333334</ele><time>2026-04-25T15:06:52.484Z</time></trkpt><trkpt lat="39.1925142" lon="8.6104332"><ele>241.66666666666669</ele><time>2026-04-25T15:06:54.476Z</time></trkpt><trkpt lat="39.19254" lon="8.6105447"><ele>240.0</ele><time>2026-04-25T15:06:56.479Z</time></trkpt><trkpt lat="39.1925871" lon="8.610615"><ele>238.33333333333331</ele><time>2026-04-25T15:06:57.475Z</time></trkpt><trkpt lat="39.192629" lon="8.6106787"><ele>236.66666666666666</ele><time>2026-04-25T15:06:58.469Z</time></trkpt><trkpt lat="39.192679" lon="8.6108064"><ele>235.0</ele><time>2026-04-25T15:07:00.475Z</time></trkpt><trkpt lat="39.1926861" lon="8.6109"><ele>235.0</ele><time>2026-04-25T15:07:01.478Z</time></trkpt><trkpt lat="39.192728" lon="8.6110356"><ele>235.0</ele><time>2026-04-25T15:07:03.478Z</time></trkpt><trkpt lat="39.19277" lon="8.6111533"><ele>235.0</ele><time>2026-04-25T15:07:05.472Z</time></trkpt><trkpt lat="39.1928415" lon="8.6112418"><ele>235.0</ele><time>2026-04-25T15:07:07.469Z</time></trkpt><trkpt lat="39.1929007" lon="8.6113724"><ele>235.0</ele><time>2026-04-25T15:07:09.475Z</time></trkpt><trkpt lat="39.1929486" lon="8.6114949"><ele>235.8</ele><time>2026-04-25T15:07:11.471Z</time></trkpt><trkpt lat="39.1930044" lon="8.6116217"><ele>236.6</ele><time>2026-04-25T15:07:13.482Z</time></trkpt><trkpt lat="39.1930659" lon="8.611734"><ele>237.39999999999998</ele><time>2026-04-25T15:07:15.483Z</time></trkpt><trkpt lat="39.1931733" lon="8.6118304"><ele>238.2</ele><time>2026-04-25T15:07:17.473Z</time></trkpt><trkpt lat="39.1932348" lon="8.6118788"><ele>239.0</ele><time>2026-04-25T15:07:18.466Z</time></trkpt><trkpt lat="39.193295" lon="8.6119187"><ele>240.00000000000003</ele><time>2026-04-25T15:07:19.496Z</time></trkpt><trkpt lat="39.1933593" lon="8.6119444"><ele>241.0</ele><time>2026-04-25T15:07:20.475Z</time></trkpt><trkpt lat="39.1934248" lon="8.6119583"><ele>242.0</ele><time>2026-04-25T15:07:21.476Z</time></trkpt><trkpt lat="39.1935047" lon="8.6119779"><ele>243.0</ele><time>2026-04-25T15:07:22.513Z</time></trkpt><trkpt lat="39.1935862" lon="8.6120062"><ele>244.00000000000003</ele><time>2026-04-25T15:07:23.473Z</time></trkpt><trkpt lat="39.1936542" lon="8.6120432"><ele>245.0</ele><time>2026-04-25T15:07:24.468Z</time></trkpt><trkpt lat="39.193731" lon="8.6120974"><ele>245.4</ele><time>2026-04-25T15:07:25.477Z</time></trkpt><trkpt lat="39.1938071" lon="8.6121652"><ele>245.8</ele><time>2026-04-25T15:07:26.473Z</time></trkpt><trkpt lat="39.1938862" lon="8.6122513"><ele>246.2</ele><time>2026-04-25T15:07:27.475Z</time></trkpt><trkpt lat="39.1939638" lon="8.6123352"><ele>246.6</ele><time>2026-04-25T15:07:28.503Z</time></trkpt><trkpt lat="39.1940229" lon="8.6124129"><ele>247.0</ele><time>2026-04-25T15:07:29.469Z</time></trkpt><trkpt lat="39.1940718" lon="8.612482"><ele>248.16666666666666</ele><time>2026-04-25T15:07:30.472Z</time></trkpt><trkpt lat="39.1941223" lon="8.6125549"><ele>249.33333333333331</ele><time>2026-04-25T15:07:31.52Z</time></trkpt><trkpt lat="39.1941705" lon="8.6126396"><ele>250.5</ele><time>2026-04-25T15:07:32.475Z</time></trkpt><trkpt lat="39.1942176" lon="8.6127999"><ele>251.66666666666669</ele><time>2026-04-25T15:07:34.485Z</time></trkpt><trkpt lat="39.194233" lon="8.6128976"><ele>252.83333333333334</ele><time>2026-04-25T15:07:35.486Z</time></trkpt><trkpt lat="39.1942484" lon="8.6129868"><ele>254.0</ele><time>2026-04-25T15:07:36.48Z</time></trkpt><trkpt lat="39.194275" lon="8.6130662"><ele>254.00000000000003</ele><time>2026-04-25T15:07:37.48Z</time></trkpt><trkpt lat="39.194336" lon="8.6131728"><ele>254.0</ele><time>2026-04-25T15:07:39.487Z</time></trkpt><trkpt lat="39.1943974" lon="8.6132281"><ele>254.0</ele><time>2026-04-25T15:07:52.479Z</time></trkpt><trkpt lat="39.1944702" lon="8.6132357"><ele>254.0</ele><time>2026-04-25T15:08:23.478Z</time></trkpt><trkpt lat="39.1945486" lon="8.6132161"><ele>254.00000000000003</ele><time>2026-04-25T15:08:26.474Z</time></trkpt><trkpt lat="39.1946228" lon="8.6132615"><ele>254.0</ele><time>2026-04-25T15:08:28.48Z</time></trkpt><trkpt lat="39.1946987" lon="8.6133052"><ele>254.0</ele><time>2026-04-25T15:08:29.477Z</time></trkpt><trkpt lat="39.1947826" lon="8.6133653"><ele>253.99999999999997</ele><time>2026-04-25T15:08:30.484Z</time></trkpt><trkpt lat="39.1948573" lon="8.6134232"><ele>253.99999999999997</ele><time>2026-04-25T15:08:31.489Z</time></trkpt><trkpt lat="39.194929" lon="8.6134755"><ele>254.0</ele><time>2026-04-25T15:08:32.478Z</time></trkpt><trkpt lat="39.1950327" lon="8.6134838"><ele>254.0</ele><time>2026-04-25T15:08:34.505Z</time></trkpt><trkpt lat="39.195141" lon="8.6134152"><ele>255.0</ele><time>2026-04-25T15:08:36.491Z</time></trkpt><trkpt lat="39.1952071" lon="8.6133496"><ele>256.0</ele><time>2026-04-25T15:08:37.511Z</time></trkpt><trkpt lat="39.1952666" lon="8.6132951"><ele>257.0</ele><time>2026-04-25T15:08:38.479Z</time></trkpt><trkpt lat="39.1953311" lon="8.6132498"><ele>258.0</ele><time>2026-04-25T15:08:39.467Z</time></trkpt><trkpt lat="39.1953964" lon="8.6132199"><ele>259.0</ele><time>2026-04-25T15:08:40.483Z</time></trkpt><trkpt lat="39.1954614" lon="8.613225"><ele>260.0</ele><time>2026-04-25T15:08:41.485Z</time></trkpt><trkpt lat="39.1955254" lon="8.6132652"><ele>261.0</ele><time>2026-04-25T15:08:42.478Z</time></trkpt><trkpt lat="39.1955791" lon="8.6133149"><ele>261.0</ele><time>2026-04-25T15:08:43.47Z</time></trkpt><trkpt lat="39.1956688" lon="8.6133874"><ele>261.0</ele><time>2026-04-25T15:08:45.484Z</time></trkpt><trkpt lat="39.1956553" lon="8.613475"><ele>261.0</ele><time>2026-04-25T15:08:53.503Z</time></trkpt><trkpt lat="39.1955758" lon="8.6135759"><ele>261.0</ele><time>2026-04-25T15:08:55.478Z</time></trkpt><trkpt lat="39.1955499" lon="8.6137157"><ele>261.0</ele><time>2026-04-25T15:08:57.482Z</time></trkpt><trkpt lat="39.1955932" lon="8.6138544"><ele>260.0</ele><time>2026-04-25T15:08:59.479Z</time></trkpt><trkpt lat="39.1956421" lon="8.6139998"><ele>259.0</ele><time>2026-04-25T15:09:01.47Z</time></trkpt><trkpt lat="39.1956185" lon="8.6140852"><ele>258.0</ele><time>2026-04-25T15:09:02.509Z</time></trkpt><trkpt lat="39.1955712" lon="8.614171"><ele>257.0</ele><time>2026-04-25T15:09:03.481Z</time></trkpt><trkpt lat="39.1955011" lon="8.614252"><ele>256.0</ele><time>2026-04-25T15:09:04.476Z</time></trkpt><trkpt lat="39.1954274" lon="8.614326"><ele>256.0</ele><time>2026-04-25T15:09:05.504Z</time></trkpt><trkpt lat="39.1953528" lon="8.614403"><ele>256.0</ele><time>2026-04-25T15:09:06.478Z</time></trkpt><trkpt lat="39.1952673" lon="8.614474"><ele>256.0</ele><time>2026-04-25T15:09:07.488Z</time></trkpt><trkpt lat="39.1951916" lon="8.6145397"><ele>256.0</ele><time>2026-04-25T15:09:08.487Z</time></trkpt><trkpt lat="39.1951017" lon="8.6146266"><ele>256.0</ele><time>2026-04-25T15:09:10.517Z</time></trkpt><trkpt lat="39.195066" lon="8.6147353"><ele>256.6</ele><time>2026-04-25T15:09:12.48Z</time></trkpt><trkpt lat="39.1951538" lon="8.6147967"><ele>257.20000000000005</ele><time>2026-04-25T15:09:14.484Z</time></trkpt><trkpt lat="39.1952881" lon="8.6147856"><ele>257.79999999999995</ele><time>2026-04-25T15:09:16.49Z</time></trkpt><trkpt lat="39.1953759" lon="8.6147728"><ele>258.4</ele><time>2026-04-25T15:09:17.476Z</time></trkpt><trkpt lat="39.1954506" lon="8.6147779"><ele>259.0</ele><time>2026-04-25T15:09:18.481Z</time></trkpt><trkpt lat="39.1955137" lon="8.6147883"><ele>259.0</ele><time>2026-04-25T15:09:19.476Z</time></trkpt><trkpt lat="39.195632" lon="8.6147834"><ele>259.0</ele><time>2026-04-25T15:09:21.48Z</time></trkpt><trkpt lat="39.1957382" lon="8.614771"><ele>259.0</ele><time>2026-04-25T15:09:23.479Z</time></trkpt><trkpt lat="39.1958427" lon="8.6147019"><ele>259.0</ele><time>2026-04-25T15:09:25.486Z</time></trkpt><trkpt lat="39.1958984" lon="8.6146359"><ele>259.0</ele><time>2026-04-25T15:09:26.493Z</time></trkpt><trkpt lat="39.1959763" lon="8.6145566"><ele>261.0</ele><time>2026-04-25T15:09:27.472Z</time></trkpt><trkpt lat="39.1960726" lon="8.6144802"><ele>263.0</ele><time>2026-04-25T15:09:28.481Z</time></trkpt><trkpt lat="39.1961799" lon="8.6144004"><ele>265.0</ele><time>2026-04-25T15:09:29.484Z</time></trkpt><trkpt lat="39.1962876" lon="8.6143383"><ele>267.0</ele><time>2026-04-25T15:09:30.476Z</time></trkpt><trkpt lat="39.1963875" lon="8.6142835"><ele>267.0</ele><time>2026-04-25T15:09:31.472Z</time></trkpt><trkpt lat="39.1964841" lon="8.6142287"><ele>267.0</ele><time>2026-04-25T15:09:32.489Z</time></trkpt><trkpt lat="39.1965803" lon="8.6141743"><ele>267.0</ele><time>2026-04-25T15:09:33.486Z</time></trkpt><trkpt lat="39.1966738" lon="8.6141251"><ele>267.0</ele><time>2026-04-25T15:09:34.485Z</time></trkpt><trkpt lat="39.1967638" lon="8.6140838"><ele>267.0</ele><time>2026-04-25T15:09:35.479Z</time></trkpt><trkpt lat="39.196843" lon="8.614063"><ele>268.4</ele><time>2026-04-25T15:09:36.469Z</time></trkpt><trkpt lat="39.1969299" lon="8.6140614"><ele>269.79999999999995</ele><time>2026-04-25T15:09:37.477Z</time></trkpt><trkpt lat="39.1970261" lon="8.6140805"><ele>271.2</ele><time>2026-04-25T15:09:38.482Z</time></trkpt><trkpt lat="39.1971253" lon="8.614126"><ele>272.59999999999997</ele><time>2026-04-25T15:09:39.475Z</time></trkpt><trkpt lat="39.1972194" lon="8.6141895"><ele>274.0</ele><time>2026-04-25T15:09:40.494Z</time></trkpt><trkpt lat="39.1973223" lon="8.6142403"><ele>274.0</ele><time>2026-04-25T15:09:41.475Z</time></trkpt><trkpt lat="39.1974352" lon="8.6142655"><ele>274.0</ele><time>2026-04-25T15:09:42.477Z</time></trkpt><trkpt lat="39.1975446" lon="8.6142516"><ele>274.0</ele><time>2026-04-25T15:09:43.469Z</time></trkpt><trkpt lat="39.1976619" lon="8.6142249"><ele>274.0</ele><time>2026-04-25T15:09:44.474Z</time></trkpt><trkpt lat="39.1977909" lon="8.6141853"><ele>274.0</ele><time>2026-04-25T15:09:45.474Z</time></trkpt><trkpt lat="39.1979109" lon="8.6141522"><ele>274.0</ele><time>2026-04-25T15:09:46.473Z</time></trkpt><trkpt lat="39.1980268" lon="8.6141244"><ele>274.0</ele><time>2026-04-25T15:09:47.477Z</time></trkpt><trkpt lat="39.1981338" lon="8.6141061"><ele>274.0</ele><time>2026-04-25T15:09:48.489Z</time></trkpt><trkpt lat="39.1982379" lon="8.614094"><ele>273.4</ele><time>2026-04-25T15:09:49.499Z</time></trkpt><trkpt lat="39.1983402" lon="8.6140753"><ele>272.79999999999995</ele><time>2026-04-25T15:09:50.489Z</time></trkpt><trkpt lat="39.1984347" lon="8.614051"><ele>272.20000000000005</ele><time>2026-04-25T15:09:51.481Z</time></trkpt><trkpt lat="39.1985135" lon="8.6140085"><ele>271.6</ele><time>2026-04-25T15:09:52.484Z</time></trkpt><trkpt lat="39.1985835" lon="8.6139388"><ele>271.0</ele><time>2026-04-25T15:09:53.469Z</time></trkpt><trkpt lat="39.1986552" lon="8.6138502"><ele>271.0</ele><time>2026-04-25T15:09:54.498Z</time></trkpt><trkpt lat="39.1987335" lon="8.613753"><ele>271.0</ele><time>2026-04-25T15:09:55.483Z</time></trkpt><trkpt lat="39.1988105" lon="8.6136796"><ele>271.0</ele><time>2026-04-25T15:09:56.481Z</time></trkpt><trkpt lat="39.1989046" lon="8.6136143"><ele>271.0</ele><time>2026-04-25T15:09:57.477Z</time></trkpt><trkpt lat="39.1990088" lon="8.6135707"><ele>271.0</ele><time>2026-04-25T15:09:58.477Z</time></trkpt><trkpt lat="39.1990933" lon="8.6135267"><ele>273.40000000000003</ele><time>2026-04-25T15:09:59.466Z</time></trkpt><trkpt lat="39.1991791" lon="8.6134882"><ele>275.8</ele><time>2026-04-25T15:10:00.484Z</time></trkpt><trkpt lat="39.199269" lon="8.6134596"><ele>278.20000000000005</ele><time>2026-04-25T15:10:01.473Z</time></trkpt><trkpt lat="39.1993722" lon="8.6134496"><ele>280.6</ele><time>2026-04-25T15:10:02.467Z</time></trkpt><trkpt lat="39.1994732" lon="8.6134583"><ele>283.0</ele><time>2026-04-25T15:10:03.476Z</time></trkpt><trkpt lat="39.1995675" lon="8.6134715"><ele>283.0</ele><time>2026-04-25T15:10:04.481Z</time></trkpt><trkpt lat="39.1996515" lon="8.6134918"><ele>283.0</ele><time>2026-04-25T15:10:05.472Z</time></trkpt><trkpt lat="39.199729" lon="8.6135205"><ele>283.0</ele><time>2026-04-25T15:10:06.504Z</time></trkpt><trkpt lat="39.199808" lon="8.6135574"><ele>283.0</ele><time>2026-04-25T15:10:07.481Z</time></trkpt><trkpt lat="39.1998849" lon="8.6136088"><ele>283.0</ele><time>2026-04-25T15:10:08.482Z</time></trkpt><trkpt lat="39.1999643" lon="8.613677"><ele>283.0</ele><time>2026-04-25T15:10:09.484Z</time></trkpt><trkpt lat="39.2000326" lon="8.613759"><ele>280.4</ele><time>2026-04-25T15:10:10.479Z</time></trkpt><trkpt lat="39.2000939" lon="8.613843"><ele>277.8</ele><time>2026-04-25T15:10:11.475Z</time></trkpt><trkpt lat="39.200152" lon="8.613905"><ele>275.2</ele><time>2026-04-25T15:10:12.477Z</time></trkpt><trkpt lat="39.2002375" lon="8.6139693"><ele>272.6</ele><time>2026-04-25T15:10:14.48Z</time></trkpt><trkpt lat="39.2003195" lon="8.6140401"><ele>270.0</ele><time>2026-04-25T15:10:16.479Z</time></trkpt><trkpt lat="39.2003884" lon="8.6141328"><ele>270.0</ele><time>2026-04-25T15:10:18.479Z</time></trkpt><trkpt lat="39.2004639" lon="8.614285"><ele>270.0</ele><time>2026-04-25T15:10:20.476Z</time></trkpt><trkpt lat="39.2005059" lon="8.614391"><ele>270.0</ele><time>2026-04-25T15:10:21.478Z</time></trkpt><trkpt lat="39.2005483" lon="8.6144935"><ele>270.0</ele><time>2026-04-25T15:10:22.492Z</time></trkpt><trkpt lat="39.200579" lon="8.6145863"><ele>270.0</ele><time>2026-04-25T15:10:23.487Z</time></trkpt><trkpt lat="39.2006102" lon="8.6146773"><ele>270.4</ele><time>2026-04-25T15:10:24.49Z</time></trkpt><trkpt lat="39.2006528" lon="8.6147602"><ele>270.8</ele><time>2026-04-25T15:10:25.478Z</time></trkpt><trkpt lat="39.2006971" lon="8.614827"><ele>271.2</ele><time>2026-04-25T15:10:26.492Z</time></trkpt><trkpt lat="39.2007902" lon="8.6149376"><ele>271.6</ele><time>2026-04-25T15:10:28.496Z</time></trkpt><trkpt lat="39.2008608" lon="8.6150659"><ele>272.0</ele><time>2026-04-25T15:10:30.48Z</time></trkpt><trkpt lat="39.2008759" lon="8.6151645"><ele>272.0</ele><time>2026-04-25T15:10:31.491Z</time></trkpt><trkpt lat="39.2008641" lon="8.6152477"><ele>272.0</ele><time>2026-04-25T15:10:32.485Z</time></trkpt><trkpt lat="39.2008327" lon="8.6153869"><ele>272.0</ele><time>2026-04-25T15:10:34.499Z</time></trkpt><trkpt lat="39.2008179" lon="8.6154853"><ele>272.0</ele><time>2026-04-25T15:10:36.496Z</time></trkpt><trkpt lat="39.2008056" lon="8.615606"><ele>272.0</ele><time>2026-04-25T15:10:38.484Z</time></trkpt><trkpt lat="39.2007943" lon="8.6157791"><ele>273.2857142857143</ele><time>2026-04-25T15:10:40.504Z</time></trkpt><trkpt lat="39.2007837" lon="8.6158677"><ele>274.57142857142856</ele><time>2026-04-25T15:10:41.484Z</time></trkpt><trkpt lat="39.2007716" lon="8.6159501"><ele>275.8571428571429</ele><time>2026-04-25T15:10:42.478Z</time></trkpt><trkpt lat="39.2007651" lon="8.6160997"><ele>277.1428571428571</ele><time>2026-04-25T15:10:44.492Z</time></trkpt><trkpt lat="39.2007675" lon="8.616183"><ele>278.42857142857144</ele><time>2026-04-25T15:10:45.476Z</time></trkpt><trkpt lat="39.2007766" lon="8.6162678"><ele>279.7142857142857</ele><time>2026-04-25T15:10:46.524Z</time></trkpt><trkpt lat="39.200786" lon="8.6163537"><ele>281.0</ele><time>2026-04-25T15:10:47.486Z</time></trkpt><trkpt lat="39.2007987" lon="8.6164476"><ele>281.14285714285717</ele><time>2026-04-25T15:10:48.489Z</time></trkpt><trkpt lat="39.2008132" lon="8.6165533"><ele>281.2857142857143</ele><time>2026-04-25T15:10:49.491Z</time></trkpt><trkpt lat="39.200824" lon="8.616652"><ele>281.42857142857144</ele><time>2026-04-25T15:10:50.485Z</time></trkpt><trkpt lat="39.2008375" lon="8.6167423"><ele>281.57142857142856</ele><time>2026-04-25T15:10:51.512Z</time></trkpt><trkpt lat="39.2008495" lon="8.6168348"><ele>281.7142857142857</ele><time>2026-04-25T15:10:52.495Z</time></trkpt><trkpt lat="39.2008626" lon="8.6169194"><ele>281.8571428571429</ele><time>2026-04-25T15:10:53.488Z</time></trkpt><trkpt lat="39.2008806" lon="8.6170176"><ele>282.0</ele><time>2026-04-25T15:10:54.498Z</time></trkpt><trkpt lat="39.2009077" lon="8.6171181"><ele>282.1666666666667</ele><time>2026-04-25T15:10:55.496Z</time></trkpt><trkpt lat="39.2009381" lon="8.6172174"><ele>282.3333333333333</ele><time>2026-04-25T15:10:56.517Z</time></trkpt><trkpt lat="39.2009689" lon="8.617316"><ele>282.5</ele><time>2026-04-25T15:10:57.485Z</time></trkpt><trkpt lat="39.2010013" lon="8.6173966"><ele>282.66666666666663</ele><time>2026-04-25T15:10:58.489Z</time></trkpt><trkpt lat="39.2010284" lon="8.6174858"><ele>282.8333333333333</ele><time>2026-04-25T15:10:59.492Z</time></trkpt><trkpt lat="39.2010537" lon="8.6175712"><ele>283.0</ele><time>2026-04-25T15:11:00.495Z</time></trkpt><trkpt lat="39.2010682" lon="8.61767"><ele>283.0</ele><time>2026-04-25T15:11:01.492Z</time></trkpt><trkpt lat="39.201077" lon="8.6177632"><ele>283.0</ele><time>2026-04-25T15:11:02.494Z</time></trkpt><trkpt lat="39.2010826" lon="8.6179069"><ele>283.0</ele><time>2026-04-25T15:11:04.498Z</time></trkpt><trkpt lat="39.2010924" lon="8.6179877"><ele>283.0</ele><time>2026-04-25T15:11:05.494Z</time></trkpt><trkpt lat="39.2011022" lon="8.618089"><ele>283.0</ele><time>2026-04-25T15:11:06.485Z</time></trkpt><trkpt lat="39.2011066" lon="8.6182204"><ele>283.0</ele><time>2026-04-25T15:11:07.488Z</time></trkpt><trkpt lat="39.2010986" lon="8.618368"><ele>284.0</ele><time>2026-04-25T15:11:08.484Z</time></trkpt><trkpt lat="39.2010784" lon="8.618509"><ele>285.0</ele><time>2026-04-25T15:11:09.488Z</time></trkpt><trkpt lat="39.2010675" lon="8.6186443"><ele>286.0</ele><time>2026-04-25T15:11:10.519Z</time></trkpt><trkpt lat="39.2010516" lon="8.6187651"><ele>287.0</ele><time>2026-04-25T15:11:11.492Z</time></trkpt><trkpt lat="39.2010403" lon="8.6188675"><ele>288.0</ele><time>2026-04-25T15:11:12.488Z</time></trkpt><trkpt lat="39.2010102" lon="8.6190263"><ele>289.14285714285717</ele><time>2026-04-25T15:11:14.487Z</time></trkpt><trkpt lat="39.200994" lon="8.6191132"><ele>290.2857142857143</ele><time>2026-04-25T15:11:15.484Z</time></trkpt><trkpt lat="39.2009824" lon="8.6191949"><ele>291.42857142857144</ele><time>2026-04-25T15:11:16.479Z</time></trkpt><trkpt lat="39.2009796" lon="8.6192778"><ele>292.57142857142856</ele><time>2026-04-25T15:11:17.472Z</time></trkpt><trkpt lat="39.2009906" lon="8.6193705"><ele>293.7142857142857</ele><time>2026-04-25T15:11:18.486Z</time></trkpt><trkpt lat="39.201001" lon="8.6194603"><ele>294.8571428571429</ele><time>2026-04-25T15:11:19.473Z</time></trkpt><trkpt lat="39.2010264" lon="8.6195612"><ele>296.0</ele><time>2026-04-25T15:11:20.526Z</time></trkpt><trkpt lat="39.2010608" lon="8.6196507"><ele>296.5</ele><time>2026-04-25T15:11:21.493Z</time></trkpt><trkpt lat="39.2011048" lon="8.6197433"><ele>297.0</ele><time>2026-04-25T15:11:22.482Z</time></trkpt><trkpt lat="39.2011564" lon="8.6198315"><ele>297.5</ele><time>2026-04-25T15:11:23.478Z</time></trkpt><trkpt lat="39.2012143" lon="8.6199182"><ele>298.0</ele><time>2026-04-25T15:11:24.488Z</time></trkpt><trkpt lat="39.201271" lon="8.6200024"><ele>298.5</ele><time>2026-04-25T15:11:25.48Z</time></trkpt><trkpt lat="39.2013278" lon="8.6200712"><ele>299.0</ele><time>2026-04-25T15:11:26.482Z</time></trkpt><trkpt lat="39.2013748" lon="8.6201442"><ele>299.0</ele><time>2026-04-25T15:11:27.482Z</time></trkpt><trkpt lat="39.2014183" lon="8.6202345"><ele>299.0</ele><time>2026-04-25T15:11:28.48Z</time></trkpt><trkpt lat="39.2014558" lon="8.620327"><ele>299.0</ele><time>2026-04-25T15:11:29.49Z</time></trkpt><trkpt lat="39.2014913" lon="8.6204067"><ele>299.0</ele><time>2026-04-25T15:11:30.486Z</time></trkpt><trkpt lat="39.2015314" lon="8.6204838"><ele>299.0</ele><time>2026-04-25T15:11:31.508Z</time></trkpt><trkpt lat="39.2015629" lon="8.6205551"><ele>299.0</ele><time>2026-04-25T15:11:32.491Z</time></trkpt><trkpt lat="39.2015918" lon="8.6206453"><ele>299.0</ele><time>2026-04-25T15:11:33.487Z</time></trkpt><trkpt lat="39.2016319" lon="8.6207641"><ele>299.0</ele><time>2026-04-25T15:11:34.487Z</time></trkpt><trkpt lat="39.2016796" lon="8.6208843"><ele>299.0</ele><time>2026-04-25T15:11:35.488Z</time></trkpt><trkpt lat="39.2017295" lon="8.6210147"><ele>299.0</ele><time>2026-04-25T15:11:36.497Z</time></trkpt><trkpt lat="39.2017834" lon="8.6211495"><ele>299.0</ele><time>2026-04-25T15:11:37.49Z</time></trkpt><trkpt lat="39.2018385" lon="8.6212705"><ele>299.0</ele><time>2026-04-25T15:11:38.487Z</time></trkpt><trkpt lat="39.2018932" lon="8.6213853"><ele>299.0</ele><time>2026-04-25T15:11:39.497Z</time></trkpt><trkpt lat="39.2019426" lon="8.6214947"><ele>299.0</ele><time>2026-04-25T15:11:40.486Z</time></trkpt><trkpt lat="39.2019915" lon="8.6216035"><ele>299.0</ele><time>2026-04-25T15:11:41.492Z</time></trkpt><trkpt lat="39.2020424" lon="8.6217108"><ele>299.0</ele><time>2026-04-25T15:11:42.492Z</time></trkpt><trkpt lat="39.2020993" lon="8.6218326"><ele>299.0</ele><time>2026-04-25T15:11:43.485Z</time></trkpt><trkpt lat="39.2021703" lon="8.6219585"><ele>300.0</ele><time>2026-04-25T15:11:44.488Z</time></trkpt><trkpt lat="39.2022434" lon="8.6220792"><ele>301.0</ele><time>2026-04-25T15:11:45.495Z</time></trkpt><trkpt lat="39.2023153" lon="8.6221934"><ele>302.0</ele><time>2026-04-25T15:11:46.498Z</time></trkpt><trkpt lat="39.2023881" lon="8.6223019"><ele>303.0</ele><time>2026-04-25T15:11:47.489Z</time></trkpt><trkpt lat="39.2024584" lon="8.6224256"><ele>303.0</ele><time>2026-04-25T15:11:48.49Z</time></trkpt><trkpt lat="39.2025191" lon="8.6225445"><ele>303.0</ele><time>2026-04-25T15:11:49.487Z</time></trkpt><trkpt lat="39.2025726" lon="8.6226777"><ele>303.0</ele><time>2026-04-25T15:11:50.491Z</time></trkpt><trkpt lat="39.2026042" lon="8.6228163"><ele>303.0</ele><time>2026-04-25T15:11:51.495Z</time></trkpt><trkpt lat="39.2026177" lon="8.6229474"><ele>303.0</ele><time>2026-04-25T15:11:52.491Z</time></trkpt><trkpt lat="39.2026135" lon="8.6230799"><ele>304.25</ele><time>2026-04-25T15:11:53.489Z</time></trkpt><trkpt lat="39.202596" lon="8.6232284"><ele>305.5</ele><time>2026-04-25T15:11:54.491Z</time></trkpt><trkpt lat="39.2025695" lon="8.6233865"><ele>306.75</ele><time>2026-04-25T15:11:55.494Z</time></trkpt><trkpt lat="39.2025479" lon="8.6235402"><ele>308.0</ele><time>2026-04-25T15:11:56.491Z</time></trkpt><trkpt lat="39.2025335" lon="8.6236748"><ele>308.83333333333337</ele><time>2026-04-25T15:11:57.498Z</time></trkpt><trkpt lat="39.2025244" lon="8.6237961"><ele>309.6666666666667</ele><time>2026-04-25T15:11:58.495Z</time></trkpt><trkpt lat="39.2025122" lon="8.6239093"><ele>310.5</ele><time>2026-04-25T15:11:59.515Z</time></trkpt><trkpt lat="39.2024979" lon="8.6240225"><ele>311.3333333333333</ele><time>2026-04-25T15:12:00.498Z</time></trkpt><trkpt lat="39.2024827" lon="8.6241304"><ele>312.16666666666663</ele><time>2026-04-25T15:12:01.497Z</time></trkpt><trkpt lat="39.2024742" lon="8.6242249"><ele>313.0</ele><time>2026-04-25T15:12:02.5Z</time></trkpt><trkpt lat="39.2024727" lon="8.6243145"><ele>313.0</ele><time>2026-04-25T15:12:03.497Z</time></trkpt><trkpt lat="39.2024764" lon="8.6244675"><ele>313.0</ele><time>2026-04-25T15:12:05.491Z</time></trkpt><trkpt lat="39.2025118" lon="8.6245949"><ele>313.0</ele><time>2026-04-25T15:12:07.493Z</time></trkpt><trkpt lat="39.2025562" lon="8.6247217"><ele>313.0</ele><time>2026-04-25T15:12:09.486Z</time></trkpt><trkpt lat="39.2026182" lon="8.6248526"><ele>313.66666666666663</ele><time>2026-04-25T15:12:11.497Z</time></trkpt><trkpt lat="39.2026641" lon="8.6249109"><ele>314.3333333333333</ele><time>2026-04-25T15:12:12.492Z</time></trkpt><trkpt lat="39.2027189" lon="8.6249642"><ele>315.0</ele><time>2026-04-25T15:12:13.492Z</time></trkpt><trkpt lat="39.2027751" lon="8.6250289"><ele>315.6666666666667</ele><time>2026-04-25T15:12:14.493Z</time></trkpt><trkpt lat="39.2028302" lon="8.6251016"><ele>316.33333333333337</ele><time>2026-04-25T15:12:15.483Z</time></trkpt><trkpt lat="39.2028883" lon="8.6251898"><ele>317.0</ele><time>2026-04-25T15:12:16.495Z</time></trkpt><trkpt lat="39.2029466" lon="8.62529"><ele>318.0</ele><time>2026-04-25T15:12:17.493Z</time></trkpt><trkpt lat="39.2030059" lon="8.6253976"><ele>319.0</ele><time>2026-04-25T15:12:18.501Z</time></trkpt><trkpt lat="39.2030554" lon="8.6255114"><ele>320.0</ele><time>2026-04-25T15:12:19.493Z</time></trkpt><trkpt lat="39.2031117" lon="8.6256026"><ele>321.0</ele><time>2026-04-25T15:12:20.484Z</time></trkpt><trkpt lat="39.2031663" lon="8.6256735"><ele>322.0</ele><time>2026-04-25T15:12:21.48Z</time></trkpt><trkpt lat="39.203224" lon="8.6257187"><ele>323.0</ele><time>2026-04-25T15:12:22.487Z</time></trkpt><trkpt lat="39.203314" lon="8.6257954"><ele>323.33333333333337</ele><time>2026-04-25T15:12:24.495Z</time></trkpt><trkpt lat="39.2033832" lon="8.6258431"><ele>323.6666666666667</ele><time>2026-04-25T15:12:26.492Z</time></trkpt><trkpt lat="39.2034058" lon="8.6259207"><ele>324.0</ele><time>2026-04-25T15:12:49.491Z</time></trkpt><trkpt lat="39.20339" lon="8.6260135"><ele>324.3333333333333</ele><time>2026-04-25T15:12:50.482Z</time></trkpt><trkpt lat="39.2033649" lon="8.626106"><ele>324.66666666666663</ele><time>2026-04-25T15:12:51.487Z</time></trkpt><trkpt lat="39.2033272" lon="8.6262152"><ele>325.0</ele><time>2026-04-25T15:12:53.491Z</time></trkpt><trkpt lat="39.2032864" lon="8.6262934"><ele>325.7142857142857</ele><time>2026-04-25T15:12:55.493Z</time></trkpt><trkpt lat="39.2032574" lon="8.6263685"><ele>326.42857142857144</ele><time>2026-04-25T15:12:58.487Z</time></trkpt><trkpt lat="39.2033232" lon="8.6263571"><ele>327.14285714285717</ele><time>2026-04-25T15:13:06.483Z</time></trkpt><trkpt lat="39.2032569" lon="8.6263364"><ele>327.8571428571429</ele><time>2026-04-25T15:15:40.487Z</time></trkpt><trkpt lat="39.2032706" lon="8.6262536"><ele>328.57142857142856</ele><time>2026-04-25T15:15:52.482Z</time></trkpt><trkpt lat="39.2032427" lon="8.6261774"><ele>329.28571428571433</ele><time>2026-04-25T15:16:32.483Z</time></trkpt><trkpt lat="39.2032542" lon="8.6262652"><ele>330.0</ele><time>2026-04-25T15:17:43.528Z</time></trkpt><trkpt lat="39.2032116" lon="8.6263399"><ele>330.00000000000006</ele><time>2026-04-25T15:25:52.508Z</time></trkpt><trkpt lat="39.2032695" lon="8.6262936"><ele>330.0</ele><time>2026-04-25T15:26:24.505Z</time></trkpt><trkpt lat="39.2032688" lon="8.6261956"><ele>330.0</ele><time>2026-04-25T15:27:31.528Z</time></trkpt><trkpt lat="39.2032715" lon="8.6262846"><ele>330.0</ele><time>2026-04-25T15:39:46.488Z</time></trkpt><trkpt lat="39.2033376" lon="8.6263384"><ele>330.0</ele><time>2026-04-25T15:44:04.502Z</time></trkpt><trkpt lat="39.2032817" lon="8.6263782"><ele>330.00000000000006</ele><time>2026-04-25T15:44:09.485Z</time></trkpt><trkpt lat="39.2032232" lon="8.6264553"><ele>330.0</ele><time>2026-04-25T15:45:05.502Z</time></trkpt><trkpt lat="39.2031835" lon="8.6265229"><ele>330.14285714285717</ele><time>2026-04-25T15:45:08.497Z</time></trkpt><trkpt lat="39.2031491" lon="8.6266024"><ele>330.2857142857143</ele><time>2026-04-25T15:45:10.497Z</time></trkpt><trkpt lat="39.2031233" lon="8.6266772"><ele>330.42857142857144</ele><time>2026-04-25T15:45:12.488Z</time></trkpt><trkpt lat="39.203075" lon="8.6267511"><ele>330.57142857142856</ele><time>2026-04-25T15:45:16.496Z</time></trkpt><trkpt lat="39.2030437" lon="8.6268481"><ele>330.7142857142857</ele><time>2026-04-25T15:46:23.488Z</time></trkpt><trkpt lat="39.2030274" lon="8.6269303"><ele>330.8571428571429</ele><time>2026-04-25T15:46:24.49Z</time></trkpt><trkpt lat="39.2030189" lon="8.6270287"><ele>331.0</ele><time>2026-04-25T15:46:25.499Z</time></trkpt><trkpt lat="39.2029988" lon="8.6271344"><ele>331.0</ele><time>2026-04-25T15:46:26.49Z</time></trkpt><trkpt lat="39.2029774" lon="8.6272418"><ele>331.0</ele><time>2026-04-25T15:46:27.488Z</time></trkpt><trkpt lat="39.2029553" lon="8.6273534"><ele>331.0</ele><time>2026-04-25T15:46:28.486Z</time></trkpt><trkpt lat="39.2029329" lon="8.627471"><ele>331.0</ele><time>2026-04-25T15:46:29.487Z</time></trkpt><trkpt lat="39.2029257" lon="8.6275975"><ele>331.0</ele><time>2026-04-25T15:46:30.477Z</time></trkpt><trkpt lat="39.2029175" lon="8.6277285"><ele>332.0</ele><time>2026-04-25T15:46:31.493Z</time></trkpt><trkpt lat="39.2029148" lon="8.6278557"><ele>333.0</ele><time>2026-04-25T15:46:32.496Z</time></trkpt><trkpt lat="39.2029149" lon="8.6279746"><ele>334.0</ele><time>2026-04-25T15:46:33.485Z</time></trkpt><trkpt lat="39.202907" lon="8.6280927"><ele>335.0</ele><time>2026-04-25T15:46:34.508Z</time></trkpt><trkpt lat="39.202908" lon="8.6282275"><ele>336.0</ele><time>2026-04-25T15:46:35.486Z</time></trkpt><trkpt lat="39.202901" lon="8.6283739"><ele>336.0</ele><time>2026-04-25T15:46:36.487Z</time></trkpt><trkpt lat="39.2028843" lon="8.6285234"><ele>336.0</ele><time>2026-04-25T15:46:37.489Z</time></trkpt><trkpt lat="39.2028628" lon="8.6286944"><ele>336.0</ele><time>2026-04-25T15:46:38.497Z</time></trkpt><trkpt lat="39.2028632" lon="8.6288677"><ele>336.0</ele><time>2026-04-25T15:46:39.488Z</time></trkpt><trkpt lat="39.2028729" lon="8.6290405"><ele>337.0</ele><time>2026-04-25T15:46:40.49Z</time></trkpt><trkpt lat="39.2028836" lon="8.6292074"><ele>338.0</ele><time>2026-04-25T15:46:41.491Z</time></trkpt><trkpt lat="39.2028969" lon="8.6293717"><ele>339.0</ele><time>2026-04-25T15:46:42.485Z</time></trkpt><trkpt lat="39.202901" lon="8.6295295"><ele>340.0</ele><time>2026-04-25T15:46:43.504Z</time></trkpt><trkpt lat="39.2029065" lon="8.6296938"><ele>340.25</ele><time>2026-04-25T15:46:44.488Z</time></trkpt><trkpt lat="39.2029147" lon="8.6298603"><ele>340.5</ele><time>2026-04-25T15:46:45.487Z</time></trkpt><trkpt lat="39.2029235" lon="8.6300354"><ele>340.75</ele><time>2026-04-25T15:46:46.487Z</time></trkpt><trkpt lat="39.2029283" lon="8.6302106"><ele>341.0</ele><time>2026-04-25T15:46:47.482Z</time></trkpt><trkpt lat="39.2029267" lon="8.6303845"><ele>341.75</ele><time>2026-04-25T15:46:48.495Z</time></trkpt><trkpt lat="39.2029182" lon="8.6305614"><ele>342.5</ele><time>2026-04-25T15:46:49.495Z</time></trkpt><trkpt lat="39.2029057" lon="8.63073"><ele>343.25</ele><time>2026-04-25T15:46:50.493Z</time></trkpt><trkpt lat="39.2028956" lon="8.6308998"><ele>344.0</ele><time>2026-04-25T15:46:51.487Z</time></trkpt><trkpt lat="39.202887" lon="8.6310614"><ele>345.0</ele><time>2026-04-25T15:46:52.491Z</time></trkpt><trkpt lat="39.2028781" lon="8.6312251"><ele>346.0</ele><time>2026-04-25T15:46:53.492Z</time></trkpt><trkpt lat="39.2028653" lon="8.6313936"><ele>347.0</ele><time>2026-04-25T15:46:54.487Z</time></trkpt><trkpt lat="39.2028507" lon="8.6315638"><ele>348.0</ele><time>2026-04-25T15:46:55.487Z</time></trkpt><trkpt lat="39.2028398" lon="8.6317411"><ele>348.0</ele><time>2026-04-25T15:46:56.485Z</time></trkpt><trkpt lat="39.2028321" lon="8.6319249"><ele>348.0</ele><time>2026-04-25T15:46:57.487Z</time></trkpt><trkpt lat="39.2028229" lon="8.6320955"><ele>348.0</ele><time>2026-04-25T15:46:58.488Z</time></trkpt><trkpt lat="39.2028137" lon="8.6322694"><ele>348.0</ele><time>2026-04-25T15:46:59.489Z</time></trkpt><trkpt lat="39.2028091" lon="8.6324517"><ele>349.0</ele><time>2026-04-25T15:47:00.489Z</time></trkpt><trkpt lat="39.2028175" lon="8.6326204"><ele>350.0</ele><time>2026-04-25T15:47:01.489Z</time></trkpt><trkpt lat="39.2028391" lon="8.6327952"><ele>351.0</ele><time>2026-04-25T15:47:02.501Z</time></trkpt><trkpt lat="39.2028536" lon="8.6329687"><ele>352.0</ele><time>2026-04-25T15:47:03.497Z</time></trkpt><trkpt lat="39.2028758" lon="8.6331239"><ele>352.25</ele><time>2026-04-25T15:47:04.489Z</time></trkpt><trkpt lat="39.2028937" lon="8.63328"><ele>352.5</ele><time>2026-04-25T15:47:05.49Z</time></trkpt><trkpt lat="39.2029087" lon="8.6334328"><ele>352.75</ele><time>2026-04-25T15:47:06.491Z</time></trkpt><trkpt lat="39.2029059" lon="8.6335923"><ele>353.0</ele><time>2026-04-25T15:47:07.488Z</time></trkpt><trkpt lat="39.2028961" lon="8.6337717"><ele>352.0</ele><time>2026-04-25T15:47:08.496Z</time></trkpt><trkpt lat="39.2028727" lon="8.6339578"><ele>351.0</ele><time>2026-04-25T15:47:09.487Z</time></trkpt><trkpt lat="39.2028407" lon="8.6341396"><ele>350.0</ele><time>2026-04-25T15:47:10.491Z</time></trkpt><trkpt lat="39.2028017" lon="8.6343234"><ele>349.0</ele><time>2026-04-25T15:47:11.498Z</time></trkpt><trkpt lat="39.2027749" lon="8.6345083"><ele>347.5</ele><time>2026-04-25T15:47:12.492Z</time></trkpt><trkpt lat="39.2027452" lon="8.6346865"><ele>346.0</ele><time>2026-04-25T15:47:13.503Z</time></trkpt><trkpt lat="39.202716" lon="8.6348553"><ele>344.5</ele><time>2026-04-25T15:47:14.493Z</time></trkpt><trkpt lat="39.2026824" lon="8.6350137"><ele>343.0</ele><time>2026-04-25T15:47:15.491Z</time></trkpt><trkpt lat="39.2026318" lon="8.6351678"><ele>341.25</ele><time>2026-04-25T15:47:16.487Z</time></trkpt><trkpt lat="39.2025692" lon="8.6353143"><ele>339.5</ele><time>2026-04-25T15:47:17.504Z</time></trkpt><trkpt lat="39.2024882" lon="8.6354598"><ele>337.75</ele><time>2026-04-25T15:47:18.498Z</time></trkpt><trkpt lat="39.2023996" lon="8.6355948"><ele>336.0</ele><time>2026-04-25T15:47:19.496Z</time></trkpt><trkpt lat="39.2023037" lon="8.6357391"><ele>335.0</ele><time>2026-04-25T15:47:20.483Z</time></trkpt><trkpt lat="39.2022095" lon="8.6358856"><ele>334.0</ele><time>2026-04-25T15:47:21.489Z</time></trkpt><trkpt lat="39.2021264" lon="8.6360464"><ele>333.0</ele><time>2026-04-25T15:47:22.485Z</time></trkpt><trkpt lat="39.2020507" lon="8.6362185"><ele>333.0</ele><time>2026-04-25T15:47:23.497Z</time></trkpt><trkpt lat="39.2019764" lon="8.6363978"><ele>333.0</ele><time>2026-04-25T15:47:24.488Z</time></trkpt><trkpt lat="39.2019023" lon="8.6365823"><ele>333.0</ele><time>2026-04-25T15:47:25.49Z</time></trkpt><trkpt lat="39.2018311" lon="8.6367772"><ele>333.0</ele><time>2026-04-25T15:47:26.486Z</time></trkpt><trkpt lat="39.2017593" lon="8.636968"><ele>333.0</ele><time>2026-04-25T15:47:27.498Z</time></trkpt><trkpt lat="39.2016953" lon="8.6371508"><ele>333.0</ele><time>2026-04-25T15:47:28.488Z</time></trkpt><trkpt lat="39.2016381" lon="8.6373286"><ele>335.0</ele><time>2026-04-25T15:47:29.481Z</time></trkpt><trkpt lat="39.2015781" lon="8.6375117"><ele>337.0</ele><time>2026-04-25T15:47:30.496Z</time></trkpt><trkpt lat="39.2015258" lon="8.6377099"><ele>339.0</ele><time>2026-04-25T15:47:31.486Z</time></trkpt><trkpt lat="39.2014766" lon="8.6379146"><ele>345.0</ele><time>2026-04-25T15:47:32.49Z</time></trkpt><trkpt lat="39.2014309" lon="8.6381219"><ele>351.0</ele><time>2026-04-25T15:47:33.494Z</time></trkpt><trkpt lat="39.2013836" lon="8.63833"><ele>357.0</ele><time>2026-04-25T15:47:34.492Z</time></trkpt><trkpt lat="39.2013353" lon="8.6385239"><ele>356.0</ele><time>2026-04-25T15:47:35.485Z</time></trkpt><trkpt lat="39.201285" lon="8.6387249"><ele>355.0</ele><time>2026-04-25T15:47:36.488Z</time></trkpt><trkpt lat="39.2012294" lon="8.6389212"><ele>354.0</ele><time>2026-04-25T15:47:37.486Z</time></trkpt><trkpt lat="39.2011679" lon="8.6391098"><ele>354.0</ele><time>2026-04-25T15:47:38.486Z</time></trkpt><trkpt lat="39.2010991" lon="8.6392947"><ele>354.0</ele><time>2026-04-25T15:47:39.494Z</time></trkpt><trkpt lat="39.2010355" lon="8.6394812"><ele>354.0</ele><time>2026-04-25T15:47:40.486Z</time></trkpt><trkpt lat="39.2009821" lon="8.6396754"><ele>353.6666666666667</ele><time>2026-04-25T15:47:41.493Z</time></trkpt><trkpt lat="39.2009476" lon="8.6398827"><ele>353.33333333333337</ele><time>2026-04-25T15:47:42.493Z</time></trkpt><trkpt lat="39.2009313" lon="8.6400945"><ele>353.0</ele><time>2026-04-25T15:47:43.486Z</time></trkpt><trkpt lat="39.2009221" lon="8.640309"><ele>353.0</ele><time>2026-04-25T15:47:44.486Z</time></trkpt><trkpt lat="39.2009208" lon="8.6405216"><ele>353.0</ele><time>2026-04-25T15:47:45.497Z</time></trkpt><trkpt lat="39.2009277" lon="8.6407289"><ele>353.0</ele><time>2026-04-25T15:47:46.49Z</time></trkpt><trkpt lat="39.2009277" lon="8.6409362"><ele>351.6666666666667</ele><time>2026-04-25T15:47:47.496Z</time></trkpt><trkpt lat="39.2009233" lon="8.6411346"><ele>350.3333333333333</ele><time>2026-04-25T15:47:48.488Z</time></trkpt><trkpt lat="39.2009136" lon="8.6413474"><ele>349.0</ele><time>2026-04-25T15:47:49.488Z</time></trkpt><trkpt lat="39.200887" lon="8.6415672"><ele>349.0</ele><time>2026-04-25T15:47:50.484Z</time></trkpt><trkpt lat="39.2008328" lon="8.6417771"><ele>349.0</ele><time>2026-04-25T15:47:51.484Z</time></trkpt><trkpt lat="39.2007739" lon="8.6419871"><ele>349.0</ele><time>2026-04-25T15:47:52.498Z</time></trkpt><trkpt lat="39.2007163" lon="8.6421901"><ele>349.0</ele><time>2026-04-25T15:47:53.493Z</time></trkpt><trkpt lat="39.2006577" lon="8.6423991"><ele>349.0</ele><time>2026-04-25T15:47:54.498Z</time></trkpt><trkpt lat="39.2006007" lon="8.6426163"><ele>349.0</ele><time>2026-04-25T15:47:55.482Z</time></trkpt><trkpt lat="39.2005451" lon="8.6428341"><ele>347.3333333333333</ele><time>2026-04-25T15:47:56.505Z</time></trkpt><trkpt lat="39.2004823" lon="8.6430591"><ele>345.6666666666667</ele><time>2026-04-25T15:47:57.491Z</time></trkpt><trkpt lat="39.2004215" lon="8.6432872"><ele>344.0</ele><time>2026-04-25T15:47:58.499Z</time></trkpt><trkpt lat="39.2003629" lon="8.6435025"><ele>343.33333333333337</ele><time>2026-04-25T15:47:59.499Z</time></trkpt><trkpt lat="39.2002998" lon="8.6437195"><ele>342.6666666666667</ele><time>2026-04-25T15:48:00.488Z</time></trkpt><trkpt lat="39.2002369" lon="8.643934"><ele>342.0</ele><time>2026-04-25T15:48:01.487Z</time></trkpt><trkpt lat="39.2001791" lon="8.6441373"><ele>342.0</ele><time>2026-04-25T15:48:02.484Z</time></trkpt><trkpt lat="39.2001146" lon="8.6443417"><ele>342.0</ele><time>2026-04-25T15:48:03.489Z</time></trkpt><trkpt lat="39.2000481" lon="8.6445423"><ele>342.0</ele><time>2026-04-25T15:48:04.487Z</time></trkpt><trkpt lat="39.1999911" lon="8.6447484"><ele>341.6666666666667</ele><time>2026-04-25T15:48:05.49Z</time></trkpt><trkpt lat="39.199941" lon="8.6449467"><ele>341.33333333333337</ele><time>2026-04-25T15:48:06.488Z</time></trkpt><trkpt lat="39.1998924" lon="8.6451344"><ele>341.0</ele><time>2026-04-25T15:48:07.493Z</time></trkpt><trkpt lat="39.1998453" lon="8.6453254"><ele>343.0</ele><time>2026-04-25T15:48:08.489Z</time></trkpt><trkpt lat="39.1998056" lon="8.6455222"><ele>345.0</ele><time>2026-04-25T15:48:09.496Z</time></trkpt><trkpt lat="39.1997702" lon="8.6457242"><ele>347.0</ele><time>2026-04-25T15:48:10.493Z</time></trkpt><trkpt lat="39.1997328" lon="8.6459295"><ele>345.6666666666667</ele><time>2026-04-25T15:48:11.49Z</time></trkpt><trkpt lat="39.1996923" lon="8.6461351"><ele>344.3333333333333</ele><time>2026-04-25T15:48:12.491Z</time></trkpt><trkpt lat="39.199645" lon="8.6463435"><ele>343.0</ele><time>2026-04-25T15:48:13.496Z</time></trkpt><trkpt lat="39.1995931" lon="8.646565"><ele>343.0</ele><time>2026-04-25T15:48:14.498Z</time></trkpt><trkpt lat="39.1995329" lon="8.6468004"><ele>343.0</ele><time>2026-04-25T15:48:15.501Z</time></trkpt><trkpt lat="39.1994569" lon="8.6470316"><ele>343.0</ele><time>2026-04-25T15:48:16.488Z</time></trkpt><trkpt lat="39.1993891" lon="8.6472687"><ele>341.0</ele><time>2026-04-25T15:48:17.488Z</time></trkpt><trkpt lat="39.1993122" lon="8.6475012"><ele>339.0</ele><time>2026-04-25T15:48:18.497Z</time></trkpt><trkpt lat="39.199242" lon="8.6477254"><ele>337.0</ele><time>2026-04-25T15:48:19.485Z</time></trkpt><trkpt lat="39.1991764" lon="8.6479367"><ele>335.3333333333333</ele><time>2026-04-25T15:48:20.488Z</time></trkpt><trkpt lat="39.1991154" lon="8.6481409"><ele>333.6666666666667</ele><time>2026-04-25T15:48:21.486Z</time></trkpt><trkpt lat="39.1990536" lon="8.6483428"><ele>332.0</ele><time>2026-04-25T15:48:22.487Z</time></trkpt><trkpt lat="39.1989898" lon="8.6485461"><ele>332.0</ele><time>2026-04-25T15:48:23.486Z</time></trkpt><trkpt lat="39.1989305" lon="8.6487483"><ele>332.0</ele><time>2026-04-25T15:48:24.497Z</time></trkpt><trkpt lat="39.1988725" lon="8.648944"><ele>332.0</ele><time>2026-04-25T15:48:25.486Z</time></trkpt><trkpt lat="39.1988129" lon="8.6491374"><ele>332.0</ele><time>2026-04-25T15:48:26.484Z</time></trkpt><trkpt lat="39.1987588" lon="8.6493378"><ele>332.0</ele><time>2026-04-25T15:48:27.488Z</time></trkpt><trkpt lat="39.1986985" lon="8.6495328"><ele>332.0</ele><time>2026-04-25T15:48:28.504Z</time></trkpt><trkpt lat="39.1986363" lon="8.6497385"><ele>333.0</ele><time>2026-04-25T15:48:29.483Z</time></trkpt><trkpt lat="39.1985711" lon="8.6499401"><ele>334.0</ele><time>2026-04-25T15:48:30.488Z</time></trkpt><trkpt lat="39.198505" lon="8.6501498"><ele>335.0</ele><time>2026-04-25T15:48:31.484Z</time></trkpt><trkpt lat="39.1984426" lon="8.6503571"><ele>336.33333333333337</ele><time>2026-04-25T15:48:32.485Z</time></trkpt><trkpt lat="39.1983795" lon="8.6505666"><ele>337.6666666666667</ele><time>2026-04-25T15:48:33.479Z</time></trkpt><trkpt lat="39.1983061" lon="8.6507785"><ele>339.0</ele><time>2026-04-25T15:48:34.493Z</time></trkpt><trkpt lat="39.1982165" lon="8.6510121"><ele>339.3333333333333</ele><time>2026-04-25T15:48:35.483Z</time></trkpt><trkpt lat="39.1981102" lon="8.6512576"><ele>339.66666666666663</ele><time>2026-04-25T15:48:36.482Z</time></trkpt><trkpt lat="39.1979971" lon="8.6515043"><ele>340.0</ele><time>2026-04-25T15:48:37.496Z</time></trkpt><trkpt lat="39.1978833" lon="8.651736"><ele>342.0</ele><time>2026-04-25T15:48:38.486Z</time></trkpt><trkpt lat="39.1977743" lon="8.6519595"><ele>344.0</ele><time>2026-04-25T15:48:39.501Z</time></trkpt><trkpt lat="39.1976739" lon="8.6521741"><ele>346.0</ele><time>2026-04-25T15:48:40.491Z</time></trkpt><trkpt lat="39.1975832" lon="8.6523804"><ele>346.0</ele><time>2026-04-25T15:48:41.497Z</time></trkpt><trkpt lat="39.1974935" lon="8.652579"><ele>346.0</ele><time>2026-04-25T15:48:42.497Z</time></trkpt><trkpt lat="39.1974085" lon="8.6527614"><ele>346.0</ele><time>2026-04-25T15:48:43.498Z</time></trkpt><trkpt lat="39.1973247" lon="8.6529217"><ele>348.25</ele><time>2026-04-25T15:48:44.502Z</time></trkpt><trkpt lat="39.1972503" lon="8.6530789"><ele>350.5</ele><time>2026-04-25T15:48:45.484Z</time></trkpt><trkpt lat="39.1971849" lon="8.6532244"><ele>352.75</ele><time>2026-04-25T15:48:46.495Z</time></trkpt><trkpt lat="39.1971187" lon="8.6533495"><ele>355.0</ele><time>2026-04-25T15:48:47.495Z</time></trkpt><trkpt lat="39.1970682" lon="8.6534536"><ele>355.0</ele><time>2026-04-25T15:48:48.49Z</time></trkpt><trkpt lat="39.1970303" lon="8.6535385"><ele>355.0</ele><time>2026-04-25T15:48:49.498Z</time></trkpt><trkpt lat="39.1970059" lon="8.6536758"><ele>355.0</ele><time>2026-04-25T15:48:51.493Z</time></trkpt><trkpt lat="39.1970476" lon="8.6537653"><ele>355.0</ele><time>2026-04-25T15:48:53.488Z</time></trkpt><trkpt lat="39.1971358" lon="8.6538146"><ele>355.0</ele><time>2026-04-25T15:48:55.493Z</time></trkpt><trkpt lat="39.1972273" lon="8.6538477"><ele>356.0</ele><time>2026-04-25T15:48:57.488Z</time></trkpt><trkpt lat="39.1973481" lon="8.653909"><ele>357.0</ele><time>2026-04-25T15:48:59.488Z</time></trkpt><trkpt lat="39.1974293" lon="8.6539371"><ele>358.0</ele><time>2026-04-25T15:49:00.486Z</time></trkpt><trkpt lat="39.1975282" lon="8.6539623"><ele>359.0</ele><time>2026-04-25T15:49:01.488Z</time></trkpt><trkpt lat="39.197637" lon="8.6539722"><ele>360.0</ele><time>2026-04-25T15:49:02.487Z</time></trkpt><trkpt lat="39.1977485" lon="8.6539729"><ele>360.0</ele><time>2026-04-25T15:49:03.485Z</time></trkpt><trkpt lat="39.1978663" lon="8.6539404"><ele>360.0</ele><time>2026-04-25T15:49:04.492Z</time></trkpt><trkpt lat="39.1979716" lon="8.6539005"><ele>360.0</ele><time>2026-04-25T15:49:05.491Z</time></trkpt><trkpt lat="39.1980662" lon="8.6538622"><ele>360.0</ele><time>2026-04-25T15:49:06.485Z</time></trkpt><trkpt lat="39.1981667" lon="8.6538574"><ele>360.0</ele><time>2026-04-25T15:49:07.492Z</time></trkpt><trkpt lat="39.1982578" lon="8.6538562"><ele>360.2</ele><time>2026-04-25T15:49:08.494Z</time></trkpt><trkpt lat="39.1983381" lon="8.6538451"><ele>360.4</ele><time>2026-04-25T15:49:09.494Z</time></trkpt><trkpt lat="39.1984199" lon="8.6538334"><ele>360.6</ele><time>2026-04-25T15:49:10.491Z</time></trkpt><trkpt lat="39.1985159" lon="8.6538026"><ele>360.8</ele><time>2026-04-25T15:49:11.49Z</time></trkpt><trkpt lat="39.1986216" lon="8.6537497"><ele>361.0</ele><time>2026-04-25T15:49:12.49Z</time></trkpt><trkpt lat="39.1987458" lon="8.653693"><ele>361.0</ele><time>2026-04-25T15:49:13.492Z</time></trkpt><trkpt lat="39.1988721" lon="8.6536528"><ele>361.0</ele><time>2026-04-25T15:49:14.496Z</time></trkpt><trkpt lat="39.1989987" lon="8.6536006"><ele>361.0</ele><time>2026-04-25T15:49:15.486Z</time></trkpt><trkpt lat="39.1991084" lon="8.6535332"><ele>361.0</ele><time>2026-04-25T15:49:16.493Z</time></trkpt><trkpt lat="39.1992212" lon="8.6534775"><ele>359.0</ele><time>2026-04-25T15:49:17.495Z</time></trkpt><trkpt lat="39.19934" lon="8.6534274"><ele>357.0</ele><time>2026-04-25T15:49:18.497Z</time></trkpt><trkpt lat="39.1994569" lon="8.6534026"><ele>355.0</ele><time>2026-04-25T15:49:19.48Z</time></trkpt><trkpt lat="39.1995707" lon="8.6533659"><ele>353.0</ele><time>2026-04-25T15:49:20.481Z</time></trkpt><trkpt lat="39.1996715" lon="8.6533146"><ele>353.0</ele><time>2026-04-25T15:49:21.489Z</time></trkpt><trkpt lat="39.1997555" lon="8.6532443"><ele>353.0</ele><time>2026-04-25T15:49:22.484Z</time></trkpt><trkpt lat="39.1998401" lon="8.6531552"><ele>353.0</ele><time>2026-04-25T15:49:23.495Z</time></trkpt><trkpt lat="39.1999049" lon="8.6530637"><ele>353.0</ele><time>2026-04-25T15:49:24.491Z</time></trkpt><trkpt lat="39.1999667" lon="8.6529675"><ele>353.0</ele><time>2026-04-25T15:49:25.484Z</time></trkpt><trkpt lat="39.2000493" lon="8.6528633"><ele>353.0</ele><time>2026-04-25T15:49:26.497Z</time></trkpt><trkpt lat="39.2001293" lon="8.6527443"><ele>353.0</ele><time>2026-04-25T15:49:27.481Z</time></trkpt><trkpt lat="39.2002047" lon="8.6526236"><ele>353.0</ele><time>2026-04-25T15:49:28.492Z</time></trkpt><trkpt lat="39.2002659" lon="8.6525034"><ele>353.0</ele><time>2026-04-25T15:49:29.49Z</time></trkpt><trkpt lat="39.2003124" lon="8.652405"><ele>353.0</ele><time>2026-04-25T15:49:30.499Z</time></trkpt><trkpt lat="39.2003552" lon="8.6523207"><ele>353.0</ele><time>2026-04-25T15:49:31.49Z</time></trkpt><trkpt lat="39.2004183" lon="8.6522664"><ele>353.0</ele><time>2026-04-25T15:49:32.48Z</time></trkpt><trkpt lat="39.2005001" lon="8.6522285"><ele>353.0</ele><time>2026-04-25T15:49:33.489Z</time></trkpt><trkpt lat="39.2005917" lon="8.6521957"><ele>353.0</ele><time>2026-04-25T15:49:34.493Z</time></trkpt><trkpt lat="39.2006939" lon="8.6521518"><ele>353.0</ele><time>2026-04-25T15:49:35.484Z</time></trkpt><trkpt lat="39.2007954" lon="8.6521092"><ele>354.0</ele><time>2026-04-25T15:49:36.482Z</time></trkpt><trkpt lat="39.2009025" lon="8.6520639"><ele>355.0</ele><time>2026-04-25T15:49:37.488Z</time></trkpt><trkpt lat="39.200998" lon="8.6520201"><ele>356.0</ele><time>2026-04-25T15:49:38.498Z</time></trkpt><trkpt lat="39.2010959" lon="8.6519951"><ele>357.0</ele><time>2026-04-25T15:49:39.492Z</time></trkpt><trkpt lat="39.2011933" lon="8.6519891"><ele>358.0</ele><time>2026-04-25T15:49:40.482Z</time></trkpt><trkpt lat="39.2012967" lon="8.6519829"><ele>358.0</ele><time>2026-04-25T15:49:41.489Z</time></trkpt><trkpt lat="39.2013944" lon="8.6519745"><ele>358.0</ele><time>2026-04-25T15:49:42.482Z</time></trkpt><trkpt lat="39.2014885" lon="8.6519513"><ele>358.0</ele><time>2026-04-25T15:49:43.486Z</time></trkpt><trkpt lat="39.2015963" lon="8.65194"><ele>358.0</ele><time>2026-04-25T15:49:44.489Z</time></trkpt><trkpt lat="39.2017128" lon="8.6519326"><ele>358.0</ele><time>2026-04-25T15:49:45.482Z</time></trkpt><trkpt lat="39.2018205" lon="8.6519305"><ele>356.0</ele><time>2026-04-25T15:49:46.492Z</time></trkpt><trkpt lat="39.2019251" lon="8.6519244"><ele>354.0</ele><time>2026-04-25T15:49:47.485Z</time></trkpt><trkpt lat="39.2020244" lon="8.6519089"><ele>352.0</ele><time>2026-04-25T15:49:48.479Z</time></trkpt><trkpt lat="39.2021238" lon="8.6518901"><ele>350.0</ele><time>2026-04-25T15:49:49.485Z</time></trkpt><trkpt lat="39.2022294" lon="8.6518559"><ele>348.0</ele><time>2026-04-25T15:49:50.49Z</time></trkpt><trkpt lat="39.2023311" lon="8.651806"><ele>348.0</ele><time>2026-04-25T15:49:51.483Z</time></trkpt><trkpt lat="39.2024316" lon="8.651738"><ele>348.0</ele><time>2026-04-25T15:49:52.48Z</time></trkpt><trkpt lat="39.2025289" lon="8.6516558"><ele>348.0</ele><time>2026-04-25T15:49:53.482Z</time></trkpt><trkpt lat="39.2026242" lon="8.6515731"><ele>348.0</ele><time>2026-04-25T15:49:54.476Z</time></trkpt><trkpt lat="39.2027174" lon="8.6514929"><ele>348.0</ele><time>2026-04-25T15:49:55.49Z</time></trkpt><trkpt lat="39.2028191" lon="8.6514203"><ele>348.0</ele><time>2026-04-25T15:49:56.484Z</time></trkpt><trkpt lat="39.2029282" lon="8.6513451"><ele>348.0</ele><time>2026-04-25T15:49:57.48Z</time></trkpt><trkpt lat="39.2030244" lon="8.6512772"><ele>348.0</ele><time>2026-04-25T15:49:58.49Z</time></trkpt><trkpt lat="39.2031113" lon="8.6512091"><ele>348.0</ele><time>2026-04-25T15:49:59.489Z</time></trkpt><trkpt lat="39.2031953" lon="8.6511467"><ele>348.0</ele><time>2026-04-25T15:50:00.484Z</time></trkpt><trkpt lat="39.2032754" lon="8.6511043"><ele>348.0</ele><time>2026-04-25T15:50:01.478Z</time></trkpt><trkpt lat="39.2033626" lon="8.6510787"><ele>348.0</ele><time>2026-04-25T15:50:02.491Z</time></trkpt><trkpt lat="39.2034743" lon="8.6510918"><ele>348.0</ele><time>2026-04-25T15:50:03.484Z</time></trkpt><trkpt lat="39.2036051" lon="8.6511169"><ele>347.25</ele><time>2026-04-25T15:50:04.481Z</time></trkpt><trkpt lat="39.2037249" lon="8.6511195"><ele>346.5</ele><time>2026-04-25T15:50:05.467Z</time></trkpt><trkpt lat="39.2038351" lon="8.6511113"><ele>345.75</ele><time>2026-04-25T15:50:06.487Z</time></trkpt><trkpt lat="39.2039439" lon="8.6510933"><ele>345.0</ele><time>2026-04-25T15:50:07.479Z</time></trkpt><trkpt lat="39.2040679" lon="8.6510675"><ele>345.0</ele><time>2026-04-25T15:50:08.476Z</time></trkpt><trkpt lat="39.2041771" lon="8.6510372"><ele>345.0</ele><time>2026-04-25T15:50:09.478Z</time></trkpt><trkpt lat="39.2042907" lon="8.6509962"><ele>345.0</ele><time>2026-04-25T15:50:10.477Z</time></trkpt><trkpt lat="39.2044162" lon="8.6509443"><ele>345.0</ele><time>2026-04-25T15:50:11.479Z</time></trkpt><trkpt lat="39.2045427" lon="8.6508807"><ele>345.0</ele><time>2026-04-25T15:50:12.478Z</time></trkpt><trkpt lat="39.2046699" lon="8.6508173"><ele>345.0</ele><time>2026-04-25T15:50:13.476Z</time></trkpt><trkpt lat="39.2047913" lon="8.6507511"><ele>345.0</ele><time>2026-04-25T15:50:14.475Z</time></trkpt><trkpt lat="39.2048965" lon="8.6506966"><ele>345.0</ele><time>2026-04-25T15:50:15.478Z</time></trkpt><trkpt lat="39.2049997" lon="8.6506397"><ele>343.2</ele><time>2026-04-25T15:50:16.479Z</time></trkpt><trkpt lat="39.2050973" lon="8.6505884"><ele>341.4</ele><time>2026-04-25T15:50:17.478Z</time></trkpt><trkpt lat="39.2052021" lon="8.6505314"><ele>339.6</ele><time>2026-04-25T15:50:18.486Z</time></trkpt><trkpt lat="39.2052917" lon="8.6504744"><ele>337.8</ele><time>2026-04-25T15:50:19.482Z</time></trkpt><trkpt lat="39.2053846" lon="8.6504029"><ele>336.0</ele><time>2026-04-25T15:50:20.486Z</time></trkpt><trkpt lat="39.2054779" lon="8.6503094"><ele>338.0</ele><time>2026-04-25T15:50:21.493Z</time></trkpt><trkpt lat="39.2055777" lon="8.6502113"><ele>340.0</ele><time>2026-04-25T15:50:22.484Z</time></trkpt><trkpt lat="39.2056749" lon="8.6500979"><ele>342.0</ele><time>2026-04-25T15:50:23.487Z</time></trkpt><trkpt lat="39.2057781" lon="8.6499879"><ele>344.0</ele><time>2026-04-25T15:50:24.486Z</time></trkpt><trkpt lat="39.2058822" lon="8.6498688"><ele>342.25</ele><time>2026-04-25T15:50:25.481Z</time></trkpt><trkpt lat="39.2059867" lon="8.6497592"><ele>340.5</ele><time>2026-04-25T15:50:26.481Z</time></trkpt><trkpt lat="39.2060933" lon="8.6496512"><ele>338.75</ele><time>2026-04-25T15:50:27.489Z</time></trkpt><trkpt lat="39.2061894" lon="8.6495381"><ele>337.0</ele><time>2026-04-25T15:50:28.486Z</time></trkpt><trkpt lat="39.2062829" lon="8.6494303"><ele>337.0</ele><time>2026-04-25T15:50:29.49Z</time></trkpt><trkpt lat="39.2063875" lon="8.6493348"><ele>337.0</ele><time>2026-04-25T15:50:30.477Z</time></trkpt><trkpt lat="39.2065012" lon="8.649241"><ele>337.0</ele><time>2026-04-25T15:50:31.49Z</time></trkpt><trkpt lat="39.2066224" lon="8.6491634"><ele>337.0</ele><time>2026-04-25T15:50:32.476Z</time></trkpt><trkpt lat="39.2067405" lon="8.6490758"><ele>334.40000000000003</ele><time>2026-04-25T15:50:33.486Z</time></trkpt><trkpt lat="39.2068371" lon="8.6489824"><ele>331.8</ele><time>2026-04-25T15:50:34.49Z</time></trkpt><trkpt lat="39.206916" lon="8.6489106"><ele>329.2</ele><time>2026-04-25T15:50:35.484Z</time></trkpt><trkpt lat="39.2069843" lon="8.6488622"><ele>326.6</ele><time>2026-04-25T15:50:36.475Z</time></trkpt><trkpt lat="39.2070451" lon="8.6487953"><ele>324.0</ele><time>2026-04-25T15:50:37.486Z</time></trkpt><trkpt lat="39.2071172" lon="8.6487112"><ele>323.0</ele><time>2026-04-25T15:50:38.479Z</time></trkpt><trkpt lat="39.20721" lon="8.648622"><ele>322.0</ele><time>2026-04-25T15:50:39.482Z</time></trkpt><trkpt lat="39.2073304" lon="8.6485313"><ele>321.0</ele><time>2026-04-25T15:50:40.481Z</time></trkpt><trkpt lat="39.2074375" lon="8.648444"><ele>320.0</ele><time>2026-04-25T15:50:41.483Z</time></trkpt><trkpt lat="39.2075443" lon="8.6483578"><ele>320.0</ele><time>2026-04-25T15:50:42.478Z</time></trkpt><trkpt lat="39.2076392" lon="8.6482739"><ele>320.0</ele><time>2026-04-25T15:50:43.485Z</time></trkpt><trkpt lat="39.2077227" lon="8.6481919"><ele>320.0</ele><time>2026-04-25T15:50:44.488Z</time></trkpt><trkpt lat="39.2078048" lon="8.6480773"><ele>320.0</ele><time>2026-04-25T15:50:45.492Z</time></trkpt><trkpt lat="39.2078815" lon="8.6479636"><ele>320.0</ele><time>2026-04-25T15:50:46.485Z</time></trkpt><trkpt lat="39.2079553" lon="8.647852"><ele>320.0</ele><time>2026-04-25T15:50:47.475Z</time></trkpt><trkpt lat="39.208042" lon="8.647759"><ele>320.0</ele><time>2026-04-25T15:50:48.486Z</time></trkpt><trkpt lat="39.2081475" lon="8.6476668"><ele>320.0</ele><time>2026-04-25T15:50:49.48Z</time></trkpt><trkpt lat="39.2082567" lon="8.6475874"><ele>320.0</ele><time>2026-04-25T15:50:50.489Z</time></trkpt><trkpt lat="39.208362" lon="8.6475115"><ele>320.0</ele><time>2026-04-25T15:50:51.479Z</time></trkpt><trkpt lat="39.208469" lon="8.6474497"><ele>320.0</ele><time>2026-04-25T15:50:52.479Z</time></trkpt><trkpt lat="39.2085507" lon="8.6474078"><ele>320.0</ele><time>2026-04-25T15:50:53.48Z</time></trkpt><trkpt lat="39.208621" lon="8.6473842"><ele>320.0</ele><time>2026-04-25T15:50:54.477Z</time></trkpt><trkpt lat="39.2087378" lon="8.6472927"><ele>320.0</ele><time>2026-04-25T15:50:56.478Z</time></trkpt><trkpt lat="39.2087989" lon="8.6472376"><ele>320.0</ele><time>2026-04-25T15:50:57.488Z</time></trkpt><trkpt lat="39.2088563" lon="8.6471507"><ele>320.0</ele><time>2026-04-25T15:50:58.473Z</time></trkpt><trkpt lat="39.2089217" lon="8.6470333"><ele>320.0</ele><time>2026-04-25T15:50:59.475Z</time></trkpt><trkpt lat="39.2089892" lon="8.6469098"><ele>320.0</ele><time>2026-04-25T15:51:00.486Z</time></trkpt><trkpt lat="39.2090636" lon="8.6467918"><ele>320.75</ele><time>2026-04-25T15:51:01.468Z</time></trkpt><trkpt lat="39.2091482" lon="8.6466986"><ele>321.5</ele><time>2026-04-25T15:51:02.508Z</time></trkpt><trkpt lat="39.2092408" lon="8.6466161"><ele>322.25</ele><time>2026-04-25T15:51:03.485Z</time></trkpt><trkpt lat="39.2093493" lon="8.6465679"><ele>323.0</ele><time>2026-04-25T15:51:04.478Z</time></trkpt><trkpt lat="39.2094829" lon="8.6465199"><ele>323.0</ele><time>2026-04-25T15:51:05.474Z</time></trkpt><trkpt lat="39.2096317" lon="8.646459"><ele>323.0</ele><time>2026-04-25T15:51:06.477Z</time></trkpt><trkpt lat="39.2097657" lon="8.6464059"><ele>323.0</ele><time>2026-04-25T15:51:07.472Z</time></trkpt><trkpt lat="39.2098896" lon="8.646346"><ele>323.0</ele><time>2026-04-25T15:51:08.485Z</time></trkpt><trkpt lat="39.2100047" lon="8.6462871"><ele>324.0</ele><time>2026-04-25T15:51:09.477Z</time></trkpt><trkpt lat="39.210119" lon="8.6462272"><ele>325.0</ele><time>2026-04-25T15:51:10.486Z</time></trkpt><trkpt lat="39.2102175" lon="8.6461559"><ele>326.0</ele><time>2026-04-25T15:51:11.476Z</time></trkpt><trkpt lat="39.2103149" lon="8.6460763"><ele>327.0</ele><time>2026-04-25T15:51:12.482Z</time></trkpt><trkpt lat="39.2104031" lon="8.6460003"><ele>327.3333333333333</ele><time>2026-04-25T15:51:13.481Z</time></trkpt><trkpt lat="39.2104885" lon="8.6459411"><ele>327.6666666666667</ele><time>2026-04-25T15:51:14.48Z</time></trkpt><trkpt lat="39.210562" lon="8.6458993"><ele>328.0</ele><time>2026-04-25T15:51:15.477Z</time></trkpt><trkpt lat="39.2106285" lon="8.6458822"><ele>328.33333333333337</ele><time>2026-04-25T15:51:16.479Z</time></trkpt><trkpt lat="39.2107098" lon="8.6458707"><ele>328.6666666666667</ele><time>2026-04-25T15:51:17.486Z</time></trkpt><trkpt lat="39.2108038" lon="8.6458498"><ele>329.0</ele><time>2026-04-25T15:51:18.479Z</time></trkpt><trkpt lat="39.2109065" lon="8.6458007"><ele>329.0</ele><time>2026-04-25T15:51:19.472Z</time></trkpt><trkpt lat="39.2110131" lon="8.6457264"><ele>329.0</ele><time>2026-04-25T15:51:20.471Z</time></trkpt><trkpt lat="39.2111074" lon="8.6456501"><ele>329.0</ele><time>2026-04-25T15:51:21.471Z</time></trkpt><trkpt lat="39.2112011" lon="8.6455622"><ele>329.0</ele><time>2026-04-25T15:51:22.471Z</time></trkpt><trkpt lat="39.2112977" lon="8.6454926"><ele>329.0</ele><time>2026-04-25T15:51:23.477Z</time></trkpt><trkpt lat="39.2113997" lon="8.6454302"><ele>329.0</ele><time>2026-04-25T15:51:24.471Z</time></trkpt><trkpt lat="39.2115095" lon="8.6454001"><ele>329.0</ele><time>2026-04-25T15:51:25.476Z</time></trkpt><trkpt lat="39.2116146" lon="8.6453895"><ele>329.0</ele><time>2026-04-25T15:51:26.473Z</time></trkpt><trkpt lat="39.2117125" lon="8.6453635"><ele>329.0</ele><time>2026-04-25T15:51:27.48Z</time></trkpt><trkpt lat="39.2118152" lon="8.6453292"><ele>330.6</ele><time>2026-04-25T15:51:28.479Z</time></trkpt><trkpt lat="39.2119422" lon="8.6453046"><ele>332.2</ele><time>2026-04-25T15:51:29.472Z</time></trkpt><trkpt lat="39.2120699" lon="8.6453026"><ele>333.8</ele><time>2026-04-25T15:51:30.483Z</time></trkpt><trkpt lat="39.2121693" lon="8.645314"><ele>335.40000000000003</ele><time>2026-04-25T15:51:31.473Z</time></trkpt><trkpt lat="39.2122441" lon="8.6453326"><ele>337.0</ele><time>2026-04-25T15:51:32.489Z</time></trkpt><trkpt lat="39.2123209" lon="8.6453707"><ele>337.0</ele><time>2026-04-25T15:51:33.472Z</time></trkpt><trkpt lat="39.2123852" lon="8.6454279"><ele>337.0</ele><time>2026-04-25T15:51:34.47Z</time></trkpt><trkpt lat="39.2124482" lon="8.6454657"><ele>337.0</ele><time>2026-04-25T15:51:35.473Z</time></trkpt><trkpt lat="39.2125404" lon="8.6454927"><ele>337.0</ele><time>2026-04-25T15:51:36.474Z</time></trkpt><trkpt lat="39.2126406" lon="8.6454798"><ele>337.0</ele><time>2026-04-25T15:51:37.479Z</time></trkpt><trkpt lat="39.2127322" lon="8.6454664"><ele>337.0</ele><time>2026-04-25T15:51:38.468Z</time></trkpt><trkpt lat="39.2128238" lon="8.6454558"><ele>337.0</ele><time>2026-04-25T15:51:39.476Z</time></trkpt><trkpt lat="39.2129063" lon="8.6454403"><ele>337.0</ele><time>2026-04-25T15:51:40.469Z</time></trkpt><trkpt lat="39.2129861" lon="8.6453958"><ele>337.0</ele><time>2026-04-25T15:51:41.467Z</time></trkpt><trkpt lat="39.2130811" lon="8.6453229"><ele>337.0</ele><time>2026-04-25T15:51:42.476Z</time></trkpt><trkpt lat="39.2131737" lon="8.6452564"><ele>337.0</ele><time>2026-04-25T15:51:43.476Z</time></trkpt><trkpt lat="39.213271" lon="8.6451886"><ele>337.16666666666663</ele><time>2026-04-25T15:51:44.483Z</time></trkpt><trkpt lat="39.2133569" lon="8.6451321"><ele>337.3333333333333</ele><time>2026-04-25T15:51:45.476Z</time></trkpt><trkpt lat="39.213427" lon="8.6450825"><ele>337.5</ele><time>2026-04-25T15:51:46.471Z</time></trkpt><trkpt lat="39.2134903" lon="8.6450218"><ele>337.6666666666667</ele><time>2026-04-25T15:51:47.478Z</time></trkpt><trkpt lat="39.2135483" lon="8.6449503"><ele>337.83333333333337</ele><time>2026-04-25T15:51:48.472Z</time></trkpt><trkpt lat="39.2136068" lon="8.6448894"><ele>338.0</ele><time>2026-04-25T15:51:49.472Z</time></trkpt><trkpt lat="39.2136686" lon="8.6448513"><ele>338.0</ele><time>2026-04-25T15:51:50.481Z</time></trkpt><trkpt lat="39.2137431" lon="8.6448434"><ele>338.0</ele><time>2026-04-25T15:51:51.473Z</time></trkpt><trkpt lat="39.2138351" lon="8.6448628"><ele>338.0</ele><time>2026-04-25T15:51:52.479Z</time></trkpt><trkpt lat="39.2139346" lon="8.6448661"><ele>338.0</ele><time>2026-04-25T15:51:53.472Z</time></trkpt><trkpt lat="39.2140307" lon="8.6448201"><ele>338.0</ele><time>2026-04-25T15:51:54.475Z</time></trkpt><trkpt lat="39.2141077" lon="8.6447571"><ele>338.6666666666667</ele><time>2026-04-25T15:51:55.487Z</time></trkpt><trkpt lat="39.2141787" lon="8.6447166"><ele>339.33333333333337</ele><time>2026-04-25T15:51:56.481Z</time></trkpt><trkpt lat="39.2142456" lon="8.6446755"><ele>340.0</ele><time>2026-04-25T15:51:57.478Z</time></trkpt><trkpt lat="39.2143156" lon="8.6447006"><ele>340.6666666666667</ele><time>2026-04-25T15:51:59.476Z</time></trkpt><trkpt lat="39.2143689" lon="8.6448353"><ele>341.3333333333333</ele><time>2026-04-25T15:52:01.468Z</time></trkpt><trkpt lat="39.2143692" lon="8.6449472"><ele>342.0</ele><time>2026-04-25T15:52:02.473Z</time></trkpt><trkpt lat="39.2143594" lon="8.6450463"><ele>342.0</ele><time>2026-04-25T15:52:03.471Z</time></trkpt><trkpt lat="39.2143705" lon="8.6451326"><ele>342.0</ele><time>2026-04-25T15:52:04.469Z</time></trkpt><trkpt lat="39.2144164" lon="8.6452046"><ele>342.0</ele><time>2026-04-25T15:52:05.48Z</time></trkpt><trkpt lat="39.2144904" lon="8.6452455"><ele>342.0</ele><time>2026-04-25T15:52:06.478Z</time></trkpt><trkpt lat="39.2145684" lon="8.6452777"><ele>342.0</ele><time>2026-04-25T15:52:07.469Z</time></trkpt><trkpt lat="39.2146604" lon="8.6452999"><ele>342.0</ele><time>2026-04-25T15:52:08.484Z</time></trkpt><trkpt lat="39.2147746" lon="8.645297"><ele>344.3333333333333</ele><time>2026-04-25T15:52:09.48Z</time></trkpt><trkpt lat="39.214916" lon="8.6452694"><ele>346.66666666666663</ele><time>2026-04-25T15:52:10.474Z</time></trkpt><trkpt lat="39.2150662" lon="8.6452351"><ele>349.0</ele><time>2026-04-25T15:52:11.473Z</time></trkpt><trkpt lat="39.2152341" lon="8.6452336"><ele>349.0</ele><time>2026-04-25T15:52:12.475Z</time></trkpt><trkpt lat="39.2153947" lon="8.6452363"><ele>349.0</ele><time>2026-04-25T15:52:13.475Z</time></trkpt><trkpt lat="39.2155462" lon="8.6452381"><ele>349.0</ele><time>2026-04-25T15:52:14.479Z</time></trkpt><trkpt lat="39.2156732" lon="8.6452435"><ele>349.0</ele><time>2026-04-25T15:52:15.482Z</time></trkpt><trkpt lat="39.2157896" lon="8.6452553"><ele>349.4</ele><time>2026-04-25T15:52:16.48Z</time></trkpt><trkpt lat="39.2159013" lon="8.6452744"><ele>349.79999999999995</ele><time>2026-04-25T15:52:17.469Z</time></trkpt><trkpt lat="39.2160064" lon="8.6452957"><ele>350.20000000000005</ele><time>2026-04-25T15:52:18.479Z</time></trkpt><trkpt lat="39.2160978" lon="8.6452951"><ele>350.6</ele><time>2026-04-25T15:52:19.479Z</time></trkpt><trkpt lat="39.2162008" lon="8.6452706"><ele>351.0</ele><time>2026-04-25T15:52:20.476Z</time></trkpt><trkpt lat="39.2163118" lon="8.6452385"><ele>351.0</ele><time>2026-04-25T15:52:21.469Z</time></trkpt><trkpt lat="39.2164052" lon="8.6451983"><ele>351.0</ele><time>2026-04-25T15:52:22.469Z</time></trkpt><trkpt lat="39.2165201" lon="8.6451264"><ele>351.0</ele><time>2026-04-25T15:52:23.479Z</time></trkpt><trkpt lat="39.216643" lon="8.6450464"><ele>351.0</ele><time>2026-04-25T15:52:24.466Z</time></trkpt><trkpt lat="39.216749" lon="8.6449894"><ele>352.0</ele><time>2026-04-25T15:52:25.48Z</time></trkpt><trkpt lat="39.2168402" lon="8.6449518"><ele>353.0</ele><time>2026-04-25T15:52:26.471Z</time></trkpt><trkpt lat="39.2169505" lon="8.6449073"><ele>354.0</ele><time>2026-04-25T15:52:27.475Z</time></trkpt><trkpt lat="39.217087" lon="8.6448524"><ele>355.0</ele><time>2026-04-25T15:52:28.483Z</time></trkpt><trkpt lat="39.2172142" lon="8.644803"><ele>355.3333333333333</ele><time>2026-04-25T15:52:29.481Z</time></trkpt><trkpt lat="39.217324" lon="8.6447811"><ele>355.66666666666663</ele><time>2026-04-25T15:52:30.482Z</time></trkpt><trkpt lat="39.2173934" lon="8.6447819"><ele>356.0</ele><time>2026-04-25T15:52:31.473Z</time></trkpt><trkpt lat="39.2174761" lon="8.644852"><ele>356.3333333333333</ele><time>2026-04-25T15:52:33.471Z</time></trkpt><trkpt lat="39.2175123" lon="8.644939"><ele>356.6666666666667</ele><time>2026-04-25T15:52:34.47Z</time></trkpt><trkpt lat="39.2175474" lon="8.6450372"><ele>357.0</ele><time>2026-04-25T15:52:35.469Z</time></trkpt><trkpt lat="39.217573" lon="8.6451593"><ele>357.0</ele><time>2026-04-25T15:52:36.474Z</time></trkpt><trkpt lat="39.2175913" lon="8.6452886"><ele>357.0</ele><time>2026-04-25T15:52:37.478Z</time></trkpt><trkpt lat="39.2176268" lon="8.6454091"><ele>357.0</ele><time>2026-04-25T15:52:38.481Z</time></trkpt><trkpt lat="39.2176796" lon="8.6455142"><ele>357.0</ele><time>2026-04-25T15:52:39.471Z</time></trkpt><trkpt lat="39.2177551" lon="8.6456025"><ele>357.0</ele><time>2026-04-25T15:52:40.478Z</time></trkpt><trkpt lat="39.2178422" lon="8.6456581"><ele>360.20000000000005</ele><time>2026-04-25T15:52:41.47Z</time></trkpt><trkpt lat="39.2179161" lon="8.6456802"><ele>363.4</ele><time>2026-04-25T15:52:42.469Z</time></trkpt><trkpt lat="39.2179929" lon="8.6456646"><ele>366.6</ele><time>2026-04-25T15:52:43.473Z</time></trkpt><trkpt lat="39.2180867" lon="8.6455821"><ele>369.79999999999995</ele><time>2026-04-25T15:52:44.481Z</time></trkpt><trkpt lat="39.2181739" lon="8.6454772"><ele>373.0</ele><time>2026-04-25T15:52:45.472Z</time></trkpt><trkpt lat="39.2182468" lon="8.645349"><ele>372.2</ele><time>2026-04-25T15:52:46.473Z</time></trkpt><trkpt lat="39.2183113" lon="8.645232"><ele>371.4</ele><time>2026-04-25T15:52:47.473Z</time></trkpt><trkpt lat="39.2183772" lon="8.6451373"><ele>370.59999999999997</ele><time>2026-04-25T15:52:48.478Z</time></trkpt><trkpt lat="39.2184596" lon="8.6450571"><ele>369.79999999999995</ele><time>2026-04-25T15:52:49.473Z</time></trkpt><trkpt lat="39.2185584" lon="8.6449912"><ele>369.0</ele><time>2026-04-25T15:52:50.478Z</time></trkpt><trkpt lat="39.218659" lon="8.6449469"><ele>369.0</ele><time>2026-04-25T15:52:51.472Z</time></trkpt><trkpt lat="39.2187541" lon="8.6449127"><ele>369.0</ele><time>2026-04-25T15:52:52.482Z</time></trkpt><trkpt lat="39.218836" lon="8.6449461"><ele>369.0</ele><time>2026-04-25T15:52:53.475Z</time></trkpt><trkpt lat="39.2189239" lon="8.6450006"><ele>369.0</ele><time>2026-04-25T15:52:54.472Z</time></trkpt><trkpt lat="39.2190007" lon="8.6450706"><ele>369.0</ele><time>2026-04-25T15:52:55.482Z</time></trkpt><trkpt lat="39.2190725" lon="8.6451809"><ele>370.6</ele><time>2026-04-25T15:52:56.477Z</time></trkpt><trkpt lat="39.2191407" lon="8.6453078"><ele>372.2</ele><time>2026-04-25T15:52:57.472Z</time></trkpt><trkpt lat="39.219218" lon="8.6454315"><ele>373.8</ele><time>2026-04-25T15:52:58.473Z</time></trkpt><trkpt lat="39.2192873" lon="8.6455471"><ele>375.40000000000003</ele><time>2026-04-25T15:52:59.477Z</time></trkpt><trkpt lat="39.2193558" lon="8.6456284"><ele>377.0</ele><time>2026-04-25T15:53:00.482Z</time></trkpt><trkpt lat="39.2194298" lon="8.6456848"><ele>377.0</ele><time>2026-04-25T15:53:01.475Z</time></trkpt><trkpt lat="39.2195002" lon="8.6456986"><ele>377.0</ele><time>2026-04-25T15:53:02.481Z</time></trkpt><trkpt lat="39.2195709" lon="8.6456755"><ele>377.0</ele><time>2026-04-25T15:53:03.486Z</time></trkpt><trkpt lat="39.2196478" lon="8.6456332"><ele>377.0</ele><time>2026-04-25T15:53:04.471Z</time></trkpt><trkpt lat="39.2197263" lon="8.6455984"><ele>377.0</ele><time>2026-04-25T15:53:05.471Z</time></trkpt><trkpt lat="39.219815" lon="8.645558"><ele>377.0</ele><time>2026-04-25T15:53:06.476Z</time></trkpt><trkpt lat="39.2199156" lon="8.6455035"><ele>380.20000000000005</ele><time>2026-04-25T15:53:07.472Z</time></trkpt><trkpt lat="39.2200206" lon="8.64543"><ele>383.4</ele><time>2026-04-25T15:53:08.479Z</time></trkpt><trkpt lat="39.2201129" lon="8.6453574"><ele>386.6</ele><time>2026-04-25T15:53:09.473Z</time></trkpt><trkpt lat="39.2201873" lon="8.6452902"><ele>389.79999999999995</ele><time>2026-04-25T15:53:10.469Z</time></trkpt><trkpt lat="39.2202537" lon="8.6452535"><ele>393.0</ele><time>2026-04-25T15:53:11.477Z</time></trkpt><trkpt lat="39.2203189" lon="8.645249"><ele>393.0</ele><time>2026-04-25T15:53:12.479Z</time></trkpt><trkpt lat="39.2203913" lon="8.6452826"><ele>393.0</ele><time>2026-04-25T15:53:13.472Z</time></trkpt><trkpt lat="39.2204621" lon="8.6453458"><ele>393.0</ele><time>2026-04-25T15:53:14.471Z</time></trkpt><trkpt lat="39.2205341" lon="8.6454203"><ele>393.0</ele><time>2026-04-25T15:53:15.469Z</time></trkpt><trkpt lat="39.2206117" lon="8.6455083"><ele>393.0</ele><time>2026-04-25T15:53:16.473Z</time></trkpt><trkpt lat="39.2207037" lon="8.6455895"><ele>396.4</ele><time>2026-04-25T15:53:17.477Z</time></trkpt><trkpt lat="39.2207869" lon="8.6456422"><ele>399.79999999999995</ele><time>2026-04-25T15:53:18.48Z</time></trkpt><trkpt lat="39.2208741" lon="8.6456585"><ele>403.2</ele><time>2026-04-25T15:53:19.49Z</time></trkpt><trkpt lat="39.2209647" lon="8.6456708"><ele>406.6</ele><time>2026-04-25T15:53:20.484Z</time></trkpt><trkpt lat="39.2210801" lon="8.6456756"><ele>410.0</ele><time>2026-04-25T15:53:21.479Z</time></trkpt><trkpt lat="39.2211879" lon="8.6456802"><ele>410.0</ele><time>2026-04-25T15:53:22.473Z</time></trkpt><trkpt lat="39.2212759" lon="8.645687"><ele>410.0</ele><time>2026-04-25T15:53:23.468Z</time></trkpt><trkpt lat="39.2213774" lon="8.6456892"><ele>410.0</ele><time>2026-04-25T15:53:24.477Z</time></trkpt><trkpt lat="39.2214894" lon="8.645667"><ele>410.0</ele><time>2026-04-25T15:53:25.482Z</time></trkpt><trkpt lat="39.2215825" lon="8.6456356"><ele>410.0</ele><time>2026-04-25T15:53:26.478Z</time></trkpt><trkpt lat="39.2216751" lon="8.6456125"><ele>411.6</ele><time>2026-04-25T15:53:27.478Z</time></trkpt><trkpt lat="39.221779" lon="8.6455828"><ele>413.2</ele><time>2026-04-25T15:53:28.476Z</time></trkpt><trkpt lat="39.221862" lon="8.6455632"><ele>414.79999999999995</ele><time>2026-04-25T15:53:29.471Z</time></trkpt><trkpt lat="39.2219298" lon="8.6455523"><ele>416.4</ele><time>2026-04-25T15:53:30.476Z</time></trkpt><trkpt lat="39.2220629" lon="8.6456106"><ele>418.0</ele><time>2026-04-25T15:53:32.482Z</time></trkpt><trkpt lat="39.2221259" lon="8.6456333"><ele>418.0</ele><time>2026-04-25T15:53:33.472Z</time></trkpt><trkpt lat="39.2222491" lon="8.645675"><ele>418.0</ele><time>2026-04-25T15:53:35.483Z</time></trkpt><trkpt lat="39.2223607" lon="8.6456779"><ele>418.0</ele><time>2026-04-25T15:53:37.475Z</time></trkpt><trkpt lat="39.2224838" lon="8.6457097"><ele>418.0</ele><time>2026-04-25T15:53:39.472Z</time></trkpt><trkpt lat="39.2225473" lon="8.6457356"><ele>418.0</ele><time>2026-04-25T15:53:40.479Z</time></trkpt><trkpt lat="39.2226165" lon="8.6457771"><ele>419.33333333333337</ele><time>2026-04-25T15:53:41.487Z</time></trkpt><trkpt lat="39.2226797" lon="8.6458278"><ele>420.6666666666667</ele><time>2026-04-25T15:53:42.48Z</time></trkpt><trkpt lat="39.2227448" lon="8.645891"><ele>422.0</ele><time>2026-04-25T15:53:43.483Z</time></trkpt><trkpt lat="39.2228147" lon="8.6459512"><ele>423.33333333333337</ele><time>2026-04-25T15:53:44.486Z</time></trkpt><trkpt lat="39.2228781" lon="8.6460104"><ele>424.6666666666667</ele><time>2026-04-25T15:53:45.476Z</time></trkpt><trkpt lat="39.2229323" lon="8.6460818"><ele>426.0</ele><time>2026-04-25T15:53:46.484Z</time></trkpt><trkpt lat="39.2229829" lon="8.6461772"><ele>428.3333333333333</ele><time>2026-04-25T15:53:47.472Z</time></trkpt><trkpt lat="39.2230388" lon="8.6462697"><ele>430.66666666666663</ele><time>2026-04-25T15:53:48.475Z</time></trkpt><trkpt lat="39.2230889" lon="8.6463602"><ele>433.0</ele><time>2026-04-25T15:53:49.477Z</time></trkpt><trkpt lat="39.2231283" lon="8.6464499"><ele>435.3333333333333</ele><time>2026-04-25T15:53:50.478Z</time></trkpt><trkpt lat="39.2231506" lon="8.6465427"><ele>437.66666666666663</ele><time>2026-04-25T15:53:51.48Z</time></trkpt><trkpt lat="39.2231795" lon="8.6466235"><ele>440.0</ele><time>2026-04-25T15:53:52.478Z</time></trkpt><trkpt lat="39.2232277" lon="8.6466779"><ele>440.0</ele><time>2026-04-25T15:53:53.48Z</time></trkpt><trkpt lat="39.2233145" lon="8.6467717"><ele>440.0</ele><time>2026-04-25T15:53:55.483Z</time></trkpt><trkpt lat="39.2233251" lon="8.6468974"><ele>440.0</ele><time>2026-04-25T15:53:57.483Z</time></trkpt><trkpt lat="39.2232498" lon="8.6469074"><ele>440.0</ele><time>2026-04-25T15:53:59.472Z</time></trkpt><trkpt lat="39.2231513" lon="8.6468416"><ele>440.0</ele><time>2026-04-25T15:54:01.484Z</time></trkpt><trkpt lat="39.2230772" lon="8.6467916"><ele>440.0</ele><time>2026-04-25T15:54:02.474Z</time></trkpt><trkpt lat="39.222978" lon="8.6467215"><ele>440.0</ele><time>2026-04-25T15:54:03.485Z</time></trkpt><trkpt lat="39.2228808" lon="8.6466537"><ele>440.0</ele><time>2026-04-25T15:54:04.48Z</time></trkpt><trkpt lat="39.2227906" lon="8.6465924"><ele>440.0</ele><time>2026-04-25T15:54:05.47Z</time></trkpt><trkpt lat="39.2226917" lon="8.6465245"><ele>440.0</ele><time>2026-04-25T15:54:06.478Z</time></trkpt><trkpt lat="39.2225925" lon="8.6464761"><ele>440.0</ele><time>2026-04-25T15:54:07.48Z</time></trkpt><trkpt lat="39.2224944" lon="8.6464417"><ele>440.0</ele><time>2026-04-25T15:54:08.483Z</time></trkpt><trkpt lat="39.2223878" lon="8.6464406"><ele>440.0</ele><time>2026-04-25T15:54:09.477Z</time></trkpt><trkpt lat="39.2222862" lon="8.6464567"><ele>440.0</ele><time>2026-04-25T15:54:10.48Z</time></trkpt><trkpt lat="39.2221994" lon="8.6464806"><ele>440.0</ele><time>2026-04-25T15:54:11.491Z</time></trkpt><trkpt lat="39.2221319" lon="8.64652"><ele>437.4</ele><time>2026-04-25T15:54:12.482Z</time></trkpt><trkpt lat="39.2220729" lon="8.6465723"><ele>434.8</ele><time>2026-04-25T15:54:13.481Z</time></trkpt><trkpt lat="39.222022" lon="8.6466915"><ele>432.20000000000005</ele><time>2026-04-25T15:54:15.485Z</time></trkpt><trkpt lat="39.2221108" lon="8.6467957"><ele>429.6</ele><time>2026-04-25T15:54:17.478Z</time></trkpt><trkpt lat="39.2221925" lon="8.6468471"><ele>427.0</ele><time>2026-04-25T15:54:18.481Z</time></trkpt><trkpt lat="39.2222781" lon="8.6469088"><ele>429.0</ele><time>2026-04-25T15:54:19.486Z</time></trkpt><trkpt lat="39.2223578" lon="8.6469894"><ele>431.00000000000006</ele><time>2026-04-25T15:54:20.487Z</time></trkpt><trkpt lat="39.2224341" lon="8.6470671"><ele>433.00000000000006</ele><time>2026-04-25T15:54:21.496Z</time></trkpt><trkpt lat="39.22251" lon="8.6471315"><ele>435.0</ele><time>2026-04-25T15:54:22.481Z</time></trkpt><trkpt lat="39.2225774" lon="8.6471938"><ele>437.0</ele><time>2026-04-25T15:54:23.489Z</time></trkpt><trkpt lat="39.2226426" lon="8.647259"><ele>436.99999999999994</ele><time>2026-04-25T15:54:24.483Z</time></trkpt><trkpt lat="39.2227044" lon="8.647295"><ele>437.0</ele><time>2026-04-25T15:54:25.487Z</time></trkpt><trkpt lat="39.2227698" lon="8.647312"><ele>437.0</ele><time>2026-04-25T15:54:26.489Z</time></trkpt><trkpt lat="39.2228605" lon="8.6473275"><ele>437.0</ele><time>2026-04-25T15:54:28.487Z</time></trkpt><trkpt lat="39.2229522" lon="8.6474029"><ele>436.99999999999994</ele><time>2026-04-25T15:54:30.484Z</time></trkpt><trkpt lat="39.2229941" lon="8.6474722"><ele>437.0</ele><time>2026-04-25T15:54:31.483Z</time></trkpt><trkpt lat="39.2230509" lon="8.647536"><ele>436.99999999999994</ele><time>2026-04-25T15:54:32.49Z</time></trkpt><trkpt lat="39.2231114" lon="8.6475805"><ele>437.0</ele><time>2026-04-25T15:54:33.496Z</time></trkpt><trkpt lat="39.2231733" lon="8.6476158"><ele>437.0</ele><time>2026-04-25T15:54:34.484Z</time></trkpt><trkpt lat="39.2232407" lon="8.6476491"><ele>437.0</ele><time>2026-04-25T15:54:35.485Z</time></trkpt><trkpt lat="39.223309" lon="8.6476857"><ele>436.99999999999994</ele><time>2026-04-25T15:54:36.478Z</time></trkpt><trkpt lat="39.2233824" lon="8.6477305"><ele>437.0</ele><time>2026-04-25T15:54:37.488Z</time></trkpt><trkpt lat="39.2234647" lon="8.6477778"><ele>442.49999999999994</ele><time>2026-04-25T15:54:38.493Z</time></trkpt><trkpt lat="39.223534" lon="8.6478014"><ele>448.0</ele><time>2026-04-25T15:54:39.483Z</time></trkpt><trkpt lat="39.223607" lon="8.6478135"><ele>453.5</ele><time>2026-04-25T15:54:40.491Z</time></trkpt><trkpt lat="39.2236804" lon="8.647846"><ele>459.0</ele><time>2026-04-25T15:54:41.484Z</time></trkpt><trkpt lat="39.2237548" lon="8.6478911"><ele>464.49999999999994</ele><time>2026-04-25T15:54:42.5Z</time></trkpt><trkpt lat="39.2238242" lon="8.6479592"><ele>470.0</ele><time>2026-04-25T15:54:43.481Z</time></trkpt><trkpt lat="39.2238903" lon="8.6480547"><ele>470.0</ele><time>2026-04-25T15:54:44.478Z</time></trkpt><trkpt lat="39.2239705" lon="8.6481483"><ele>470.0</ele><time>2026-04-25T15:54:45.486Z</time></trkpt><trkpt lat="39.2240669" lon="8.6482229"><ele>470.0</ele><time>2026-04-25T15:54:46.479Z</time></trkpt><trkpt lat="39.2241736" lon="8.6482912"><ele>470.0</ele><time>2026-04-25T15:54:47.491Z</time></trkpt><trkpt lat="39.2242801" lon="8.6483576"><ele>471.4</ele><time>2026-04-25T15:54:48.488Z</time></trkpt><trkpt lat="39.2243698" lon="8.6484346"><ele>472.8</ele><time>2026-04-25T15:54:49.485Z</time></trkpt><trkpt lat="39.224457" lon="8.648507"><ele>474.20000000000005</ele><time>2026-04-25T15:54:50.472Z</time></trkpt><trkpt lat="39.224544" lon="8.6485595"><ele>475.6</ele><time>2026-04-25T15:54:51.482Z</time></trkpt><trkpt lat="39.2246574" lon="8.6485955"><ele>477.0</ele><time>2026-04-25T15:54:52.479Z</time></trkpt><trkpt lat="39.2247837" lon="8.6486357"><ele>483.0</ele><time>2026-04-25T15:54:53.488Z</time></trkpt><trkpt lat="39.2248955" lon="8.6486535"><ele>489.0</ele><time>2026-04-25T15:54:54.484Z</time></trkpt><trkpt lat="39.2250114" lon="8.6486783"><ele>495.0</ele><time>2026-04-25T15:54:55.478Z</time></trkpt><trkpt lat="39.2251393" lon="8.6487008"><ele>501.0</ele><time>2026-04-25T15:54:56.486Z</time></trkpt><trkpt lat="39.2252439" lon="8.6487065"><ele>501.0</ele><time>2026-04-25T15:54:57.486Z</time></trkpt><trkpt lat="39.2253275" lon="8.6487196"><ele>501.0</ele><time>2026-04-25T15:54:58.491Z</time></trkpt><trkpt lat="39.2253917" lon="8.6487422"><ele>501.0</ele><time>2026-04-25T15:54:59.485Z</time></trkpt><trkpt lat="39.2254879" lon="8.6487638"><ele>501.0</ele><time>2026-04-25T15:55:01.474Z</time></trkpt><trkpt lat="39.2256008" lon="8.6487815"><ele>501.0</ele><time>2026-04-25T15:55:03.474Z</time></trkpt><trkpt lat="39.2256794" lon="8.6487991"><ele>501.0</ele><time>2026-04-25T15:55:04.478Z</time></trkpt><trkpt lat="39.2257529" lon="8.6488296"><ele>500.4</ele><time>2026-04-25T15:55:05.49Z</time></trkpt><trkpt lat="39.225826" lon="8.6488733"><ele>499.8</ele><time>2026-04-25T15:55:06.488Z</time></trkpt><trkpt lat="39.2259482" lon="8.6489074"><ele>499.19999999999993</ele><time>2026-04-25T15:55:08.475Z</time></trkpt><trkpt lat="39.2260293" lon="8.6489189"><ele>498.59999999999997</ele><time>2026-04-25T15:55:10.476Z</time></trkpt><trkpt lat="39.2261352" lon="8.6489179"><ele>498.0</ele><time>2026-04-25T15:55:13.477Z</time></trkpt><trkpt lat="39.2262659" lon="8.6488913"><ele>498.0</ele><time>2026-04-25T15:55:15.468Z</time></trkpt><trkpt lat="39.2263328" lon="8.6488771"><ele>497.99999999999994</ele><time>2026-04-25T15:55:16.477Z</time></trkpt><trkpt lat="39.2264127" lon="8.6488532"><ele>498.0</ele><time>2026-04-25T15:55:17.487Z</time></trkpt><trkpt lat="39.2264718" lon="8.6488219"><ele>498.0</ele><time>2026-04-25T15:55:18.478Z</time></trkpt><trkpt lat="39.226534" lon="8.6488025"><ele>497.99999999999994</ele><time>2026-04-25T15:55:19.491Z</time></trkpt><trkpt lat="39.2266173" lon="8.6488105"><ele>498.0</ele><time>2026-04-25T15:55:20.481Z</time></trkpt><trkpt lat="39.2266796" lon="8.6488621"><ele>498.0</ele><time>2026-04-25T15:55:21.475Z</time></trkpt><trkpt lat="39.2267413" lon="8.64893"><ele>498.79999999999995</ele><time>2026-04-25T15:55:22.487Z</time></trkpt><trkpt lat="39.2268102" lon="8.6489996"><ele>499.59999999999997</ele><time>2026-04-25T15:55:23.479Z</time></trkpt><trkpt lat="39.2268841" lon="8.6490664"><ele>500.40000000000003</ele><time>2026-04-25T15:55:24.492Z</time></trkpt><trkpt lat="39.2269744" lon="8.6491407"><ele>501.20000000000005</ele><time>2026-04-25T15:55:25.483Z</time></trkpt><trkpt lat="39.2270585" lon="8.6492084"><ele>502.0</ele><time>2026-04-25T15:55:26.478Z</time></trkpt><trkpt lat="39.2271348" lon="8.6492653"><ele>502.00000000000006</ele><time>2026-04-25T15:55:27.487Z</time></trkpt><trkpt lat="39.2271986" lon="8.6493181"><ele>502.0</ele><time>2026-04-25T15:55:28.484Z</time></trkpt><trkpt lat="39.2272614" lon="8.649343"><ele>502.0</ele><time>2026-04-25T15:55:29.497Z</time></trkpt><trkpt lat="39.2273527" lon="8.6493758"><ele>502.0</ele><time>2026-04-25T15:55:30.485Z</time></trkpt><trkpt lat="39.2274316" lon="8.6494363"><ele>502.00000000000006</ele><time>2026-04-25T15:55:31.498Z</time></trkpt><trkpt lat="39.2275051" lon="8.6495035"><ele>502.0</ele><time>2026-04-25T15:55:32.492Z</time></trkpt><trkpt lat="39.2275699" lon="8.6495881"><ele>502.33333333333337</ele><time>2026-04-25T15:55:33.496Z</time></trkpt><trkpt lat="39.2276224" lon="8.6496817"><ele>502.6666666666667</ele><time>2026-04-25T15:55:34.488Z</time></trkpt><trkpt lat="39.2276615" lon="8.6497721"><ele>503.0</ele><time>2026-04-25T15:55:35.483Z</time></trkpt><trkpt lat="39.2277024" lon="8.6498549"><ele>503.33333333333337</ele><time>2026-04-25T15:55:36.49Z</time></trkpt><trkpt lat="39.2277577" lon="8.6499282"><ele>503.6666666666667</ele><time>2026-04-25T15:55:37.49Z</time></trkpt><trkpt lat="39.2278372" lon="8.6499855"><ele>504.0</ele><time>2026-04-25T15:55:38.487Z</time></trkpt><trkpt lat="39.227916" lon="8.6500412"><ele>504.0</ele><time>2026-04-25T15:55:39.476Z</time></trkpt><trkpt lat="39.2280003" lon="8.6501014"><ele>504.0</ele><time>2026-04-25T15:55:40.482Z</time></trkpt><trkpt lat="39.2280689" lon="8.6501449"><ele>504.0</ele><time>2026-04-25T15:55:41.482Z</time></trkpt><trkpt lat="39.2281509" lon="8.6502543"><ele>504.0</ele><time>2026-04-25T15:55:43.483Z</time></trkpt><trkpt lat="39.2281827" lon="8.6503635"><ele>504.0</ele><time>2026-04-25T15:55:45.482Z</time></trkpt><trkpt lat="39.2282184" lon="8.6504768"><ele>503.3333333333333</ele><time>2026-04-25T16:00:21.486Z</time></trkpt><trkpt lat="39.2282577" lon="8.650607"><ele>502.66666666666663</ele><time>2026-04-25T16:00:23.492Z</time></trkpt><trkpt lat="39.2282699" lon="8.6506994"><ele>502.0</ele><time>2026-04-25T16:00:24.483Z</time></trkpt><trkpt lat="39.2282898" lon="8.6507864"><ele>501.3333333333333</ele><time>2026-04-25T16:00:25.494Z</time></trkpt><trkpt lat="39.2283189" lon="8.6508743"><ele>500.66666666666663</ele><time>2026-04-25T16:00:26.49Z</time></trkpt><trkpt lat="39.2283508" lon="8.6509754"><ele>500.0</ele><time>2026-04-25T16:00:27.484Z</time></trkpt><trkpt lat="39.2283736" lon="8.6510742"><ele>499.0</ele><time>2026-04-25T16:00:28.485Z</time></trkpt><trkpt lat="39.2283901" lon="8.6511852"><ele>498.0</ele><time>2026-04-25T16:00:29.477Z</time></trkpt><trkpt lat="39.2283772" lon="8.6513058"><ele>497.0</ele><time>2026-04-25T16:00:30.484Z</time></trkpt><trkpt lat="39.2283385" lon="8.6514205"><ele>496.0</ele><time>2026-04-25T16:00:31.472Z</time></trkpt><trkpt lat="39.2282867" lon="8.6515402"><ele>495.0</ele><time>2026-04-25T16:00:32.473Z</time></trkpt><trkpt lat="39.2282302" lon="8.6516565"><ele>495.0</ele><time>2026-04-25T16:00:33.486Z</time></trkpt><trkpt lat="39.2281737" lon="8.6517794"><ele>495.0</ele><time>2026-04-25T16:00:34.477Z</time></trkpt><trkpt lat="39.228117" lon="8.6519047"><ele>495.0</ele><time>2026-04-25T16:00:35.484Z</time></trkpt><trkpt lat="39.2280745" lon="8.6520265"><ele>495.0</ele><time>2026-04-25T16:00:36.484Z</time></trkpt><trkpt lat="39.2280422" lon="8.6521571"><ele>495.0</ele><time>2026-04-25T16:00:37.491Z</time></trkpt><trkpt lat="39.2279782" lon="8.6522957"><ele>494.0</ele><time>2026-04-25T16:00:38.48Z</time></trkpt><trkpt lat="39.2278996" lon="8.6524278"><ele>493.0</ele><time>2026-04-25T16:00:39.484Z</time></trkpt><trkpt lat="39.227813" lon="8.6525443"><ele>492.0</ele><time>2026-04-25T16:00:40.487Z</time></trkpt><trkpt lat="39.2277233" lon="8.6526522"><ele>491.0</ele><time>2026-04-25T16:00:41.49Z</time></trkpt><trkpt lat="39.2276462" lon="8.6527646"><ele>490.6</ele><time>2026-04-25T16:00:42.483Z</time></trkpt><trkpt lat="39.2275895" lon="8.6528793"><ele>490.20000000000005</ele><time>2026-04-25T16:00:43.483Z</time></trkpt><trkpt lat="39.2275585" lon="8.6529974"><ele>489.79999999999995</ele><time>2026-04-25T16:00:44.487Z</time></trkpt><trkpt lat="39.2275351" lon="8.6531378"><ele>489.4</ele><time>2026-04-25T16:00:45.484Z</time></trkpt><trkpt lat="39.2275289" lon="8.653285"><ele>489.0</ele><time>2026-04-25T16:00:46.487Z</time></trkpt><trkpt lat="39.2275257" lon="8.6534355"><ele>489.0</ele><time>2026-04-25T16:00:47.478Z</time></trkpt><trkpt lat="39.2275197" lon="8.6535829"><ele>489.0</ele><time>2026-04-25T16:00:48.488Z</time></trkpt><trkpt lat="39.227528" lon="8.653714"><ele>489.0</ele><time>2026-04-25T16:00:49.479Z</time></trkpt><trkpt lat="39.2275349" lon="8.653844"><ele>489.0</ele><time>2026-04-25T16:00:50.479Z</time></trkpt><trkpt lat="39.2275567" lon="8.6539725"><ele>489.0</ele><time>2026-04-25T16:00:51.479Z</time></trkpt><trkpt lat="39.2275738" lon="8.6541037"><ele>489.4</ele><time>2026-04-25T16:00:52.478Z</time></trkpt><trkpt lat="39.2275855" lon="8.6542483"><ele>489.79999999999995</ele><time>2026-04-25T16:00:53.479Z</time></trkpt><trkpt lat="39.2275944" lon="8.6543878"><ele>490.20000000000005</ele><time>2026-04-25T16:00:54.48Z</time></trkpt><trkpt lat="39.2276046" lon="8.6545195"><ele>490.6</ele><time>2026-04-25T16:00:55.48Z</time></trkpt><trkpt lat="39.2276366" lon="8.6546414"><ele>491.0</ele><time>2026-04-25T16:00:56.479Z</time></trkpt><trkpt lat="39.2276796" lon="8.6547744"><ele>492.0</ele><time>2026-04-25T16:00:57.488Z</time></trkpt><trkpt lat="39.2277273" lon="8.6549006"><ele>493.0</ele><time>2026-04-25T16:00:58.481Z</time></trkpt><trkpt lat="39.2277772" lon="8.6550261"><ele>494.0</ele><time>2026-04-25T16:00:59.483Z</time></trkpt><trkpt lat="39.227836" lon="8.6551458"><ele>495.0</ele><time>2026-04-25T16:01:00.498Z</time></trkpt><trkpt lat="39.2279028" lon="8.6552509"><ele>496.0</ele><time>2026-04-25T16:01:01.485Z</time></trkpt><trkpt lat="39.2279644" lon="8.6553509"><ele>496.6666666666667</ele><time>2026-04-25T16:01:02.484Z</time></trkpt><trkpt lat="39.2280105" lon="8.6554385"><ele>497.33333333333337</ele><time>2026-04-25T16:01:03.478Z</time></trkpt><trkpt lat="39.2280416" lon="8.6555394"><ele>498.0</ele><time>2026-04-25T16:01:04.477Z</time></trkpt><trkpt lat="39.2280612" lon="8.655653"><ele>498.66666666666663</ele><time>2026-04-25T16:01:05.477Z</time></trkpt><trkpt lat="39.2280798" lon="8.6557738"><ele>499.3333333333333</ele><time>2026-04-25T16:01:06.481Z</time></trkpt><trkpt lat="39.2280848" lon="8.6558979"><ele>500.0</ele><time>2026-04-25T16:01:07.481Z</time></trkpt><trkpt lat="39.2280898" lon="8.6560204"><ele>500.6</ele><time>2026-04-25T16:01:08.501Z</time></trkpt><trkpt lat="39.228106" lon="8.656129"><ele>501.2</ele><time>2026-04-25T16:01:09.478Z</time></trkpt><trkpt lat="39.2281497" lon="8.6562193"><ele>501.79999999999995</ele><time>2026-04-25T16:01:10.483Z</time></trkpt><trkpt lat="39.2282127" lon="8.6563198"><ele>502.4</ele><time>2026-04-25T16:01:11.477Z</time></trkpt><trkpt lat="39.2282736" lon="8.6564226"><ele>503.0</ele><time>2026-04-25T16:01:12.476Z</time></trkpt><trkpt lat="39.2283257" lon="8.6565361"><ele>502.0</ele><time>2026-04-25T16:01:13.488Z</time></trkpt><trkpt lat="39.2283375" lon="8.6566687"><ele>500.99999999999994</ele><time>2026-04-25T16:01:14.48Z</time></trkpt><trkpt lat="39.2283392" lon="8.656805"><ele>499.99999999999994</ele><time>2026-04-25T16:01:15.493Z</time></trkpt><trkpt lat="39.2283477" lon="8.6569404"><ele>499.0</ele><time>2026-04-25T16:01:16.476Z</time></trkpt><trkpt lat="39.2283715" lon="8.6570684"><ele>498.0</ele><time>2026-04-25T16:01:17.478Z</time></trkpt><trkpt lat="39.2283716" lon="8.6571957"><ele>498.0</ele><time>2026-04-25T16:01:18.481Z</time></trkpt><trkpt lat="39.2283474" lon="8.6573247"><ele>497.99999999999994</ele><time>2026-04-25T16:01:19.485Z</time></trkpt><trkpt lat="39.2283224" lon="8.6574643"><ele>497.99999999999994</ele><time>2026-04-25T16:01:20.499Z</time></trkpt><trkpt lat="39.2282838" lon="8.6576003"><ele>498.0</ele><time>2026-04-25T16:01:21.482Z</time></trkpt><trkpt lat="39.2282345" lon="8.6577343"><ele>498.0</ele><time>2026-04-25T16:01:22.497Z</time></trkpt><trkpt lat="39.2281658" lon="8.6578498"><ele>499.0</ele><time>2026-04-25T16:01:23.489Z</time></trkpt><trkpt lat="39.2280691" lon="8.6579653"><ele>500.0</ele><time>2026-04-25T16:01:24.483Z</time></trkpt><trkpt lat="39.2279674" lon="8.6580874"><ele>501.0</ele><time>2026-04-25T16:01:25.489Z</time></trkpt><trkpt lat="39.2278766" lon="8.6582067"><ele>502.0</ele><time>2026-04-25T16:01:26.482Z</time></trkpt><trkpt lat="39.2278018" lon="8.6583087"><ele>502.0</ele><time>2026-04-25T16:01:27.479Z</time></trkpt><trkpt lat="39.2277418" lon="8.6584066"><ele>502.00000000000006</ele><time>2026-04-25T16:01:28.488Z</time></trkpt><trkpt lat="39.2276836" lon="8.6585352"><ele>502.00000000000006</ele><time>2026-04-25T16:01:29.481Z</time></trkpt><trkpt lat="39.2276337" lon="8.6586686"><ele>502.0</ele><time>2026-04-25T16:01:30.488Z</time></trkpt><trkpt lat="39.2275964" lon="8.6588009"><ele>502.0</ele><time>2026-04-25T16:01:31.491Z</time></trkpt><trkpt lat="39.2275907" lon="8.6589136"><ele>503.40000000000003</ele><time>2026-04-25T16:01:32.488Z</time></trkpt><trkpt lat="39.2276145" lon="8.6590486"><ele>504.80000000000007</ele><time>2026-04-25T16:01:33.486Z</time></trkpt><trkpt lat="39.2276598" lon="8.6591731"><ele>506.2</ele><time>2026-04-25T16:01:34.478Z</time></trkpt><trkpt lat="39.2277163" lon="8.6593058"><ele>507.6</ele><time>2026-04-25T16:01:35.483Z</time></trkpt><trkpt lat="39.2277541" lon="8.6594195"><ele>509.0</ele><time>2026-04-25T16:01:36.501Z</time></trkpt><trkpt lat="39.22778" lon="8.659551"><ele>511.4</ele><time>2026-04-25T16:01:37.481Z</time></trkpt><trkpt lat="39.2277828" lon="8.6596792"><ele>513.8</ele><time>2026-04-25T16:01:38.488Z</time></trkpt><trkpt lat="39.2277773" lon="8.6598151"><ele>516.2</ele><time>2026-04-25T16:01:39.482Z</time></trkpt><trkpt lat="39.2277535" lon="8.6599459"><ele>518.6</ele><time>2026-04-25T16:01:40.488Z</time></trkpt><trkpt lat="39.2277198" lon="8.6600736"><ele>521.0</ele><time>2026-04-25T16:01:41.485Z</time></trkpt><trkpt lat="39.2276877" lon="8.6601977"><ele>522.2</ele><time>2026-04-25T16:01:42.484Z</time></trkpt><trkpt lat="39.2276575" lon="8.6603072"><ele>523.4000000000001</ele><time>2026-04-25T16:01:43.487Z</time></trkpt><trkpt lat="39.2276436" lon="8.6604208"><ele>524.6</ele><time>2026-04-25T16:01:44.483Z</time></trkpt><trkpt lat="39.2276381" lon="8.6605412"><ele>525.8000000000001</ele><time>2026-04-25T16:01:45.484Z</time></trkpt><trkpt lat="39.2276327" lon="8.6606667"><ele>527.0</ele><time>2026-04-25T16:01:46.495Z</time></trkpt><trkpt lat="39.2276389" lon="8.6607773"><ele>527.0</ele><time>2026-04-25T16:01:47.482Z</time></trkpt><trkpt lat="39.2276734" lon="8.660875"><ele>527.0</ele><time>2026-04-25T16:01:48.491Z</time></trkpt><trkpt lat="39.2277906" lon="8.6609832"><ele>527.0</ele><time>2026-04-25T16:01:50.479Z</time></trkpt><trkpt lat="39.2278577" lon="8.6610643"><ele>527.0</ele><time>2026-04-25T16:01:51.494Z</time></trkpt><trkpt lat="39.2279238" lon="8.6611325"><ele>527.0</ele><time>2026-04-25T16:01:52.489Z</time></trkpt><trkpt lat="39.2279908" lon="8.6611838"><ele>526.8333333333333</ele><time>2026-04-25T16:01:53.487Z</time></trkpt><trkpt lat="39.228063" lon="8.6612477"><ele>526.6666666666666</ele><time>2026-04-25T16:01:54.471Z</time></trkpt><trkpt lat="39.2281317" lon="8.6613082"><ele>526.5</ele><time>2026-04-25T16:01:55.487Z</time></trkpt><trkpt lat="39.2282031" lon="8.6613737"><ele>526.3333333333334</ele><time>2026-04-25T16:01:56.484Z</time></trkpt><trkpt lat="39.2282839" lon="8.6614024"><ele>526.1666666666667</ele><time>2026-04-25T16:01:57.482Z</time></trkpt><trkpt lat="39.2283726" lon="8.6614066"><ele>526.0</ele><time>2026-04-25T16:01:58.483Z</time></trkpt><trkpt lat="39.228474" lon="8.6614046"><ele>525.0</ele><time>2026-04-25T16:01:59.474Z</time></trkpt><trkpt lat="39.2285873" lon="8.6614193"><ele>524.0</ele><time>2026-04-25T16:02:00.487Z</time></trkpt><trkpt lat="39.2287052" lon="8.6614524"><ele>523.0</ele><time>2026-04-25T16:02:01.484Z</time></trkpt><trkpt lat="39.2288243" lon="8.6614965"><ele>522.0</ele><time>2026-04-25T16:02:02.477Z</time></trkpt><trkpt lat="39.2289195" lon="8.6615743"><ele>521.5</ele><time>2026-04-25T16:02:03.481Z</time></trkpt><trkpt lat="39.22901" lon="8.6616742"><ele>521.0</ele><time>2026-04-25T16:02:04.475Z</time></trkpt><trkpt lat="39.2290959" lon="8.6617779"><ele>520.5</ele><time>2026-04-25T16:02:05.489Z</time></trkpt><trkpt lat="39.2291809" lon="8.6618588"><ele>520.0</ele><time>2026-04-25T16:02:06.476Z</time></trkpt><trkpt lat="39.2292841" lon="8.6619161"><ele>519.25</ele><time>2026-04-25T16:02:07.484Z</time></trkpt><trkpt lat="39.2294014" lon="8.6619588"><ele>518.5</ele><time>2026-04-25T16:02:08.483Z</time></trkpt><trkpt lat="39.2295262" lon="8.6619962"><ele>517.75</ele><time>2026-04-25T16:02:09.484Z</time></trkpt><trkpt lat="39.2296531" lon="8.6620363"><ele>517.0</ele><time>2026-04-25T16:02:10.486Z</time></trkpt><trkpt lat="39.229783" lon="8.6620507"><ele>518.25</ele><time>2026-04-25T16:02:11.49Z</time></trkpt><trkpt lat="39.2299077" lon="8.6620646"><ele>519.5</ele><time>2026-04-25T16:02:12.49Z</time></trkpt><trkpt lat="39.2300176" lon="8.6620926"><ele>520.75</ele><time>2026-04-25T16:02:13.492Z</time></trkpt><trkpt lat="39.2301138" lon="8.6621692"><ele>522.0</ele><time>2026-04-25T16:02:14.486Z</time></trkpt><trkpt lat="39.2302208" lon="8.6622557"><ele>522.0</ele><time>2026-04-25T16:02:15.483Z</time></trkpt><trkpt lat="39.2303256" lon="8.6623187"><ele>522.0</ele><time>2026-04-25T16:02:16.49Z</time></trkpt><trkpt lat="39.2304297" lon="8.6623518"><ele>522.0</ele><time>2026-04-25T16:02:17.49Z</time></trkpt><trkpt lat="39.230537" lon="8.6623764"><ele>522.0</ele><time>2026-04-25T16:02:18.485Z</time></trkpt><trkpt lat="39.2306468" lon="8.6624339"><ele>522.75</ele><time>2026-04-25T16:02:19.491Z</time></trkpt><trkpt lat="39.230762" lon="8.6625083"><ele>523.5</ele><time>2026-04-25T16:02:20.489Z</time></trkpt><trkpt lat="39.2308793" lon="8.6625958"><ele>524.25</ele><time>2026-04-25T16:02:21.486Z</time></trkpt><trkpt lat="39.2309891" lon="8.6626841"><ele>525.0</ele><time>2026-04-25T16:02:22.483Z</time></trkpt><trkpt lat="39.2310893" lon="8.6627615"><ele>525.1666666666666</ele><time>2026-04-25T16:02:23.488Z</time></trkpt><trkpt lat="39.2311657" lon="8.6628353"><ele>525.3333333333334</ele><time>2026-04-25T16:02:24.486Z</time></trkpt><trkpt lat="39.2312249" lon="8.6628997"><ele>525.5</ele><time>2026-04-25T16:02:25.494Z</time></trkpt><trkpt lat="39.2312689" lon="8.6629708"><ele>525.6666666666667</ele><time>2026-04-25T16:02:26.485Z</time></trkpt><trkpt lat="39.2313018" lon="8.6630796"><ele>525.8333333333334</ele><time>2026-04-25T16:02:28.497Z</time></trkpt><trkpt lat="39.2313279" lon="8.6631655"><ele>526.0</ele><time>2026-04-25T16:03:26.476Z</time></trkpt><trkpt lat="39.2313737" lon="8.6632944"><ele>526.0</ele><time>2026-04-25T16:03:28.497Z</time></trkpt><trkpt lat="39.2313867" lon="8.6634529"><ele>526.0</ele><time>2026-04-25T16:03:30.488Z</time></trkpt><trkpt lat="39.2313443" lon="8.6636044"><ele>526.0</ele><time>2026-04-25T16:03:32.481Z</time></trkpt><trkpt lat="39.231306" lon="8.663679"><ele>526.0</ele><time>2026-04-25T16:03:33.482Z</time></trkpt><trkpt lat="39.2312663" lon="8.6637487"><ele>526.0</ele><time>2026-04-25T16:03:34.49Z</time></trkpt><trkpt lat="39.2312132" lon="8.6638335"><ele>526.2</ele><time>2026-04-25T16:03:35.486Z</time></trkpt><trkpt lat="39.2311495" lon="8.6639206"><ele>526.4000000000001</ele><time>2026-04-25T16:03:36.486Z</time></trkpt><trkpt lat="39.2310899" lon="8.6640003"><ele>526.6</ele><time>2026-04-25T16:03:37.469Z</time></trkpt><trkpt lat="39.2310301" lon="8.6640864"><ele>526.8000000000001</ele><time>2026-04-25T16:03:38.483Z</time></trkpt><trkpt lat="39.230977" lon="8.6641834"><ele>527.0</ele><time>2026-04-25T16:03:39.481Z</time></trkpt><trkpt lat="39.2309315" lon="8.664285"><ele>527.0</ele><time>2026-04-25T16:03:40.478Z</time></trkpt><trkpt lat="39.2308941" lon="8.6643964"><ele>527.0</ele><time>2026-04-25T16:03:41.479Z</time></trkpt><trkpt lat="39.2308448" lon="8.6645007"><ele>527.0</ele><time>2026-04-25T16:03:42.482Z</time></trkpt><trkpt lat="39.2307937" lon="8.6646109"><ele>527.0</ele><time>2026-04-25T16:03:43.471Z</time></trkpt><trkpt lat="39.2307515" lon="8.6647093"><ele>527.0</ele><time>2026-04-25T16:03:44.485Z</time></trkpt><trkpt lat="39.2307028" lon="8.6648081"><ele>527.5</ele><time>2026-04-25T16:03:45.486Z</time></trkpt><trkpt lat="39.230655" lon="8.6649042"><ele>528.0</ele><time>2026-04-25T16:03:46.481Z</time></trkpt><trkpt lat="39.2306048" lon="8.6649925"><ele>528.5</ele><time>2026-04-25T16:03:47.472Z</time></trkpt><trkpt lat="39.2305512" lon="8.6650685"><ele>529.0</ele><time>2026-04-25T16:03:48.48Z</time></trkpt><trkpt lat="39.2304925" lon="8.6651101"><ele>529.5</ele><time>2026-04-25T16:03:49.484Z</time></trkpt><trkpt lat="39.2304256" lon="8.6651357"><ele>530.0</ele><time>2026-04-25T16:03:50.477Z</time></trkpt><trkpt lat="39.2303534" lon="8.665131"><ele>530.0</ele><time>2026-04-25T16:03:51.492Z</time></trkpt><trkpt lat="39.2302798" lon="8.6651028"><ele>530.0</ele><time>2026-04-25T16:03:52.488Z</time></trkpt><trkpt lat="39.2302081" lon="8.6650952"><ele>530.0</ele><time>2026-04-25T16:03:53.486Z</time></trkpt><trkpt lat="39.2301389" lon="8.6651315"><ele>530.0</ele><time>2026-04-25T16:03:54.488Z</time></trkpt><trkpt lat="39.2300617" lon="8.6651755"><ele>530.0</ele><time>2026-04-25T16:03:55.487Z</time></trkpt><trkpt lat="39.2299945" lon="8.6652309"><ele>530.0</ele><time>2026-04-25T16:03:56.479Z</time></trkpt><trkpt lat="39.2299367" lon="8.665291"><ele>530.0</ele><time>2026-04-25T16:03:57.485Z</time></trkpt><trkpt lat="39.2298258" lon="8.6653762"><ele>530.0</ele><time>2026-04-25T16:03:59.485Z</time></trkpt><trkpt lat="39.2297593" lon="8.6654097"><ele>530.0</ele><time>2026-04-25T16:04:00.492Z</time></trkpt><trkpt lat="39.2296872" lon="8.6654417"><ele>530.0</ele><time>2026-04-25T16:04:01.5Z</time></trkpt><trkpt lat="39.2296179" lon="8.6654831"><ele>530.0</ele><time>2026-04-25T16:04:02.486Z</time></trkpt><trkpt lat="39.2295489" lon="8.6655402"><ele>530.0</ele><time>2026-04-25T16:04:03.494Z</time></trkpt><trkpt lat="39.2294837" lon="8.6656101"><ele>530.4</ele><time>2026-04-25T16:04:04.488Z</time></trkpt><trkpt lat="39.2294198" lon="8.6656852"><ele>530.8</ele><time>2026-04-25T16:04:05.493Z</time></trkpt><trkpt lat="39.2293555" lon="8.665768"><ele>531.2</ele><time>2026-04-25T16:04:06.484Z</time></trkpt><trkpt lat="39.2292851" lon="8.6658479"><ele>531.6</ele><time>2026-04-25T16:04:07.489Z</time></trkpt><trkpt lat="39.2291992" lon="8.6659318"><ele>532.0</ele><time>2026-04-25T16:04:08.494Z</time></trkpt><trkpt lat="39.2291015" lon="8.6660209"><ele>531.0</ele><time>2026-04-25T16:04:09.497Z</time></trkpt><trkpt lat="39.2289999" lon="8.6661122"><ele>530.0</ele><time>2026-04-25T16:04:10.489Z</time></trkpt><trkpt lat="39.228903" lon="8.6662088"><ele>529.0</ele><time>2026-04-25T16:04:11.483Z</time></trkpt><trkpt lat="39.2288162" lon="8.6663102"><ele>528.0</ele><time>2026-04-25T16:04:12.491Z</time></trkpt><trkpt lat="39.2287283" lon="8.6664042"><ele>531.5</ele><time>2026-04-25T16:04:13.483Z</time></trkpt><trkpt lat="39.2286301" lon="8.6664995"><ele>535.0</ele><time>2026-04-25T16:04:14.494Z</time></trkpt><trkpt lat="39.2285246" lon="8.6665963"><ele>538.5</ele><time>2026-04-25T16:04:15.481Z</time></trkpt><trkpt lat="39.2284091" lon="8.6666691"><ele>542.0</ele><time>2026-04-25T16:04:16.49Z</time></trkpt><trkpt lat="39.2282871" lon="8.6667243"><ele>542.0</ele><time>2026-04-25T16:04:17.49Z</time></trkpt><trkpt lat="39.2281808" lon="8.6667787"><ele>542.0</ele><time>2026-04-25T16:04:18.474Z</time></trkpt><trkpt lat="39.2280879" lon="8.6668082"><ele>542.0</ele><time>2026-04-25T16:04:19.477Z</time></trkpt><trkpt lat="39.2279989" lon="8.6668482"><ele>542.0</ele><time>2026-04-25T16:04:20.482Z</time></trkpt><trkpt lat="39.2279077" lon="8.666889"><ele>542.0</ele><time>2026-04-25T16:04:21.483Z</time></trkpt><trkpt lat="39.2278153" lon="8.6669486"><ele>541.5</ele><time>2026-04-25T16:04:22.485Z</time></trkpt><trkpt lat="39.2277343" lon="8.6670118"><ele>541.0</ele><time>2026-04-25T16:04:23.487Z</time></trkpt><trkpt lat="39.2276647" lon="8.6670892"><ele>540.5</ele><time>2026-04-25T16:04:24.481Z</time></trkpt><trkpt lat="39.2275987" lon="8.6671824"><ele>540.0</ele><time>2026-04-25T16:04:25.481Z</time></trkpt><trkpt lat="39.2275466" lon="8.667275"><ele>539.5</ele><time>2026-04-25T16:04:26.478Z</time></trkpt><trkpt lat="39.2275113" lon="8.667353"><ele>539.0</ele><time>2026-04-25T16:04:27.493Z</time></trkpt><trkpt lat="39.2274408" lon="8.6674438"><ele>539.0</ele><time>2026-04-25T16:04:29.486Z</time></trkpt><trkpt lat="39.227401" lon="8.6675071"><ele>539.0</ele><time>2026-04-25T16:04:31.482Z</time></trkpt><trkpt lat="39.2273537" lon="8.6675979"><ele>539.0</ele><time>2026-04-25T16:08:27.474Z</time></trkpt><trkpt lat="39.2273071" lon="8.6676704"><ele>539.0</ele><time>2026-04-25T16:08:29.486Z</time></trkpt><trkpt lat="39.227258" lon="8.6677777"><ele>539.0</ele><time>2026-04-25T16:08:32.479Z</time></trkpt><trkpt lat="39.2272435" lon="8.667884"><ele>539.0</ele><time>2026-04-25T16:08:35.478Z</time></trkpt><trkpt lat="39.2272314" lon="8.6680147"><ele>538.1666666666666</ele><time>2026-04-25T16:08:37.48Z</time></trkpt><trkpt lat="39.2272521" lon="8.6681163"><ele>537.3333333333333</ele><time>2026-04-25T16:08:39.475Z</time></trkpt><trkpt lat="39.2272808" lon="8.6682164"><ele>536.5</ele><time>2026-04-25T16:08:41.467Z</time></trkpt><trkpt lat="39.2273276" lon="8.6683289"><ele>535.6666666666666</ele><time>2026-04-25T16:08:43.48Z</time></trkpt><trkpt lat="39.2273777" lon="8.6684703"><ele>534.8333333333334</ele><time>2026-04-25T16:08:45.485Z</time></trkpt><trkpt lat="39.2274032" lon="8.6685462"><ele>534.0</ele><time>2026-04-25T16:08:46.476Z</time></trkpt><trkpt lat="39.227426" lon="8.6686874"><ele>530.6</ele><time>2026-04-25T16:08:48.481Z</time></trkpt><trkpt lat="39.2274335" lon="8.6688528"><ele>527.2</ele><time>2026-04-25T16:08:50.478Z</time></trkpt><trkpt lat="39.2274853" lon="8.6689984"><ele>523.8000000000001</ele><time>2026-04-25T16:08:52.482Z</time></trkpt><trkpt lat="39.2275293" lon="8.6690699"><ele>520.4</ele><time>2026-04-25T16:08:53.475Z</time></trkpt><trkpt lat="39.2275622" lon="8.6691475"><ele>517.0</ele><time>2026-04-25T16:08:54.477Z</time></trkpt><trkpt lat="39.2275842" lon="8.6692266"><ele>517.0</ele><time>2026-04-25T16:08:55.474Z</time></trkpt><trkpt lat="39.2276043" lon="8.6693108"><ele>517.0</ele><time>2026-04-25T16:08:56.473Z</time></trkpt><trkpt lat="39.2276202" lon="8.669409"><ele>517.0</ele><time>2026-04-25T16:08:57.474Z</time></trkpt><trkpt lat="39.2276404" lon="8.6695118"><ele>517.0</ele><time>2026-04-25T16:08:58.483Z</time></trkpt><trkpt lat="39.2276531" lon="8.6695988"><ele>517.0</ele><time>2026-04-25T16:08:59.471Z</time></trkpt><trkpt lat="39.2276542" lon="8.6696816"><ele>517.0</ele><time>2026-04-25T16:09:00.477Z</time></trkpt><trkpt lat="39.2276383" lon="8.669761"><ele>517.0</ele><time>2026-04-25T16:09:01.481Z</time></trkpt><trkpt lat="39.2275948" lon="8.669843"><ele>515.6666666666667</ele><time>2026-04-25T16:09:02.481Z</time></trkpt><trkpt lat="39.2275422" lon="8.6699298"><ele>514.3333333333334</ele><time>2026-04-25T16:09:03.471Z</time></trkpt><trkpt lat="39.2275062" lon="8.6700161"><ele>513.0</ele><time>2026-04-25T16:09:04.481Z</time></trkpt><trkpt lat="39.227476" lon="8.6700968"><ele>511.66666666666663</ele><time>2026-04-25T16:09:05.474Z</time></trkpt><trkpt lat="39.2275039" lon="8.6702546"><ele>510.3333333333333</ele><time>2026-04-25T16:09:07.473Z</time></trkpt><trkpt lat="39.2275578" lon="8.6703354"><ele>509.0</ele><time>2026-04-25T16:09:08.465Z</time></trkpt><trkpt lat="39.2276091" lon="8.6704257"><ele>507.8333333333333</ele><time>2026-04-25T16:09:09.469Z</time></trkpt><trkpt lat="39.2276413" lon="8.6705288"><ele>506.66666666666663</ele><time>2026-04-25T16:09:10.466Z</time></trkpt><trkpt lat="39.2276623" lon="8.6706239"><ele>505.5</ele><time>2026-04-25T16:09:11.472Z</time></trkpt><trkpt lat="39.2276837" lon="8.6707153"><ele>504.33333333333337</ele><time>2026-04-25T16:09:12.475Z</time></trkpt><trkpt lat="39.2277027" lon="8.6708253"><ele>503.1666666666667</ele><time>2026-04-25T16:09:13.472Z</time></trkpt><trkpt lat="39.2277059" lon="8.6709394"><ele>502.0</ele><time>2026-04-25T16:09:14.477Z</time></trkpt><trkpt lat="39.2276834" lon="8.6710452"><ele>501.50000000000006</ele><time>2026-04-25T16:09:15.469Z</time></trkpt><trkpt lat="39.2276627" lon="8.6711465"><ele>501.0</ele><time>2026-04-25T16:09:16.47Z</time></trkpt><trkpt lat="39.2276386" lon="8.671242"><ele>500.5</ele><time>2026-04-25T16:09:17.472Z</time></trkpt><trkpt lat="39.2276065" lon="8.671331"><ele>500.0</ele><time>2026-04-25T16:09:18.468Z</time></trkpt><trkpt lat="39.2275704" lon="8.6714146"><ele>499.50000000000006</ele><time>2026-04-25T16:09:19.467Z</time></trkpt><trkpt lat="39.2275314" lon="8.6715046"><ele>499.0</ele><time>2026-04-25T16:09:20.465Z</time></trkpt><trkpt lat="39.2274802" lon="8.6715928"><ele>499.00000000000006</ele><time>2026-04-25T16:09:21.482Z</time></trkpt><trkpt lat="39.2274289" lon="8.671681"><ele>499.0</ele><time>2026-04-25T16:09:22.465Z</time></trkpt><trkpt lat="39.2273737" lon="8.6717781"><ele>499.0</ele><time>2026-04-25T16:09:23.476Z</time></trkpt><trkpt lat="39.2273309" lon="8.6718741"><ele>499.0</ele><time>2026-04-25T16:09:24.472Z</time></trkpt><trkpt lat="39.227296" lon="8.6719664"><ele>499.00000000000006</ele><time>2026-04-25T16:09:25.486Z</time></trkpt><trkpt lat="39.2272485" lon="8.6720355"><ele>499.0</ele><time>2026-04-25T16:09:26.47Z</time></trkpt><trkpt lat="39.2271905" lon="8.6720826"><ele>495.79999999999995</ele><time>2026-04-25T16:09:27.477Z</time></trkpt><trkpt lat="39.2270911" lon="8.6721782"><ele>492.59999999999997</ele><time>2026-04-25T16:09:29.482Z</time></trkpt><trkpt lat="39.2270669" lon="8.6722739"><ele>489.4</ele><time>2026-04-25T16:09:30.47Z</time></trkpt><trkpt lat="39.2270499" lon="8.6723831"><ele>486.2</ele><time>2026-04-25T16:09:31.472Z</time></trkpt><trkpt lat="39.2270312" lon="8.6725023"><ele>483.0</ele><time>2026-04-25T16:09:32.469Z</time></trkpt><trkpt lat="39.227003" lon="8.6726073"><ele>483.0</ele><time>2026-04-25T16:09:33.469Z</time></trkpt><trkpt lat="39.2269639" lon="8.6727076"><ele>482.99999999999994</ele><time>2026-04-25T16:09:34.47Z</time></trkpt><trkpt lat="39.2269331" lon="8.6728004"><ele>482.99999999999994</ele><time>2026-04-25T16:09:35.48Z</time></trkpt><trkpt lat="39.226907" lon="8.6729206"><ele>483.0</ele><time>2026-04-25T16:09:37.475Z</time></trkpt><trkpt lat="39.2269773" lon="8.6730378"><ele>483.0</ele><time>2026-04-25T16:09:39.481Z</time></trkpt><trkpt lat="39.2270281" lon="8.6731364"><ele>482.1666666666667</ele><time>2026-04-25T16:09:40.476Z</time></trkpt><trkpt lat="39.2270678" lon="8.6732259"><ele>481.33333333333337</ele><time>2026-04-25T16:09:41.48Z</time></trkpt><trkpt lat="39.2271104" lon="8.6733105"><ele>480.5</ele><time>2026-04-25T16:09:42.478Z</time></trkpt><trkpt lat="39.2271559" lon="8.6733788"><ele>479.6666666666667</ele><time>2026-04-25T16:09:43.474Z</time></trkpt><trkpt lat="39.2272206" lon="8.6734192"><ele>478.83333333333337</ele><time>2026-04-25T16:09:44.477Z</time></trkpt><trkpt lat="39.227294" lon="8.6734502"><ele>478.0</ele><time>2026-04-25T16:09:45.479Z</time></trkpt><trkpt lat="39.2273625" lon="8.6734897"><ele>478.50000000000006</ele><time>2026-04-25T16:09:46.474Z</time></trkpt><trkpt lat="39.2274047" lon="8.6735573"><ele>479.0</ele><time>2026-04-25T16:09:47.485Z</time></trkpt><trkpt lat="39.2274358" lon="8.673652"><ele>479.5</ele><time>2026-04-25T16:09:48.477Z</time></trkpt><trkpt lat="39.227448" lon="8.6737837"><ele>480.0</ele><time>2026-04-25T16:09:49.462Z</time></trkpt><trkpt lat="39.227444" lon="8.6739097"><ele>480.50000000000006</ele><time>2026-04-25T16:09:50.471Z</time></trkpt><trkpt lat="39.2274302" lon="8.6740108"><ele>481.0</ele><time>2026-04-25T16:09:51.474Z</time></trkpt><trkpt lat="39.2274122" lon="8.6740952"><ele>481.00000000000006</ele><time>2026-04-25T16:09:52.482Z</time></trkpt><trkpt lat="39.2274079" lon="8.6741883"><ele>481.0</ele><time>2026-04-25T16:09:53.482Z</time></trkpt><trkpt lat="39.2274354" lon="8.6742702"><ele>481.0</ele><time>2026-04-25T16:09:54.489Z</time></trkpt><trkpt lat="39.2274942" lon="8.6743506"><ele>481.0</ele><time>2026-04-25T16:09:55.479Z</time></trkpt><trkpt lat="39.2275668" lon="8.6744078"><ele>481.00000000000006</ele><time>2026-04-25T16:09:56.477Z</time></trkpt><trkpt lat="39.2276331" lon="8.6744359"><ele>481.0</ele><time>2026-04-25T16:09:57.465Z</time></trkpt><trkpt lat="39.2277347" lon="8.6744521"><ele>481.00000000000006</ele><time>2026-04-25T16:09:59.477Z</time></trkpt><trkpt lat="39.2278245" lon="8.6744446"><ele>481.0</ele><time>2026-04-25T16:10:01.477Z</time></trkpt><trkpt lat="39.2278819" lon="8.6744028"><ele>481.0</ele><time>2026-04-25T16:10:04.483Z</time></trkpt><trkpt lat="39.2278688" lon="8.6742881"><ele>481.0</ele><time>2026-04-25T16:10:07.478Z</time></trkpt><trkpt lat="39.2278507" lon="8.6742073"><ele>481.00000000000006</ele><time>2026-04-25T16:10:09.474Z</time></trkpt><trkpt lat="39.2279303" lon="8.6741732"><ele>481.0</ele><time>2026-04-25T16:10:12.478Z</time></trkpt><trkpt lat="39.2280458" lon="8.6742163"><ele>481.0</ele><time>2026-04-25T16:10:14.474Z</time></trkpt><trkpt lat="39.2281111" lon="8.6742169"><ele>481.0</ele><time>2026-04-25T16:10:15.47Z</time></trkpt><trkpt lat="39.2281781" lon="8.6742031"><ele>481.0</ele><time>2026-04-25T16:10:16.492Z</time></trkpt><trkpt lat="39.2282933" lon="8.6741661"><ele>481.0</ele><time>2026-04-25T16:10:18.476Z</time></trkpt><trkpt lat="39.2284188" lon="8.6741162"><ele>481.0</ele><time>2026-04-25T16:10:20.474Z</time></trkpt><trkpt lat="39.2284975" lon="8.674096"><ele>480.2857142857142</ele><time>2026-04-25T16:10:21.478Z</time></trkpt><trkpt lat="39.2285826" lon="8.6740856"><ele>479.57142857142856</ele><time>2026-04-25T16:10:22.473Z</time></trkpt><trkpt lat="39.2286638" lon="8.6740793"><ele>478.85714285714283</ele><time>2026-04-25T16:10:23.477Z</time></trkpt><trkpt lat="39.2287404" lon="8.6740666"><ele>478.1428571428571</ele><time>2026-04-25T16:10:24.467Z</time></trkpt><trkpt lat="39.2288087" lon="8.6740606"><ele>477.42857142857144</ele><time>2026-04-25T16:10:25.467Z</time></trkpt><trkpt lat="39.2288731" lon="8.6740638"><ele>476.7142857142857</ele><time>2026-04-25T16:10:26.468Z</time></trkpt><trkpt lat="39.2289395" lon="8.6740707"><ele>476.0</ele><time>2026-04-25T16:10:27.473Z</time></trkpt><trkpt lat="39.2290085" lon="8.674072"><ele>473.0</ele><time>2026-04-25T16:10:28.488Z</time></trkpt><trkpt lat="39.2291316" lon="8.6740684"><ele>470.0</ele><time>2026-04-25T16:10:30.493Z</time></trkpt><trkpt lat="39.2292417" lon="8.6741188"><ele>467.0</ele><time>2026-04-25T16:10:32.482Z</time></trkpt><trkpt lat="39.2293488" lon="8.6741605"><ele>464.0</ele><time>2026-04-25T16:10:34.475Z</time></trkpt><trkpt lat="39.2294435" lon="8.6742321"><ele>464.0</ele><time>2026-04-25T16:10:36.476Z</time></trkpt><trkpt lat="39.2295342" lon="8.6743263"><ele>464.0</ele><time>2026-04-25T16:10:38.471Z</time></trkpt><trkpt lat="39.2296404" lon="8.6743966"><ele>464.0</ele><time>2026-04-25T16:10:40.475Z</time></trkpt><trkpt lat="39.2297564" lon="8.6744365"><ele>464.0</ele><time>2026-04-25T16:10:42.474Z</time></trkpt><trkpt lat="39.2298681" lon="8.6744894"><ele>464.8333333333333</ele><time>2026-04-25T16:10:44.484Z</time></trkpt><trkpt lat="39.2299806" lon="8.6745413"><ele>465.66666666666663</ele><time>2026-04-25T16:10:46.475Z</time></trkpt><trkpt lat="39.2300447" lon="8.6745611"><ele>466.5</ele><time>2026-04-25T16:10:47.474Z</time></trkpt><trkpt lat="39.2301101" lon="8.6745856"><ele>467.33333333333337</ele><time>2026-04-25T16:10:48.474Z</time></trkpt><trkpt lat="39.2301805" lon="8.674609"><ele>468.1666666666667</ele><time>2026-04-25T16:10:49.471Z</time></trkpt><trkpt lat="39.23025" lon="8.674625"><ele>469.0</ele><time>2026-04-25T16:10:50.474Z</time></trkpt><trkpt lat="39.2303151" lon="8.6746375"><ele>469.00000000000006</ele><time>2026-04-25T16:10:51.472Z</time></trkpt><trkpt lat="39.2303863" lon="8.6746514"><ele>469.0</ele><time>2026-04-25T16:10:52.486Z</time></trkpt><trkpt lat="39.230453" lon="8.6746726"><ele>469.0</ele><time>2026-04-25T16:10:53.465Z</time></trkpt><trkpt lat="39.2305151" lon="8.6746977"><ele>469.0</ele><time>2026-04-25T16:10:54.47Z</time></trkpt><trkpt lat="39.2306241" lon="8.6747532"><ele>469.00000000000006</ele><time>2026-04-25T16:10:56.474Z</time></trkpt><trkpt lat="39.2307428" lon="8.6748093"><ele>469.0</ele><time>2026-04-25T16:10:58.468Z</time></trkpt><trkpt lat="39.2307926" lon="8.6748664"><ele>465.00000000000006</ele><time>2026-04-25T16:10:59.477Z</time></trkpt><trkpt lat="39.23084" lon="8.6749317"><ele>461.0</ele><time>2026-04-25T16:11:00.475Z</time></trkpt><trkpt lat="39.2309104" lon="8.6750516"><ele>457.0</ele><time>2026-04-25T16:11:02.478Z</time></trkpt><trkpt lat="39.2309483" lon="8.6751213"><ele>453.0</ele><time>2026-04-25T16:11:03.482Z</time></trkpt><trkpt lat="39.2309845" lon="8.6752031"><ele>449.00000000000006</ele><time>2026-04-25T16:11:04.486Z</time></trkpt><trkpt lat="39.2310168" lon="8.6752824"><ele>445.0</ele><time>2026-04-25T16:11:05.481Z</time></trkpt><trkpt lat="39.2310462" lon="8.6753622"><ele>445.0</ele><time>2026-04-25T16:11:06.488Z</time></trkpt><trkpt lat="39.2310619" lon="8.6754782"><ele>445.0</ele><time>2026-04-25T16:11:08.48Z</time></trkpt><trkpt lat="39.231076" lon="8.675583"><ele>445.0</ele><time>2026-04-25T16:11:10.483Z</time></trkpt><trkpt lat="39.2310884" lon="8.675703"><ele>445.0</ele><time>2026-04-25T16:11:12.477Z</time></trkpt><trkpt lat="39.2310796" lon="8.6758626"><ele>445.0</ele><time>2026-04-25T16:11:14.471Z</time></trkpt><trkpt lat="39.231076" lon="8.6759602"><ele>445.0</ele><time>2026-04-25T16:11:15.479Z</time></trkpt><trkpt lat="39.231066" lon="8.6760698"><ele>445.0</ele><time>2026-04-25T16:11:16.481Z</time></trkpt><trkpt lat="39.2310634" lon="8.6761687"><ele>445.0</ele><time>2026-04-25T16:11:17.479Z</time></trkpt><trkpt lat="39.2310614" lon="8.6762817"><ele>445.0</ele><time>2026-04-25T16:11:18.48Z</time></trkpt><trkpt lat="39.2310602" lon="8.6764"><ele>445.0</ele><time>2026-04-25T16:11:19.478Z</time></trkpt><trkpt lat="39.2310539" lon="8.6765412"><ele>444.2</ele><time>2026-04-25T16:11:20.474Z</time></trkpt><trkpt lat="39.2310499" lon="8.6766788"><ele>443.4</ele><time>2026-04-25T16:11:21.49Z</time></trkpt><trkpt lat="39.2310478" lon="8.676809"><ele>442.6</ele><time>2026-04-25T16:11:22.481Z</time></trkpt><trkpt lat="39.2310343" lon="8.6769245"><ele>441.8</ele><time>2026-04-25T16:11:23.469Z</time></trkpt><trkpt lat="39.2310303" lon="8.6770434"><ele>441.0</ele><time>2026-04-25T16:11:24.48Z</time></trkpt><trkpt lat="39.2310314" lon="8.6771735"><ele>440.0</ele><time>2026-04-25T16:11:25.479Z</time></trkpt><trkpt lat="39.2310291" lon="8.6772981"><ele>439.0</ele><time>2026-04-25T16:11:26.475Z</time></trkpt><trkpt lat="39.2310171" lon="8.6774214"><ele>438.0</ele><time>2026-04-25T16:11:27.475Z</time></trkpt><trkpt lat="39.2310161" lon="8.6775514"><ele>437.0</ele><time>2026-04-25T16:11:28.488Z</time></trkpt><trkpt lat="39.2310069" lon="8.6776818"><ele>436.0</ele><time>2026-04-25T16:11:29.479Z</time></trkpt><trkpt lat="39.2309927" lon="8.6778123"><ele>435.20000000000005</ele><time>2026-04-25T16:11:30.472Z</time></trkpt><trkpt lat="39.2309881" lon="8.6779519"><ele>434.40000000000003</ele><time>2026-04-25T16:11:31.473Z</time></trkpt><trkpt lat="39.2309813" lon="8.6780936"><ele>433.6</ele><time>2026-04-25T16:11:32.481Z</time></trkpt><trkpt lat="39.2309701" lon="8.6782396"><ele>432.8</ele><time>2026-04-25T16:11:33.468Z</time></trkpt><trkpt lat="39.2309585" lon="8.6783718"><ele>432.0</ele><time>2026-04-25T16:11:34.473Z</time></trkpt><trkpt lat="39.2309554" lon="8.6785002"><ele>430.8</ele><time>2026-04-25T16:11:35.48Z</time></trkpt><trkpt lat="39.2309491" lon="8.6786426"><ele>429.6</ele><time>2026-04-25T16:11:36.485Z</time></trkpt><trkpt lat="39.2309555" lon="8.678778"><ele>428.40000000000003</ele><time>2026-04-25T16:11:37.474Z</time></trkpt><trkpt lat="39.230966" lon="8.6789262"><ele>427.20000000000005</ele><time>2026-04-25T16:11:38.473Z</time></trkpt><trkpt lat="39.2309801" lon="8.6790559"><ele>426.0</ele><time>2026-04-25T16:11:39.471Z</time></trkpt><trkpt lat="39.2310212" lon="8.6791687"><ele>426.0</ele><time>2026-04-25T16:11:40.489Z</time></trkpt><trkpt lat="39.2310673" lon="8.679269"><ele>426.0</ele><time>2026-04-25T16:11:41.478Z</time></trkpt><trkpt lat="39.2310934" lon="8.67936"><ele>426.0</ele><time>2026-04-25T16:11:42.486Z</time></trkpt><trkpt lat="39.2311056" lon="8.6794575"><ele>426.0</ele><time>2026-04-25T16:11:43.472Z</time></trkpt><trkpt lat="39.2311057" lon="8.679556"><ele>426.0</ele><time>2026-04-25T16:11:44.473Z</time></trkpt><trkpt lat="39.2310985" lon="8.6796476"><ele>426.0</ele><time>2026-04-25T16:11:45.47Z</time></trkpt><trkpt lat="39.2311033" lon="8.6797477"><ele>426.0</ele><time>2026-04-25T16:11:46.467Z</time></trkpt><trkpt lat="39.231116" lon="8.6798557"><ele>426.0</ele><time>2026-04-25T16:11:47.485Z</time></trkpt><trkpt lat="39.2311253" lon="8.6799633"><ele>426.0</ele><time>2026-04-25T16:11:48.476Z</time></trkpt><trkpt lat="39.2311378" lon="8.680068"><ele>426.0</ele><time>2026-04-25T16:11:49.483Z</time></trkpt><trkpt lat="39.2311515" lon="8.6801763"><ele>426.0</ele><time>2026-04-25T16:11:50.479Z</time></trkpt><trkpt lat="39.2311681" lon="8.6802918"><ele>426.0</ele><time>2026-04-25T16:11:51.476Z</time></trkpt><trkpt lat="39.2311885" lon="8.6804138"><ele>425.6</ele><time>2026-04-25T16:11:52.472Z</time></trkpt><trkpt lat="39.2312098" lon="8.6805377"><ele>425.20000000000005</ele><time>2026-04-25T16:11:53.47Z</time></trkpt><trkpt lat="39.2312251" lon="8.6806687"><ele>424.79999999999995</ele><time>2026-04-25T16:11:54.472Z</time></trkpt><trkpt lat="39.2312433" lon="8.6807829"><ele>424.4</ele><time>2026-04-25T16:11:55.47Z</time></trkpt><trkpt lat="39.2312634" lon="8.6808924"><ele>424.0</ele><time>2026-04-25T16:11:56.472Z</time></trkpt><trkpt lat="39.2312789" lon="8.6810154"><ele>424.50000000000006</ele><time>2026-04-25T16:11:57.467Z</time></trkpt><trkpt lat="39.2312915" lon="8.6811219"><ele>425.0</ele><time>2026-04-25T16:11:58.484Z</time></trkpt><trkpt lat="39.2313032" lon="8.6812294"><ele>425.5</ele><time>2026-04-25T16:11:59.475Z</time></trkpt><trkpt lat="39.2313208" lon="8.681345"><ele>426.0</ele><time>2026-04-25T16:12:00.472Z</time></trkpt><trkpt lat="39.2313411" lon="8.6814667"><ele>426.50000000000006</ele><time>2026-04-25T16:12:01.476Z</time></trkpt><trkpt lat="39.2313628" lon="8.6815775"><ele>427.0</ele><time>2026-04-25T16:12:02.474Z</time></trkpt><trkpt lat="39.231395" lon="8.6816969"><ele>427.0</ele><time>2026-04-25T16:12:03.48Z</time></trkpt><trkpt lat="39.231435" lon="8.6818185"><ele>427.00000000000006</ele><time>2026-04-25T16:12:04.472Z</time></trkpt><trkpt lat="39.2314852" lon="8.6819386"><ele>427.00000000000006</ele><time>2026-04-25T16:12:05.478Z</time></trkpt><trkpt lat="39.2315359" lon="8.6820486"><ele>427.0</ele><time>2026-04-25T16:12:06.485Z</time></trkpt><trkpt lat="39.2315931" lon="8.6821624"><ele>427.0</ele><time>2026-04-25T16:12:07.483Z</time></trkpt><trkpt lat="39.2316484" lon="8.6822866"><ele>420.8</ele><time>2026-04-25T16:12:08.475Z</time></trkpt><trkpt lat="39.2316919" lon="8.6824041"><ele>414.6</ele><time>2026-04-25T16:12:09.482Z</time></trkpt><trkpt lat="39.2317348" lon="8.6825296"><ele>408.40000000000003</ele><time>2026-04-25T16:12:10.477Z</time></trkpt><trkpt lat="39.2317844" lon="8.6826515"><ele>402.20000000000005</ele><time>2026-04-25T16:12:11.49Z</time></trkpt><trkpt lat="39.2318209" lon="8.6827783"><ele>396.0</ele><time>2026-04-25T16:12:12.478Z</time></trkpt><trkpt lat="39.2318656" lon="8.6828951"><ele>396.0</ele><time>2026-04-25T16:12:13.48Z</time></trkpt><trkpt lat="39.2319072" lon="8.6829982"><ele>396.0</ele><time>2026-04-25T16:12:14.474Z</time></trkpt><trkpt lat="39.2319446" lon="8.6831046"><ele>396.0</ele><time>2026-04-25T16:12:15.487Z</time></trkpt><trkpt lat="39.2319896" lon="8.6832069"><ele>396.0</ele><time>2026-04-25T16:12:16.481Z</time></trkpt><trkpt lat="39.2320326" lon="8.6833079"><ele>396.0</ele><time>2026-04-25T16:12:17.478Z</time></trkpt><trkpt lat="39.2320757" lon="8.6834043"><ele>396.0</ele><time>2026-04-25T16:12:18.493Z</time></trkpt><trkpt lat="39.2321208" lon="8.6834887"><ele>396.0</ele><time>2026-04-25T16:12:19.472Z</time></trkpt><trkpt lat="39.2321625" lon="8.6835741"><ele>396.0</ele><time>2026-04-25T16:12:20.47Z</time></trkpt><trkpt lat="39.2321978" lon="8.6836437"><ele>396.0</ele><time>2026-04-25T16:12:21.482Z</time></trkpt><trkpt lat="39.2322495" lon="8.683691"><ele>396.0</ele><time>2026-04-25T16:12:29.473Z</time></trkpt><trkpt lat="39.2322562" lon="8.6835825"><ele>396.0</ele><time>2026-04-25T16:12:33.487Z</time></trkpt><trkpt lat="39.2322473" lon="8.6834966"><ele>396.0</ele><time>2026-04-25T16:14:26.476Z</time></trkpt><trkpt lat="39.2322692" lon="8.6833924"><ele>396.0</ele><time>2026-04-25T16:14:28.479Z</time></trkpt><trkpt lat="39.2322872" lon="8.6833007"><ele>396.0</ele><time>2026-04-25T16:14:29.478Z</time></trkpt><trkpt lat="39.2323016" lon="8.6832015"><ele>396.0</ele><time>2026-04-25T16:14:30.489Z</time></trkpt><trkpt lat="39.2323169" lon="8.6830922"><ele>396.0</ele><time>2026-04-25T16:14:31.474Z</time></trkpt><trkpt lat="39.2323256" lon="8.6829617"><ele>396.0</ele><time>2026-04-25T16:14:32.47Z</time></trkpt><trkpt lat="39.232325" lon="8.6828173"><ele>396.0</ele><time>2026-04-25T16:14:33.474Z</time></trkpt><trkpt lat="39.2323147" lon="8.6826655"><ele>396.0</ele><time>2026-04-25T16:14:34.479Z</time></trkpt><trkpt lat="39.2322861" lon="8.6825055"><ele>396.0</ele><time>2026-04-25T16:14:35.479Z</time></trkpt><trkpt lat="39.2322512" lon="8.6823491"><ele>396.0</ele><time>2026-04-25T16:14:36.487Z</time></trkpt><trkpt lat="39.232216" lon="8.6821913"><ele>396.0</ele><time>2026-04-25T16:14:37.462Z</time></trkpt><trkpt lat="39.2321857" lon="8.6820434"><ele>394.5</ele><time>2026-04-25T16:14:38.476Z</time></trkpt><trkpt lat="39.232158" lon="8.6818861"><ele>393.0</ele><time>2026-04-25T16:14:39.479Z</time></trkpt><trkpt lat="39.2321347" lon="8.681737"><ele>391.5</ele><time>2026-04-25T16:14:40.485Z</time></trkpt><trkpt lat="39.2321246" lon="8.6815755"><ele>390.0</ele><time>2026-04-25T16:14:41.496Z</time></trkpt><trkpt lat="39.2321247" lon="8.6814275"><ele>390.0</ele><time>2026-04-25T16:14:42.472Z</time></trkpt><trkpt lat="39.2321319" lon="8.6812798"><ele>390.0</ele><time>2026-04-25T16:14:43.477Z</time></trkpt><trkpt lat="39.2321508" lon="8.6811391"><ele>390.0</ele><time>2026-04-25T16:14:44.483Z</time></trkpt><trkpt lat="39.2321686" lon="8.6810019"><ele>390.0</ele><time>2026-04-25T16:14:45.466Z</time></trkpt><trkpt lat="39.2321831" lon="8.6808631"><ele>390.0</ele><time>2026-04-25T16:14:46.484Z</time></trkpt><trkpt lat="39.2321888" lon="8.6807269"><ele>389.5</ele><time>2026-04-25T16:14:47.48Z</time></trkpt><trkpt lat="39.2321879" lon="8.6806071"><ele>389.0</ele><time>2026-04-25T16:14:48.48Z</time></trkpt><trkpt lat="39.2321872" lon="8.6805089"><ele>388.5</ele><time>2026-04-25T16:14:49.474Z</time></trkpt><trkpt lat="39.2321736" lon="8.6804011"><ele>388.0</ele><time>2026-04-25T16:14:51.485Z</time></trkpt><trkpt lat="39.2321771" lon="8.6803193"><ele>387.5</ele><time>2026-04-25T16:14:56.48Z</time></trkpt><trkpt lat="39.2322456" lon="8.6803227"><ele>387.0</ele><time>2026-04-25T16:15:05.473Z</time></trkpt><trkpt lat="39.2323221" lon="8.6803496"><ele>384.7142857142857</ele><time>2026-04-25T16:15:08.472Z</time></trkpt><trkpt lat="39.2323831" lon="8.6803716"><ele>382.42857142857144</ele><time>2026-04-25T16:15:10.475Z</time></trkpt><trkpt lat="39.2324417" lon="8.6804145"><ele>380.1428571428571</ele><time>2026-04-25T16:15:13.46Z</time></trkpt><trkpt lat="39.2325005" lon="8.6804725"><ele>377.8571428571429</ele><time>2026-04-25T16:15:20.464Z</time></trkpt><trkpt lat="39.2325279" lon="8.6805609"><ele>375.57142857142856</ele><time>2026-04-25T16:15:23.454Z</time></trkpt><trkpt lat="39.2325377" lon="8.6806454"><ele>373.2857142857143</ele><time>2026-04-25T16:15:25.47Z</time></trkpt><trkpt lat="39.2325715" lon="8.6807402"><ele>371.0</ele><time>2026-04-25T16:15:27.466Z</time></trkpt><trkpt lat="39.2326162" lon="8.6808515"><ele>371.0</ele><time>2026-04-25T16:15:29.462Z</time></trkpt><trkpt lat="39.2326641" lon="8.6809634"><ele>371.0</ele><time>2026-04-25T16:15:31.467Z</time></trkpt><trkpt lat="39.2327089" lon="8.6810786"><ele>371.0</ele><time>2026-04-25T16:15:33.465Z</time></trkpt><trkpt lat="39.2327461" lon="8.6811861"><ele>371.0</ele><time>2026-04-25T16:15:35.467Z</time></trkpt><trkpt lat="39.232817" lon="8.6813262"><ele>371.0</ele><time>2026-04-25T16:15:37.468Z</time></trkpt><trkpt lat="39.232872" lon="8.6813983"><ele>370.8</ele><time>2026-04-25T16:15:38.467Z</time></trkpt><trkpt lat="39.2329233" lon="8.6814598"><ele>370.6</ele><time>2026-04-25T16:15:39.468Z</time></trkpt><trkpt lat="39.2330031" lon="8.6815581"><ele>370.4</ele><time>2026-04-25T16:15:41.466Z</time></trkpt><trkpt lat="39.2330951" lon="8.6816824"><ele>370.2</ele><time>2026-04-25T16:15:43.466Z</time></trkpt><trkpt lat="39.233143" lon="8.6817441"><ele>370.0</ele><time>2026-04-25T16:15:44.475Z</time></trkpt><trkpt lat="39.2332244" lon="8.6818518"><ele>368.4</ele><time>2026-04-25T16:15:46.472Z</time></trkpt><trkpt lat="39.2333066" lon="8.6819675"><ele>366.8</ele><time>2026-04-25T16:15:48.48Z</time></trkpt><trkpt lat="39.2333446" lon="8.682034"><ele>365.20000000000005</ele><time>2026-04-25T16:15:49.468Z</time></trkpt><trkpt lat="39.2333802" lon="8.6821011"><ele>363.6</ele><time>2026-04-25T16:15:50.47Z</time></trkpt><trkpt lat="39.2334666" lon="8.6822159"><ele>362.0</ele><time>2026-04-25T16:15:52.472Z</time></trkpt><trkpt lat="39.233544" lon="8.6823192"><ele>362.0</ele><time>2026-04-25T16:15:54.467Z</time></trkpt><trkpt lat="39.2335973" lon="8.68243"><ele>362.0</ele><time>2026-04-25T16:15:56.473Z</time></trkpt><trkpt lat="39.2336193" lon="8.682507"><ele>362.0</ele><time>2026-04-25T16:15:57.481Z</time></trkpt><trkpt lat="39.2336542" lon="8.6826619"><ele>362.0</ele><time>2026-04-25T16:15:59.474Z</time></trkpt><trkpt lat="39.233694" lon="8.6827754"><ele>362.0</ele><time>2026-04-25T16:16:01.481Z</time></trkpt><trkpt lat="39.2337715" lon="8.68281"><ele>362.0</ele><time>2026-04-25T16:16:03.473Z</time></trkpt><trkpt lat="39.2338327" lon="8.682783"><ele>362.0</ele><time>2026-04-25T16:16:05.467Z</time></trkpt><trkpt lat="39.2339082" lon="8.6827167"><ele>362.0</ele><time>2026-04-25T16:16:07.469Z</time></trkpt><trkpt lat="39.2339902" lon="8.6826225"><ele>362.0</ele><time>2026-04-25T16:16:09.469Z</time></trkpt><trkpt lat="39.2340399" lon="8.6825249"><ele>362.0</ele><time>2026-04-25T16:16:11.48Z</time></trkpt><trkpt lat="39.234081" lon="8.6823803"><ele>360.40000000000003</ele><time>2026-04-25T16:16:13.471Z</time></trkpt><trkpt lat="39.234133" lon="8.682234"><ele>358.8</ele><time>2026-04-25T16:16:15.476Z</time></trkpt><trkpt lat="39.2342153" lon="8.6822385"><ele>357.2</ele><time>2026-04-25T16:16:21.469Z</time></trkpt><trkpt lat="39.2342867" lon="8.6822563"><ele>355.6</ele><time>2026-04-25T16:16:23.471Z</time></trkpt><trkpt lat="39.2343963" lon="8.6822917"><ele>354.0</ele><time>2026-04-25T16:16:25.468Z</time></trkpt><trkpt lat="39.234466" lon="8.6823181"><ele>354.0</ele><time>2026-04-25T16:16:26.473Z</time></trkpt><trkpt lat="39.2345271" lon="8.6823491"><ele>354.0</ele><time>2026-04-25T16:16:27.468Z</time></trkpt><trkpt lat="39.2345827" lon="8.6823931"><ele>354.0</ele><time>2026-04-25T16:16:28.476Z</time></trkpt><trkpt lat="39.2346409" lon="8.6824372"><ele>354.0</ele><time>2026-04-25T16:16:29.477Z</time></trkpt><trkpt lat="39.2346942" lon="8.6824829"><ele>354.0</ele><time>2026-04-25T16:16:30.477Z</time></trkpt><trkpt lat="39.2347518" lon="8.6825557"><ele>354.0</ele><time>2026-04-25T16:16:31.469Z</time></trkpt><trkpt lat="39.2347963" lon="8.6826228"><ele>354.0</ele><time>2026-04-25T16:16:32.466Z</time></trkpt><trkpt lat="39.2348934" lon="8.682724"><ele>352.0</ele><time>2026-04-25T16:16:34.467Z</time></trkpt><trkpt lat="39.2349951" lon="8.6828192"><ele>350.0</ele><time>2026-04-25T16:16:36.471Z</time></trkpt><trkpt lat="39.2350737" lon="8.6829406"><ele>348.0</ele><time>2026-04-25T16:16:38.473Z</time></trkpt><trkpt lat="39.2351402" lon="8.6830526"><ele>346.0</ele><time>2026-04-25T16:16:40.476Z</time></trkpt><trkpt lat="39.2352073" lon="8.6831622"><ele>346.0</ele><time>2026-04-25T16:16:42.467Z</time></trkpt><trkpt lat="39.2352825" lon="8.6832043"><ele>346.0</ele><time>2026-04-25T16:16:44.471Z</time></trkpt><trkpt lat="39.2353522" lon="8.6832012"><ele>346.0</ele><time>2026-04-25T16:16:46.465Z</time></trkpt><trkpt lat="39.2354228" lon="8.6832328"><ele>346.0</ele><time>2026-04-25T16:16:48.474Z</time></trkpt><trkpt lat="39.2354895" lon="8.683304"><ele>346.0</ele><time>2026-04-25T16:16:50.463Z</time></trkpt><trkpt lat="39.2355958" lon="8.6834031"><ele>346.0</ele><time>2026-04-25T16:16:52.467Z</time></trkpt><trkpt lat="39.2356485" lon="8.6834483"><ele>344.8333333333333</ele><time>2026-04-25T16:16:53.472Z</time></trkpt><trkpt lat="39.2357447" lon="8.6835286"><ele>343.66666666666663</ele><time>2026-04-25T16:16:55.473Z</time></trkpt><trkpt lat="39.2358286" lon="8.6836068"><ele>342.5</ele><time>2026-04-25T16:16:57.468Z</time></trkpt><trkpt lat="39.2358612" lon="8.6836828"><ele>341.3333333333333</ele><time>2026-04-25T16:16:59.473Z</time></trkpt><trkpt lat="39.235831" lon="8.6837769"><ele>340.1666666666667</ele><time>2026-04-25T16:17:02.473Z</time></trkpt><trkpt lat="39.2357956" lon="8.6838731"><ele>339.0</ele><time>2026-04-25T16:17:04.483Z</time></trkpt><trkpt lat="39.2357796" lon="8.683965"><ele>339.0</ele><time>2026-04-25T16:17:06.494Z</time></trkpt><trkpt lat="39.2357771" lon="8.6840601"><ele>339.0</ele><time>2026-04-25T16:17:11.474Z</time></trkpt><trkpt lat="39.2357724" lon="8.684148"><ele>339.0</ele><time>2026-04-25T16:17:14.48Z</time></trkpt><trkpt lat="39.235776" lon="8.6842354"><ele>339.0</ele><time>2026-04-25T16:17:16.47Z</time></trkpt><trkpt lat="39.235783" lon="8.6843619"><ele>339.0</ele><time>2026-04-25T16:17:18.473Z</time></trkpt><trkpt lat="39.2358086" lon="8.6844813"><ele>339.0</ele><time>2026-04-25T16:17:20.471Z</time></trkpt><trkpt lat="39.2358621" lon="8.6846049"><ele>339.0</ele><time>2026-04-25T16:17:22.466Z</time></trkpt><trkpt lat="39.2359257" lon="8.6847316"><ele>339.0</ele><time>2026-04-25T16:17:24.477Z</time></trkpt><trkpt lat="39.2360018" lon="8.6848448"><ele>339.0</ele><time>2026-04-25T16:17:26.467Z</time></trkpt><trkpt lat="39.2361044" lon="8.6849375"><ele>339.0</ele><time>2026-04-25T16:17:28.477Z</time></trkpt><trkpt lat="39.2361715" lon="8.6849884"><ele>339.0</ele><time>2026-04-25T16:17:29.469Z</time></trkpt><trkpt lat="39.2362515" lon="8.6850533"><ele>339.0</ele><time>2026-04-25T16:17:30.464Z</time></trkpt><trkpt lat="39.2363337" lon="8.6851194"><ele>339.0</ele><time>2026-04-25T16:17:31.468Z</time></trkpt><trkpt lat="39.2364129" lon="8.6851893"><ele>339.0</ele><time>2026-04-25T16:17:32.483Z</time></trkpt><trkpt lat="39.2364899" lon="8.6852662"><ele>339.0</ele><time>2026-04-25T16:17:33.472Z</time></trkpt><trkpt lat="39.2365636" lon="8.6853422"><ele>339.0</ele><time>2026-04-25T16:17:34.477Z</time></trkpt><trkpt lat="39.2366289" lon="8.6854179"><ele>337.79999999999995</ele><time>2026-04-25T16:17:35.468Z</time></trkpt><trkpt lat="39.2366865" lon="8.6854865"><ele>336.59999999999997</ele><time>2026-04-25T16:17:36.466Z</time></trkpt><trkpt lat="39.2367232" lon="8.6855635"><ele>335.4</ele><time>2026-04-25T16:17:37.467Z</time></trkpt><trkpt lat="39.2367456" lon="8.6856529"><ele>334.2</ele><time>2026-04-25T16:17:38.483Z</time></trkpt><trkpt lat="39.2368153" lon="8.6857622"><ele>333.0</ele><time>2026-04-25T16:17:40.475Z</time></trkpt><trkpt lat="39.2369439" lon="8.6858089"><ele>333.0</ele><time>2026-04-25T16:17:42.465Z</time></trkpt><trkpt lat="39.2370326" lon="8.6858338"><ele>333.0</ele><time>2026-04-25T16:17:43.475Z</time></trkpt><trkpt lat="39.2371216" lon="8.685871"><ele>333.0</ele><time>2026-04-25T16:17:44.47Z</time></trkpt><trkpt lat="39.2372003" lon="8.685906"><ele>333.0</ele><time>2026-04-25T16:17:45.476Z</time></trkpt><trkpt lat="39.2372809" lon="8.6859417"><ele>333.0</ele><time>2026-04-25T16:17:46.491Z</time></trkpt><trkpt lat="39.2373524" lon="8.6859788"><ele>333.0</ele><time>2026-04-25T16:17:47.469Z</time></trkpt><trkpt lat="39.2374164" lon="8.6860397"><ele>336.0</ele><time>2026-04-25T16:17:48.472Z</time></trkpt><trkpt lat="39.237474" lon="8.6861025"><ele>339.0</ele><time>2026-04-25T16:17:49.473Z</time></trkpt><trkpt lat="39.2375318" lon="8.6861753"><ele>342.0</ele><time>2026-04-25T16:17:50.468Z</time></trkpt><trkpt lat="39.2375942" lon="8.6862517"><ele>345.0</ele><time>2026-04-25T16:17:51.474Z</time></trkpt><trkpt lat="39.2376641" lon="8.6863293"><ele>348.0</ele><time>2026-04-25T16:17:52.481Z</time></trkpt><trkpt lat="39.2377473" lon="8.6863951"><ele>351.0</ele><time>2026-04-25T16:17:53.471Z</time></trkpt><trkpt lat="39.2378222" lon="8.6864486"><ele>351.0</ele><time>2026-04-25T16:17:54.468Z</time></trkpt><trkpt lat="39.2378908" lon="8.686498"><ele>351.0</ele><time>2026-04-25T16:17:55.485Z</time></trkpt><trkpt lat="39.2379643" lon="8.6865481"><ele>351.0</ele><time>2026-04-25T16:17:56.472Z</time></trkpt><trkpt lat="39.2380199" lon="8.6866157"><ele>351.0</ele><time>2026-04-25T16:17:57.468Z</time></trkpt><trkpt lat="39.2380558" lon="8.6867106"><ele>351.0</ele><time>2026-04-25T16:17:58.483Z</time></trkpt><trkpt lat="39.2380958" lon="8.6868168"><ele>351.0</ele><time>2026-04-25T16:17:59.473Z</time></trkpt><trkpt lat="39.2381383" lon="8.6869062"><ele>354.3333333333333</ele><time>2026-04-25T16:18:00.47Z</time></trkpt><trkpt lat="39.2381878" lon="8.6869875"><ele>357.6666666666667</ele><time>2026-04-25T16:18:01.477Z</time></trkpt><trkpt lat="39.2382428" lon="8.6870678"><ele>361.0</ele><time>2026-04-25T16:18:02.485Z</time></trkpt><trkpt lat="39.238302" lon="8.6871348"><ele>364.33333333333337</ele><time>2026-04-25T16:18:03.482Z</time></trkpt><trkpt lat="39.2383681" lon="8.6871981"><ele>367.6666666666667</ele><time>2026-04-25T16:18:04.472Z</time></trkpt><trkpt lat="39.2384327" lon="8.6872579"><ele>371.0</ele><time>2026-04-25T16:18:05.467Z</time></trkpt><trkpt lat="39.2384932" lon="8.6873085"><ele>371.0</ele><time>2026-04-25T16:18:06.475Z</time></trkpt><trkpt lat="39.2385432" lon="8.6873631"><ele>371.0</ele><time>2026-04-25T16:18:07.473Z</time></trkpt><trkpt lat="39.2385618" lon="8.6874563"><ele>371.0</ele><time>2026-04-25T16:18:10.471Z</time></trkpt><trkpt lat="39.2385049" lon="8.6875443"><ele>371.0</ele><time>2026-04-25T16:20:30.473Z</time></trkpt><trkpt lat="39.2384536" lon="8.6875934"><ele>371.0</ele><time>2026-04-25T16:20:31.469Z</time></trkpt><trkpt lat="39.2383878" lon="8.6876497"><ele>371.0</ele><time>2026-04-25T16:20:32.471Z</time></trkpt><trkpt lat="39.2383185" lon="8.6877011"><ele>371.0</ele><time>2026-04-25T16:20:33.474Z</time></trkpt><trkpt lat="39.2382568" lon="8.6877477"><ele>371.0</ele><time>2026-04-25T16:20:34.485Z</time></trkpt><trkpt lat="39.2381998" lon="8.6877991"><ele>371.0</ele><time>2026-04-25T16:20:35.477Z</time></trkpt><trkpt lat="39.2381446" lon="8.6878453"><ele>371.0</ele><time>2026-04-25T16:20:36.466Z</time></trkpt><trkpt lat="39.2380927" lon="8.6878944"><ele>371.0</ele><time>2026-04-25T16:20:37.478Z</time></trkpt><trkpt lat="39.2380402" lon="8.6879461"><ele>371.0</ele><time>2026-04-25T16:20:38.474Z</time></trkpt><trkpt lat="39.2380024" lon="8.6880667"><ele>371.0</ele><time>2026-04-25T16:20:40.467Z</time></trkpt><trkpt lat="39.2380134" lon="8.688199"><ele>375.4</ele><time>2026-04-25T16:20:42.48Z</time></trkpt><trkpt lat="39.2379723" lon="8.6883032"><ele>379.8</ele><time>2026-04-25T16:20:44.469Z</time></trkpt><trkpt lat="39.237866" lon="8.6883611"><ele>384.2</ele><time>2026-04-25T16:20:46.484Z</time></trkpt><trkpt lat="39.237803" lon="8.6883887"><ele>388.59999999999997</ele><time>2026-04-25T16:20:47.478Z</time></trkpt><trkpt lat="39.2376837" lon="8.688431"><ele>393.0</ele><time>2026-04-25T16:20:49.476Z</time></trkpt><trkpt lat="39.2376214" lon="8.6884486"><ele>393.0</ele><time>2026-04-25T16:20:50.469Z</time></trkpt><trkpt lat="39.2375499" lon="8.688464"><ele>393.0</ele><time>2026-04-25T16:20:51.471Z</time></trkpt><trkpt lat="39.2374332" lon="8.6884971"><ele>393.0</ele><time>2026-04-25T16:20:53.481Z</time></trkpt><trkpt lat="39.2373182" lon="8.688538"><ele>393.0</ele><time>2026-04-25T16:20:55.484Z</time></trkpt><trkpt lat="39.2372556" lon="8.6885569"><ele>393.0</ele><time>2026-04-25T16:20:56.474Z</time></trkpt><trkpt lat="39.2371834" lon="8.6886353"><ele>392.1666666666667</ele><time>2026-04-25T16:20:58.48Z</time></trkpt><trkpt lat="39.2371558" lon="8.6887694"><ele>391.33333333333337</ele><time>2026-04-25T16:21:00.468Z</time></trkpt><trkpt lat="39.2371455" lon="8.6888533"><ele>390.5</ele><time>2026-04-25T16:21:01.47Z</time></trkpt><trkpt lat="39.2371238" lon="8.6890128"><ele>389.6666666666667</ele><time>2026-04-25T16:21:03.473Z</time></trkpt><trkpt lat="39.2371131" lon="8.6890966"><ele>388.83333333333337</ele><time>2026-04-25T16:21:04.472Z</time></trkpt><trkpt lat="39.2371149" lon="8.6891789"><ele>388.0</ele><time>2026-04-25T16:21:05.473Z</time></trkpt><trkpt lat="39.2371632" lon="8.6893258"><ele>388.50000000000006</ele><time>2026-04-25T16:21:07.473Z</time></trkpt><trkpt lat="39.2372249" lon="8.6894424"><ele>389.0</ele><time>2026-04-25T16:21:09.469Z</time></trkpt><trkpt lat="39.237302" lon="8.6895489"><ele>389.5</ele><time>2026-04-25T16:21:11.477Z</time></trkpt><trkpt lat="39.2373392" lon="8.6896197"><ele>390.0</ele><time>2026-04-25T16:21:12.478Z</time></trkpt><trkpt lat="39.2373739" lon="8.6896979"><ele>390.50000000000006</ele><time>2026-04-25T16:21:13.478Z</time></trkpt><trkpt lat="39.2373994" lon="8.6897799"><ele>391.0</ele><time>2026-04-25T16:21:14.492Z</time></trkpt><trkpt lat="39.2374169" lon="8.6898602"><ele>394.0</ele><time>2026-04-25T16:21:15.472Z</time></trkpt><trkpt lat="39.2374583" lon="8.689998"><ele>397.0</ele><time>2026-04-25T16:21:17.471Z</time></trkpt><trkpt lat="39.2375264" lon="8.6901207"><ele>400.0</ele><time>2026-04-25T16:21:19.467Z</time></trkpt><trkpt lat="39.2376273" lon="8.6901525"><ele>403.0</ele><time>2026-04-25T16:21:21.468Z</time></trkpt><trkpt lat="39.237731" lon="8.6902061"><ele>406.0</ele><time>2026-04-25T16:21:23.48Z</time></trkpt><trkpt lat="39.237832" lon="8.6903051"><ele>406.00000000000006</ele><time>2026-04-25T16:21:25.474Z</time></trkpt><trkpt lat="39.2378901" lon="8.690373"><ele>406.0</ele><time>2026-04-25T16:21:26.495Z</time></trkpt><trkpt lat="39.2379396" lon="8.6904378"><ele>406.0</ele><time>2026-04-25T16:21:27.473Z</time></trkpt><trkpt lat="39.2379997" lon="8.6905633"><ele>406.0</ele><time>2026-04-25T16:21:29.466Z</time></trkpt><trkpt lat="39.2380217" lon="8.6906451"><ele>406.00000000000006</ele><time>2026-04-25T16:21:30.473Z</time></trkpt><trkpt lat="39.2380468" lon="8.6907258"><ele>406.0</ele><time>2026-04-25T16:21:31.481Z</time></trkpt><trkpt lat="39.2380848" lon="8.6908014"><ele>406.0</ele><time>2026-04-25T16:21:32.469Z</time></trkpt><trkpt lat="39.2381291" lon="8.6908741"><ele>406.0</ele><time>2026-04-25T16:21:33.478Z</time></trkpt><trkpt lat="39.2381847" lon="8.6909385"><ele>406.0</ele><time>2026-04-25T16:21:34.473Z</time></trkpt><trkpt lat="39.2382496" lon="8.6909985"><ele>406.0</ele><time>2026-04-25T16:21:35.48Z</time></trkpt><trkpt lat="39.2383083" lon="8.6910485"><ele>406.0</ele><time>2026-04-25T16:21:36.489Z</time></trkpt><trkpt lat="39.2383571" lon="8.691124"><ele>406.0</ele><time>2026-04-25T16:21:37.472Z</time></trkpt><trkpt lat="39.2383922" lon="8.6911917"><ele>406.0</ele><time>2026-04-25T16:21:38.478Z</time></trkpt><trkpt lat="39.2384355" lon="8.6913236"><ele>407.4</ele><time>2026-04-25T16:21:40.479Z</time></trkpt><trkpt lat="39.2384537" lon="8.6914067"><ele>408.8</ele><time>2026-04-25T16:21:41.481Z</time></trkpt><trkpt lat="39.2384845" lon="8.6915483"><ele>410.2</ele><time>2026-04-25T16:21:43.484Z</time></trkpt><trkpt lat="39.2385431" lon="8.6916737"><ele>411.59999999999997</ele><time>2026-04-25T16:21:45.477Z</time></trkpt><trkpt lat="39.2385844" lon="8.691751"><ele>413.0</ele><time>2026-04-25T16:21:46.48Z</time></trkpt><trkpt lat="39.2386468" lon="8.6918902"><ele>410.59999999999997</ele><time>2026-04-25T16:21:48.47Z</time></trkpt><trkpt lat="39.2386557" lon="8.6920491"><ele>408.2</ele><time>2026-04-25T16:21:50.467Z</time></trkpt><trkpt lat="39.2386582" lon="8.6921857"><ele>405.8</ele><time>2026-04-25T16:21:52.473Z</time></trkpt><trkpt lat="39.2387007" lon="8.6922826"><ele>403.4</ele><time>2026-04-25T16:21:54.473Z</time></trkpt><trkpt lat="39.238748" lon="8.6923524"><ele>401.0</ele><time>2026-04-25T16:21:55.474Z</time></trkpt><trkpt lat="39.2387895" lon="8.6924158"><ele>401.0</ele><time>2026-04-25T16:21:56.468Z</time></trkpt><trkpt lat="39.2388446" lon="8.6925503"><ele>401.0</ele><time>2026-04-25T16:21:58.476Z</time></trkpt><trkpt lat="39.2389026" lon="8.6926681"><ele>401.0</ele><time>2026-04-25T16:22:00.477Z</time></trkpt><trkpt lat="39.2389529" lon="8.6927938"><ele>401.0</ele><time>2026-04-25T16:22:02.475Z</time></trkpt><trkpt lat="39.238951" lon="8.6929377"><ele>401.0</ele><time>2026-04-25T16:22:04.472Z</time></trkpt><trkpt lat="39.2389473" lon="8.6930195"><ele>398.0</ele><time>2026-04-25T16:22:05.468Z</time></trkpt><trkpt lat="39.2389328" lon="8.6931858"><ele>395.0</ele><time>2026-04-25T16:22:07.472Z</time></trkpt><trkpt lat="39.2389324" lon="8.6932702"><ele>392.0</ele><time>2026-04-25T16:22:08.48Z</time></trkpt><trkpt lat="39.2389519" lon="8.6934158"><ele>389.0</ele><time>2026-04-25T16:22:10.477Z</time></trkpt><trkpt lat="39.2389512" lon="8.6935599"><ele>386.0</ele><time>2026-04-25T16:22:12.473Z</time></trkpt><trkpt lat="39.2389533" lon="8.6937033"><ele>386.00000000000006</ele><time>2026-04-25T16:22:14.469Z</time></trkpt><trkpt lat="39.2389198" lon="8.693776"><ele>386.0</ele><time>2026-04-25T16:22:17.468Z</time></trkpt><trkpt lat="39.2388674" lon="8.6938493"><ele>386.0</ele><time>2026-04-25T16:22:22.468Z</time></trkpt><trkpt lat="39.2388237" lon="8.6939096"><ele>386.0</ele><time>2026-04-25T16:22:28.461Z</time></trkpt><trkpt lat="39.2387496" lon="8.6939059"><ele>386.0</ele><time>2026-04-25T16:22:33.464Z</time></trkpt><trkpt lat="39.2387033" lon="8.6938194"><ele>386.00000000000006</ele><time>2026-04-25T16:22:38.475Z</time></trkpt><trkpt lat="39.2386677" lon="8.6937189"><ele>386.0</ele><time>2026-04-25T16:22:40.473Z</time></trkpt><trkpt lat="39.2386092" lon="8.6935703"><ele>385.99999999999994</ele><time>2026-04-25T16:22:42.473Z</time></trkpt><trkpt lat="39.2385713" lon="8.6934926"><ele>386.0</ele><time>2026-04-25T16:22:43.477Z</time></trkpt><trkpt lat="39.2384746" lon="8.6934139"><ele>386.0</ele><time>2026-04-25T16:22:45.473Z</time></trkpt><trkpt lat="39.2383869" lon="8.6933733"><ele>386.0</ele><time>2026-04-25T16:22:47.464Z</time></trkpt><trkpt lat="39.2383336" lon="8.6934693"><ele>385.99999999999994</ele><time>2026-04-25T16:22:50.481Z</time></trkpt><trkpt lat="39.2382976" lon="8.6935418"><ele>386.0</ele><time>2026-04-25T16:24:00.485Z</time></trkpt><trkpt lat="39.2383016" lon="8.6936517"><ele>383.20000000000005</ele><time>2026-04-25T16:24:23.48Z</time></trkpt><trkpt lat="39.2382906" lon="8.6937382"><ele>380.40000000000003</ele><time>2026-04-25T16:24:25.468Z</time></trkpt><trkpt lat="39.2382726" lon="8.6938525"><ele>377.6</ele><time>2026-04-25T16:24:27.474Z</time></trkpt><trkpt lat="39.2382611" lon="8.6939793"><ele>374.8</ele><time>2026-04-25T16:24:29.475Z</time></trkpt><trkpt lat="39.238233" lon="8.6940955"><ele>372.0</ele><time>2026-04-25T16:24:31.474Z</time></trkpt><trkpt lat="39.2382085" lon="8.6942221"><ele>372.0</ele><time>2026-04-25T16:24:33.473Z</time></trkpt><trkpt lat="39.2382038" lon="8.6943184"><ele>372.0</ele><time>2026-04-25T16:24:35.472Z</time></trkpt><trkpt lat="39.2381794" lon="8.6944018"><ele>372.0</ele><time>2026-04-25T16:24:37.472Z</time></trkpt><trkpt lat="39.2381437" lon="8.6944796"><ele>372.0</ele><time>2026-04-25T16:24:39.461Z</time></trkpt><trkpt lat="39.2381159" lon="8.6945745"><ele>372.0</ele><time>2026-04-25T16:24:41.479Z</time></trkpt><trkpt lat="39.2380654" lon="8.6946872"><ele>372.0</ele><time>2026-04-25T16:24:43.467Z</time></trkpt><trkpt lat="39.237989" lon="8.6947634"><ele>366.5</ele><time>2026-04-25T16:24:45.473Z</time></trkpt><trkpt lat="39.2379179" lon="8.6948392"><ele>361.0</ele><time>2026-04-25T16:24:47.468Z</time></trkpt><trkpt lat="39.2378646" lon="8.6949384"><ele>355.5</ele><time>2026-04-25T16:24:49.468Z</time></trkpt><trkpt lat="39.2378131" lon="8.6949936"><ele>350.0</ele><time>2026-04-25T16:24:51.473Z</time></trkpt><trkpt lat="39.2377628" lon="8.6950558"><ele>344.5</ele><time>2026-04-25T16:24:53.471Z</time></trkpt><trkpt lat="39.2377357" lon="8.6951582"><ele>339.0</ele><time>2026-04-25T16:24:55.465Z</time></trkpt><trkpt lat="39.2377369" lon="8.6952436"><ele>338.79999999999995</ele><time>2026-04-25T16:24:57.474Z</time></trkpt><trkpt lat="39.2377091" lon="8.6953851"><ele>338.59999999999997</ele><time>2026-04-25T16:24:59.477Z</time></trkpt><trkpt lat="39.2376718" lon="8.6955177"><ele>338.4</ele><time>2026-04-25T16:25:01.475Z</time></trkpt><trkpt lat="39.2376497" lon="8.6956508"><ele>338.2</ele><time>2026-04-25T16:25:03.463Z</time></trkpt><trkpt lat="39.2376837" lon="8.6957508"><ele>338.0</ele><time>2026-04-25T16:25:05.4Z</time></trkpt><trkpt lat="39.2377301" lon="8.6958561"><ele>338.0</ele><time>2026-04-25T16:25:07.467Z</time></trkpt><trkpt lat="39.2377571" lon="8.695958"><ele>338.0</ele><time>2026-04-25T16:25:09.459Z</time></trkpt><trkpt lat="39.2377748" lon="8.6960681"><ele>338.0</ele><time>2026-04-25T16:25:11.468Z</time></trkpt><trkpt lat="39.2377753" lon="8.6962452"><ele>338.0</ele><time>2026-04-25T16:25:13.461Z</time></trkpt><trkpt lat="39.2377709" lon="8.6964085"><ele>338.0</ele><time>2026-04-25T16:25:15.462Z</time></trkpt><trkpt lat="39.2377697" lon="8.6965314"><ele>338.33333333333337</ele><time>2026-04-25T16:25:16.477Z</time></trkpt><trkpt lat="39.237773" lon="8.6966364"><ele>338.6666666666667</ele><time>2026-04-25T16:25:17.465Z</time></trkpt><trkpt lat="39.2377764" lon="8.6967833"><ele>339.0</ele><time>2026-04-25T16:25:19.459Z</time></trkpt><trkpt lat="39.2377672" lon="8.6969128"><ele>339.3333333333333</ele><time>2026-04-25T16:25:20.46Z</time></trkpt><trkpt lat="39.2377599" lon="8.6970007"><ele>339.66666666666663</ele><time>2026-04-25T16:25:21.473Z</time></trkpt><trkpt lat="39.237732" lon="8.6970936"><ele>340.0</ele><time>2026-04-25T16:25:22.475Z</time></trkpt><trkpt lat="39.2376997" lon="8.6971815"><ele>339.0</ele><time>2026-04-25T16:25:23.479Z</time></trkpt><trkpt lat="39.2376603" lon="8.6972651"><ele>338.0</ele><time>2026-04-25T16:25:24.47Z</time></trkpt><trkpt lat="39.2376359" lon="8.697347"><ele>337.0</ele><time>2026-04-25T16:25:25.466Z</time></trkpt><trkpt lat="39.2376089" lon="8.6974216"><ele>336.0</ele><time>2026-04-25T16:25:26.467Z</time></trkpt><trkpt lat="39.2375775" lon="8.697498"><ele>335.0</ele><time>2026-04-25T16:25:27.469Z</time></trkpt><trkpt lat="39.2375266" lon="8.6976357"><ele>334.0</ele><time>2026-04-25T16:25:29.474Z</time></trkpt><trkpt lat="39.2375319" lon="8.697755"><ele>332.2</ele><time>2026-04-25T16:25:31.467Z</time></trkpt><trkpt lat="39.2376141" lon="8.6978403"><ele>330.4</ele><time>2026-04-25T16:25:34.478Z</time></trkpt><trkpt lat="39.2377032" lon="8.6978801"><ele>328.6</ele><time>2026-04-25T16:25:36.474Z</time></trkpt><trkpt lat="39.2377977" lon="8.6979203"><ele>326.8</ele><time>2026-04-25T16:25:38.465Z</time></trkpt><trkpt lat="39.2378809" lon="8.6979894"><ele>325.0</ele><time>2026-04-25T16:25:40.469Z</time></trkpt><trkpt lat="39.23793" lon="8.6981457"><ele>325.0</ele><time>2026-04-25T16:25:42.468Z</time></trkpt><trkpt lat="39.2379359" lon="8.6982283"><ele>325.0</ele><time>2026-04-25T16:25:43.466Z</time></trkpt><trkpt lat="39.2379401" lon="8.698311"><ele>325.0</ele><time>2026-04-25T16:25:44.481Z</time></trkpt><trkpt lat="39.2379279" lon="8.6983918"><ele>325.0</ele><time>2026-04-25T16:25:45.469Z</time></trkpt><trkpt lat="39.2378777" lon="8.6985257"><ele>325.0</ele><time>2026-04-25T16:25:47.465Z</time></trkpt><trkpt lat="39.2378117" lon="8.6986561"><ele>325.0</ele><time>2026-04-25T16:25:49.474Z</time></trkpt><trkpt lat="39.2377738" lon="8.6987214"><ele>323.6</ele><time>2026-04-25T16:25:50.466Z</time></trkpt><trkpt lat="39.2376997" lon="8.6988374"><ele>322.2</ele><time>2026-04-25T16:25:52.476Z</time></trkpt><trkpt lat="39.2376425" lon="8.6989115"><ele>320.8</ele><time>2026-04-25T16:25:54.473Z</time></trkpt><trkpt lat="39.2376041" lon="8.6990326"><ele>319.4</ele><time>2026-04-25T16:25:56.472Z</time></trkpt><trkpt lat="39.2375623" lon="8.6991666"><ele>318.0</ele><time>2026-04-25T16:25:58.473Z</time></trkpt><trkpt lat="39.2375295" lon="8.6992363"><ele>318.0</ele><time>2026-04-25T16:25:59.479Z</time></trkpt><trkpt lat="39.237488" lon="8.6993153"><ele>318.0</ele><time>2026-04-25T16:26:00.471Z</time></trkpt><trkpt lat="39.2374488" lon="8.6994052"><ele>318.0</ele><time>2026-04-25T16:26:01.469Z</time></trkpt><trkpt lat="39.2374033" lon="8.699494"><ele>318.0</ele><time>2026-04-25T16:26:02.467Z</time></trkpt><trkpt lat="39.2373694" lon="8.6995685"><ele>318.0</ele><time>2026-04-25T16:26:03.485Z</time></trkpt><trkpt lat="39.2373433" lon="8.6996532"><ele>318.0</ele><time>2026-04-25T16:26:04.46Z</time></trkpt><trkpt lat="39.2372969" lon="8.6997725"><ele>319.1666666666667</ele><time>2026-04-25T16:26:06.472Z</time></trkpt><trkpt lat="39.2372485" lon="8.6998693"><ele>320.3333333333333</ele><time>2026-04-25T16:26:07.473Z</time></trkpt><trkpt lat="39.2371904" lon="8.6999624"><ele>321.5</ele><time>2026-04-25T16:26:09.472Z</time></trkpt><trkpt lat="39.2371446" lon="8.7000217"><ele>322.66666666666663</ele><time>2026-04-25T16:26:11.462Z</time></trkpt><trkpt lat="39.2371011" lon="8.7001016"><ele>323.8333333333333</ele><time>2026-04-25T16:26:13.476Z</time></trkpt><trkpt lat="39.2370489" lon="8.7002159"><ele>325.0</ele><time>2026-04-25T16:26:15.48Z</time></trkpt><trkpt lat="39.2370027" lon="8.7003054"><ele>322.3333333333333</ele><time>2026-04-25T16:26:16.467Z</time></trkpt><trkpt lat="39.2369598" lon="8.70038"><ele>319.66666666666663</ele><time>2026-04-25T16:26:17.485Z</time></trkpt><trkpt lat="39.2369213" lon="8.7004639"><ele>317.0</ele><time>2026-04-25T16:26:18.485Z</time></trkpt><trkpt lat="39.236868" lon="8.7005483"><ele>314.3333333333333</ele><time>2026-04-25T16:26:19.478Z</time></trkpt><trkpt lat="39.2367983" lon="8.7006229"><ele>311.6666666666667</ele><time>2026-04-25T16:26:20.483Z</time></trkpt><trkpt lat="39.2367274" lon="8.700678"><ele>309.0</ele><time>2026-04-25T16:26:21.476Z</time></trkpt><trkpt lat="39.2366644" lon="8.7007162"><ele>309.0</ele><time>2026-04-25T16:26:22.47Z</time></trkpt><trkpt lat="39.2365552" lon="8.7007974"><ele>309.0</ele><time>2026-04-25T16:26:24.479Z</time></trkpt><trkpt lat="39.2364981" lon="8.700836"><ele>309.0</ele><time>2026-04-25T16:26:25.471Z</time></trkpt><trkpt lat="39.2363585" lon="8.7008677"><ele>309.0</ele><time>2026-04-25T16:26:27.474Z</time></trkpt><trkpt lat="39.2362821" lon="8.7008636"><ele>309.0</ele><time>2026-04-25T16:26:28.474Z</time></trkpt><trkpt lat="39.2362134" lon="8.7008664"><ele>308.0</ele><time>2026-04-25T16:26:29.475Z</time></trkpt><trkpt lat="39.2361095" lon="8.7008983"><ele>307.0</ele><time>2026-04-25T16:26:31.47Z</time></trkpt><trkpt lat="39.2360469" lon="8.7009161"><ele>306.0</ele><time>2026-04-25T16:26:32.484Z</time></trkpt><trkpt lat="39.2359832" lon="8.7009392"><ele>305.0</ele><time>2026-04-25T16:26:33.462Z</time></trkpt><trkpt lat="39.2359198" lon="8.7009667"><ele>304.0</ele><time>2026-04-25T16:26:34.474Z</time></trkpt><trkpt lat="39.2358236" lon="8.7009933"><ele>303.0</ele><time>2026-04-25T16:26:36.471Z</time></trkpt><trkpt lat="39.2358037" lon="8.7010708"><ele>299.8333333333333</ele><time>2026-04-25T16:26:39.464Z</time></trkpt><trkpt lat="39.2358518" lon="8.7011399"><ele>296.6666666666667</ele><time>2026-04-25T16:26:41.466Z</time></trkpt><trkpt lat="39.2359289" lon="8.7012109"><ele>293.5</ele><time>2026-04-25T16:26:44.472Z</time></trkpt><trkpt lat="39.2359889" lon="8.7012481"><ele>290.33333333333337</ele><time>2026-04-25T16:26:46.471Z</time></trkpt><trkpt lat="39.2360619" lon="8.7013027"><ele>287.1666666666667</ele><time>2026-04-25T16:26:49.471Z</time></trkpt><trkpt lat="39.2361299" lon="8.7013235"><ele>284.0</ele><time>2026-04-25T16:26:52.465Z</time></trkpt><trkpt lat="39.2361974" lon="8.70131"><ele>284.0</ele><time>2026-04-25T16:26:55.469Z</time></trkpt><trkpt lat="39.2362726" lon="8.7013367"><ele>284.0</ele><time>2026-04-25T16:26:58.471Z</time></trkpt><trkpt lat="39.2363538" lon="8.7013953"><ele>284.0</ele><time>2026-04-25T16:27:01.472Z</time></trkpt><trkpt lat="39.2364446" lon="8.7014277"><ele>284.0</ele><time>2026-04-25T16:27:04.468Z</time></trkpt><trkpt lat="39.2365095" lon="8.7014965"><ele>284.0</ele><time>2026-04-25T16:27:07.475Z</time></trkpt><trkpt lat="39.2364825" lon="8.7015975"><ele>284.0</ele><time>2026-04-25T16:27:11.465Z</time></trkpt><trkpt lat="39.2364395" lon="8.7016603"><ele>284.0</ele><time>2026-04-25T16:27:14.441Z</time></trkpt><trkpt lat="39.2363953" lon="8.7017357"><ele>284.0</ele><time>2026-04-25T16:27:16.47Z</time></trkpt><trkpt lat="39.2363448" lon="8.7018093"><ele>284.0</ele><time>2026-04-25T16:27:18.442Z</time></trkpt><trkpt lat="39.2362892" lon="8.7018805"><ele>284.0</ele><time>2026-04-25T16:27:20.402Z</time></trkpt><trkpt lat="39.2362524" lon="8.7019576"><ele>284.0</ele><time>2026-04-25T16:27:22.475Z</time></trkpt><trkpt lat="39.2362172" lon="8.7020312"><ele>284.0</ele><time>2026-04-25T16:27:25.471Z</time></trkpt><trkpt lat="39.2361483" lon="8.7020984"><ele>281.83333333333337</ele><time>2026-04-25T16:27:29.473Z</time></trkpt><trkpt lat="39.2360888" lon="8.7021699"><ele>279.6666666666667</ele><time>2026-04-25T16:27:33.47Z</time></trkpt><trkpt lat="39.2360481" lon="8.7022549"><ele>277.5</ele><time>2026-04-25T16:27:36.469Z</time></trkpt><trkpt lat="39.2360128" lon="8.7023258"><ele>275.3333333333333</ele><time>2026-04-25T16:27:41.459Z</time></trkpt><trkpt lat="39.2359425" lon="8.702368"><ele>273.16666666666663</ele><time>2026-04-25T16:30:17.465Z</time></trkpt><trkpt lat="39.2358654" lon="8.7023851"><ele>271.0</ele><time>2026-04-25T16:30:20.46Z</time></trkpt><trkpt lat="39.2357928" lon="8.7023887"><ele>271.0</ele><time>2026-04-25T16:30:23.464Z</time></trkpt><trkpt lat="39.2357276" lon="8.7023847"><ele>271.0</ele><time>2026-04-25T16:30:27.469Z</time></trkpt><trkpt lat="39.2356583" lon="8.702364"><ele>271.0</ele><time>2026-04-25T16:30:53.467Z</time></trkpt><trkpt lat="39.2355394" lon="8.7023431"><ele>271.0</ele><time>2026-04-25T16:30:55.479Z</time></trkpt><trkpt lat="39.2354727" lon="8.7023151"><ele>271.0</ele><time>2026-04-25T16:30:56.471Z</time></trkpt><trkpt lat="39.2353913" lon="8.7022685"><ele>271.0</ele><time>2026-04-25T16:30:57.47Z</time></trkpt><trkpt lat="39.2353066" lon="8.7022114"><ele>271.66666666666663</ele><time>2026-04-25T16:30:58.478Z</time></trkpt><trkpt lat="39.2352285" lon="8.7021416"><ele>272.3333333333333</ele><time>2026-04-25T16:30:59.468Z</time></trkpt><trkpt lat="39.2351541" lon="8.7020686"><ele>273.0</ele><time>2026-04-25T16:31:00.469Z</time></trkpt><trkpt lat="39.2350856" lon="8.7019819"><ele>273.6666666666667</ele><time>2026-04-25T16:31:01.47Z</time></trkpt><trkpt lat="39.2350301" lon="8.7019008"><ele>274.33333333333337</ele><time>2026-04-25T16:31:02.473Z</time></trkpt><trkpt lat="39.2349984" lon="8.7018066"><ele>275.0</ele><time>2026-04-25T16:31:03.467Z</time></trkpt><trkpt lat="39.2349904" lon="8.7017018"><ele>275.0</ele><time>2026-04-25T16:31:04.467Z</time></trkpt><trkpt lat="39.2349915" lon="8.7016007"><ele>275.0</ele><time>2026-04-25T16:31:05.476Z</time></trkpt><trkpt lat="39.235009" lon="8.7015129"><ele>275.0</ele><time>2026-04-25T16:31:06.467Z</time></trkpt><trkpt lat="39.2350293" lon="8.70143"><ele>275.0</ele><time>2026-04-25T16:31:07.472Z</time></trkpt><trkpt lat="39.2350617" lon="8.7013539"><ele>275.0</ele><time>2026-04-25T16:31:08.462Z</time></trkpt><trkpt lat="39.2351052" lon="8.7012717"><ele>275.0</ele><time>2026-04-25T16:31:09.472Z</time></trkpt><trkpt lat="39.2351389" lon="8.7011829"><ele>275.0</ele><time>2026-04-25T16:31:10.46Z</time></trkpt><trkpt lat="39.2351648" lon="8.7011035"><ele>275.5</ele><time>2026-04-25T16:31:11.478Z</time></trkpt><trkpt lat="39.2351813" lon="8.701016"><ele>276.0</ele><time>2026-04-25T16:31:12.467Z</time></trkpt><trkpt lat="39.2351881" lon="8.7009218"><ele>276.5</ele><time>2026-04-25T16:31:13.468Z</time></trkpt><trkpt lat="39.2351877" lon="8.7008156"><ele>277.0</ele><time>2026-04-25T16:31:14.46Z</time></trkpt><trkpt lat="39.2351695" lon="8.7007089"><ele>277.5</ele><time>2026-04-25T16:31:15.472Z</time></trkpt><trkpt lat="39.2351488" lon="8.700599"><ele>278.0</ele><time>2026-04-25T16:31:16.472Z</time></trkpt><trkpt lat="39.2351197" lon="8.7004851"><ele>278.0</ele><time>2026-04-25T16:31:17.478Z</time></trkpt><trkpt lat="39.235087" lon="8.700365"><ele>278.0</ele><time>2026-04-25T16:31:18.479Z</time></trkpt><trkpt lat="39.2350527" lon="8.7002489"><ele>278.0</ele><time>2026-04-25T16:31:19.469Z</time></trkpt><trkpt lat="39.2350217" lon="8.7001374"><ele>278.0</ele><time>2026-04-25T16:31:20.469Z</time></trkpt><trkpt lat="39.2349863" lon="8.7000198"><ele>278.0</ele><time>2026-04-25T16:31:21.478Z</time></trkpt><trkpt lat="39.2349566" lon="8.6999031"><ele>278.85714285714283</ele><time>2026-04-25T16:31:22.472Z</time></trkpt><trkpt lat="39.2349333" lon="8.6997802"><ele>279.7142857142857</ele><time>2026-04-25T16:31:23.473Z</time></trkpt><trkpt lat="39.2349128" lon="8.6996941"><ele>280.57142857142856</ele><time>2026-04-25T16:31:24.476Z</time></trkpt><trkpt lat="39.234884" lon="8.6996127"><ele>281.42857142857144</ele><time>2026-04-25T16:31:26.481Z</time></trkpt><trkpt lat="39.2348264" lon="8.6995794"><ele>282.2857142857143</ele><time>2026-04-25T16:31:53.466Z</time></trkpt><trkpt lat="39.2347494" lon="8.6995795"><ele>283.1428571428571</ele><time>2026-04-25T16:31:57.477Z</time></trkpt><trkpt lat="39.234691" lon="8.6996144"><ele>284.0</ele><time>2026-04-25T16:32:00.472Z</time></trkpt><trkpt lat="39.2346365" lon="8.6996827"><ele>284.1666666666667</ele><time>2026-04-25T16:32:03.472Z</time></trkpt><trkpt lat="39.2345711" lon="8.69972"><ele>284.33333333333337</ele><time>2026-04-25T16:32:07.467Z</time></trkpt><trkpt lat="39.2345178" lon="8.6997873"><ele>284.5</ele><time>2026-04-25T16:32:11.474Z</time></trkpt><trkpt lat="39.2344479" lon="8.6998288"><ele>284.6666666666667</ele><time>2026-04-25T16:32:15.46Z</time></trkpt><trkpt lat="39.2343594" lon="8.6998755"><ele>284.8333333333333</ele><time>2026-04-25T16:32:18.46Z</time></trkpt><trkpt lat="39.2342905" lon="8.6998927"><ele>285.0</ele><time>2026-04-25T16:32:20.463Z</time></trkpt><trkpt lat="39.2342238" lon="8.6999022"><ele>285.0</ele><time>2026-04-25T16:32:22.471Z</time></trkpt><trkpt lat="39.2341427" lon="8.6999024"><ele>285.0</ele><time>2026-04-25T16:32:24.461Z</time></trkpt><trkpt lat="39.2340307" lon="8.6998888"><ele>285.0</ele><time>2026-04-25T16:32:26.457Z</time></trkpt><trkpt lat="39.2339411" lon="8.6998757"><ele>285.0</ele><time>2026-04-25T16:32:28.473Z</time></trkpt><trkpt lat="39.2338523" lon="8.6998602"><ele>285.0</ele><time>2026-04-25T16:32:30.475Z</time></trkpt><trkpt lat="39.2337834" lon="8.6998312"><ele>285.0</ele><time>2026-04-25T16:32:32.461Z</time></trkpt><trkpt lat="39.2336815" lon="8.6997714"><ele>286.8333333333333</ele><time>2026-04-25T16:32:34.453Z</time></trkpt><trkpt lat="39.2335848" lon="8.6996898"><ele>288.6666666666667</ele><time>2026-04-25T16:32:36.47Z</time></trkpt><trkpt lat="39.2335125" lon="8.6996313"><ele>290.5</ele><time>2026-04-25T16:32:38.483Z</time></trkpt><trkpt lat="39.2334567" lon="8.6995661"><ele>292.33333333333337</ele><time>2026-04-25T16:32:40.471Z</time></trkpt><trkpt lat="39.2333964" lon="8.6994797"><ele>294.1666666666667</ele><time>2026-04-25T16:32:42.461Z</time></trkpt><trkpt lat="39.2333442" lon="8.6994036"><ele>296.0</ele><time>2026-04-25T16:32:44.466Z</time></trkpt><trkpt lat="39.2332904" lon="8.699351"><ele>296.0</ele><time>2026-04-25T16:32:46.468Z</time></trkpt><trkpt lat="39.233231" lon="8.6992909"><ele>296.0</ele><time>2026-04-25T16:32:48.481Z</time></trkpt><trkpt lat="39.2331531" lon="8.6992405"><ele>296.0</ele><time>2026-04-25T16:32:50.475Z</time></trkpt><trkpt lat="39.2330807" lon="8.6991848"><ele>296.0</ele><time>2026-04-25T16:32:52.468Z</time></trkpt><trkpt lat="39.2330024" lon="8.6991291"><ele>296.0</ele><time>2026-04-25T16:32:54.468Z</time></trkpt><trkpt lat="39.2329224" lon="8.6990841"><ele>296.0</ele><time>2026-04-25T16:32:56.476Z</time></trkpt><trkpt lat="39.2328445" lon="8.6990432"><ele>295.6666666666667</ele><time>2026-04-25T16:32:58.46Z</time></trkpt><trkpt lat="39.2327638" lon="8.6990387"><ele>295.33333333333337</ele><time>2026-04-25T16:33:00.493Z</time></trkpt><trkpt lat="39.2326936" lon="8.6990258"><ele>295.0</ele><time>2026-04-25T16:33:02.463Z</time></trkpt><trkpt lat="39.232626" lon="8.6990036"><ele>294.6666666666667</ele><time>2026-04-25T16:33:04.463Z</time></trkpt><trkpt lat="39.232544" lon="8.6989653"><ele>294.3333333333333</ele><time>2026-04-25T16:33:06.462Z</time></trkpt><trkpt lat="39.2324546" lon="8.69892"><ele>294.0</ele><time>2026-04-25T16:33:08.476Z</time></trkpt><trkpt lat="39.2323895" lon="8.6988967"><ele>294.0</ele><time>2026-04-25T16:33:10.461Z</time></trkpt><trkpt lat="39.2323152" lon="8.6988539"><ele>294.0</ele><time>2026-04-25T16:33:13.462Z</time></trkpt><trkpt lat="39.2322517" lon="8.6987894"><ele>294.0</ele><time>2026-04-25T16:37:43.469Z</time></trkpt><trkpt lat="39.232193" lon="8.6987302"><ele>294.0</ele><time>2026-04-25T16:37:46.459Z</time></trkpt><trkpt lat="39.2321362" lon="8.6986732"><ele>294.0</ele><time>2026-04-25T16:37:49.474Z</time></trkpt><trkpt lat="39.2321006" lon="8.6985926"><ele>294.0</ele><time>2026-04-25T16:37:52.47Z</time></trkpt><trkpt lat="39.2320793" lon="8.6984895"><ele>294.14285714285717</ele><time>2026-04-25T16:37:56.464Z</time></trkpt><trkpt lat="39.2321075" lon="8.6984098"><ele>294.2857142857143</ele><time>2026-04-25T16:38:00.476Z</time></trkpt><trkpt lat="39.23211" lon="8.6982984"><ele>294.42857142857144</ele><time>2026-04-25T16:38:03.469Z</time></trkpt><trkpt lat="39.2321096" lon="8.6981834"><ele>294.57142857142856</ele><time>2026-04-25T16:38:05.461Z</time></trkpt><trkpt lat="39.2321152" lon="8.6980931"><ele>294.7142857142857</ele><time>2026-04-25T16:38:06.473Z</time></trkpt><trkpt lat="39.2321118" lon="8.6980107"><ele>294.8571428571429</ele><time>2026-04-25T16:38:07.475Z</time></trkpt><trkpt lat="39.2321071" lon="8.6979244"><ele>295.0</ele><time>2026-04-25T16:38:08.474Z</time></trkpt><trkpt lat="39.2320886" lon="8.6978291"><ele>295.66666666666663</ele><time>2026-04-25T16:38:09.471Z</time></trkpt><trkpt lat="39.2320735" lon="8.6977393"><ele>296.3333333333333</ele><time>2026-04-25T16:38:10.467Z</time></trkpt><trkpt lat="39.2320555" lon="8.6976595"><ele>297.0</ele><time>2026-04-25T16:38:11.466Z</time></trkpt><trkpt lat="39.2320259" lon="8.6975759"><ele>297.6666666666667</ele><time>2026-04-25T16:38:12.472Z</time></trkpt><trkpt lat="39.2319701" lon="8.6974421"><ele>298.33333333333337</ele><time>2026-04-25T16:38:14.474Z</time></trkpt><trkpt lat="39.2319295" lon="8.6973725"><ele>299.0</ele><time>2026-04-25T16:38:15.478Z</time></trkpt><trkpt lat="39.2318883" lon="8.6972999"><ele>299.0</ele><time>2026-04-25T16:38:16.462Z</time></trkpt><trkpt lat="39.2318503" lon="8.6972308"><ele>299.0</ele><time>2026-04-25T16:38:17.477Z</time></trkpt><trkpt lat="39.2318017" lon="8.6971586"><ele>299.0</ele><time>2026-04-25T16:38:18.467Z</time></trkpt><trkpt lat="39.2317555" lon="8.6970916"><ele>299.0</ele><time>2026-04-25T16:38:19.471Z</time></trkpt><trkpt lat="39.2317081" lon="8.6970376"><ele>299.0</ele><time>2026-04-25T16:38:20.459Z</time></trkpt><trkpt lat="39.231665" lon="8.6969696"><ele>299.0</ele><time>2026-04-25T16:38:21.47Z</time></trkpt><trkpt lat="39.2316099" lon="8.6968336"><ele>299.0</ele><time>2026-04-25T16:38:23.466Z</time></trkpt><trkpt lat="39.2315737" lon="8.6967476"><ele>299.0</ele><time>2026-04-25T16:38:24.468Z</time></trkpt><trkpt lat="39.2315484" lon="8.6966713"><ele>299.0</ele><time>2026-04-25T16:38:25.477Z</time></trkpt><trkpt lat="39.23151" lon="8.6965125"><ele>299.0</ele><time>2026-04-25T16:38:27.463Z</time></trkpt><trkpt lat="39.2314887" lon="8.6964211"><ele>299.0</ele><time>2026-04-25T16:38:28.466Z</time></trkpt><trkpt lat="39.2314698" lon="8.6963346"><ele>299.0</ele><time>2026-04-25T16:38:29.468Z</time></trkpt><trkpt lat="39.2314594" lon="8.6962452"><ele>299.0</ele><time>2026-04-25T16:38:30.47Z</time></trkpt><trkpt lat="39.2314509" lon="8.696144"><ele>299.0</ele><time>2026-04-25T16:38:31.465Z</time></trkpt><trkpt lat="39.2314457" lon="8.6960508"><ele>299.0</ele><time>2026-04-25T16:38:32.47Z</time></trkpt><trkpt lat="39.231429" lon="8.6959626"><ele>299.0</ele><time>2026-04-25T16:38:33.465Z</time></trkpt><trkpt lat="39.2315009" lon="8.6960054"><ele>299.0</ele><time>2026-04-25T16:38:47.484Z</time></trkpt><trkpt lat="39.2315472" lon="8.6960786"><ele>299.0</ele><time>2026-04-25T16:38:49.47Z</time></trkpt><trkpt lat="39.2316083" lon="8.6961566"><ele>303.0</ele><time>2026-04-25T16:38:52.47Z</time></trkpt><trkpt lat="39.2316741" lon="8.6962421"><ele>307.0</ele><time>2026-04-25T16:38:55.46Z</time></trkpt><trkpt lat="39.2317405" lon="8.696318"><ele>311.0</ele><time>2026-04-25T16:38:57.476Z</time></trkpt><trkpt lat="39.2318292" lon="8.6963987"><ele>315.0</ele><time>2026-04-25T16:38:59.46Z</time></trkpt><trkpt lat="39.231938" lon="8.6964786"><ele>319.0</ele><time>2026-04-25T16:39:01.486Z</time></trkpt><trkpt lat="39.2319991" lon="8.6965014"><ele>319.0</ele><time>2026-04-25T16:39:02.474Z</time></trkpt><trkpt lat="39.2321072" lon="8.6965684"><ele>319.0</ele><time>2026-04-25T16:39:04.47Z</time></trkpt><trkpt lat="39.2321625" lon="8.6966084"><ele>319.0</ele><time>2026-04-25T16:39:05.479Z</time></trkpt><trkpt lat="39.2322234" lon="8.696651"><ele>319.0</ele><time>2026-04-25T16:39:06.463Z</time></trkpt><trkpt lat="39.2323341" lon="8.6967156"><ele>319.0</ele><time>2026-04-25T16:39:08.471Z</time></trkpt><trkpt lat="39.2324485" lon="8.6967713"><ele>319.7142857142857</ele><time>2026-04-25T16:39:10.471Z</time></trkpt><trkpt lat="39.2325122" lon="8.6968269"><ele>320.4285714285714</ele><time>2026-04-25T16:39:11.467Z</time></trkpt><trkpt lat="39.2325738" lon="8.6968778"><ele>321.1428571428571</ele><time>2026-04-25T16:39:12.466Z</time></trkpt><trkpt lat="39.2326287" lon="8.6969318"><ele>321.8571428571429</ele><time>2026-04-25T16:39:13.466Z</time></trkpt><trkpt lat="39.2326836" lon="8.6969869"><ele>322.57142857142856</ele><time>2026-04-25T16:39:14.471Z</time></trkpt><trkpt lat="39.232737" lon="8.6970427"><ele>323.2857142857143</ele><time>2026-04-25T16:39:15.469Z</time></trkpt><trkpt lat="39.2327958" lon="8.6970924"><ele>324.0</ele><time>2026-04-25T16:39:16.471Z</time></trkpt><trkpt lat="39.2328533" lon="8.6971302"><ele>324.0</ele><time>2026-04-25T16:39:17.463Z</time></trkpt><trkpt lat="39.2329546" lon="8.6971756"><ele>324.0</ele><time>2026-04-25T16:39:19.466Z</time></trkpt><trkpt lat="39.2330522" lon="8.6972107"><ele>324.0</ele><time>2026-04-25T16:39:21.46Z</time></trkpt><trkpt lat="39.2331213" lon="8.697168"><ele>324.0</ele><time>2026-04-25T16:39:24.47Z</time></trkpt><trkpt lat="39.2331177" lon="8.697074"><ele>324.0</ele><time>2026-04-25T16:39:26.479Z</time></trkpt><trkpt lat="39.2331031" lon="8.6969573"><ele>328.6</ele><time>2026-04-25T16:39:28.47Z</time></trkpt><trkpt lat="39.2330539" lon="8.6968399"><ele>333.2</ele><time>2026-04-25T16:39:30.468Z</time></trkpt><trkpt lat="39.2330078" lon="8.6966886"><ele>337.8</ele><time>2026-04-25T16:39:32.469Z</time></trkpt><trkpt lat="39.2329917" lon="8.6966072"><ele>342.40000000000003</ele><time>2026-04-25T16:39:33.471Z</time></trkpt><trkpt lat="39.2329921" lon="8.6965151"><ele>347.0</ele><time>2026-04-25T16:39:34.465Z</time></trkpt><trkpt lat="39.2329997" lon="8.6963555"><ele>347.0</ele><time>2026-04-25T16:39:36.472Z</time></trkpt><trkpt lat="39.2330029" lon="8.6962737"><ele>347.0</ele><time>2026-04-25T16:39:37.482Z</time></trkpt><trkpt lat="39.2330082" lon="8.6961636"><ele>347.0</ele><time>2026-04-25T16:39:38.463Z</time></trkpt><trkpt lat="39.2330051" lon="8.6960469"><ele>347.0</ele><time>2026-04-25T16:39:39.465Z</time></trkpt><trkpt lat="39.2330056" lon="8.6959217"><ele>347.0</ele><time>2026-04-25T16:39:40.47Z</time></trkpt><trkpt lat="39.233003" lon="8.6958127"><ele>347.0</ele><time>2026-04-25T16:39:41.469Z</time></trkpt><trkpt lat="39.2330054" lon="8.6956991"><ele>351.1666666666667</ele><time>2026-04-25T16:39:42.472Z</time></trkpt><trkpt lat="39.2330124" lon="8.6956099"><ele>355.33333333333337</ele><time>2026-04-25T16:39:43.47Z</time></trkpt><trkpt lat="39.2330292" lon="8.6955067"><ele>359.5</ele><time>2026-04-25T16:39:44.478Z</time></trkpt><trkpt lat="39.2330462" lon="8.6954156"><ele>363.6666666666667</ele><time>2026-04-25T16:39:45.477Z</time></trkpt><trkpt lat="39.2330757" lon="8.695336"><ele>367.8333333333333</ele><time>2026-04-25T16:39:46.475Z</time></trkpt><trkpt lat="39.2331677" lon="8.6952258"><ele>372.0</ele><time>2026-04-25T16:39:48.473Z</time></trkpt><trkpt lat="39.2332616" lon="8.6951272"><ele>372.3333333333333</ele><time>2026-04-25T16:39:50.47Z</time></trkpt><trkpt lat="39.2333636" lon="8.6950761"><ele>372.6666666666667</ele><time>2026-04-25T16:39:52.475Z</time></trkpt><trkpt lat="39.2334545" lon="8.6951091"><ele>373.0</ele><time>2026-04-25T16:39:54.473Z</time></trkpt><trkpt lat="39.2335281" lon="8.6951026"><ele>373.33333333333337</ele><time>2026-04-25T16:39:56.474Z</time></trkpt><trkpt lat="39.2335466" lon="8.6950243"><ele>373.6666666666667</ele><time>2026-04-25T16:39:58.476Z</time></trkpt><trkpt lat="39.2335198" lon="8.6949098"><ele>374.0</ele><time>2026-04-25T16:40:00.46Z</time></trkpt><trkpt lat="39.2334772" lon="8.6948241"><ele>374.0</ele><time>2026-04-25T16:40:01.471Z</time></trkpt><trkpt lat="39.2334087" lon="8.6947238"><ele>374.0</ele><time>2026-04-25T16:40:03.468Z</time></trkpt><trkpt lat="39.2333565" lon="8.6946749"><ele>374.0</ele><time>2026-04-25T16:40:05.478Z</time></trkpt><trkpt lat="39.233303" lon="8.6946289"><ele>374.0</ele><time>2026-04-25T16:40:07.475Z</time></trkpt><trkpt lat="39.2332463" lon="8.6945626"><ele>374.0</ele><time>2026-04-25T16:41:22.475Z</time></trkpt><trkpt lat="39.233217" lon="8.6944857"><ele>374.0</ele><time>2026-04-25T16:41:24.479Z</time></trkpt><trkpt lat="39.2331393" lon="8.694356"><ele>376.0</ele><time>2026-04-25T16:41:26.471Z</time></trkpt><trkpt lat="39.2330812" lon="8.6942802"><ele>378.0</ele><time>2026-04-25T16:41:27.465Z</time></trkpt><trkpt lat="39.2330236" lon="8.6942212"><ele>380.0</ele><time>2026-04-25T16:41:28.484Z</time></trkpt><trkpt lat="39.2329665" lon="8.6941561"><ele>382.0</ele><time>2026-04-25T16:41:29.474Z</time></trkpt><trkpt lat="39.232908" lon="8.694085"><ele>383.99999999999994</ele><time>2026-04-25T16:41:30.473Z</time></trkpt><trkpt lat="39.2328625" lon="8.6940051"><ele>386.0</ele><time>2026-04-25T16:41:31.469Z</time></trkpt><trkpt lat="39.2328351" lon="8.6939136"><ele>385.99999999999994</ele><time>2026-04-25T16:41:32.471Z</time></trkpt><trkpt lat="39.2328049" lon="8.6938101"><ele>386.0</ele><time>2026-04-25T16:41:33.474Z</time></trkpt><trkpt lat="39.2327802" lon="8.6937018"><ele>386.0</ele><time>2026-04-25T16:41:34.474Z</time></trkpt><trkpt lat="39.2327434" lon="8.6935951"><ele>386.0</ele><time>2026-04-25T16:41:35.478Z</time></trkpt><trkpt lat="39.232712" lon="8.6934894"><ele>385.99999999999994</ele><time>2026-04-25T16:41:36.473Z</time></trkpt><trkpt lat="39.232677" lon="8.6933752"><ele>386.0</ele><time>2026-04-25T16:41:37.476Z</time></trkpt><trkpt lat="39.2326434" lon="8.6932668"><ele>386.16666666666663</ele><time>2026-04-25T16:41:38.467Z</time></trkpt><trkpt lat="39.2326099" lon="8.6931954"><ele>386.3333333333333</ele><time>2026-04-25T16:41:39.466Z</time></trkpt><trkpt lat="39.2325699" lon="8.6931056"><ele>386.5</ele><time>2026-04-25T16:41:40.47Z</time></trkpt><trkpt lat="39.2325288" lon="8.6930113"><ele>386.66666666666663</ele><time>2026-04-25T16:41:41.475Z</time></trkpt><trkpt lat="39.2324898" lon="8.6929053"><ele>386.8333333333333</ele><time>2026-04-25T16:41:42.479Z</time></trkpt><trkpt lat="39.2324667" lon="8.6928087"><ele>387.0</ele><time>2026-04-25T16:41:43.474Z</time></trkpt><trkpt lat="39.2324499" lon="8.6927111"><ele>386.5</ele><time>2026-04-25T16:41:44.465Z</time></trkpt><trkpt lat="39.2324398" lon="8.6926139"><ele>386.0</ele><time>2026-04-25T16:41:45.465Z</time></trkpt><trkpt lat="39.2324252" lon="8.6925103"><ele>385.5</ele><time>2026-04-25T16:41:46.47Z</time></trkpt><trkpt lat="39.232407" lon="8.692425"><ele>385.0</ele><time>2026-04-25T16:41:47.473Z</time></trkpt><trkpt lat="39.2323894" lon="8.6923415"><ele>384.5</ele><time>2026-04-25T16:41:48.477Z</time></trkpt><trkpt lat="39.232346" lon="8.6922318"><ele>384.0</ele><time>2026-04-25T16:41:50.466Z</time></trkpt><trkpt lat="39.2322998" lon="8.6921365"><ele>386.0</ele><time>2026-04-25T16:41:52.472Z</time></trkpt><trkpt lat="39.2322409" lon="8.6920483"><ele>388.0</ele><time>2026-04-25T16:41:54.48Z</time></trkpt><trkpt lat="39.2321981" lon="8.6919426"><ele>390.0</ele><time>2026-04-25T16:41:56.463Z</time></trkpt><trkpt lat="39.2321548" lon="8.6918578"><ele>392.0</ele><time>2026-04-25T16:41:57.486Z</time></trkpt><trkpt lat="39.2321141" lon="8.6917696"><ele>394.0</ele><time>2026-04-25T16:41:58.472Z</time></trkpt><trkpt lat="39.2320632" lon="8.6916655"><ele>396.0</ele><time>2026-04-25T16:41:59.474Z</time></trkpt><trkpt lat="39.2320145" lon="8.691548"><ele>396.0</ele><time>2026-04-25T16:42:00.478Z</time></trkpt><trkpt lat="39.2319642" lon="8.6914353"><ele>396.0</ele><time>2026-04-25T16:42:01.464Z</time></trkpt><trkpt lat="39.231922" lon="8.6913452"><ele>396.0</ele><time>2026-04-25T16:42:02.469Z</time></trkpt><trkpt lat="39.2318863" lon="8.6912575"><ele>396.0</ele><time>2026-04-25T16:42:03.463Z</time></trkpt><trkpt lat="39.2318529" lon="8.6911708"><ele>396.0</ele><time>2026-04-25T16:42:04.469Z</time></trkpt><trkpt lat="39.2318151" lon="8.6910773"><ele>396.0</ele><time>2026-04-25T16:42:05.47Z</time></trkpt><trkpt lat="39.2317793" lon="8.6909743"><ele>394.3333333333333</ele><time>2026-04-25T16:42:06.465Z</time></trkpt><trkpt lat="39.2317342" lon="8.6908695"><ele>392.66666666666663</ele><time>2026-04-25T16:42:07.461Z</time></trkpt><trkpt lat="39.2316852" lon="8.6907708"><ele>391.0</ele><time>2026-04-25T16:42:08.472Z</time></trkpt><trkpt lat="39.2316405" lon="8.6906716"><ele>389.3333333333333</ele><time>2026-04-25T16:42:09.469Z</time></trkpt><trkpt lat="39.2315994" lon="8.6905792"><ele>387.66666666666663</ele><time>2026-04-25T16:42:10.464Z</time></trkpt><trkpt lat="39.231563" lon="8.6904818"><ele>386.0</ele><time>2026-04-25T16:42:11.472Z</time></trkpt><trkpt lat="39.231526" lon="8.6903878"><ele>385.99999999999994</ele><time>2026-04-25T16:42:12.464Z</time></trkpt><trkpt lat="39.2314864" lon="8.6902959"><ele>386.0</ele><time>2026-04-25T16:42:13.463Z</time></trkpt><trkpt lat="39.2314162" lon="8.690213"><ele>386.0</ele><time>2026-04-25T16:42:15.463Z</time></trkpt><trkpt lat="39.2313397" lon="8.6903157"><ele>386.0</ele><time>2026-04-25T16:42:18.458Z</time></trkpt><trkpt lat="39.231302" lon="8.6903901"><ele>385.99999999999994</ele><time>2026-04-25T16:42:19.47Z</time></trkpt><trkpt lat="39.2312618" lon="8.6904701"><ele>386.0</ele><time>2026-04-25T16:42:20.463Z</time></trkpt><trkpt lat="39.2312075" lon="8.6905451"><ele>387.66666666666663</ele><time>2026-04-25T16:42:21.485Z</time></trkpt><trkpt lat="39.2311354" lon="8.6905965"><ele>389.3333333333333</ele><time>2026-04-25T16:42:22.466Z</time></trkpt><trkpt lat="39.2310691" lon="8.6906279"><ele>391.0</ele><time>2026-04-25T16:42:23.47Z</time></trkpt><trkpt lat="39.2309984" lon="8.6906694"><ele>392.66666666666663</ele><time>2026-04-25T16:42:24.465Z</time></trkpt><trkpt lat="39.2309258" lon="8.6907188"><ele>394.3333333333333</ele><time>2026-04-25T16:42:25.477Z</time></trkpt><trkpt lat="39.2308466" lon="8.6907675"><ele>396.0</ele><time>2026-04-25T16:42:26.465Z</time></trkpt><trkpt lat="39.2307623" lon="8.6908042"><ele>396.0</ele><time>2026-04-25T16:42:27.481Z</time></trkpt><trkpt lat="39.2306663" lon="8.6908425"><ele>396.0</ele><time>2026-04-25T16:42:28.459Z</time></trkpt><trkpt lat="39.230573" lon="8.6908942"><ele>396.0</ele><time>2026-04-25T16:42:29.458Z</time></trkpt><trkpt lat="39.2304858" lon="8.69096"><ele>396.0</ele><time>2026-04-25T16:42:30.469Z</time></trkpt><trkpt lat="39.230403" lon="8.6910195"><ele>396.0</ele><time>2026-04-25T16:42:31.463Z</time></trkpt><trkpt lat="39.23032" lon="8.6910766"><ele>393.6666666666667</ele><time>2026-04-25T16:42:32.465Z</time></trkpt><trkpt lat="39.2302372" lon="8.6911116"><ele>391.3333333333333</ele><time>2026-04-25T16:42:33.471Z</time></trkpt><trkpt lat="39.230156" lon="8.6911439"><ele>389.0</ele><time>2026-04-25T16:42:34.468Z</time></trkpt><trkpt lat="39.2300709" lon="8.6911483"><ele>386.66666666666663</ele><time>2026-04-25T16:42:35.469Z</time></trkpt><trkpt lat="39.2299827" lon="8.6911268"><ele>384.3333333333333</ele><time>2026-04-25T16:42:36.469Z</time></trkpt><trkpt lat="39.2298879" lon="8.6910973"><ele>382.0</ele><time>2026-04-25T16:42:37.476Z</time></trkpt><trkpt lat="39.2298028" lon="8.6910842"><ele>383.8333333333333</ele><time>2026-04-25T16:42:38.467Z</time></trkpt><trkpt lat="39.2297233" lon="8.6910877"><ele>385.66666666666663</ele><time>2026-04-25T16:42:39.474Z</time></trkpt><trkpt lat="39.2296427" lon="8.6911002"><ele>387.5</ele><time>2026-04-25T16:42:40.473Z</time></trkpt><trkpt lat="39.2295532" lon="8.6911293"><ele>389.3333333333333</ele><time>2026-04-25T16:42:41.468Z</time></trkpt><trkpt lat="39.2294761" lon="8.6911686"><ele>391.1666666666667</ele><time>2026-04-25T16:42:42.467Z</time></trkpt><trkpt lat="39.2294001" lon="8.6912185"><ele>393.0</ele><time>2026-04-25T16:42:43.467Z</time></trkpt><trkpt lat="39.2293305" lon="8.6912699"><ele>393.0</ele><time>2026-04-25T16:42:44.464Z</time></trkpt><trkpt lat="39.2292666" lon="8.6913172"><ele>393.0</ele><time>2026-04-25T16:42:45.465Z</time></trkpt><trkpt lat="39.2291999" lon="8.6913411"><ele>393.0</ele><time>2026-04-25T16:42:46.467Z</time></trkpt><trkpt lat="39.2291222" lon="8.6913386"><ele>393.0</ele><time>2026-04-25T16:42:47.467Z</time></trkpt><trkpt lat="39.2290374" lon="8.6913448"><ele>393.0</ele><time>2026-04-25T16:42:48.472Z</time></trkpt><trkpt lat="39.2289524" lon="8.6913552"><ele>393.0</ele><time>2026-04-25T16:42:49.472Z</time></trkpt><trkpt lat="39.2288665" lon="8.6913753"><ele>393.5</ele><time>2026-04-25T16:42:50.467Z</time></trkpt><trkpt lat="39.2287939" lon="8.6914175"><ele>394.0</ele><time>2026-04-25T16:42:51.464Z</time></trkpt><trkpt lat="39.2287233" lon="8.6914705"><ele>394.5</ele><time>2026-04-25T16:42:52.48Z</time></trkpt><trkpt lat="39.2286614" lon="8.6915271"><ele>395.0</ele><time>2026-04-25T16:42:53.462Z</time></trkpt><trkpt lat="39.2285926" lon="8.6915767"><ele>395.5</ele><time>2026-04-25T16:42:54.471Z</time></trkpt><trkpt lat="39.2285154" lon="8.6916354"><ele>396.0</ele><time>2026-04-25T16:42:55.471Z</time></trkpt><trkpt lat="39.228434" lon="8.691694"><ele>396.0</ele><time>2026-04-25T16:42:56.469Z</time></trkpt><trkpt lat="39.2283555" lon="8.691753"><ele>396.0</ele><time>2026-04-25T16:42:57.46Z</time></trkpt><trkpt lat="39.2282753" lon="8.6918193"><ele>396.0</ele><time>2026-04-25T16:42:58.47Z</time></trkpt><trkpt lat="39.2281823" lon="8.6918659"><ele>396.0</ele><time>2026-04-25T16:42:59.473Z</time></trkpt><trkpt lat="39.2280958" lon="8.6918783"><ele>396.0</ele><time>2026-04-25T16:43:00.472Z</time></trkpt><trkpt lat="39.2280216" lon="8.691887"><ele>396.0</ele><time>2026-04-25T16:43:01.471Z</time></trkpt><trkpt lat="39.2279035" lon="8.6918585"><ele>393.5</ele><time>2026-04-25T16:43:03.475Z</time></trkpt><trkpt lat="39.2278217" lon="8.6917514"><ele>391.0</ele><time>2026-04-25T16:43:05.465Z</time></trkpt><trkpt lat="39.227796" lon="8.6916106"><ele>388.5</ele><time>2026-04-25T16:43:07.469Z</time></trkpt><trkpt lat="39.2277564" lon="8.691525"><ele>386.0</ele><time>2026-04-25T16:43:10.463Z</time></trkpt><trkpt lat="39.2277065" lon="8.6914544"><ele>383.5</ele><time>2026-04-25T16:43:22.464Z</time></trkpt><trkpt lat="39.2276758" lon="8.691378"><ele>381.0</ele><time>2026-04-25T16:43:24.47Z</time></trkpt><trkpt lat="39.2276152" lon="8.691275"><ele>381.0</ele><time>2026-04-25T16:43:26.467Z</time></trkpt><trkpt lat="39.2275628" lon="8.6912126"><ele>381.0</ele><time>2026-04-25T16:43:27.48Z</time></trkpt><trkpt lat="39.2275055" lon="8.6911592"><ele>381.0</ele><time>2026-04-25T16:43:28.471Z</time></trkpt><trkpt lat="39.2274385" lon="8.6911103"><ele>381.0</ele><time>2026-04-25T16:43:29.473Z</time></trkpt><trkpt lat="39.2273628" lon="8.6910675"><ele>381.0</ele><time>2026-04-25T16:43:30.466Z</time></trkpt><trkpt lat="39.2272877" lon="8.6910286"><ele>381.0</ele><time>2026-04-25T16:43:31.471Z</time></trkpt><trkpt lat="39.2272288" lon="8.6909833"><ele>377.5</ele><time>2026-04-25T16:43:32.472Z</time></trkpt><trkpt lat="39.2271878" lon="8.6909163"><ele>374.0</ele><time>2026-04-25T16:43:33.471Z</time></trkpt><trkpt lat="39.2271424" lon="8.6907642"><ele>370.5</ele><time>2026-04-25T16:43:35.476Z</time></trkpt><trkpt lat="39.2271289" lon="8.6906687"><ele>367.0</ele><time>2026-04-25T16:43:36.471Z</time></trkpt><trkpt lat="39.227117" lon="8.6905678"><ele>363.5</ele><time>2026-04-25T16:43:37.47Z</time></trkpt><trkpt lat="39.2270874" lon="8.6904746"><ele>360.0</ele><time>2026-04-25T16:43:38.459Z</time></trkpt><trkpt lat="39.2270536" lon="8.6903915"><ele>360.0</ele><time>2026-04-25T16:43:39.482Z</time></trkpt><trkpt lat="39.2270073" lon="8.6903326"><ele>360.0</ele><time>2026-04-25T16:43:40.469Z</time></trkpt><trkpt lat="39.2269498" lon="8.6902979"><ele>360.0</ele><time>2026-04-25T16:43:41.469Z</time></trkpt><trkpt lat="39.226892" lon="8.6902627"><ele>360.0</ele><time>2026-04-25T16:43:42.465Z</time></trkpt><trkpt lat="39.2267787" lon="8.6901867"><ele>360.0</ele><time>2026-04-25T16:43:44.465Z</time></trkpt><trkpt lat="39.226728" lon="8.6901199"><ele>360.0</ele><time>2026-04-25T16:43:45.474Z</time></trkpt><trkpt lat="39.2266812" lon="8.6900451"><ele>359.6</ele><time>2026-04-25T16:43:46.466Z</time></trkpt><trkpt lat="39.2266414" lon="8.6899755"><ele>359.2</ele><time>2026-04-25T16:43:47.471Z</time></trkpt><trkpt lat="39.2265505" lon="8.6898587"><ele>358.79999999999995</ele><time>2026-04-25T16:43:49.458Z</time></trkpt><trkpt lat="39.2265004" lon="8.6897911"><ele>358.4</ele><time>2026-04-25T16:43:50.468Z</time></trkpt><trkpt lat="39.2264513" lon="8.689725"><ele>358.0</ele><time>2026-04-25T16:43:51.466Z</time></trkpt><trkpt lat="39.2263877" lon="8.6895882"><ele>358.00000000000006</ele><time>2026-04-25T16:43:53.457Z</time></trkpt><trkpt lat="39.2263462" lon="8.689507"><ele>358.0</ele><time>2026-04-25T16:43:54.461Z</time></trkpt><trkpt lat="39.2263139" lon="8.6894323"><ele>358.0</ele><time>2026-04-25T16:43:55.463Z</time></trkpt><trkpt lat="39.2262706" lon="8.6893535"><ele>358.0</ele><time>2026-04-25T16:43:56.47Z</time></trkpt><trkpt lat="39.2262231" lon="8.6892649"><ele>358.0</ele><time>2026-04-25T16:43:57.464Z</time></trkpt><trkpt lat="39.2261728" lon="8.6891859"><ele>358.00000000000006</ele><time>2026-04-25T16:43:58.46Z</time></trkpt><trkpt lat="39.2261318" lon="8.6891181"><ele>358.0</ele><time>2026-04-25T16:43:59.467Z</time></trkpt><trkpt lat="39.2260613" lon="8.6890178"><ele>358.59999999999997</ele><time>2026-04-25T16:44:01.459Z</time></trkpt><trkpt lat="39.2260185" lon="8.6888627"><ele>359.2</ele><time>2026-04-25T16:44:03.469Z</time></trkpt><trkpt lat="39.2259878" lon="8.6887714"><ele>359.8</ele><time>2026-04-25T16:44:04.455Z</time></trkpt><trkpt lat="39.2259522" lon="8.6886768"><ele>360.4</ele><time>2026-04-25T16:44:05.465Z</time></trkpt><trkpt lat="39.2259106" lon="8.6885807"><ele>361.0</ele><time>2026-04-25T16:44:06.47Z</time></trkpt><trkpt lat="39.2258686" lon="8.6884871"><ele>363.16666666666663</ele><time>2026-04-25T16:44:07.464Z</time></trkpt><trkpt lat="39.225818" lon="8.6883981"><ele>365.3333333333333</ele><time>2026-04-25T16:44:08.469Z</time></trkpt><trkpt lat="39.2257684" lon="8.6883026"><ele>367.5</ele><time>2026-04-25T16:44:09.464Z</time></trkpt><trkpt lat="39.225727" lon="8.6882144"><ele>369.6666666666667</ele><time>2026-04-25T16:44:10.458Z</time></trkpt><trkpt lat="39.2256805" lon="8.6881353"><ele>371.83333333333337</ele><time>2026-04-25T16:44:11.46Z</time></trkpt><trkpt lat="39.22563" lon="8.6880411"><ele>374.0</ele><time>2026-04-25T16:44:12.469Z</time></trkpt><trkpt lat="39.2255818" lon="8.687957"><ele>375.1666666666667</ele><time>2026-04-25T16:44:13.465Z</time></trkpt><trkpt lat="39.2255327" lon="8.6878866"><ele>376.33333333333337</ele><time>2026-04-25T16:44:14.467Z</time></trkpt><trkpt lat="39.2254946" lon="8.6878144"><ele>377.5</ele><time>2026-04-25T16:44:15.46Z</time></trkpt><trkpt lat="39.225458" lon="8.6877441"><ele>378.6666666666667</ele><time>2026-04-25T16:44:16.461Z</time></trkpt><trkpt lat="39.2254419" lon="8.6876366"><ele>379.8333333333333</ele><time>2026-04-25T16:44:18.473Z</time></trkpt><trkpt lat="39.2254706" lon="8.6874909"><ele>381.0</ele><time>2026-04-25T16:44:20.462Z</time></trkpt><trkpt lat="39.2254757" lon="8.6873356"><ele>381.0</ele><time>2026-04-25T16:44:22.473Z</time></trkpt><trkpt lat="39.225484" lon="8.6872431"><ele>381.0</ele><time>2026-04-25T16:44:23.467Z</time></trkpt><trkpt lat="39.2254873" lon="8.687125"><ele>381.0</ele><time>2026-04-25T16:44:25.461Z</time></trkpt><trkpt lat="39.2254456" lon="8.6870558"><ele>381.0</ele><time>2026-04-25T16:44:27.46Z</time></trkpt><trkpt lat="39.2253389" lon="8.6870801"><ele>381.0</ele><time>2026-04-25T16:44:29.458Z</time></trkpt><trkpt lat="39.2252745" lon="8.6871118"><ele>381.0</ele><time>2026-04-25T16:44:30.458Z</time></trkpt><trkpt lat="39.2252124" lon="8.68717"><ele>381.0</ele><time>2026-04-25T16:44:31.454Z</time></trkpt><trkpt lat="39.2251418" lon="8.687231"><ele>381.0</ele><time>2026-04-25T16:44:32.458Z</time></trkpt><trkpt lat="39.2250636" lon="8.6873024"><ele>381.0</ele><time>2026-04-25T16:44:33.466Z</time></trkpt><trkpt lat="39.2249814" lon="8.6873629"><ele>381.0</ele><time>2026-04-25T16:44:34.471Z</time></trkpt><trkpt lat="39.2248917" lon="8.6874252"><ele>381.0</ele><time>2026-04-25T16:44:35.466Z</time></trkpt><trkpt lat="39.2248154" lon="8.6874909"><ele>384.1666666666667</ele><time>2026-04-25T16:44:36.464Z</time></trkpt><trkpt lat="39.2247362" lon="8.6875494"><ele>387.33333333333337</ele><time>2026-04-25T16:44:37.454Z</time></trkpt><trkpt lat="39.2246507" lon="8.6876001"><ele>390.5</ele><time>2026-04-25T16:44:38.47Z</time></trkpt><trkpt lat="39.2245743" lon="8.6876552"><ele>393.6666666666667</ele><time>2026-04-25T16:44:39.471Z</time></trkpt><trkpt lat="39.2245049" lon="8.6877"><ele>396.83333333333337</ele><time>2026-04-25T16:44:40.469Z</time></trkpt><trkpt lat="39.2244319" lon="8.687738"><ele>400.0</ele><time>2026-04-25T16:44:41.469Z</time></trkpt><trkpt lat="39.2243667" lon="8.6877643"><ele>400.1666666666667</ele><time>2026-04-25T16:44:42.474Z</time></trkpt><trkpt lat="39.2243032" lon="8.6878042"><ele>400.33333333333337</ele><time>2026-04-25T16:44:43.459Z</time></trkpt><trkpt lat="39.2242347" lon="8.6878269"><ele>400.5</ele><time>2026-04-25T16:44:44.464Z</time></trkpt><trkpt lat="39.2241669" lon="8.6878566"><ele>400.66666666666663</ele><time>2026-04-25T16:44:45.465Z</time></trkpt><trkpt lat="39.2241007" lon="8.6878878"><ele>400.8333333333333</ele><time>2026-04-25T16:44:46.463Z</time></trkpt><trkpt lat="39.2240105" lon="8.6879255"><ele>401.0</ele><time>2026-04-25T16:44:47.464Z</time></trkpt><trkpt lat="39.2239413" lon="8.687956"><ele>405.0</ele><time>2026-04-25T16:44:48.468Z</time></trkpt><trkpt lat="39.2238413" lon="8.6879804"><ele>409.0</ele><time>2026-04-25T16:44:50.461Z</time></trkpt><trkpt lat="39.2237488" lon="8.6879788"><ele>413.0</ele><time>2026-04-25T16:44:52.466Z</time></trkpt><trkpt lat="39.2236806" lon="8.6879573"><ele>417.0</ele><time>2026-04-25T16:44:54.467Z</time></trkpt><trkpt lat="39.2235867" lon="8.6879401"><ele>421.0</ele><time>2026-04-25T16:44:56.475Z</time></trkpt><trkpt lat="39.2234614" lon="8.6879557"><ele>421.0</ele><time>2026-04-25T16:44:58.469Z</time></trkpt><trkpt lat="39.2233775" lon="8.6879622"><ele>421.0</ele><time>2026-04-25T16:44:59.474Z</time></trkpt><trkpt lat="39.223282" lon="8.6879721"><ele>421.0</ele><time>2026-04-25T16:45:00.463Z</time></trkpt><trkpt lat="39.223158" lon="8.6879857"><ele>421.0</ele><time>2026-04-25T16:45:02.474Z</time></trkpt><trkpt lat="39.2230467" lon="8.6879846"><ele>421.0</ele><time>2026-04-25T16:45:04.458Z</time></trkpt><trkpt lat="39.2229511" lon="8.688025"><ele>424.6</ele><time>2026-04-25T16:45:06.456Z</time></trkpt><trkpt lat="39.2228638" lon="8.6880631"><ele>428.20000000000005</ele><time>2026-04-25T16:45:08.474Z</time></trkpt><trkpt lat="39.2227794" lon="8.6880809"><ele>431.79999999999995</ele><time>2026-04-25T16:45:10.461Z</time></trkpt><trkpt lat="39.2226986" lon="8.6881088"><ele>435.4</ele><time>2026-04-25T16:45:12.458Z</time></trkpt><trkpt lat="39.2225989" lon="8.6881351"><ele>439.0</ele><time>2026-04-25T16:45:14.458Z</time></trkpt><trkpt lat="39.222486" lon="8.6882024"><ele>439.00000000000006</ele><time>2026-04-25T16:45:16.466Z</time></trkpt><trkpt lat="39.222422" lon="8.6882599"><ele>439.0</ele><time>2026-04-25T16:45:17.465Z</time></trkpt><trkpt lat="39.2223634" lon="8.6883149"><ele>439.0</ele><time>2026-04-25T16:45:18.463Z</time></trkpt><trkpt lat="39.2223034" lon="8.6883757"><ele>439.0</ele><time>2026-04-25T16:45:19.464Z</time></trkpt><trkpt lat="39.2222515" lon="8.6884362"><ele>439.00000000000006</ele><time>2026-04-25T16:45:20.463Z</time></trkpt><trkpt lat="39.2221677" lon="8.6885407"><ele>439.0</ele><time>2026-04-25T16:45:22.461Z</time></trkpt><trkpt lat="39.2220685" lon="8.6886104"><ele>444.50000000000006</ele><time>2026-04-25T16:45:24.456Z</time></trkpt><trkpt lat="39.2220061" lon="8.6886383"><ele>450.0</ele><time>2026-04-25T16:45:25.463Z</time></trkpt><trkpt lat="39.2219441" lon="8.6886607"><ele>455.5</ele><time>2026-04-25T16:45:26.463Z</time></trkpt><trkpt lat="39.2218797" lon="8.6886966"><ele>461.0</ele><time>2026-04-25T16:45:27.464Z</time></trkpt><trkpt lat="39.2218162" lon="8.6887305"><ele>466.50000000000006</ele><time>2026-04-25T16:45:28.473Z</time></trkpt><trkpt lat="39.2217461" lon="8.6887693"><ele>472.0</ele><time>2026-04-25T16:45:29.456Z</time></trkpt><trkpt lat="39.2216042" lon="8.6888054"><ele>471.6</ele><time>2026-04-25T16:45:31.457Z</time></trkpt><trkpt lat="39.2214667" lon="8.6888298"><ele>471.20000000000005</ele><time>2026-04-25T16:45:33.468Z</time></trkpt><trkpt lat="39.2213732" lon="8.688863"><ele>470.8</ele><time>2026-04-25T16:45:34.463Z</time></trkpt><trkpt lat="39.2212931" lon="8.6888689"><ele>470.4</ele><time>2026-04-25T16:45:35.458Z</time></trkpt><trkpt lat="39.221205" lon="8.6888251"><ele>470.0</ele><time>2026-04-25T16:45:36.462Z</time></trkpt><trkpt lat="39.2211075" lon="8.6887681"><ele>470.0</ele><time>2026-04-25T16:45:37.467Z</time></trkpt><trkpt lat="39.2209964" lon="8.6886937"><ele>470.0</ele><time>2026-04-25T16:45:38.461Z</time></trkpt><trkpt lat="39.2208979" lon="8.6886339"><ele>470.0</ele><time>2026-04-25T16:45:39.468Z</time></trkpt><trkpt lat="39.2207971" lon="8.6885806"><ele>470.0</ele><time>2026-04-25T16:45:40.457Z</time></trkpt><trkpt lat="39.2207138" lon="8.6885481"><ele>470.0</ele><time>2026-04-25T16:45:41.465Z</time></trkpt><trkpt lat="39.2206473" lon="8.6885167"><ele>471.16666666666663</ele><time>2026-04-25T16:45:42.456Z</time></trkpt><trkpt lat="39.220575" lon="8.688503"><ele>472.3333333333333</ele><time>2026-04-25T16:45:43.461Z</time></trkpt><trkpt lat="39.2205071" lon="8.6884904"><ele>473.5</ele><time>2026-04-25T16:45:44.46Z</time></trkpt><trkpt lat="39.2204228" lon="8.688462"><ele>474.66666666666663</ele><time>2026-04-25T16:45:45.468Z</time></trkpt><trkpt lat="39.2203361" lon="8.688414"><ele>475.8333333333333</ele><time>2026-04-25T16:45:46.465Z</time></trkpt><trkpt lat="39.2202457" lon="8.6883651"><ele>477.0</ele><time>2026-04-25T16:45:47.461Z</time></trkpt><trkpt lat="39.2201559" lon="8.6883213"><ele>477.0</ele><time>2026-04-25T16:45:48.487Z</time></trkpt><trkpt lat="39.2200722" lon="8.6882642"><ele>477.0</ele><time>2026-04-25T16:45:49.469Z</time></trkpt><trkpt lat="39.2200057" lon="8.6882012"><ele>477.0</ele><time>2026-04-25T16:45:50.46Z</time></trkpt><trkpt lat="39.2199363" lon="8.6881273"><ele>477.0</ele><time>2026-04-25T16:45:51.469Z</time></trkpt><trkpt lat="39.2198759" lon="8.6880522"><ele>477.0</ele><time>2026-04-25T16:45:52.469Z</time></trkpt><trkpt lat="39.2198047" lon="8.6879669"><ele>477.0</ele><time>2026-04-25T16:45:53.466Z</time></trkpt><trkpt lat="39.2197591" lon="8.6878705"><ele>479.1666666666667</ele><time>2026-04-25T16:45:54.467Z</time></trkpt><trkpt lat="39.2197045" lon="8.6877696"><ele>481.33333333333337</ele><time>2026-04-25T16:45:55.465Z</time></trkpt><trkpt lat="39.2196419" lon="8.687678"><ele>483.5</ele><time>2026-04-25T16:45:56.462Z</time></trkpt><trkpt lat="39.2195715" lon="8.6875849"><ele>485.6666666666667</ele><time>2026-04-25T16:45:57.467Z</time></trkpt><trkpt lat="39.2195122" lon="8.6874936"><ele>487.83333333333337</ele><time>2026-04-25T16:45:58.461Z</time></trkpt><trkpt lat="39.2194797" lon="8.6874224"><ele>490.0</ele><time>2026-04-25T16:45:59.472Z</time></trkpt><trkpt lat="39.2194406" lon="8.6872691"><ele>490.00000000000006</ele><time>2026-04-25T16:46:01.469Z</time></trkpt><trkpt lat="39.2194245" lon="8.6871761"><ele>490.0</ele><time>2026-04-25T16:46:02.453Z</time></trkpt><trkpt lat="39.2193916" lon="8.6870622"><ele>490.0</ele><time>2026-04-25T16:46:03.47Z</time></trkpt><trkpt lat="39.219361" lon="8.6869501"><ele>490.0</ele><time>2026-04-25T16:46:04.453Z</time></trkpt><trkpt lat="39.2193331" lon="8.6868433"><ele>490.00000000000006</ele><time>2026-04-25T16:46:05.461Z</time></trkpt><trkpt lat="39.219289" lon="8.6867489"><ele>490.0</ele><time>2026-04-25T16:46:06.466Z</time></trkpt><trkpt lat="39.2192392" lon="8.6866586"><ele>490.50000000000006</ele><time>2026-04-25T16:46:07.467Z</time></trkpt><trkpt lat="39.2191916" lon="8.6865838"><ele>491.0</ele><time>2026-04-25T16:46:08.469Z</time></trkpt><trkpt lat="39.219148" lon="8.686513"><ele>491.5</ele><time>2026-04-25T16:46:09.459Z</time></trkpt><trkpt lat="39.2191071" lon="8.6864354"><ele>492.0</ele><time>2026-04-25T16:46:10.465Z</time></trkpt><trkpt lat="39.2190336" lon="8.6862993"><ele>492.50000000000006</ele><time>2026-04-25T16:46:12.463Z</time></trkpt><trkpt lat="39.2189996" lon="8.6862082"><ele>493.0</ele><time>2026-04-25T16:46:13.462Z</time></trkpt><trkpt lat="39.2189615" lon="8.6861069"><ele>496.33333333333337</ele><time>2026-04-25T16:46:14.461Z</time></trkpt><trkpt lat="39.2189237" lon="8.6860207"><ele>499.6666666666667</ele><time>2026-04-25T16:46:15.459Z</time></trkpt><trkpt lat="39.2188814" lon="8.6859536"><ele>503.0</ele><time>2026-04-25T16:46:16.468Z</time></trkpt><trkpt lat="39.2188433" lon="8.6858869"><ele>506.33333333333337</ele><time>2026-04-25T16:46:17.474Z</time></trkpt><trkpt lat="39.2187937" lon="8.685822"><ele>509.6666666666667</ele><time>2026-04-25T16:46:18.47Z</time></trkpt><trkpt lat="39.2187296" lon="8.6857535"><ele>513.0</ele><time>2026-04-25T16:46:19.462Z</time></trkpt><trkpt lat="39.2186714" lon="8.6856593"><ele>513.0</ele><time>2026-04-25T16:46:20.464Z</time></trkpt><trkpt lat="39.2186255" lon="8.6855618"><ele>513.0</ele><time>2026-04-25T16:46:21.464Z</time></trkpt><trkpt lat="39.2185904" lon="8.6854739"><ele>513.0</ele><time>2026-04-25T16:46:22.46Z</time></trkpt><trkpt lat="39.2185484" lon="8.6853943"><ele>513.0</ele><time>2026-04-25T16:46:23.473Z</time></trkpt><trkpt lat="39.2184923" lon="8.6853338"><ele>513.0</ele><time>2026-04-25T16:46:24.468Z</time></trkpt><trkpt lat="39.2184373" lon="8.6852853"><ele>513.0</ele><time>2026-04-25T16:46:25.464Z</time></trkpt><trkpt lat="39.2183515" lon="8.6851964"><ele>513.8</ele><time>2026-04-25T16:46:27.467Z</time></trkpt><trkpt lat="39.2183153" lon="8.6851132"><ele>514.5999999999999</ele><time>2026-04-25T16:46:29.461Z</time></trkpt><trkpt lat="39.2182946" lon="8.6850251"><ele>515.4000000000001</ele><time>2026-04-25T16:47:30.466Z</time></trkpt><trkpt lat="39.2183121" lon="8.6848595"><ele>516.2</ele><time>2026-04-25T16:47:32.472Z</time></trkpt><trkpt lat="39.2183325" lon="8.6847451"><ele>517.0</ele><time>2026-04-25T16:47:33.467Z</time></trkpt><trkpt lat="39.2183471" lon="8.6846254"><ele>517.0</ele><time>2026-04-25T16:47:34.47Z</time></trkpt><trkpt lat="39.2183635" lon="8.6844883"><ele>517.0</ele><time>2026-04-25T16:47:35.468Z</time></trkpt><trkpt lat="39.2183809" lon="8.6843463"><ele>517.0</ele><time>2026-04-25T16:47:36.465Z</time></trkpt><trkpt lat="39.2183906" lon="8.6842052"><ele>517.0</ele><time>2026-04-25T16:47:37.474Z</time></trkpt><trkpt lat="39.2183979" lon="8.6840734"><ele>517.0</ele><time>2026-04-25T16:47:38.467Z</time></trkpt><trkpt lat="39.2184034" lon="8.6839537"><ele>517.0</ele><time>2026-04-25T16:47:39.475Z</time></trkpt><trkpt lat="39.2184173" lon="8.6838473"><ele>517.0</ele><time>2026-04-25T16:47:40.468Z</time></trkpt><trkpt lat="39.2184432" lon="8.683741"><ele>517.0</ele><time>2026-04-25T16:47:41.47Z</time></trkpt><trkpt lat="39.2184761" lon="8.683621"><ele>517.0</ele><time>2026-04-25T16:47:42.477Z</time></trkpt><trkpt lat="39.2185071" lon="8.6834986"><ele>517.0</ele><time>2026-04-25T16:47:43.462Z</time></trkpt><trkpt lat="39.2185338" lon="8.683371"><ele>516.0</ele><time>2026-04-25T16:47:44.478Z</time></trkpt><trkpt lat="39.2185576" lon="8.6832359"><ele>515.0</ele><time>2026-04-25T16:47:45.46Z</time></trkpt><trkpt lat="39.2185696" lon="8.6830812"><ele>514.0</ele><time>2026-04-25T16:47:46.46Z</time></trkpt><trkpt lat="39.2185832" lon="8.682912"><ele>513.0</ele><time>2026-04-25T16:47:47.464Z</time></trkpt><trkpt lat="39.2186001" lon="8.6827534"><ele>512.1999999999999</ele><time>2026-04-25T16:47:48.468Z</time></trkpt><trkpt lat="39.2186159" lon="8.6826012"><ele>511.4</ele><time>2026-04-25T16:47:49.47Z</time></trkpt><trkpt lat="39.2186304" lon="8.6824538"><ele>510.59999999999997</ele><time>2026-04-25T16:47:50.464Z</time></trkpt><trkpt lat="39.2186454" lon="8.6823143"><ele>509.79999999999995</ele><time>2026-04-25T16:47:51.463Z</time></trkpt><trkpt lat="39.218659" lon="8.6821799"><ele>509.0</ele><time>2026-04-25T16:47:52.46Z</time></trkpt><trkpt lat="39.2186664" lon="8.6820497"><ele>509.0</ele><time>2026-04-25T16:47:53.461Z</time></trkpt><trkpt lat="39.2186739" lon="8.6819332"><ele>509.0</ele><time>2026-04-25T16:47:54.457Z</time></trkpt><trkpt lat="39.2186784" lon="8.6818068"><ele>509.0</ele><time>2026-04-25T16:47:55.472Z</time></trkpt><trkpt lat="39.2186858" lon="8.6816809"><ele>509.0</ele><time>2026-04-25T16:47:56.473Z</time></trkpt><trkpt lat="39.2186972" lon="8.6815694"><ele>509.0</ele><time>2026-04-25T16:47:57.465Z</time></trkpt><trkpt lat="39.2187161" lon="8.6814617"><ele>508.4</ele><time>2026-04-25T16:47:58.468Z</time></trkpt><trkpt lat="39.2187371" lon="8.6813696"><ele>507.79999999999995</ele><time>2026-04-25T16:47:59.464Z</time></trkpt><trkpt lat="39.2187866" lon="8.6812176"><ele>507.20000000000005</ele><time>2026-04-25T16:48:01.465Z</time></trkpt><trkpt lat="39.2188328" lon="8.6811296"><ele>506.6</ele><time>2026-04-25T16:48:02.475Z</time></trkpt><trkpt lat="39.2188846" lon="8.6810347"><ele>506.0</ele><time>2026-04-25T16:48:03.468Z</time></trkpt><trkpt lat="39.2189401" lon="8.6809548"><ele>510.66666666666663</ele><time>2026-04-25T16:48:04.474Z</time></trkpt><trkpt lat="39.2189936" lon="8.68088"><ele>515.3333333333333</ele><time>2026-04-25T16:48:05.468Z</time></trkpt><trkpt lat="39.2190479" lon="8.6808041"><ele>520.0</ele><time>2026-04-25T16:48:06.47Z</time></trkpt><trkpt lat="39.2190984" lon="8.6807272"><ele>524.6666666666666</ele><time>2026-04-25T16:48:07.47Z</time></trkpt><trkpt lat="39.2191367" lon="8.6806494"><ele>529.3333333333334</ele><time>2026-04-25T16:48:08.463Z</time></trkpt><trkpt lat="39.2191604" lon="8.6805019"><ele>534.0</ele><time>2026-04-25T16:48:10.475Z</time></trkpt><trkpt lat="39.2191548" lon="8.680407"><ele>534.0</ele><time>2026-04-25T16:48:11.465Z</time></trkpt><trkpt lat="39.2191518" lon="8.6803114"><ele>534.0</ele><time>2026-04-25T16:48:12.461Z</time></trkpt><trkpt lat="39.2191657" lon="8.6802247"><ele>534.0</ele><time>2026-04-25T16:48:13.464Z</time></trkpt><trkpt lat="39.2191865" lon="8.6801453"><ele>534.0</ele><time>2026-04-25T16:48:14.475Z</time></trkpt><trkpt lat="39.2192661" lon="8.6800177"><ele>534.0</ele><time>2026-04-25T16:48:16.47Z</time></trkpt><trkpt lat="39.2193195" lon="8.6799635"><ele>534.0</ele><time>2026-04-25T16:48:17.465Z</time></trkpt><trkpt lat="39.2193652" lon="8.6798852"><ele>533.2</ele><time>2026-04-25T16:48:18.461Z</time></trkpt><trkpt lat="39.2194121" lon="8.6798011"><ele>532.4</ele><time>2026-04-25T16:48:19.468Z</time></trkpt><trkpt lat="39.2194276" lon="8.6797212"><ele>531.6</ele><time>2026-04-25T16:48:20.46Z</time></trkpt><trkpt lat="39.2193916" lon="8.6795423"><ele>530.8</ele><time>2026-04-25T16:48:22.461Z</time></trkpt><trkpt lat="39.2193465" lon="8.679452"><ele>530.0</ele><time>2026-04-25T16:48:23.464Z</time></trkpt><trkpt lat="39.2192621" lon="8.6793887"><ele>529.2</ele><time>2026-04-25T16:48:24.474Z</time></trkpt><trkpt lat="39.219173" lon="8.6793415"><ele>528.4</ele><time>2026-04-25T16:48:25.475Z</time></trkpt><trkpt lat="39.2190661" lon="8.6793131"><ele>527.6</ele><time>2026-04-25T16:48:26.469Z</time></trkpt><trkpt lat="39.2189607" lon="8.6793044"><ele>526.8</ele><time>2026-04-25T16:48:27.47Z</time></trkpt><trkpt lat="39.2188671" lon="8.6792993"><ele>526.0</ele><time>2026-04-25T16:48:28.473Z</time></trkpt><trkpt lat="39.2187878" lon="8.6792917"><ele>526.0</ele><time>2026-04-25T16:48:29.475Z</time></trkpt><trkpt lat="39.2187084" lon="8.6792498"><ele>526.0</ele><time>2026-04-25T16:48:30.477Z</time></trkpt><trkpt lat="39.2186248" lon="8.6791916"><ele>526.0</ele><time>2026-04-25T16:48:31.475Z</time></trkpt><trkpt lat="39.2185565" lon="8.6791295"><ele>526.0</ele><time>2026-04-25T16:48:32.468Z</time></trkpt><trkpt lat="39.2185092" lon="8.6790614"><ele>526.0</ele><time>2026-04-25T16:48:33.481Z</time></trkpt><trkpt lat="39.2184766" lon="8.678973"><ele>526.0</ele><time>2026-04-25T16:48:34.461Z</time></trkpt><trkpt lat="39.2184315" lon="8.6788698"><ele>526.0</ele><time>2026-04-25T16:48:35.471Z</time></trkpt><trkpt lat="39.2183893" lon="8.6787758"><ele>526.0</ele><time>2026-04-25T16:48:36.467Z</time></trkpt><trkpt lat="39.2183527" lon="8.6786982"><ele>526.0</ele><time>2026-04-25T16:48:37.472Z</time></trkpt><trkpt lat="39.2182912" lon="8.6785815"><ele>526.0</ele><time>2026-04-25T16:48:39.467Z</time></trkpt><trkpt lat="39.2182451" lon="8.6784989"><ele>526.0</ele><time>2026-04-25T16:48:41.481Z</time></trkpt><trkpt lat="39.2181707" lon="8.6784195"><ele>526.0</ele><time>2026-04-25T16:48:43.474Z</time></trkpt><trkpt lat="39.2181081" lon="8.6783739"><ele>526.3333333333334</ele><time>2026-04-25T16:56:06.489Z</time></trkpt><trkpt lat="39.2180934" lon="8.6782881"><ele>526.6666666666667</ele><time>2026-04-25T16:56:10.488Z</time></trkpt><trkpt lat="39.2181609" lon="8.6782616"><ele>527.0</ele><time>2026-04-25T16:56:13.48Z</time></trkpt><trkpt lat="39.2182406" lon="8.6782191"><ele>527.3333333333334</ele><time>2026-04-25T16:56:15.499Z</time></trkpt><trkpt lat="39.2183025" lon="8.6781549"><ele>527.6666666666666</ele><time>2026-04-25T16:56:17.486Z</time></trkpt><trkpt lat="39.2183544" lon="8.6780954"><ele>528.0</ele><time>2026-04-25T16:56:19.496Z</time></trkpt><trkpt lat="39.2184333" lon="8.6780227"><ele>528.0</ele><time>2026-04-25T16:56:21.494Z</time></trkpt><trkpt lat="39.2185111" lon="8.6779276"><ele>528.0</ele><time>2026-04-25T16:56:23.48Z</time></trkpt><trkpt lat="39.2185934" lon="8.6777955"><ele>528.0</ele><time>2026-04-25T16:56:25.472Z</time></trkpt><trkpt lat="39.2186276" lon="8.6777144"><ele>528.0</ele><time>2026-04-25T16:56:26.472Z</time></trkpt><trkpt lat="39.2186683" lon="8.6776267"><ele>528.0</ele><time>2026-04-25T16:56:27.473Z</time></trkpt><trkpt lat="39.2186942" lon="8.6775396"><ele>526.6666666666666</ele><time>2026-04-25T16:56:28.473Z</time></trkpt><trkpt lat="39.2187086" lon="8.6774447"><ele>525.3333333333334</ele><time>2026-04-25T16:56:29.466Z</time></trkpt><trkpt lat="39.2187122" lon="8.6773498"><ele>524.0</ele><time>2026-04-25T16:56:30.478Z</time></trkpt><trkpt lat="39.218728" lon="8.6772504"><ele>522.6666666666667</ele><time>2026-04-25T16:56:31.469Z</time></trkpt><trkpt lat="39.2187419" lon="8.6771532"><ele>521.3333333333334</ele><time>2026-04-25T16:56:32.475Z</time></trkpt><trkpt lat="39.2187627" lon="8.6770627"><ele>520.0</ele><time>2026-04-25T16:56:33.467Z</time></trkpt><trkpt lat="39.2187724" lon="8.6769677"><ele>518.75</ele><time>2026-04-25T16:56:34.47Z</time></trkpt><trkpt lat="39.2187813" lon="8.6768769"><ele>517.5</ele><time>2026-04-25T16:56:35.479Z</time></trkpt><trkpt lat="39.2187931" lon="8.6767148"><ele>516.25</ele><time>2026-04-25T16:56:37.467Z</time></trkpt><trkpt lat="39.2188095" lon="8.6765567"><ele>515.0</ele><time>2026-04-25T16:56:39.463Z</time></trkpt><trkpt lat="39.2188708" lon="8.6764008"><ele>515.0</ele><time>2026-04-25T16:56:41.473Z</time></trkpt><trkpt lat="39.2189183" lon="8.676316"><ele>515.0</ele><time>2026-04-25T16:56:42.472Z</time></trkpt><trkpt lat="39.2189651" lon="8.6762231"><ele>515.0</ele><time>2026-04-25T16:56:43.472Z</time></trkpt><trkpt lat="39.2190051" lon="8.6761249"><ele>515.0</ele><time>2026-04-25T16:56:44.475Z</time></trkpt><trkpt lat="39.2190425" lon="8.676018"><ele>515.0</ele><time>2026-04-25T16:56:45.52Z</time></trkpt><trkpt lat="39.2190763" lon="8.675908"><ele>515.0</ele><time>2026-04-25T16:56:46.473Z</time></trkpt><trkpt lat="39.2191034" lon="8.675804"><ele>515.0</ele><time>2026-04-25T16:56:47.47Z</time></trkpt><trkpt lat="39.2191261" lon="8.6757005"><ele>515.0</ele><time>2026-04-25T16:56:48.476Z</time></trkpt><trkpt lat="39.2191473" lon="8.6755911"><ele>515.0</ele><time>2026-04-25T16:56:49.475Z</time></trkpt><trkpt lat="39.2191822" lon="8.6754863"><ele>515.0</ele><time>2026-04-25T16:56:50.467Z</time></trkpt><trkpt lat="39.219231" lon="8.6753854"><ele>515.0</ele><time>2026-04-25T16:56:51.466Z</time></trkpt><trkpt lat="39.2192821" lon="8.6752819"><ele>515.0</ele><time>2026-04-25T16:56:52.475Z</time></trkpt><trkpt lat="39.2193413" lon="8.6751767"><ele>515.0</ele><time>2026-04-25T16:56:53.464Z</time></trkpt><trkpt lat="39.2194005" lon="8.6750695"><ele>515.0</ele><time>2026-04-25T16:56:54.46Z</time></trkpt><trkpt lat="39.2194651" lon="8.6749654"><ele>515.0</ele><time>2026-04-25T16:56:55.461Z</time></trkpt><trkpt lat="39.2195354" lon="8.6748652"><ele>515.0</ele><time>2026-04-25T16:56:56.456Z</time></trkpt><trkpt lat="39.2196138" lon="8.6747761"><ele>515.0</ele><time>2026-04-25T16:56:57.466Z</time></trkpt><trkpt lat="39.219698" lon="8.6746998"><ele>515.0</ele><time>2026-04-25T16:56:58.471Z</time></trkpt><trkpt lat="39.219774" lon="8.6746145"><ele>515.0</ele><time>2026-04-25T16:56:59.467Z</time></trkpt><trkpt lat="39.2198328" lon="8.6745346"><ele>515.0</ele><time>2026-04-25T16:57:00.467Z</time></trkpt><trkpt lat="39.2198987" lon="8.6744659"><ele>515.0</ele><time>2026-04-25T16:57:01.467Z</time></trkpt><trkpt lat="39.2199718" lon="8.6743987"><ele>515.0</ele><time>2026-04-25T16:57:02.473Z</time></trkpt><trkpt lat="39.2200514" lon="8.6743495"><ele>515.0</ele><time>2026-04-25T16:57:03.475Z</time></trkpt><trkpt lat="39.2201206" lon="8.6742997"><ele>516.2</ele><time>2026-04-25T16:57:04.469Z</time></trkpt><trkpt lat="39.2201977" lon="8.6741755"><ele>517.4</ele><time>2026-04-25T16:57:06.469Z</time></trkpt><trkpt lat="39.2202358" lon="8.6741035"><ele>518.6</ele><time>2026-04-25T16:57:07.468Z</time></trkpt><trkpt lat="39.2202867" lon="8.674018"><ele>519.8</ele><time>2026-04-25T16:57:08.471Z</time></trkpt><trkpt lat="39.2203444" lon="8.6739316"><ele>521.0</ele><time>2026-04-25T16:57:09.471Z</time></trkpt><trkpt lat="39.2204169" lon="8.6738463"><ele>521.0</ele><time>2026-04-25T16:57:10.48Z</time></trkpt><trkpt lat="39.2204966" lon="8.6737579"><ele>521.0</ele><time>2026-04-25T16:57:11.461Z</time></trkpt><trkpt lat="39.2205763" lon="8.6736713"><ele>521.0</ele><time>2026-04-25T16:57:12.464Z</time></trkpt><trkpt lat="39.2206441" lon="8.6735802"><ele>521.0</ele><time>2026-04-25T16:57:13.469Z</time></trkpt><trkpt lat="39.2207049" lon="8.6734984"><ele>521.0</ele><time>2026-04-25T16:57:14.481Z</time></trkpt><trkpt lat="39.2207511" lon="8.673414"><ele>521.8571428571429</ele><time>2026-04-25T16:57:15.463Z</time></trkpt><trkpt lat="39.220785" lon="8.6733359"><ele>522.7142857142858</ele><time>2026-04-25T16:57:16.466Z</time></trkpt><trkpt lat="39.2207958" lon="8.6732553"><ele>523.5714285714287</ele><time>2026-04-25T16:57:17.462Z</time></trkpt><trkpt lat="39.2207739" lon="8.6731611"><ele>524.4285714285714</ele><time>2026-04-25T16:57:18.457Z</time></trkpt><trkpt lat="39.2207361" lon="8.6730682"><ele>525.2857142857143</ele><time>2026-04-25T16:57:19.454Z</time></trkpt><trkpt lat="39.2206954" lon="8.6729882"><ele>526.1428571428572</ele><time>2026-04-25T16:57:20.459Z</time></trkpt><trkpt lat="39.2206598" lon="8.6729146"><ele>527.0</ele><time>2026-04-25T16:57:21.463Z</time></trkpt><trkpt lat="39.2206408" lon="8.6728369"><ele>526.4</ele><time>2026-04-25T16:57:22.475Z</time></trkpt><trkpt lat="39.2206755" lon="8.672682"><ele>525.8000000000001</ele><time>2026-04-25T16:57:24.466Z</time></trkpt><trkpt lat="39.2207052" lon="8.6725911"><ele>525.2</ele><time>2026-04-25T16:57:25.468Z</time></trkpt><trkpt lat="39.220741" lon="8.6724898"><ele>524.6</ele><time>2026-04-25T16:57:26.464Z</time></trkpt><trkpt lat="39.220775" lon="8.6723812"><ele>524.0</ele><time>2026-04-25T16:57:27.468Z</time></trkpt><trkpt lat="39.2208054" lon="8.6722752"><ele>524.0</ele><time>2026-04-25T16:57:28.466Z</time></trkpt><trkpt lat="39.2208348" lon="8.6721691"><ele>524.0</ele><time>2026-04-25T16:57:29.481Z</time></trkpt><trkpt lat="39.2208635" lon="8.6720823"><ele>524.0</ele><time>2026-04-25T16:57:30.475Z</time></trkpt><trkpt lat="39.2208808" lon="8.6720001"><ele>524.0</ele><time>2026-04-25T16:57:31.478Z</time></trkpt><trkpt lat="39.2208722" lon="8.6719044"><ele>524.0</ele><time>2026-04-25T16:57:32.463Z</time></trkpt><trkpt lat="39.2208345" lon="8.6717784"><ele>524.0</ele><time>2026-04-25T16:57:33.458Z</time></trkpt><trkpt lat="39.2208006" lon="8.6716608"><ele>524.0</ele><time>2026-04-25T16:57:34.459Z</time></trkpt><trkpt lat="39.2207735" lon="8.6715444"><ele>524.0</ele><time>2026-04-25T16:57:35.465Z</time></trkpt><trkpt lat="39.2207605" lon="8.6714336"><ele>524.0</ele><time>2026-04-25T16:57:36.474Z</time></trkpt><trkpt lat="39.220762" lon="8.6713275"><ele>524.0</ele><time>2026-04-25T16:57:37.476Z</time></trkpt><trkpt lat="39.2207773" lon="8.6712329"><ele>524.0</ele><time>2026-04-25T16:57:38.469Z</time></trkpt><trkpt lat="39.2208112" lon="8.6711391"><ele>524.0</ele><time>2026-04-25T16:57:39.461Z</time></trkpt><trkpt lat="39.2208588" lon="8.6710492"><ele>525.6</ele><time>2026-04-25T16:57:40.46Z</time></trkpt><trkpt lat="39.220898" lon="8.6709591"><ele>527.2</ele><time>2026-04-25T16:57:41.463Z</time></trkpt><trkpt lat="39.2209532" lon="8.6708685"><ele>528.8000000000001</ele><time>2026-04-25T16:57:42.462Z</time></trkpt><trkpt lat="39.2210102" lon="8.6707666"><ele>530.4</ele><time>2026-04-25T16:57:43.463Z</time></trkpt><trkpt lat="39.2210591" lon="8.6706546"><ele>532.0</ele><time>2026-04-25T16:57:44.458Z</time></trkpt><trkpt lat="39.2211094" lon="8.670539"><ele>532.0</ele><time>2026-04-25T16:57:45.463Z</time></trkpt><trkpt lat="39.2211539" lon="8.6704219"><ele>532.0</ele><time>2026-04-25T16:57:46.469Z</time></trkpt><trkpt lat="39.2211919" lon="8.6703133"><ele>532.0</ele><time>2026-04-25T16:57:47.466Z</time></trkpt><trkpt lat="39.2212107" lon="8.670209"><ele>532.0</ele><time>2026-04-25T16:57:48.47Z</time></trkpt><trkpt lat="39.2212167" lon="8.6701199"><ele>532.0</ele><time>2026-04-25T16:57:49.476Z</time></trkpt><trkpt lat="39.2212127" lon="8.6700069"><ele>532.0</ele><time>2026-04-25T16:57:50.455Z</time></trkpt><trkpt lat="39.2212084" lon="8.6698898"><ele>533.3333333333334</ele><time>2026-04-25T16:57:51.472Z</time></trkpt><trkpt lat="39.2212029" lon="8.66979"><ele>534.6666666666667</ele><time>2026-04-25T16:57:52.472Z</time></trkpt><trkpt lat="39.221195" lon="8.6696993"><ele>536.0</ele><time>2026-04-25T16:57:53.465Z</time></trkpt><trkpt lat="39.2211802" lon="8.6695912"><ele>537.3333333333334</ele><time>2026-04-25T16:57:54.464Z</time></trkpt><trkpt lat="39.221179" lon="8.6694668"><ele>538.6666666666666</ele><time>2026-04-25T16:57:55.47Z</time></trkpt><trkpt lat="39.221193" lon="8.6693598"><ele>540.0</ele><time>2026-04-25T16:57:56.473Z</time></trkpt><trkpt lat="39.2212238" lon="8.6692587"><ele>540.0</ele><time>2026-04-25T16:57:57.469Z</time></trkpt><trkpt lat="39.2212405" lon="8.6691797"><ele>540.0</ele><time>2026-04-25T16:57:58.46Z</time></trkpt><trkpt lat="39.2212385" lon="8.6690968"><ele>540.0</ele><time>2026-04-25T16:57:59.465Z</time></trkpt><trkpt lat="39.2212122" lon="8.668997"><ele>540.0</ele><time>2026-04-25T16:58:00.461Z</time></trkpt><trkpt lat="39.2211642" lon="8.6688852"><ele>540.0</ele><time>2026-04-25T16:58:01.463Z</time></trkpt><trkpt lat="39.2211125" lon="8.6687827"><ele>540.0</ele><time>2026-04-25T16:58:02.461Z</time></trkpt><trkpt lat="39.2210645" lon="8.6686752"><ele>538.8</ele><time>2026-04-25T16:58:03.464Z</time></trkpt><trkpt lat="39.2210191" lon="8.6685582"><ele>537.6</ele><time>2026-04-25T16:58:04.469Z</time></trkpt><trkpt lat="39.2209835" lon="8.6684354"><ele>536.4</ele><time>2026-04-25T16:58:05.465Z</time></trkpt><trkpt lat="39.2209528" lon="8.6683217"><ele>535.2</ele><time>2026-04-25T16:58:06.466Z</time></trkpt><trkpt lat="39.2209194" lon="8.6682198"><ele>534.0</ele><time>2026-04-25T16:58:07.465Z</time></trkpt><trkpt lat="39.2208906" lon="8.6681167"><ele>534.0</ele><time>2026-04-25T16:58:08.472Z</time></trkpt><trkpt lat="39.2208435" lon="8.6680163"><ele>534.0</ele><time>2026-04-25T16:58:09.467Z</time></trkpt><trkpt lat="39.2207871" lon="8.6679178"><ele>534.0</ele><time>2026-04-25T16:58:10.466Z</time></trkpt><trkpt lat="39.2207342" lon="8.6678318"><ele>534.0</ele><time>2026-04-25T16:58:11.465Z</time></trkpt><trkpt lat="39.2206783" lon="8.6677674"><ele>534.0</ele><time>2026-04-25T16:58:12.472Z</time></trkpt><trkpt lat="39.2206219" lon="8.6676685"><ele>534.0</ele><time>2026-04-25T16:58:14.477Z</time></trkpt><trkpt lat="39.2206354" lon="8.667589"><ele>534.0</ele><time>2026-04-25T16:58:17.461Z</time></trkpt><trkpt lat="39.2207073" lon="8.667523"><ele>534.0</ele><time>2026-04-25T16:58:29.465Z</time></trkpt><trkpt lat="39.2207673" lon="8.6674901"><ele>534.0</ele><time>2026-04-25T16:58:30.466Z</time></trkpt><trkpt lat="39.2208882" lon="8.6674402"><ele>534.0</ele><time>2026-04-25T16:58:32.478Z</time></trkpt><trkpt lat="39.2209578" lon="8.6674355"><ele>534.0</ele><time>2026-04-25T16:58:33.468Z</time></trkpt><trkpt lat="39.2210339" lon="8.6674433"><ele>534.0</ele><time>2026-04-25T16:58:34.46Z</time></trkpt><trkpt lat="39.2211098" lon="8.6674371"><ele>534.0</ele><time>2026-04-25T16:58:35.456Z</time></trkpt><trkpt lat="39.2211775" lon="8.6674121"><ele>534.0</ele><time>2026-04-25T16:58:36.472Z</time></trkpt><trkpt lat="39.2212359" lon="8.6673642"><ele>534.0</ele><time>2026-04-25T16:58:37.452Z</time></trkpt><trkpt lat="39.2212928" lon="8.6672855"><ele>534.0</ele><time>2026-04-25T16:58:38.474Z</time></trkpt><trkpt lat="39.2213484" lon="8.6671981"><ele>534.0</ele><time>2026-04-25T16:58:39.465Z</time></trkpt><trkpt lat="39.2214137" lon="8.667131"><ele>534.0</ele><time>2026-04-25T16:58:40.473Z</time></trkpt><trkpt lat="39.2214888" lon="8.6670924"><ele>533.3333333333334</ele><time>2026-04-25T16:58:41.454Z</time></trkpt><trkpt lat="39.2215653" lon="8.6670881"><ele>532.6666666666666</ele><time>2026-04-25T16:58:42.463Z</time></trkpt><trkpt lat="39.2216352" lon="8.667132"><ele>532.0</ele><time>2026-04-25T16:58:43.459Z</time></trkpt><trkpt lat="39.2216903" lon="8.6672095"><ele>531.3333333333333</ele><time>2026-04-25T16:58:44.47Z</time></trkpt><trkpt lat="39.2217452" lon="8.6672967"><ele>530.6666666666666</ele><time>2026-04-25T16:58:45.457Z</time></trkpt><trkpt lat="39.2218028" lon="8.6673879"><ele>530.0</ele><time>2026-04-25T16:58:46.461Z</time></trkpt><trkpt lat="39.2218705" lon="8.6674526"><ele>491.0</ele><time>2026-04-25T16:58:47.463Z</time></trkpt><trkpt lat="39.2275494" lon="8.6538402"><ele>490.5</ele><time>2026-04-25T17:02:46.47Z</time></trkpt><trkpt lat="39.2275155" lon="8.653585"><ele>490.0</ele><time>2026-04-25T17:02:48.467Z</time></trkpt><trkpt lat="39.227511" lon="8.6534571"><ele>489.5</ele><time>2026-04-25T17:02:49.464Z</time></trkpt><trkpt lat="39.2275078" lon="8.6533428"><ele>489.0</ele><time>2026-04-25T17:02:50.47Z</time></trkpt><trkpt lat="39.2275161" lon="8.6532285"><ele>489.0</ele><time>2026-04-25T17:02:51.461Z</time></trkpt><trkpt lat="39.2275363" lon="8.6531375"><ele>489.0</ele><time>2026-04-25T17:02:52.469Z</time></trkpt><trkpt lat="39.2275599" lon="8.6529945"><ele>489.0</ele><time>2026-04-25T17:02:54.476Z</time></trkpt><trkpt lat="39.2275858" lon="8.6528673"><ele>489.0</ele><time>2026-04-25T17:02:56.477Z</time></trkpt><trkpt lat="39.2276161" lon="8.6527937"><ele>489.0</ele><time>2026-04-25T17:02:57.472Z</time></trkpt><trkpt lat="39.2276654" lon="8.6527063"><ele>489.0</ele><time>2026-04-25T17:02:58.465Z</time></trkpt><trkpt lat="39.2277204" lon="8.652624"><ele>489.4</ele><time>2026-04-25T17:02:59.469Z</time></trkpt><trkpt lat="39.2277905" lon="8.6525365"><ele>489.79999999999995</ele><time>2026-04-25T17:03:00.469Z</time></trkpt><trkpt lat="39.2278614" lon="8.6524441"><ele>490.20000000000005</ele><time>2026-04-25T17:03:01.47Z</time></trkpt><trkpt lat="39.2279256" lon="8.6523586"><ele>490.6</ele><time>2026-04-25T17:03:02.473Z</time></trkpt><trkpt lat="39.2279851" lon="8.6522701"><ele>491.0</ele><time>2026-04-25T17:03:03.461Z</time></trkpt><trkpt lat="39.2280382" lon="8.6521805"><ele>491.0</ele><time>2026-04-25T17:03:04.467Z</time></trkpt><trkpt lat="39.2280796" lon="8.6520944"><ele>491.0</ele><time>2026-04-25T17:03:05.458Z</time></trkpt><trkpt lat="39.2281092" lon="8.6519922"><ele>491.0</ele><time>2026-04-25T17:03:06.463Z</time></trkpt><trkpt lat="39.2281434" lon="8.6518943"><ele>491.0</ele><time>2026-04-25T17:03:07.463Z</time></trkpt><trkpt lat="39.2282287" lon="8.6517012"><ele>491.0</ele><time>2026-04-25T17:03:09.484Z</time></trkpt><trkpt lat="39.2282634" lon="8.6516081"><ele>491.66666666666663</ele><time>2026-04-25T17:03:10.461Z</time></trkpt><trkpt lat="39.2283002" lon="8.6515184"><ele>492.3333333333333</ele><time>2026-04-25T17:03:11.461Z</time></trkpt><trkpt lat="39.2283365" lon="8.651433"><ele>493.0</ele><time>2026-04-25T17:03:12.463Z</time></trkpt><trkpt lat="39.2283692" lon="8.6513539"><ele>493.66666666666663</ele><time>2026-04-25T17:03:13.479Z</time></trkpt><trkpt lat="39.2283795" lon="8.6512612"><ele>494.3333333333333</ele><time>2026-04-25T17:03:14.459Z</time></trkpt><trkpt lat="39.2283792" lon="8.6511419"><ele>495.0</ele><time>2026-04-25T17:03:15.463Z</time></trkpt><trkpt lat="39.2283673" lon="8.6510042"><ele>496.0</ele><time>2026-04-25T17:03:16.459Z</time></trkpt><trkpt lat="39.2283463" lon="8.6508685"><ele>497.0</ele><time>2026-04-25T17:03:17.466Z</time></trkpt><trkpt lat="39.22832" lon="8.650743"><ele>498.0</ele><time>2026-04-25T17:03:18.466Z</time></trkpt><trkpt lat="39.2282914" lon="8.6506197"><ele>499.0</ele><time>2026-04-25T17:03:19.468Z</time></trkpt><trkpt lat="39.2282593" lon="8.650515"><ele>500.0</ele><time>2026-04-25T17:03:20.466Z</time></trkpt><trkpt lat="39.2282154" lon="8.6504267"><ele>500.0</ele><time>2026-04-25T17:03:21.465Z</time></trkpt><trkpt lat="39.2281706" lon="8.6503459"><ele>500.0</ele><time>2026-04-25T17:03:22.471Z</time></trkpt><trkpt lat="39.2281281" lon="8.6502285"><ele>500.0</ele><time>2026-04-25T17:03:24.472Z</time></trkpt><trkpt lat="39.2280726" lon="8.6501747"><ele>500.0</ele><time>2026-04-25T17:03:28.459Z</time></trkpt><trkpt lat="39.2279343" lon="8.6501089"><ele>500.0</ele><time>2026-04-25T17:03:33.475Z</time></trkpt><trkpt lat="39.2278775" lon="8.6500721"><ele>500.66666666666663</ele><time>2026-04-25T17:03:34.474Z</time></trkpt><trkpt lat="39.2278048" lon="8.6500227"><ele>501.3333333333333</ele><time>2026-04-25T17:03:35.471Z</time></trkpt><trkpt lat="39.2277503" lon="8.6499786"><ele>502.0</ele><time>2026-04-25T17:03:36.468Z</time></trkpt><trkpt lat="39.2277116" lon="8.6499005"><ele>502.66666666666663</ele><time>2026-04-25T17:03:37.474Z</time></trkpt><trkpt lat="39.2276773" lon="8.6497955"><ele>503.3333333333333</ele><time>2026-04-25T17:03:38.46Z</time></trkpt><trkpt lat="39.2276388" lon="8.6497009"><ele>504.0</ele><time>2026-04-25T17:03:39.468Z</time></trkpt><trkpt lat="39.2276004" lon="8.6496031"><ele>504.0</ele><time>2026-04-25T17:03:40.48Z</time></trkpt><trkpt lat="39.2275509" lon="8.6495231"><ele>504.0</ele><time>2026-04-25T17:03:41.474Z</time></trkpt><trkpt lat="39.2274939" lon="8.6494627"><ele>504.0</ele><time>2026-04-25T17:03:42.48Z</time></trkpt><trkpt lat="39.2274274" lon="8.6494213"><ele>504.0</ele><time>2026-04-25T17:03:43.471Z</time></trkpt><trkpt lat="39.227355" lon="8.6493858"><ele>504.0</ele><time>2026-04-25T17:03:44.474Z</time></trkpt><trkpt lat="39.2272863" lon="8.6493467"><ele>504.0</ele><time>2026-04-25T17:03:45.461Z</time></trkpt><trkpt lat="39.2272266" lon="8.6493118"><ele>504.0</ele><time>2026-04-25T17:03:46.467Z</time></trkpt><trkpt lat="39.22717" lon="8.6492593"><ele>503.6</ele><time>2026-04-25T17:03:47.473Z</time></trkpt><trkpt lat="39.227115" lon="8.6491972"><ele>503.2</ele><time>2026-04-25T17:03:48.471Z</time></trkpt><trkpt lat="39.2269836" lon="8.6490801"><ele>502.80000000000007</ele><time>2026-04-25T17:03:50.462Z</time></trkpt><trkpt lat="39.2269266" lon="8.6490283"><ele>502.40000000000003</ele><time>2026-04-25T17:03:51.471Z</time></trkpt><trkpt lat="39.2268456" lon="8.6489602"><ele>502.0</ele><time>2026-04-25T17:03:53.464Z</time></trkpt><trkpt lat="39.2267573" lon="8.6488483"><ele>502.0</ele><time>2026-04-25T17:03:55.462Z</time></trkpt><trkpt lat="39.2266485" lon="8.6487926"><ele>502.00000000000006</ele><time>2026-04-25T17:03:57.462Z</time></trkpt><trkpt lat="39.2265238" lon="8.6488145"><ele>502.00000000000006</ele><time>2026-04-25T17:03:59.458Z</time></trkpt><trkpt lat="39.2264404" lon="8.648868"><ele>502.0</ele><time>2026-04-25T17:04:01.458Z</time></trkpt><trkpt lat="39.2263296" lon="8.6488867"><ele>502.0</ele><time>2026-04-25T17:04:03.472Z</time></trkpt><trkpt lat="39.226263" lon="8.6488873"><ele>501.20000000000005</ele><time>2026-04-25T17:04:04.465Z</time></trkpt><trkpt lat="39.2261903" lon="8.6488833"><ele>500.40000000000003</ele><time>2026-04-25T17:04:05.461Z</time></trkpt><trkpt lat="39.2260872" lon="8.6488628"><ele>499.59999999999997</ele><time>2026-04-25T17:04:07.459Z</time></trkpt><trkpt lat="39.2259693" lon="8.6488771"><ele>498.79999999999995</ele><time>2026-04-25T17:04:09.457Z</time></trkpt><trkpt lat="39.2258237" lon="8.6488278"><ele>498.0</ele><time>2026-04-25T17:04:11.46Z</time></trkpt><trkpt lat="39.2257529" lon="8.6487947"><ele>498.0</ele><time>2026-04-25T17:04:12.458Z</time></trkpt><trkpt lat="39.225673" lon="8.6487656"><ele>498.0</ele><time>2026-04-25T17:04:13.453Z</time></trkpt><trkpt lat="39.225589" lon="8.6487427"><ele>498.0</ele><time>2026-04-25T17:04:14.464Z</time></trkpt><trkpt lat="39.2255155" lon="8.6487186"><ele>498.0</ele><time>2026-04-25T17:04:15.458Z</time></trkpt><trkpt lat="39.2254365" lon="8.6486964"><ele>498.0</ele><time>2026-04-25T17:04:16.461Z</time></trkpt><trkpt lat="39.2253638" lon="8.6486741"><ele>498.0</ele><time>2026-04-25T17:04:17.466Z</time></trkpt><trkpt lat="39.2253003" lon="8.6486546"><ele>498.5</ele><time>2026-04-25T17:04:18.473Z</time></trkpt><trkpt lat="39.2252205" lon="8.6486609"><ele>499.0</ele><time>2026-04-25T17:04:19.466Z</time></trkpt><trkpt lat="39.2251418" lon="8.6486761"><ele>499.5</ele><time>2026-04-25T17:04:20.465Z</time></trkpt><trkpt lat="39.2250561" lon="8.6486868"><ele>500.0</ele><time>2026-04-25T17:04:21.467Z</time></trkpt><trkpt lat="39.2249824" lon="8.6486898"><ele>500.5</ele><time>2026-04-25T17:04:22.461Z</time></trkpt><trkpt lat="39.2249019" lon="8.6486723"><ele>501.0</ele><time>2026-04-25T17:04:23.458Z</time></trkpt><trkpt lat="39.224817" lon="8.6486405"><ele>496.20000000000005</ele><time>2026-04-25T17:04:24.473Z</time></trkpt><trkpt lat="39.2247365" lon="8.6486241"><ele>491.40000000000003</ele><time>2026-04-25T17:04:25.463Z</time></trkpt><trkpt lat="39.2246471" lon="8.6486119"><ele>486.6</ele><time>2026-04-25T17:04:26.454Z</time></trkpt><trkpt lat="39.2245536" lon="8.6485809"><ele>481.8</ele><time>2026-04-25T17:04:27.459Z</time></trkpt><trkpt lat="39.2244719" lon="8.6485252"><ele>477.0</ele><time>2026-04-25T17:04:28.466Z</time></trkpt><trkpt lat="39.2243913" lon="8.648452"><ele>477.0</ele><time>2026-04-25T17:04:29.467Z</time></trkpt><trkpt lat="39.2243244" lon="8.6483958"><ele>477.00000000000006</ele><time>2026-04-25T17:04:30.459Z</time></trkpt><trkpt lat="39.2241592" lon="8.6483071"><ele>477.00000000000006</ele><time>2026-04-25T17:04:32.461Z</time></trkpt><trkpt lat="39.2240853" lon="8.6482488"><ele>477.0</ele><time>2026-04-25T17:04:33.467Z</time></trkpt><trkpt lat="39.2239984" lon="8.6481862"><ele>477.0</ele><time>2026-04-25T17:04:34.457Z</time></trkpt><trkpt lat="39.2239291" lon="8.6481149"><ele>475.8333333333333</ele><time>2026-04-25T17:04:35.468Z</time></trkpt><trkpt lat="39.2238739" lon="8.648036"><ele>474.66666666666663</ele><time>2026-04-25T17:04:36.456Z</time></trkpt><trkpt lat="39.2238237" lon="8.6479725"><ele>473.5</ele><time>2026-04-25T17:04:37.473Z</time></trkpt><trkpt lat="39.2237745" lon="8.6479161"><ele>472.3333333333333</ele><time>2026-04-25T17:04:38.462Z</time></trkpt><trkpt lat="39.2237255" lon="8.6478624"><ele>471.16666666666663</ele><time>2026-04-25T17:04:39.466Z</time></trkpt><trkpt lat="39.2236265" lon="8.6477939"><ele>470.0</ele><time>2026-04-25T17:04:41.457Z</time></trkpt><trkpt lat="39.2235139" lon="8.6477607"><ele>467.66666666666663</ele><time>2026-04-25T17:04:43.458Z</time></trkpt><trkpt lat="39.2233983" lon="8.6477353"><ele>465.3333333333333</ele><time>2026-04-25T17:04:45.464Z</time></trkpt><trkpt lat="39.2233363" lon="8.6477077"><ele>463.0</ele><time>2026-04-25T17:04:46.458Z</time></trkpt><trkpt lat="39.2232724" lon="8.6476711"><ele>460.66666666666663</ele><time>2026-04-25T17:04:47.457Z</time></trkpt><trkpt lat="39.2232088" lon="8.6476336"><ele>458.3333333333333</ele><time>2026-04-25T17:04:48.452Z</time></trkpt><trkpt lat="39.223101" lon="8.647571"><ele>456.0</ele><time>2026-04-25T17:04:50.463Z</time></trkpt><trkpt lat="39.2230084" lon="8.6474943"><ele>451.25</ele><time>2026-04-25T17:04:52.463Z</time></trkpt><trkpt lat="39.222852" lon="8.6473124"><ele>446.5</ele><time>2026-04-25T17:04:56.473Z</time></trkpt><trkpt lat="39.2227662" lon="8.6472919"><ele>441.75</ele><time>2026-04-25T17:04:58.46Z</time></trkpt><trkpt lat="39.2226678" lon="8.6472766"><ele>437.0</ele><time>2026-04-25T17:05:00.464Z</time></trkpt><trkpt lat="39.2226151" lon="8.6472258"><ele>437.0</ele><time>2026-04-25T17:05:01.468Z</time></trkpt><trkpt lat="39.2225553" lon="8.6471693"><ele>437.0</ele><time>2026-04-25T17:05:02.464Z</time></trkpt><trkpt lat="39.2224913" lon="8.6471223"><ele>437.0</ele><time>2026-04-25T17:05:03.464Z</time></trkpt><trkpt lat="39.22243" lon="8.647075"><ele>437.0</ele><time>2026-04-25T17:05:04.467Z</time></trkpt><trkpt lat="39.2223699" lon="8.6470262"><ele>437.0</ele><time>2026-04-25T17:05:05.465Z</time></trkpt><trkpt lat="39.2223093" lon="8.6469715"><ele>437.0</ele><time>2026-04-25T17:05:06.466Z</time></trkpt><trkpt lat="39.2222477" lon="8.6469031"><ele>437.0</ele><time>2026-04-25T17:05:07.465Z</time></trkpt><trkpt lat="39.2221876" lon="8.6468443"><ele>435.0</ele><time>2026-04-25T17:05:08.466Z</time></trkpt><trkpt lat="39.2221229" lon="8.6468045"><ele>433.00000000000006</ele><time>2026-04-25T17:05:09.464Z</time></trkpt><trkpt lat="39.2220671" lon="8.6467638"><ele>431.00000000000006</ele><time>2026-04-25T17:05:10.464Z</time></trkpt><trkpt lat="39.2220029" lon="8.6466461"><ele>429.0</ele><time>2026-04-25T17:05:12.457Z</time></trkpt><trkpt lat="39.2220516" lon="8.6465416"><ele>427.0</ele><time>2026-04-25T17:05:14.464Z</time></trkpt><trkpt lat="39.2222155" lon="8.6464514"><ele>429.6</ele><time>2026-04-25T17:05:17.462Z</time></trkpt><trkpt lat="39.2223259" lon="8.6464494"><ele>432.20000000000005</ele><time>2026-04-25T17:05:19.468Z</time></trkpt><trkpt lat="39.2224331" lon="8.6464736"><ele>434.8</ele><time>2026-04-25T17:05:21.471Z</time></trkpt><trkpt lat="39.2224998" lon="8.6464911"><ele>437.4</ele><time>2026-04-25T17:05:22.468Z</time></trkpt><trkpt lat="39.222579" lon="8.646521"><ele>440.0</ele><time>2026-04-25T17:05:23.467Z</time></trkpt><trkpt lat="39.2226676" lon="8.6465634"><ele>439.99999999999994</ele><time>2026-04-25T17:05:24.467Z</time></trkpt><trkpt lat="39.2227473" lon="8.6466095"><ele>440.0</ele><time>2026-04-25T17:05:25.475Z</time></trkpt><trkpt lat="39.2228256" lon="8.6466452"><ele>440.0</ele><time>2026-04-25T17:05:26.462Z</time></trkpt><trkpt lat="39.2229011" lon="8.6466924"><ele>440.0</ele><time>2026-04-25T17:05:27.461Z</time></trkpt><trkpt lat="39.2229822" lon="8.6467478"><ele>439.99999999999994</ele><time>2026-04-25T17:05:28.453Z</time></trkpt><trkpt lat="39.2230505" lon="8.6468017"><ele>440.0</ele><time>2026-04-25T17:05:29.468Z</time></trkpt><trkpt lat="39.2231041" lon="8.6468762"><ele>440.4</ele><time>2026-04-25T17:05:30.462Z</time></trkpt><trkpt lat="39.2231963" lon="8.6469312"><ele>440.8</ele><time>2026-04-25T17:05:32.463Z</time></trkpt><trkpt lat="39.2232741" lon="8.6469155"><ele>441.20000000000005</ele><time>2026-04-25T17:05:34.468Z</time></trkpt><trkpt lat="39.2233203" lon="8.6468174"><ele>441.6</ele><time>2026-04-25T17:05:36.468Z</time></trkpt><trkpt lat="39.223223" lon="8.6466666"><ele>442.0</ele><time>2026-04-25T17:05:40.475Z</time></trkpt><trkpt lat="39.2231633" lon="8.6465682"><ele>442.0</ele><time>2026-04-25T17:05:42.457Z</time></trkpt><trkpt lat="39.2231493" lon="8.6464283"><ele>442.0</ele><time>2026-04-25T17:05:44.459Z</time></trkpt><trkpt lat="39.2230995" lon="8.6462945"><ele>442.0</ele><time>2026-04-25T17:05:46.467Z</time></trkpt><trkpt lat="39.2230281" lon="8.6461697"><ele>442.0</ele><time>2026-04-25T17:05:48.469Z</time></trkpt><trkpt lat="39.2229588" lon="8.6460358"><ele>439.33333333333337</ele><time>2026-04-25T17:05:50.466Z</time></trkpt><trkpt lat="39.222911" lon="8.645969"><ele>436.6666666666667</ele><time>2026-04-25T17:05:51.468Z</time></trkpt><trkpt lat="39.2228526" lon="8.64592"><ele>434.0</ele><time>2026-04-25T17:05:52.473Z</time></trkpt><trkpt lat="39.2227944" lon="8.6458737"><ele>431.33333333333337</ele><time>2026-04-25T17:05:53.466Z</time></trkpt><trkpt lat="39.2226936" lon="8.6458017"><ele>428.6666666666667</ele><time>2026-04-25T17:05:55.472Z</time></trkpt><trkpt lat="39.2226056" lon="8.6457452"><ele>426.0</ele><time>2026-04-25T17:05:57.462Z</time></trkpt><trkpt lat="39.2223756" lon="8.6456832"><ele>424.85714285714283</ele><time>2026-04-25T17:06:01.467Z</time></trkpt><trkpt lat="39.2223022" lon="8.6456628"><ele>423.7142857142857</ele><time>2026-04-25T17:06:02.459Z</time></trkpt><trkpt lat="39.2222313" lon="8.6456501"><ele>422.57142857142856</ele><time>2026-04-25T17:06:03.466Z</time></trkpt><trkpt lat="39.2221595" lon="8.6456396"><ele>421.42857142857144</ele><time>2026-04-25T17:06:04.464Z</time></trkpt><trkpt lat="39.2220947" lon="8.6456197"><ele>420.2857142857143</ele><time>2026-04-25T17:06:05.461Z</time></trkpt><trkpt lat="39.2220258" lon="8.6455897"><ele>419.1428571428571</ele><time>2026-04-25T17:06:06.474Z</time></trkpt><trkpt lat="39.2219415" lon="8.6455608"><ele>418.0</ele><time>2026-04-25T17:06:07.471Z</time></trkpt><trkpt lat="39.2218529" lon="8.6455463"><ele>418.00000000000006</ele><time>2026-04-25T17:06:08.455Z</time></trkpt><trkpt lat="39.2217644" lon="8.6455477"><ele>418.0</ele><time>2026-04-25T17:06:09.462Z</time></trkpt><trkpt lat="39.2216749" lon="8.645564"><ele>418.0</ele><time>2026-04-25T17:06:10.466Z</time></trkpt><trkpt lat="39.2215892" lon="8.6455823"><ele>418.0</ele><time>2026-04-25T17:06:11.467Z</time></trkpt><trkpt lat="39.2215003" lon="8.6455968"><ele>418.00000000000006</ele><time>2026-04-25T17:06:12.456Z</time></trkpt><trkpt lat="39.2214104" lon="8.6456138"><ele>418.0</ele><time>2026-04-25T17:06:13.461Z</time></trkpt><trkpt lat="39.2213026" lon="8.6456188"><ele>416.0</ele><time>2026-04-25T17:06:14.457Z</time></trkpt><trkpt lat="39.2211853" lon="8.6456258"><ele>414.0</ele><time>2026-04-25T17:06:15.464Z</time></trkpt><trkpt lat="39.2210651" lon="8.6456268"><ele>412.0</ele><time>2026-04-25T17:06:16.464Z</time></trkpt><trkpt lat="39.2209484" lon="8.6456269"><ele>410.0</ele><time>2026-04-25T17:06:17.457Z</time></trkpt><trkpt lat="39.2208491" lon="8.6456284"><ele>410.0</ele><time>2026-04-25T17:06:18.449Z</time></trkpt><trkpt lat="39.2206827" lon="8.6455537"><ele>410.0</ele><time>2026-04-25T17:06:21.468Z</time></trkpt><trkpt lat="39.2206265" lon="8.6454898"><ele>410.0</ele><time>2026-04-25T17:06:22.46Z</time></trkpt><trkpt lat="39.2205691" lon="8.6454188"><ele>410.0</ele><time>2026-04-25T17:06:23.477Z</time></trkpt><trkpt lat="39.220506" lon="8.6453552"><ele>410.0</ele><time>2026-04-25T17:06:24.461Z</time></trkpt><trkpt lat="39.2204449" lon="8.6452974"><ele>407.99999999999994</ele><time>2026-04-25T17:06:25.46Z</time></trkpt><trkpt lat="39.2203788" lon="8.6452528"><ele>406.0</ele><time>2026-04-25T17:06:26.46Z</time></trkpt><trkpt lat="39.2203119" lon="8.6452234"><ele>404.0</ele><time>2026-04-25T17:06:27.458Z</time></trkpt><trkpt lat="39.2202478" lon="8.6452257"><ele>402.0</ele><time>2026-04-25T17:06:28.475Z</time></trkpt><trkpt lat="39.2201798" lon="8.645255"><ele>399.99999999999994</ele><time>2026-04-25T17:06:29.468Z</time></trkpt><trkpt lat="39.2201034" lon="8.645342"><ele>398.0</ele><time>2026-04-25T17:06:30.457Z</time></trkpt><trkpt lat="39.2200333" lon="8.6454107"><ele>398.0</ele><time>2026-04-25T17:06:31.456Z</time></trkpt><trkpt lat="39.2199618" lon="8.6454644"><ele>398.0</ele><time>2026-04-25T17:06:32.468Z</time></trkpt><trkpt lat="39.2198904" lon="8.645512"><ele>398.0</ele><time>2026-04-25T17:06:33.453Z</time></trkpt><trkpt lat="39.2198247" lon="8.6455491"><ele>398.0</ele><time>2026-04-25T17:06:34.461Z</time></trkpt><trkpt lat="39.2197025" lon="8.6455964"><ele>398.0</ele><time>2026-04-25T17:06:36.47Z</time></trkpt><trkpt lat="39.2195951" lon="8.6456236"><ele>393.79999999999995</ele><time>2026-04-25T17:06:38.467Z</time></trkpt><trkpt lat="39.2194692" lon="8.6456478"><ele>389.6</ele><time>2026-04-25T17:06:40.468Z</time></trkpt><trkpt lat="39.2193189" lon="8.6455786"><ele>385.4</ele><time>2026-04-25T17:06:42.46Z</time></trkpt><trkpt lat="39.219262" lon="8.6455219"><ele>381.20000000000005</ele><time>2026-04-25T17:06:43.465Z</time></trkpt><trkpt lat="39.2192081" lon="8.6454492"><ele>377.0</ele><time>2026-04-25T17:06:44.459Z</time></trkpt><trkpt lat="39.2191643" lon="8.6453637"><ele>377.8</ele><time>2026-04-25T17:06:45.452Z</time></trkpt><trkpt lat="39.2191238" lon="8.6452848"><ele>378.6</ele><time>2026-04-25T17:06:46.462Z</time></trkpt><trkpt lat="39.2190595" lon="8.6451457"><ele>379.40000000000003</ele><time>2026-04-25T17:06:48.461Z</time></trkpt><trkpt lat="39.2190174" lon="8.6450814"><ele>380.20000000000005</ele><time>2026-04-25T17:06:49.468Z</time></trkpt><trkpt lat="39.218912" lon="8.6449997"><ele>381.0</ele><time>2026-04-25T17:06:51.463Z</time></trkpt><trkpt lat="39.2188525" lon="8.6449701"><ele>378.6</ele><time>2026-04-25T17:06:52.46Z</time></trkpt><trkpt lat="39.2187225" lon="8.6449502"><ele>376.20000000000005</ele><time>2026-04-25T17:06:54.463Z</time></trkpt><trkpt lat="39.2186534" lon="8.6449666"><ele>373.79999999999995</ele><time>2026-04-25T17:06:55.462Z</time></trkpt><trkpt lat="39.2185891" lon="8.6449873"><ele>371.4</ele><time>2026-04-25T17:06:56.466Z</time></trkpt><trkpt lat="39.218475" lon="8.6450554"><ele>369.0</ele><time>2026-04-25T17:06:58.465Z</time></trkpt><trkpt lat="39.2184205" lon="8.6451111"><ele>369.0</ele><time>2026-04-25T17:06:59.465Z</time></trkpt><trkpt lat="39.218326" lon="8.6452176"><ele>369.0</ele><time>2026-04-25T17:07:01.465Z</time></trkpt><trkpt lat="39.2181841" lon="8.6454616"><ele>369.0</ele><time>2026-04-25T17:07:05.462Z</time></trkpt><trkpt lat="39.2181384" lon="8.6455239"><ele>369.0</ele><time>2026-04-25T17:07:06.462Z</time></trkpt><trkpt lat="39.218093" lon="8.6455826"><ele>370.0</ele><time>2026-04-25T17:07:07.458Z</time></trkpt><trkpt lat="39.2179852" lon="8.6456601"><ele>371.0</ele><time>2026-04-25T17:07:09.456Z</time></trkpt><trkpt lat="39.2178549" lon="8.6456525"><ele>372.0</ele><time>2026-04-25T17:07:11.459Z</time></trkpt><trkpt lat="39.2177929" lon="8.6456169"><ele>373.0</ele><time>2026-04-25T17:07:12.465Z</time></trkpt><trkpt lat="39.2177367" lon="8.64557"><ele>374.0</ele><time>2026-04-25T17:07:13.461Z</time></trkpt><trkpt lat="39.2176875" lon="8.6455063"><ele>374.0</ele><time>2026-04-25T17:07:14.467Z</time></trkpt><trkpt lat="39.2176456" lon="8.6454295"><ele>374.0</ele><time>2026-04-25T17:07:15.451Z</time></trkpt><trkpt lat="39.2176201" lon="8.6453416"><ele>374.0</ele><time>2026-04-25T17:07:16.463Z</time></trkpt><trkpt lat="39.2176101" lon="8.6452508"><ele>374.0</ele><time>2026-04-25T17:07:17.454Z</time></trkpt><trkpt lat="39.2176007" lon="8.6451539"><ele>374.0</ele><time>2026-04-25T17:07:18.461Z</time></trkpt><trkpt lat="39.2175872" lon="8.6450614"><ele>374.0</ele><time>2026-04-25T17:07:19.452Z</time></trkpt><trkpt lat="39.2175673" lon="8.6449809"><ele>374.0</ele><time>2026-04-25T17:07:20.463Z</time></trkpt><trkpt lat="39.2175413" lon="8.6449018"><ele>369.75</ele><time>2026-04-25T17:07:21.462Z</time></trkpt><trkpt lat="39.2174667" lon="8.6447838"><ele>365.5</ele><time>2026-04-25T17:07:23.466Z</time></trkpt><trkpt lat="39.2172427" lon="8.6447478"><ele>361.25</ele><time>2026-04-25T17:07:27.466Z</time></trkpt><trkpt lat="39.2171804" lon="8.6447665"><ele>357.0</ele><time>2026-04-25T17:07:28.465Z</time></trkpt><trkpt lat="39.2171135" lon="8.6447853"><ele>356.6666666666667</ele><time>2026-04-25T17:07:29.458Z</time></trkpt><trkpt lat="39.2170371" lon="8.6448081"><ele>356.3333333333333</ele><time>2026-04-25T17:07:30.464Z</time></trkpt><trkpt lat="39.2169558" lon="8.6448422"><ele>356.0</ele><time>2026-04-25T17:07:31.456Z</time></trkpt><trkpt lat="39.2168702" lon="8.6448814"><ele>355.66666666666663</ele><time>2026-04-25T17:07:32.465Z</time></trkpt><trkpt lat="39.2167931" lon="8.6449143"><ele>355.3333333333333</ele><time>2026-04-25T17:07:33.457Z</time></trkpt><trkpt lat="39.2167154" lon="8.6449462"><ele>355.0</ele><time>2026-04-25T17:07:34.468Z</time></trkpt><trkpt lat="39.2166426" lon="8.6449866"><ele>355.0</ele><time>2026-04-25T17:07:35.462Z</time></trkpt><trkpt lat="39.216562" lon="8.6450396"><ele>355.0</ele><time>2026-04-25T17:07:36.458Z</time></trkpt><trkpt lat="39.2164922" lon="8.6450981"><ele>355.0</ele><time>2026-04-25T17:07:37.467Z</time></trkpt><trkpt lat="39.216421" lon="8.645141"><ele>355.0</ele><time>2026-04-25T17:07:38.457Z</time></trkpt><trkpt lat="39.2163518" lon="8.6451813"><ele>355.0</ele><time>2026-04-25T17:07:39.461Z</time></trkpt><trkpt lat="39.2162768" lon="8.6452079"><ele>355.0</ele><time>2026-04-25T17:07:40.463Z</time></trkpt><trkpt lat="39.2161815" lon="8.6452466"><ele>354.2</ele><time>2026-04-25T17:07:41.462Z</time></trkpt><trkpt lat="39.2160806" lon="8.6452644"><ele>353.4</ele><time>2026-04-25T17:07:42.47Z</time></trkpt><trkpt lat="39.215995" lon="8.6452619"><ele>352.6</ele><time>2026-04-25T17:07:43.453Z</time></trkpt><trkpt lat="39.2159083" lon="8.645257"><ele>351.8</ele><time>2026-04-25T17:07:44.456Z</time></trkpt><trkpt lat="39.215735" lon="8.6452321"><ele>351.0</ele><time>2026-04-25T17:07:46.453Z</time></trkpt><trkpt lat="39.2156446" lon="8.64523"><ele>350.6666666666667</ele><time>2026-04-25T17:07:47.457Z</time></trkpt><trkpt lat="39.2155621" lon="8.6452394"><ele>350.3333333333333</ele><time>2026-04-25T17:07:48.449Z</time></trkpt><trkpt lat="39.2154735" lon="8.6452449"><ele>350.0</ele><time>2026-04-25T17:07:49.452Z</time></trkpt><trkpt lat="39.2153803" lon="8.6452443"><ele>349.66666666666663</ele><time>2026-04-25T17:07:50.45Z</time></trkpt><trkpt lat="39.2152913" lon="8.6452397"><ele>349.3333333333333</ele><time>2026-04-25T17:07:51.451Z</time></trkpt><trkpt lat="39.2152041" lon="8.6452404"><ele>349.0</ele><time>2026-04-25T17:07:52.45Z</time></trkpt><trkpt lat="39.2151196" lon="8.6452395"><ele>349.0</ele><time>2026-04-25T17:07:53.45Z</time></trkpt><trkpt lat="39.2150261" lon="8.6452522"><ele>349.0</ele><time>2026-04-25T17:07:54.442Z</time></trkpt><trkpt lat="39.2149347" lon="8.645266"><ele>349.0</ele><time>2026-04-25T17:07:55.452Z</time></trkpt><trkpt lat="39.2148502" lon="8.6452744"><ele>349.0</ele><time>2026-04-25T17:07:56.453Z</time></trkpt><trkpt lat="39.2147626" lon="8.6452908"><ele>349.0</ele><time>2026-04-25T17:07:57.458Z</time></trkpt><trkpt lat="39.2146744" lon="8.645298"><ele>349.0</ele><time>2026-04-25T17:07:58.458Z</time></trkpt><trkpt lat="39.2145899" lon="8.6452881"><ele>347.99999999999994</ele><time>2026-04-25T17:07:59.459Z</time></trkpt><trkpt lat="39.2145156" lon="8.6452631"><ele>347.0</ele><time>2026-04-25T17:08:00.46Z</time></trkpt><trkpt lat="39.2144511" lon="8.6452274"><ele>346.0</ele><time>2026-04-25T17:08:01.45Z</time></trkpt><trkpt lat="39.2143974" lon="8.6451601"><ele>345.0</ele><time>2026-04-25T17:08:02.457Z</time></trkpt><trkpt lat="39.2143614" lon="8.6450751"><ele>344.0</ele><time>2026-04-25T17:08:03.448Z</time></trkpt><trkpt lat="39.2143554" lon="8.6449778"><ele>342.99999999999994</ele><time>2026-04-25T17:08:04.452Z</time></trkpt><trkpt lat="39.2143569" lon="8.6448865"><ele>342.0</ele><time>2026-04-25T17:08:05.453Z</time></trkpt><trkpt lat="39.2143302" lon="8.6447094"><ele>342.0</ele><time>2026-04-25T17:08:07.453Z</time></trkpt><trkpt lat="39.2142898" lon="8.6446454"><ele>342.0</ele><time>2026-04-25T17:08:08.454Z</time></trkpt><trkpt lat="39.2141642" lon="8.6446635"><ele>342.0</ele><time>2026-04-25T17:08:10.459Z</time></trkpt><trkpt lat="39.2140892" lon="8.6447283"><ele>342.0</ele><time>2026-04-25T17:08:11.456Z</time></trkpt><trkpt lat="39.2140178" lon="8.6447932"><ele>342.0</ele><time>2026-04-25T17:08:12.465Z</time></trkpt><trkpt lat="39.2139554" lon="8.6448389"><ele>342.0</ele><time>2026-04-25T17:08:13.463Z</time></trkpt><trkpt lat="39.2138879" lon="8.6448593"><ele>341.4285714285714</ele><time>2026-04-25T17:08:14.454Z</time></trkpt><trkpt lat="39.2138101" lon="8.6448603"><ele>340.85714285714283</ele><time>2026-04-25T17:08:15.463Z</time></trkpt><trkpt lat="39.2137186" lon="8.6448483"><ele>340.2857142857143</ele><time>2026-04-25T17:08:16.456Z</time></trkpt><trkpt lat="39.2136513" lon="8.6448478"><ele>339.71428571428567</ele><time>2026-04-25T17:08:17.456Z</time></trkpt><trkpt lat="39.2135896" lon="8.6448721"><ele>339.1428571428571</ele><time>2026-04-25T17:08:18.455Z</time></trkpt><trkpt lat="39.2135365" lon="8.6449323"><ele>338.57142857142856</ele><time>2026-04-25T17:08:19.46Z</time></trkpt><trkpt lat="39.2134873" lon="8.6449992"><ele>338.0</ele><time>2026-04-25T17:08:20.456Z</time></trkpt><trkpt lat="39.2134335" lon="8.6450759"><ele>338.0</ele><time>2026-04-25T17:08:21.462Z</time></trkpt><trkpt lat="39.213358" lon="8.6451227"><ele>338.0</ele><time>2026-04-25T17:08:22.456Z</time></trkpt><trkpt lat="39.213277" lon="8.6451688"><ele>338.0</ele><time>2026-04-25T17:08:23.47Z</time></trkpt><trkpt lat="39.213199" lon="8.6452149"><ele>338.0</ele><time>2026-04-25T17:08:24.457Z</time></trkpt><trkpt lat="39.2131244" lon="8.6452602"><ele>338.0</ele><time>2026-04-25T17:08:25.467Z</time></trkpt><trkpt lat="39.2130548" lon="8.6453154"><ele>338.0</ele><time>2026-04-25T17:08:26.456Z</time></trkpt><trkpt lat="39.2129168" lon="8.6454204"><ele>337.83333333333337</ele><time>2026-04-25T17:08:28.467Z</time></trkpt><trkpt lat="39.2128398" lon="8.6454366"><ele>337.6666666666667</ele><time>2026-04-25T17:08:29.458Z</time></trkpt><trkpt lat="39.2127649" lon="8.645448"><ele>337.5</ele><time>2026-04-25T17:08:30.457Z</time></trkpt><trkpt lat="39.2126856" lon="8.6454612"><ele>337.3333333333333</ele><time>2026-04-25T17:08:31.452Z</time></trkpt><trkpt lat="39.2126014" lon="8.6454753"><ele>337.16666666666663</ele><time>2026-04-25T17:08:32.464Z</time></trkpt><trkpt lat="39.2125166" lon="8.6454731"><ele>337.0</ele><time>2026-04-25T17:08:33.451Z</time></trkpt><trkpt lat="39.2124367" lon="8.6454504"><ele>337.0</ele><time>2026-04-25T17:08:34.448Z</time></trkpt><trkpt lat="39.2123746" lon="8.6454138"><ele>337.0</ele><time>2026-04-25T17:08:35.454Z</time></trkpt><trkpt lat="39.2122427" lon="8.6453357"><ele>337.0</ele><time>2026-04-25T17:08:37.456Z</time></trkpt><trkpt lat="39.2121488" lon="8.6453137"><ele>337.0</ele><time>2026-04-25T17:08:38.446Z</time></trkpt><trkpt lat="39.2120584" lon="8.6453032"><ele>337.0</ele><time>2026-04-25T17:08:39.452Z</time></trkpt><trkpt lat="39.2119664" lon="8.645301"><ele>337.0</ele><time>2026-04-25T17:08:40.452Z</time></trkpt><trkpt lat="39.2118754" lon="8.6453025"><ele>337.0</ele><time>2026-04-25T17:08:41.452Z</time></trkpt><trkpt lat="39.2117857" lon="8.6453113"><ele>337.0</ele><time>2026-04-25T17:08:42.449Z</time></trkpt><trkpt lat="39.2116927" lon="8.6453313"><ele>337.0</ele><time>2026-04-25T17:08:43.448Z</time></trkpt><trkpt lat="39.2115947" lon="8.6453505"><ele>337.0</ele><time>2026-04-25T17:08:44.456Z</time></trkpt><trkpt lat="39.2115021" lon="8.6453755"><ele>335.0</ele><time>2026-04-25T17:08:45.455Z</time></trkpt><trkpt lat="39.2114125" lon="8.6454047"><ele>333.0</ele><time>2026-04-25T17:08:46.447Z</time></trkpt><trkpt lat="39.2113226" lon="8.6454545"><ele>331.0</ele><time>2026-04-25T17:08:47.46Z</time></trkpt><trkpt lat="39.2111376" lon="8.6456162"><ele>329.0</ele><time>2026-04-25T17:08:49.459Z</time></trkpt><trkpt lat="39.2110474" lon="8.6457052"><ele>329.0</ele><time>2026-04-25T17:08:50.453Z</time></trkpt><trkpt lat="39.2109543" lon="8.6457777"><ele>329.0</ele><time>2026-04-25T17:08:51.458Z</time></trkpt><trkpt lat="39.2108685" lon="8.6458385"><ele>329.0</ele><time>2026-04-25T17:08:52.458Z</time></trkpt><trkpt lat="39.2107883" lon="8.6458926"><ele>329.0</ele><time>2026-04-25T17:08:53.455Z</time></trkpt><trkpt lat="39.2107058" lon="8.6459224"><ele>329.0</ele><time>2026-04-25T17:08:54.452Z</time></trkpt><trkpt lat="39.2106219" lon="8.6459227"><ele>329.33333333333337</ele><time>2026-04-25T17:08:55.464Z</time></trkpt><trkpt lat="39.2105502" lon="8.6459311"><ele>329.6666666666667</ele><time>2026-04-25T17:08:56.451Z</time></trkpt><trkpt lat="39.2104754" lon="8.6459677"><ele>330.0</ele><time>2026-04-25T17:08:57.458Z</time></trkpt><trkpt lat="39.2103927" lon="8.646019"><ele>330.3333333333333</ele><time>2026-04-25T17:08:58.451Z</time></trkpt><trkpt lat="39.2103108" lon="8.6460902"><ele>330.66666666666663</ele><time>2026-04-25T17:08:59.459Z</time></trkpt><trkpt lat="39.2102224" lon="8.6461616"><ele>331.0</ele><time>2026-04-25T17:09:00.452Z</time></trkpt><trkpt lat="39.2101337" lon="8.646232"><ele>330.20000000000005</ele><time>2026-04-25T17:09:01.462Z</time></trkpt><trkpt lat="39.2100397" lon="8.6462856"><ele>329.40000000000003</ele><time>2026-04-25T17:09:02.454Z</time></trkpt><trkpt lat="39.2099498" lon="8.6463342"><ele>328.6</ele><time>2026-04-25T17:09:03.452Z</time></trkpt><trkpt lat="39.2098617" lon="8.6463779"><ele>327.8</ele><time>2026-04-25T17:09:04.452Z</time></trkpt><trkpt lat="39.2097669" lon="8.6464256"><ele>327.0</ele><time>2026-04-25T17:09:05.451Z</time></trkpt><trkpt lat="39.209662" lon="8.6464696"><ele>326.0</ele><time>2026-04-25T17:09:06.443Z</time></trkpt><trkpt lat="39.2095474" lon="8.6465216"><ele>325.0</ele><time>2026-04-25T17:09:07.454Z</time></trkpt><trkpt lat="39.2094348" lon="8.6465722"><ele>324.0</ele><time>2026-04-25T17:09:08.456Z</time></trkpt><trkpt lat="39.2092409" lon="8.6466587"><ele>323.0</ele><time>2026-04-25T17:09:10.452Z</time></trkpt><trkpt lat="39.2091721" lon="8.6467157"><ele>323.0</ele><time>2026-04-25T17:09:11.45Z</time></trkpt><trkpt lat="39.2091029" lon="8.6468063"><ele>323.0</ele><time>2026-04-25T17:09:12.466Z</time></trkpt><trkpt lat="39.209037" lon="8.646905"><ele>323.0</ele><time>2026-04-25T17:09:13.457Z</time></trkpt><trkpt lat="39.2089778" lon="8.6470022"><ele>323.0</ele><time>2026-04-25T17:09:14.451Z</time></trkpt><trkpt lat="39.2089227" lon="8.6470969"><ele>323.0</ele><time>2026-04-25T17:09:15.456Z</time></trkpt><trkpt lat="39.2088579" lon="8.6471875"><ele>322.5</ele><time>2026-04-25T17:09:16.466Z</time></trkpt><trkpt lat="39.208789" lon="8.6472546"><ele>322.0</ele><time>2026-04-25T17:09:17.453Z</time></trkpt><trkpt lat="39.2087223" lon="8.6473086"><ele>321.5</ele><time>2026-04-25T17:09:18.45Z</time></trkpt><trkpt lat="39.2086526" lon="8.6473529"><ele>321.0</ele><time>2026-04-25T17:09:19.455Z</time></trkpt><trkpt lat="39.2085682" lon="8.6473807"><ele>320.5</ele><time>2026-04-25T17:09:20.457Z</time></trkpt><trkpt lat="39.2084916" lon="8.6474067"><ele>320.0</ele><time>2026-04-25T17:09:21.457Z</time></trkpt><trkpt lat="39.2084018" lon="8.6474525"><ele>320.0</ele><time>2026-04-25T17:09:22.451Z</time></trkpt><trkpt lat="39.2083022" lon="8.6475193"><ele>320.0</ele><time>2026-04-25T17:09:23.456Z</time></trkpt><trkpt lat="39.2082044" lon="8.647595"><ele>320.0</ele><time>2026-04-25T17:09:24.449Z</time></trkpt><trkpt lat="39.2081116" lon="8.6476874"><ele>320.0</ele><time>2026-04-25T17:09:25.46Z</time></trkpt><trkpt lat="39.2080218" lon="8.6477865"><ele>320.0</ele><time>2026-04-25T17:09:26.458Z</time></trkpt><trkpt lat="39.2079348" lon="8.6478964"><ele>320.0</ele><time>2026-04-25T17:09:27.461Z</time></trkpt><trkpt lat="39.2078511" lon="8.6480127"><ele>320.0</ele><time>2026-04-25T17:09:28.469Z</time></trkpt><trkpt lat="39.207767" lon="8.6481262"><ele>320.0</ele><time>2026-04-25T17:09:29.468Z</time></trkpt><trkpt lat="39.2076082" lon="8.6482935"><ele>320.0</ele><time>2026-04-25T17:09:31.454Z</time></trkpt><trkpt lat="39.2075283" lon="8.648368"><ele>320.0</ele><time>2026-04-25T17:09:32.473Z</time></trkpt><trkpt lat="39.2074419" lon="8.6484365"><ele>320.0</ele><time>2026-04-25T17:09:33.466Z</time></trkpt><trkpt lat="39.2073569" lon="8.6484951"><ele>320.0</ele><time>2026-04-25T17:09:34.47Z</time></trkpt><trkpt lat="39.2072738" lon="8.6485617"><ele>320.0</ele><time>2026-04-25T17:09:35.466Z</time></trkpt><trkpt lat="39.2071864" lon="8.6486361"><ele>320.8</ele><time>2026-04-25T17:09:36.464Z</time></trkpt><trkpt lat="39.2071083" lon="8.6487209"><ele>321.6</ele><time>2026-04-25T17:09:37.465Z</time></trkpt><trkpt lat="39.207047" lon="8.6487938"><ele>322.4</ele><time>2026-04-25T17:09:38.473Z</time></trkpt><trkpt lat="39.2069847" lon="8.6488548"><ele>323.2</ele><time>2026-04-25T17:09:39.473Z</time></trkpt><trkpt lat="39.2069016" lon="8.6489255"><ele>324.0</ele><time>2026-04-25T17:09:40.461Z</time></trkpt><trkpt lat="39.2068074" lon="8.6490059"><ele>324.0</ele><time>2026-04-25T17:09:41.465Z</time></trkpt><trkpt lat="39.2066993" lon="8.6490988"><ele>324.0</ele><time>2026-04-25T17:09:42.467Z</time></trkpt><trkpt lat="39.2065898" lon="8.6491777"><ele>324.0</ele><time>2026-04-25T17:09:43.472Z</time></trkpt><trkpt lat="39.2064848" lon="8.6492563"><ele>324.0</ele><time>2026-04-25T17:09:44.458Z</time></trkpt><trkpt lat="39.2063756" lon="8.6493511"><ele>324.4</ele><time>2026-04-25T17:09:45.462Z</time></trkpt><trkpt lat="39.2062717" lon="8.6494399"><ele>324.79999999999995</ele><time>2026-04-25T17:09:46.458Z</time></trkpt><trkpt lat="39.2061858" lon="8.6495251"><ele>325.20000000000005</ele><time>2026-04-25T17:09:47.463Z</time></trkpt><trkpt lat="39.2061113" lon="8.6496155"><ele>325.6</ele><time>2026-04-25T17:09:48.472Z</time></trkpt><trkpt lat="39.2060332" lon="8.6497037"><ele>326.0</ele><time>2026-04-25T17:09:49.468Z</time></trkpt><trkpt lat="39.2059564" lon="8.649794"><ele>326.0</ele><time>2026-04-25T17:09:50.456Z</time></trkpt><trkpt lat="39.2058113" lon="8.6499287"><ele>326.0</ele><time>2026-04-25T17:09:52.467Z</time></trkpt><trkpt lat="39.205744" lon="8.6499923"><ele>326.0</ele><time>2026-04-25T17:09:53.466Z</time></trkpt><trkpt lat="39.2056698" lon="8.6500679"><ele>326.0</ele><time>2026-04-25T17:09:54.46Z</time></trkpt><trkpt lat="39.2055945" lon="8.650159"><ele>328.0</ele><time>2026-04-25T17:09:55.467Z</time></trkpt><trkpt lat="39.205519" lon="8.6502438"><ele>330.0</ele><time>2026-04-25T17:09:56.458Z</time></trkpt><trkpt lat="39.2054425" lon="8.6503216"><ele>332.0</ele><time>2026-04-25T17:09:57.47Z</time></trkpt><trkpt lat="39.2053607" lon="8.6503842"><ele>334.0</ele><time>2026-04-25T17:09:58.461Z</time></trkpt><trkpt lat="39.2052695" lon="8.6504512"><ele>336.0</ele><time>2026-04-25T17:09:59.471Z</time></trkpt><trkpt lat="39.2051766" lon="8.6505204"><ele>336.0</ele><time>2026-04-25T17:10:00.462Z</time></trkpt><trkpt lat="39.2050857" lon="8.6505754"><ele>336.0</ele><time>2026-04-25T17:10:01.463Z</time></trkpt><trkpt lat="39.2049911" lon="8.650632"><ele>336.0</ele><time>2026-04-25T17:10:02.461Z</time></trkpt><trkpt lat="39.2048974" lon="8.6506836"><ele>336.0</ele><time>2026-04-25T17:10:03.456Z</time></trkpt><trkpt lat="39.204791" lon="8.6507457"><ele>336.0</ele><time>2026-04-25T17:10:04.453Z</time></trkpt><trkpt lat="39.2046767" lon="8.6508107"><ele>337.8</ele><time>2026-04-25T17:10:05.457Z</time></trkpt><trkpt lat="39.2045505" lon="8.650871"><ele>339.6</ele><time>2026-04-25T17:10:06.469Z</time></trkpt><trkpt lat="39.2044465" lon="8.6509255"><ele>341.4</ele><time>2026-04-25T17:10:07.459Z</time></trkpt><trkpt lat="39.2043559" lon="8.6509695"><ele>343.2</ele><time>2026-04-25T17:10:08.451Z</time></trkpt><trkpt lat="39.2042629" lon="8.6509946"><ele>345.0</ele><time>2026-04-25T17:10:09.469Z</time></trkpt><trkpt lat="39.2041612" lon="8.6510272"><ele>345.0</ele><time>2026-04-25T17:10:10.464Z</time></trkpt><trkpt lat="39.204063" lon="8.6510556"><ele>345.0</ele><time>2026-04-25T17:10:11.46Z</time></trkpt><trkpt lat="39.2038466" lon="8.6510963"><ele>345.0</ele><time>2026-04-25T17:10:13.463Z</time></trkpt><trkpt lat="39.2037304" lon="8.6511074"><ele>345.0</ele><time>2026-04-25T17:10:14.459Z</time></trkpt><trkpt lat="39.203613" lon="8.6511001"><ele>345.0</ele><time>2026-04-25T17:10:15.469Z</time></trkpt><trkpt lat="39.2034915" lon="8.6510877"><ele>345.0</ele><time>2026-04-25T17:10:16.467Z</time></trkpt><trkpt lat="39.2033812" lon="8.6510803"><ele>345.0</ele><time>2026-04-25T17:10:17.465Z</time></trkpt><trkpt lat="39.2032743" lon="8.6511077"><ele>345.0</ele><time>2026-04-25T17:10:18.464Z</time></trkpt><trkpt lat="39.2031876" lon="8.6511674"><ele>345.0</ele><time>2026-04-25T17:10:19.467Z</time></trkpt><trkpt lat="39.2031024" lon="8.651227"><ele>345.6</ele><time>2026-04-25T17:10:20.463Z</time></trkpt><trkpt lat="39.2029976" lon="8.65129"><ele>346.2</ele><time>2026-04-25T17:10:21.463Z</time></trkpt><trkpt lat="39.2029065" lon="8.6513577"><ele>346.79999999999995</ele><time>2026-04-25T17:10:22.46Z</time></trkpt><trkpt lat="39.2028285" lon="8.6514224"><ele>347.4</ele><time>2026-04-25T17:10:23.461Z</time></trkpt><trkpt lat="39.2027433" lon="8.6514659"><ele>348.0</ele><time>2026-04-25T17:10:24.461Z</time></trkpt><trkpt lat="39.2026669" lon="8.6515398"><ele>348.0</ele><time>2026-04-25T17:10:25.459Z</time></trkpt><trkpt lat="39.2025898" lon="8.6516088"><ele>348.0</ele><time>2026-04-25T17:10:26.462Z</time></trkpt><trkpt lat="39.2025113" lon="8.6516725"><ele>348.0</ele><time>2026-04-25T17:10:27.457Z</time></trkpt><trkpt lat="39.2024224" lon="8.651727"><ele>348.0</ele><time>2026-04-25T17:10:28.459Z</time></trkpt><trkpt lat="39.2023361" lon="8.6517753"><ele>348.0</ele><time>2026-04-25T17:10:29.46Z</time></trkpt><trkpt lat="39.2022478" lon="8.6518184"><ele>348.0</ele><time>2026-04-25T17:10:30.458Z</time></trkpt><trkpt lat="39.2021672" lon="8.6518484"><ele>348.0</ele><time>2026-04-25T17:10:31.469Z</time></trkpt><trkpt lat="39.2020735" lon="8.6518811"><ele>348.0</ele><time>2026-04-25T17:10:32.467Z</time></trkpt><trkpt lat="39.2018935" lon="8.6519352"><ele>348.0</ele><time>2026-04-25T17:10:34.464Z</time></trkpt><trkpt lat="39.2017951" lon="8.6519478"><ele>348.0</ele><time>2026-04-25T17:10:35.461Z</time></trkpt><trkpt lat="39.2016862" lon="8.651953"><ele>348.0</ele><time>2026-04-25T17:10:36.46Z</time></trkpt><trkpt lat="39.2015767" lon="8.6519666"><ele>348.0</ele><time>2026-04-25T17:10:37.474Z</time></trkpt><trkpt lat="39.2014732" lon="8.6519816"><ele>348.0</ele><time>2026-04-25T17:10:38.468Z</time></trkpt><trkpt lat="39.2013742" lon="8.6519992"><ele>348.0</ele><time>2026-04-25T17:10:39.464Z</time></trkpt><trkpt lat="39.2012724" lon="8.6520093"><ele>350.0</ele><time>2026-04-25T17:10:40.465Z</time></trkpt><trkpt lat="39.20117" lon="8.6520148"><ele>352.0</ele><time>2026-04-25T17:10:41.465Z</time></trkpt><trkpt lat="39.2010711" lon="8.6520222"><ele>354.0</ele><time>2026-04-25T17:10:42.461Z</time></trkpt><trkpt lat="39.2009712" lon="8.6520496"><ele>356.0</ele><time>2026-04-25T17:10:43.474Z</time></trkpt><trkpt lat="39.2008755" lon="8.6520785"><ele>358.0</ele><time>2026-04-25T17:10:44.459Z</time></trkpt><trkpt lat="39.2007788" lon="8.6521204"><ele>358.0</ele><time>2026-04-25T17:10:45.462Z</time></trkpt><trkpt lat="39.2006832" lon="8.6521637"><ele>358.0</ele><time>2026-04-25T17:10:46.461Z</time></trkpt><trkpt lat="39.2005899" lon="8.6522048"><ele>358.0</ele><time>2026-04-25T17:10:47.467Z</time></trkpt><trkpt lat="39.2004984" lon="8.6522462"><ele>358.0</ele><time>2026-04-25T17:10:48.466Z</time></trkpt><trkpt lat="39.2004183" lon="8.6522887"><ele>358.0</ele><time>2026-04-25T17:10:49.462Z</time></trkpt><trkpt lat="39.2003602" lon="8.6523231"><ele>358.0</ele><time>2026-04-25T17:10:50.46Z</time></trkpt><trkpt lat="39.2002957" lon="8.652445"><ele>358.0</ele><time>2026-04-25T17:10:52.46Z</time></trkpt><trkpt lat="39.2002642" lon="8.6525464"><ele>358.0</ele><time>2026-04-25T17:10:53.457Z</time></trkpt><trkpt lat="39.2001475" lon="8.6527585"><ele>358.0</ele><time>2026-04-25T17:10:55.454Z</time></trkpt><trkpt lat="39.2000837" lon="8.6528526"><ele>358.0</ele><time>2026-04-25T17:10:56.474Z</time></trkpt><trkpt lat="39.2000249" lon="8.652924"><ele>358.0</ele><time>2026-04-25T17:10:57.458Z</time></trkpt><trkpt lat="39.1999717" lon="8.6529897"><ele>358.0</ele><time>2026-04-25T17:10:58.461Z</time></trkpt><trkpt lat="39.199931" lon="8.6530637"><ele>358.0</ele><time>2026-04-25T17:10:59.464Z</time></trkpt><trkpt lat="39.1998862" lon="8.6531399"><ele>358.0</ele><time>2026-04-25T17:11:00.468Z</time></trkpt><trkpt lat="39.1998243" lon="8.6532053"><ele>358.0</ele><time>2026-04-25T17:11:01.465Z</time></trkpt><trkpt lat="39.1997399" lon="8.653265"><ele>358.0</ele><time>2026-04-25T17:11:02.452Z</time></trkpt><trkpt lat="39.1996421" lon="8.6533198"><ele>356.75</ele><time>2026-04-25T17:11:03.459Z</time></trkpt><trkpt lat="39.1995213" lon="8.6533676"><ele>355.5</ele><time>2026-04-25T17:11:04.466Z</time></trkpt><trkpt lat="39.1993977" lon="8.6534151"><ele>354.25</ele><time>2026-04-25T17:11:05.465Z</time></trkpt><trkpt lat="39.1992658" lon="8.6534695"><ele>353.0</ele><time>2026-04-25T17:11:06.458Z</time></trkpt><trkpt lat="39.1991362" lon="8.6535293"><ele>353.0</ele><time>2026-04-25T17:11:07.462Z</time></trkpt><trkpt lat="39.1990055" lon="8.6535858"><ele>353.0</ele><time>2026-04-25T17:11:08.463Z</time></trkpt><trkpt lat="39.1988845" lon="8.6536375"><ele>353.0</ele><time>2026-04-25T17:11:09.46Z</time></trkpt><trkpt lat="39.1987679" lon="8.6536779"><ele>353.0</ele><time>2026-04-25T17:11:10.461Z</time></trkpt><trkpt lat="39.1986582" lon="8.6537185"><ele>361.0</ele><time>2026-04-25T17:11:11.461Z</time></trkpt><trkpt lat="39.1985567" lon="8.6537663"><ele>361.0</ele><time>2026-04-25T17:11:12.466Z</time></trkpt><trkpt lat="39.1984602" lon="8.6538121"><ele>361.0</ele><time>2026-04-25T17:11:13.461Z</time></trkpt><trkpt lat="39.1983754" lon="8.6538519"><ele>361.0</ele><time>2026-04-25T17:11:14.453Z</time></trkpt></trkseg></trk></gpx>